<?xml version="1.0" encoding="UTF-8" standalone="no" ?>
<gpx xmlns="http://www.topografix.com/GPX/1/1" xmlns:xsi="http://www.w3.org/2001/XMLSchema-instance" xsi:schemaLocation="http://www.topografix.com/GPX/1/1 http://www.topografix.com/GPX/1/1/gpx.xsd" version="1.1" creator="VisuGPX - https://www.visugpx.com">
  <metadata>
    <name>Pornichet 17/04/2022</name>
    <desc><![CDATA[Sortie dimanche 17 avril 2022]]></desc>
  </metadata>
  <trk>
    <name><![CDATA[Pornichet Cyclisme]]></name>
    <trkseg>
      <trkpt lat="47.26369" lon="-2.31584">
        <ele>8.3</ele>
        <time>2022-04-17T06:57:41.000Z</time>
      </trkpt>
      <trkpt lat="47.26373" lon="-2.31603">
        <ele>8.4</ele>
        <time>2022-04-17T06:57:44.000Z</time>
      </trkpt>
      <trkpt lat="47.26373" lon="-2.31609">
        <ele>-0.20000000298023</ele>
        <time>2022-04-17T06:57:45.000Z</time>
      </trkpt>
      <trkpt lat="47.26374" lon="-2.31616">
        <ele>-0.20000000298023</ele>
        <time>2022-04-17T06:57:46.000Z</time>
      </trkpt>
      <trkpt lat="47.26378" lon="-2.3167">
        <ele>-0.20000000298023</ele>
        <time>2022-04-17T06:57:54.000Z</time>
      </trkpt>
      <trkpt lat="47.26378" lon="-2.31685">
        <ele>-0.20000000298023</ele>
        <time>2022-04-17T06:57:57.000Z</time>
      </trkpt>
      <trkpt lat="47.26376" lon="-2.31689">
        <ele>-0.20000000298023</ele>
        <time>2022-04-17T06:57:58.000Z</time>
      </trkpt>
      <trkpt lat="47.26363" lon="-2.31696">
        <ele>-0.20000000298023</ele>
        <time>2022-04-17T06:58:02.000Z</time>
      </trkpt>
      <trkpt lat="47.26339" lon="-2.31711">
        <ele>-0.60000002384186</ele>
        <time>2022-04-17T06:58:08.000Z</time>
      </trkpt>
      <trkpt lat="47.26335" lon="-2.31714">
        <ele>-1</ele>
        <time>2022-04-17T06:58:09.000Z</time>
      </trkpt>
      <trkpt lat="47.26331" lon="-2.31717">
        <ele>-1.3999999761581</ele>
        <time>2022-04-17T06:58:10.000Z</time>
      </trkpt>
      <trkpt lat="47.26327" lon="-2.3172">
        <ele>-1.7999999523163</ele>
        <time>2022-04-17T06:58:11.000Z</time>
      </trkpt>
      <trkpt lat="47.26322" lon="-2.31723">
        <ele>-2.2000000476837</ele>
        <time>2022-04-17T06:58:12.000Z</time>
      </trkpt>
      <trkpt lat="47.26313" lon="-2.31728">
        <ele>-2.2000000476837</ele>
        <time>2022-04-17T06:58:14.000Z</time>
      </trkpt>
      <trkpt lat="47.26283" lon="-2.31744">
        <ele>-2.5999999046326</ele>
        <time>2022-04-17T06:58:20.000Z</time>
      </trkpt>
      <trkpt lat="47.26279" lon="-2.31748">
        <ele>-3.2000000476837</ele>
        <time>2022-04-17T06:58:21.000Z</time>
      </trkpt>
      <trkpt lat="47.26278" lon="-2.31754">
        <ele>-3.5999999046326</ele>
        <time>2022-04-17T06:58:22.000Z</time>
      </trkpt>
      <trkpt lat="47.26278" lon="-2.31759">
        <ele>-4</ele>
        <time>2022-04-17T06:58:23.000Z</time>
      </trkpt>
      <trkpt lat="47.26278" lon="-2.31765">
        <ele>-4.4000000953674</ele>
        <time>2022-04-17T06:58:24.000Z</time>
      </trkpt>
      <trkpt lat="47.2628" lon="-2.31777">
        <ele>-4.4000000953674</ele>
        <time>2022-04-17T06:58:26.000Z</time>
      </trkpt>
      <trkpt lat="47.26281" lon="-2.31783">
        <ele>-4.4000000953674</ele>
        <time>2022-04-17T06:58:27.000Z</time>
      </trkpt>
      <trkpt lat="47.26281" lon="-2.3179">
        <ele>-4.4000000953674</ele>
        <time>2022-04-17T06:58:28.000Z</time>
      </trkpt>
      <trkpt lat="47.26282" lon="-2.31827">
        <ele>-4.4000000953674</ele>
        <time>2022-04-17T06:58:33.000Z</time>
      </trkpt>
      <trkpt lat="47.26281" lon="-2.31835">
        <ele>-4.4000000953674</ele>
        <time>2022-04-17T06:58:34.000Z</time>
      </trkpt>
      <trkpt lat="47.26279" lon="-2.31855">
        <ele>-4.4000000953674</ele>
        <time>2022-04-17T06:58:37.000Z</time>
      </trkpt>
      <trkpt lat="47.26278" lon="-2.31868">
        <ele>-4.4000000953674</ele>
        <time>2022-04-17T06:58:39.000Z</time>
      </trkpt>
      <trkpt lat="47.26272" lon="-2.31909">
        <ele>-4.4000000953674</ele>
        <time>2022-04-17T06:58:46.000Z</time>
      </trkpt>
      <trkpt lat="47.26257" lon="-2.31922">
        <ele>-4.4000000953674</ele>
        <time>2022-04-17T06:58:50.000Z</time>
      </trkpt>
      <trkpt lat="47.26247" lon="-2.31933">
        <ele>-4.4000000953674</ele>
        <time>2022-04-17T06:58:53.000Z</time>
      </trkpt>
      <trkpt lat="47.26237" lon="-2.31949">
        <ele>-4.4000000953674</ele>
        <time>2022-04-17T06:58:56.000Z</time>
      </trkpt>
      <trkpt lat="47.26222" lon="-2.31977">
        <ele>-4.4000000953674</ele>
        <time>2022-04-17T06:59:02.000Z</time>
      </trkpt>
      <trkpt lat="47.26217" lon="-2.31985">
        <ele>-4.4000000953674</ele>
        <time>2022-04-17T06:59:04.000Z</time>
      </trkpt>
      <trkpt lat="47.26214" lon="-2.31987">
        <ele>-4.8000001907349</ele>
        <time>2022-04-17T06:59:05.000Z</time>
      </trkpt>
      <trkpt lat="47.26211" lon="-2.31988">
        <ele>-5.1999998092651</ele>
        <time>2022-04-17T06:59:06.000Z</time>
      </trkpt>
      <trkpt lat="47.26209" lon="-2.31989">
        <ele>-5.5999999046326</ele>
        <time>2022-04-17T06:59:07.000Z</time>
      </trkpt>
      <trkpt lat="47.26207" lon="-2.31991">
        <ele>-6</ele>
        <time>2022-04-17T06:59:08.000Z</time>
      </trkpt>
      <trkpt lat="47.26205" lon="-2.31994">
        <ele>-6.4000000953674</ele>
        <time>2022-04-17T06:59:09.000Z</time>
      </trkpt>
      <trkpt lat="47.26203" lon="-2.31997">
        <ele>-6.4000000953674</ele>
        <time>2022-04-17T06:59:10.000Z</time>
      </trkpt>
      <trkpt lat="47.26189" lon="-2.32012">
        <ele>-6.4000000953674</ele>
        <time>2022-04-17T06:59:15.000Z</time>
      </trkpt>
      <trkpt lat="47.26184" lon="-2.32018">
        <ele>-6.4000000953674</ele>
        <time>2022-04-17T06:59:17.000Z</time>
      </trkpt>
      <trkpt lat="47.26182" lon="-2.32025">
        <ele>-6.4000000953674</ele>
        <time>2022-04-17T06:59:19.000Z</time>
      </trkpt>
      <trkpt lat="47.26175" lon="-2.32036">
        <ele>-6.4000000953674</ele>
        <time>2022-04-17T06:59:24.000Z</time>
      </trkpt>
      <trkpt lat="47.26171" lon="-2.32035">
        <ele>-6.4000000953674</ele>
        <time>2022-04-17T06:59:26.000Z</time>
      </trkpt>
      <trkpt lat="47.26162" lon="-2.32036">
        <ele>-6.4000000953674</ele>
        <time>2022-04-17T06:59:29.000Z</time>
      </trkpt>
      <trkpt lat="47.26151" lon="-2.32041">
        <ele>-6.4000000953674</ele>
        <time>2022-04-17T06:59:32.000Z</time>
      </trkpt>
      <trkpt lat="47.26143" lon="-2.32047">
        <ele>-6.4000000953674</ele>
        <time>2022-04-17T06:59:34.000Z</time>
      </trkpt>
      <trkpt lat="47.26134" lon="-2.32069">
        <ele>-6.4000000953674</ele>
        <time>2022-04-17T06:59:38.000Z</time>
      </trkpt>
      <trkpt lat="47.2612" lon="-2.32106">
        <ele>-6.4000000953674</ele>
        <time>2022-04-17T06:59:44.000Z</time>
      </trkpt>
      <trkpt lat="47.26109" lon="-2.32143">
        <ele>-6.4000000953674</ele>
        <time>2022-04-17T06:59:50.000Z</time>
      </trkpt>
      <trkpt lat="47.26098" lon="-2.32171">
        <ele>-6.4000000953674</ele>
        <time>2022-04-17T06:59:54.000Z</time>
      </trkpt>
      <trkpt lat="47.26093" lon="-2.32185">
        <ele>-6.4000000953674</ele>
        <time>2022-04-17T06:59:56.000Z</time>
      </trkpt>
      <trkpt lat="47.26076" lon="-2.32225">
        <ele>-6.4000000953674</ele>
        <time>2022-04-17T07:00:02.000Z</time>
      </trkpt>
      <trkpt lat="47.26049" lon="-2.32263">
        <ele>-6.4000000953674</ele>
        <time>2022-04-17T07:00:09.000Z</time>
      </trkpt>
      <trkpt lat="47.26033" lon="-2.32281">
        <ele>-6.4000000953674</ele>
        <time>2022-04-17T07:00:13.000Z</time>
      </trkpt>
      <trkpt lat="47.2602" lon="-2.32296">
        <ele>-6.4000000953674</ele>
        <time>2022-04-17T07:00:16.000Z</time>
      </trkpt>
      <trkpt lat="47.25983" lon="-2.32341">
        <ele>-6.4000000953674</ele>
        <time>2022-04-17T07:00:25.000Z</time>
      </trkpt>
      <trkpt lat="47.25975" lon="-2.32358">
        <ele>-6.4000000953674</ele>
        <time>2022-04-17T07:00:28.000Z</time>
      </trkpt>
      <trkpt lat="47.25958" lon="-2.32385">
        <ele>-6.4000000953674</ele>
        <time>2022-04-17T07:00:33.000Z</time>
      </trkpt>
      <trkpt lat="47.2593" lon="-2.32421">
        <ele>-6.4000000953674</ele>
        <time>2022-04-17T07:00:41.000Z</time>
      </trkpt>
      <trkpt lat="47.25905" lon="-2.32455">
        <ele>-6.4000000953674</ele>
        <time>2022-04-17T07:00:48.000Z</time>
      </trkpt>
      <trkpt lat="47.2588" lon="-2.32485">
        <ele>-6.4000000953674</ele>
        <time>2022-04-17T07:00:55.000Z</time>
      </trkpt>
      <trkpt lat="47.25866" lon="-2.32491">
        <ele>-6.4000000953674</ele>
        <time>2022-04-17T07:00:58.000Z</time>
      </trkpt>
      <trkpt lat="47.25856" lon="-2.32493">
        <ele>-6.4000000953674</ele>
        <time>2022-04-17T07:01:00.000Z</time>
      </trkpt>
      <trkpt lat="47.25845" lon="-2.32494">
        <ele>-6.4000000953674</ele>
        <time>2022-04-17T07:01:02.000Z</time>
      </trkpt>
      <trkpt lat="47.2583" lon="-2.32491">
        <ele>-6.4000000953674</ele>
        <time>2022-04-17T07:01:05.000Z</time>
      </trkpt>
      <trkpt lat="47.25825" lon="-2.32489">
        <ele>-6.4000000953674</ele>
        <time>2022-04-17T07:01:06.000Z</time>
      </trkpt>
      <trkpt lat="47.25795" lon="-2.32474">
        <ele>-6.4000000953674</ele>
        <time>2022-04-17T07:01:12.000Z</time>
      </trkpt>
      <trkpt lat="47.25778" lon="-2.32476">
        <ele>-6.4000000953674</ele>
        <time>2022-04-17T07:01:16.000Z</time>
      </trkpt>
      <trkpt lat="47.2577" lon="-2.32468">
        <ele>-6</ele>
        <time>2022-04-17T07:01:18.000Z</time>
      </trkpt>
      <trkpt lat="47.25767" lon="-2.32463">
        <ele>-5.5999999046326</ele>
        <time>2022-04-17T07:01:19.000Z</time>
      </trkpt>
      <trkpt lat="47.25764" lon="-2.32457">
        <ele>-5.1999998092651</ele>
        <time>2022-04-17T07:01:20.000Z</time>
      </trkpt>
      <trkpt lat="47.25761" lon="-2.32451">
        <ele>-4.8000001907349</ele>
        <time>2022-04-17T07:01:21.000Z</time>
      </trkpt>
      <trkpt lat="47.25757" lon="-2.32446">
        <ele>-4.4000000953674</ele>
        <time>2022-04-17T07:01:22.000Z</time>
      </trkpt>
      <trkpt lat="47.25753" lon="-2.32444">
        <ele>-4.4000000953674</ele>
        <time>2022-04-17T07:01:23.000Z</time>
      </trkpt>
      <trkpt lat="47.25741" lon="-2.32443">
        <ele>-4.4000000953674</ele>
        <time>2022-04-17T07:01:25.000Z</time>
      </trkpt>
      <trkpt lat="47.2573" lon="-2.32443">
        <ele>-4.4000000953674</ele>
        <time>2022-04-17T07:01:27.000Z</time>
      </trkpt>
      <trkpt lat="47.2569" lon="-2.32438">
        <ele>-4.4000000953674</ele>
        <time>2022-04-17T07:01:34.000Z</time>
      </trkpt>
      <trkpt lat="47.25659" lon="-2.32436">
        <ele>-4.4000000953674</ele>
        <time>2022-04-17T07:01:40.000Z</time>
      </trkpt>
      <trkpt lat="47.25654" lon="-2.32452">
        <ele>-4.4000000953674</ele>
        <time>2022-04-17T07:01:43.000Z</time>
      </trkpt>
      <trkpt lat="47.25657" lon="-2.32464">
        <ele>-4.4000000953674</ele>
        <time>2022-04-17T07:01:45.000Z</time>
      </trkpt>
      <trkpt lat="47.25659" lon="-2.3247">
        <ele>-4.4000000953674</ele>
        <time>2022-04-17T07:01:46.000Z</time>
      </trkpt>
      <trkpt lat="47.25663" lon="-2.32482">
        <ele>-4.4000000953674</ele>
        <time>2022-04-17T07:01:48.000Z</time>
      </trkpt>
      <trkpt lat="47.25679" lon="-2.32527">
        <ele>-4</ele>
        <time>2022-04-17T07:01:56.000Z</time>
      </trkpt>
      <trkpt lat="47.25681" lon="-2.32532">
        <ele>-3.5999999046326</ele>
        <time>2022-04-17T07:01:57.000Z</time>
      </trkpt>
      <trkpt lat="47.25683" lon="-2.32537">
        <ele>-3</ele>
        <time>2022-04-17T07:01:58.000Z</time>
      </trkpt>
      <trkpt lat="47.25684" lon="-2.32543">
        <ele>-2.5999999046326</ele>
        <time>2022-04-17T07:01:59.000Z</time>
      </trkpt>
      <trkpt lat="47.25686" lon="-2.32548">
        <ele>-2.2000000476837</ele>
        <time>2022-04-17T07:02:00.000Z</time>
      </trkpt>
      <trkpt lat="47.25692" lon="-2.32564">
        <ele>-2.2000000476837</ele>
        <time>2022-04-17T07:02:03.000Z</time>
      </trkpt>
      <trkpt lat="47.25704" lon="-2.32604">
        <ele>-2.2000000476837</ele>
        <time>2022-04-17T07:02:10.000Z</time>
      </trkpt>
      <trkpt lat="47.25704" lon="-2.3261">
        <ele>-1.7999999523163</ele>
        <time>2022-04-17T07:02:11.000Z</time>
      </trkpt>
      <trkpt lat="47.25704" lon="-2.32616">
        <ele>-1.3999999761581</ele>
        <time>2022-04-17T07:02:12.000Z</time>
      </trkpt>
      <trkpt lat="47.25702" lon="-2.32622">
        <ele>-1</ele>
        <time>2022-04-17T07:02:13.000Z</time>
      </trkpt>
      <trkpt lat="47.257" lon="-2.32627">
        <ele>-0.60000002384186</ele>
        <time>2022-04-17T07:02:14.000Z</time>
      </trkpt>
      <trkpt lat="47.25696" lon="-2.3263">
        <ele>-0.20000000298023</ele>
        <time>2022-04-17T07:02:15.000Z</time>
      </trkpt>
      <trkpt lat="47.25683" lon="-2.32636">
        <ele>-0.20000000298023</ele>
        <time>2022-04-17T07:02:18.000Z</time>
      </trkpt>
      <trkpt lat="47.25676" lon="-2.3264">
        <ele>-0.20000000298023</ele>
        <time>2022-04-17T07:02:20.000Z</time>
      </trkpt>
      <trkpt lat="47.25649" lon="-2.32655">
        <ele>-0.20000000298023</ele>
        <time>2022-04-17T07:02:27.000Z</time>
      </trkpt>
      <trkpt lat="47.25645" lon="-2.32657">
        <ele>0.20000000298023</ele>
        <time>2022-04-17T07:02:28.000Z</time>
      </trkpt>
      <trkpt lat="47.2564" lon="-2.32658">
        <ele>0.60000002384186</ele>
        <time>2022-04-17T07:02:29.000Z</time>
      </trkpt>
      <trkpt lat="47.25636" lon="-2.3266">
        <ele>1.2000000476837</ele>
        <time>2022-04-17T07:02:30.000Z</time>
      </trkpt>
      <trkpt lat="47.25632" lon="-2.32663">
        <ele>1.6000000238419</ele>
        <time>2022-04-17T07:02:31.000Z</time>
      </trkpt>
      <trkpt lat="47.25628" lon="-2.32664">
        <ele>2</ele>
        <time>2022-04-17T07:02:32.000Z</time>
      </trkpt>
      <trkpt lat="47.25623" lon="-2.32665">
        <ele>2</ele>
        <time>2022-04-17T07:02:33.000Z</time>
      </trkpt>
      <trkpt lat="47.2559" lon="-2.3268">
        <ele>2</ele>
        <time>2022-04-17T07:02:41.000Z</time>
      </trkpt>
      <trkpt lat="47.25557" lon="-2.32692">
        <ele>2</ele>
        <time>2022-04-17T07:02:48.000Z</time>
      </trkpt>
      <trkpt lat="47.25523" lon="-2.32704">
        <ele>2</ele>
        <time>2022-04-17T07:02:55.000Z</time>
      </trkpt>
      <trkpt lat="47.25517" lon="-2.32705">
        <ele>2</ele>
        <time>2022-04-17T07:02:56.000Z</time>
      </trkpt>
      <trkpt lat="47.25487" lon="-2.32708">
        <ele>2</ele>
        <time>2022-04-17T07:03:02.000Z</time>
      </trkpt>
      <trkpt lat="47.25482" lon="-2.3271">
        <ele>2</ele>
        <time>2022-04-17T07:03:03.000Z</time>
      </trkpt>
      <trkpt lat="47.25469" lon="-2.3272">
        <ele>2</ele>
        <time>2022-04-17T07:03:06.000Z</time>
      </trkpt>
      <trkpt lat="47.25465" lon="-2.32725">
        <ele>2</ele>
        <time>2022-04-17T07:03:07.000Z</time>
      </trkpt>
      <trkpt lat="47.25441" lon="-2.32756">
        <ele>2</ele>
        <time>2022-04-17T07:03:13.000Z</time>
      </trkpt>
      <trkpt lat="47.25431" lon="-2.32773">
        <ele>2</ele>
        <time>2022-04-17T07:03:16.000Z</time>
      </trkpt>
      <trkpt lat="47.25428" lon="-2.32785">
        <ele>2</ele>
        <time>2022-04-17T07:03:18.000Z</time>
      </trkpt>
      <trkpt lat="47.25418" lon="-2.328">
        <ele>2</ele>
        <time>2022-04-17T07:03:21.000Z</time>
      </trkpt>
      <trkpt lat="47.25414" lon="-2.32805">
        <ele>2</ele>
        <time>2022-04-17T07:03:22.000Z</time>
      </trkpt>
      <trkpt lat="47.25384" lon="-2.32844">
        <ele>2</ele>
        <time>2022-04-17T07:03:29.000Z</time>
      </trkpt>
      <trkpt lat="47.25366" lon="-2.32867">
        <ele>2</ele>
        <time>2022-04-17T07:03:33.000Z</time>
      </trkpt>
      <trkpt lat="47.25361" lon="-2.32872">
        <ele>2</ele>
        <time>2022-04-17T07:03:34.000Z</time>
      </trkpt>
      <trkpt lat="47.25338" lon="-2.32895">
        <ele>2</ele>
        <time>2022-04-17T07:03:39.000Z</time>
      </trkpt>
      <trkpt lat="47.25329" lon="-2.32905">
        <ele>2</ele>
        <time>2022-04-17T07:03:41.000Z</time>
      </trkpt>
      <trkpt lat="47.25308" lon="-2.32927">
        <ele>2</ele>
        <time>2022-04-17T07:03:46.000Z</time>
      </trkpt>
      <trkpt lat="47.25304" lon="-2.32933">
        <ele>2</ele>
        <time>2022-04-17T07:03:47.000Z</time>
      </trkpt>
      <trkpt lat="47.25304" lon="-2.32952">
        <ele>2</ele>
        <time>2022-04-17T07:03:50.000Z</time>
      </trkpt>
      <trkpt lat="47.25309" lon="-2.32965">
        <ele>2</ele>
        <time>2022-04-17T07:03:52.000Z</time>
      </trkpt>
      <trkpt lat="47.25319" lon="-2.32991">
        <ele>2</ele>
        <time>2022-04-17T07:03:56.000Z</time>
      </trkpt>
      <trkpt lat="47.25341" lon="-2.33045">
        <ele>2</ele>
        <time>2022-04-17T07:04:04.000Z</time>
      </trkpt>
      <trkpt lat="47.25347" lon="-2.33067">
        <ele>1.6000000238419</ele>
        <time>2022-04-17T07:04:07.000Z</time>
      </trkpt>
      <trkpt lat="47.25349" lon="-2.33073">
        <ele>1.2000000476837</ele>
        <time>2022-04-17T07:04:08.000Z</time>
      </trkpt>
      <trkpt lat="47.25352" lon="-2.3308">
        <ele>0.80000001192093</ele>
        <time>2022-04-17T07:04:09.000Z</time>
      </trkpt>
      <trkpt lat="47.25355" lon="-2.33086">
        <ele>8</ele>
        <time>2022-04-17T07:04:10.000Z</time>
      </trkpt>
      <trkpt lat="47.25359" lon="-2.33095">
        <ele>8</ele>
        <time>2022-04-17T07:04:13.000Z</time>
      </trkpt>
      <trkpt lat="47.2536" lon="-2.33096">
        <ele>8</ele>
        <time>2022-04-17T07:04:16.000Z</time>
      </trkpt>
      <trkpt lat="47.25366" lon="-2.33094">
        <ele>8</ele>
        <time>2022-04-17T07:09:42.000Z</time>
      </trkpt>
      <trkpt lat="47.25367" lon="-2.33095">
        <ele>8</ele>
        <time>2022-04-17T07:09:43.000Z</time>
      </trkpt>
      <trkpt lat="47.25375" lon="-2.33113">
        <ele>8</ele>
        <time>2022-04-17T07:09:51.000Z</time>
      </trkpt>
      <trkpt lat="47.25388" lon="-2.33135">
        <ele>8</ele>
        <time>2022-04-17T07:09:58.000Z</time>
      </trkpt>
      <trkpt lat="47.25398" lon="-2.33129">
        <ele>8</ele>
        <time>2022-04-17T07:10:02.000Z</time>
      </trkpt>
      <trkpt lat="47.25421" lon="-2.33119">
        <ele>7.8</ele>
        <time>2022-04-17T07:10:08.000Z</time>
      </trkpt>
      <trkpt lat="47.25456" lon="-2.33104">
        <ele>7</ele>
        <time>2022-04-17T07:10:16.000Z</time>
      </trkpt>
      <trkpt lat="47.25484" lon="-2.33088">
        <ele>7.1</ele>
        <time>2022-04-17T07:10:23.000Z</time>
      </trkpt>
      <trkpt lat="47.25487" lon="-2.33085">
        <ele>7</ele>
        <time>2022-04-17T07:10:24.000Z</time>
      </trkpt>
      <trkpt lat="47.255" lon="-2.33069">
        <ele>7.5</ele>
        <time>2022-04-17T07:10:28.000Z</time>
      </trkpt>
      <trkpt lat="47.25523" lon="-2.33045">
        <ele>8</ele>
        <time>2022-04-17T07:10:35.000Z</time>
      </trkpt>
      <trkpt lat="47.25547" lon="-2.33038">
        <ele>8.7</ele>
        <time>2022-04-17T07:10:41.000Z</time>
      </trkpt>
      <trkpt lat="47.25567" lon="-2.33033">
        <ele>9.4</ele>
        <time>2022-04-17T07:10:47.000Z</time>
      </trkpt>
      <trkpt lat="47.25583" lon="-2.3303">
        <ele>0.40000000596046</ele>
        <time>2022-04-17T07:10:52.000Z</time>
      </trkpt>
      <trkpt lat="47.25586" lon="-2.33029">
        <ele>0.80000001192093</ele>
        <time>2022-04-17T07:10:53.000Z</time>
      </trkpt>
      <trkpt lat="47.2559" lon="-2.33028">
        <ele>1.2000000476837</ele>
        <time>2022-04-17T07:10:54.000Z</time>
      </trkpt>
      <trkpt lat="47.25593" lon="-2.33028">
        <ele>1.6000000238419</ele>
        <time>2022-04-17T07:10:55.000Z</time>
      </trkpt>
      <trkpt lat="47.25597" lon="-2.33027">
        <ele>2</ele>
        <time>2022-04-17T07:10:56.000Z</time>
      </trkpt>
      <trkpt lat="47.25614" lon="-2.3302">
        <ele>2</ele>
        <time>2022-04-17T07:11:01.000Z</time>
      </trkpt>
      <trkpt lat="47.25617" lon="-2.33007">
        <ele>2</ele>
        <time>2022-04-17T07:11:04.000Z</time>
      </trkpt>
      <trkpt lat="47.25616" lon="-2.33002">
        <ele>2</ele>
        <time>2022-04-17T07:11:05.000Z</time>
      </trkpt>
      <trkpt lat="47.25608" lon="-2.32965">
        <ele>2</ele>
        <time>2022-04-17T07:11:12.000Z</time>
      </trkpt>
      <trkpt lat="47.25607" lon="-2.32959">
        <ele>2.4000000953674</ele>
        <time>2022-04-17T07:11:13.000Z</time>
      </trkpt>
      <trkpt lat="47.25606" lon="-2.32954">
        <ele>2.7999999523163</ele>
        <time>2022-04-17T07:11:14.000Z</time>
      </trkpt>
      <trkpt lat="47.25606" lon="-2.32948">
        <ele>3.2000000476837</ele>
        <time>2022-04-17T07:11:15.000Z</time>
      </trkpt>
      <trkpt lat="47.25605" lon="-2.32942">
        <ele>3.5999999046326</ele>
        <time>2022-04-17T07:11:16.000Z</time>
      </trkpt>
      <trkpt lat="47.25604" lon="-2.32936">
        <ele>4.1999998092651</ele>
        <time>2022-04-17T07:11:17.000Z</time>
      </trkpt>
      <trkpt lat="47.25602" lon="-2.3293">
        <ele>4.1999998092651</ele>
        <time>2022-04-17T07:11:18.000Z</time>
      </trkpt>
      <trkpt lat="47.25596" lon="-2.32887">
        <ele>4.1999998092651</ele>
        <time>2022-04-17T07:11:25.000Z</time>
      </trkpt>
      <trkpt lat="47.2559" lon="-2.32844">
        <ele>4.1999998092651</ele>
        <time>2022-04-17T07:11:32.000Z</time>
      </trkpt>
      <trkpt lat="47.25589" lon="-2.32838">
        <ele>4.1999998092651</ele>
        <time>2022-04-17T07:11:33.000Z</time>
      </trkpt>
      <trkpt lat="47.25593" lon="-2.32811">
        <ele>4.1999998092651</ele>
        <time>2022-04-17T07:11:37.000Z</time>
      </trkpt>
      <trkpt lat="47.25599" lon="-2.32767">
        <ele>4.1999998092651</ele>
        <time>2022-04-17T07:11:44.000Z</time>
      </trkpt>
      <trkpt lat="47.25601" lon="-2.32755">
        <ele>4.1999998092651</ele>
        <time>2022-04-17T07:11:46.000Z</time>
      </trkpt>
      <trkpt lat="47.25601" lon="-2.32735">
        <ele>4.1999998092651</ele>
        <time>2022-04-17T07:11:49.000Z</time>
      </trkpt>
      <trkpt lat="47.25602" lon="-2.32685">
        <ele>4.1999998092651</ele>
        <time>2022-04-17T07:11:57.000Z</time>
      </trkpt>
      <trkpt lat="47.25603" lon="-2.32667">
        <ele>4.1999998092651</ele>
        <time>2022-04-17T07:12:00.000Z</time>
      </trkpt>
      <trkpt lat="47.25611" lon="-2.32654">
        <ele>4.1999998092651</ele>
        <time>2022-04-17T07:12:03.000Z</time>
      </trkpt>
      <trkpt lat="47.25615" lon="-2.32653">
        <ele>4.1999998092651</ele>
        <time>2022-04-17T07:12:04.000Z</time>
      </trkpt>
      <trkpt lat="47.25641" lon="-2.32643">
        <ele>4.1999998092651</ele>
        <time>2022-04-17T07:12:09.000Z</time>
      </trkpt>
      <trkpt lat="47.25679" lon="-2.32628">
        <ele>4.1999998092651</ele>
        <time>2022-04-17T07:12:16.000Z</time>
      </trkpt>
      <trkpt lat="47.25701" lon="-2.32618">
        <ele>4.1999998092651</ele>
        <time>2022-04-17T07:12:20.000Z</time>
      </trkpt>
      <trkpt lat="47.25707" lon="-2.32607">
        <ele>3.7999999523163</ele>
        <time>2022-04-17T07:12:22.000Z</time>
      </trkpt>
      <trkpt lat="47.25708" lon="-2.326">
        <ele>3.2000000476837</ele>
        <time>2022-04-17T07:12:23.000Z</time>
      </trkpt>
      <trkpt lat="47.25707" lon="-2.32594">
        <ele>2.7999999523163</ele>
        <time>2022-04-17T07:12:24.000Z</time>
      </trkpt>
      <trkpt lat="47.25705" lon="-2.32588">
        <ele>2.4000000953674</ele>
        <time>2022-04-17T07:12:25.000Z</time>
      </trkpt>
      <trkpt lat="47.25704" lon="-2.32581">
        <ele>2</ele>
        <time>2022-04-17T07:12:26.000Z</time>
      </trkpt>
      <trkpt lat="47.25689" lon="-2.32535">
        <ele>2</ele>
        <time>2022-04-17T07:12:32.000Z</time>
      </trkpt>
      <trkpt lat="47.25676" lon="-2.32492">
        <ele>1.6000000238419</ele>
        <time>2022-04-17T07:12:37.000Z</time>
      </trkpt>
      <trkpt lat="47.25673" lon="-2.32483">
        <ele>1.2000000476837</ele>
        <time>2022-04-17T07:12:38.000Z</time>
      </trkpt>
      <trkpt lat="47.2567" lon="-2.32475">
        <ele>0.80000001192093</ele>
        <time>2022-04-17T07:12:39.000Z</time>
      </trkpt>
      <trkpt lat="47.25667" lon="-2.32467">
        <ele>0.40000000596046</ele>
        <time>2022-04-17T07:12:40.000Z</time>
      </trkpt>
      <trkpt lat="47.25665" lon="-2.32458">
        <ele>5.6</ele>
        <time>2022-04-17T07:12:41.000Z</time>
      </trkpt>
      <trkpt lat="47.25657" lon="-2.32425">
        <ele>5.1</ele>
        <time>2022-04-17T07:12:45.000Z</time>
      </trkpt>
      <trkpt lat="47.25654" lon="-2.32411">
        <ele>-0.40000000596046</ele>
        <time>2022-04-17T07:12:47.000Z</time>
      </trkpt>
      <trkpt lat="47.25656" lon="-2.32405">
        <ele>-0.80000001192093</ele>
        <time>2022-04-17T07:12:48.000Z</time>
      </trkpt>
      <trkpt lat="47.25659" lon="-2.32402">
        <ele>-1.2000000476837</ele>
        <time>2022-04-17T07:12:49.000Z</time>
      </trkpt>
      <trkpt lat="47.25663" lon="-2.32402">
        <ele>-2.2000000476837</ele>
        <time>2022-04-17T07:12:50.000Z</time>
      </trkpt>
      <trkpt lat="47.25667" lon="-2.32405">
        <ele>-2.2000000476837</ele>
        <time>2022-04-17T07:12:51.000Z</time>
      </trkpt>
      <trkpt lat="47.25673" lon="-2.32414">
        <ele>-2.2000000476837</ele>
        <time>2022-04-17T07:12:53.000Z</time>
      </trkpt>
      <trkpt lat="47.25678" lon="-2.32417">
        <ele>-2.2000000476837</ele>
        <time>2022-04-17T07:12:54.000Z</time>
      </trkpt>
      <trkpt lat="47.25702" lon="-2.3242">
        <ele>-2.2000000476837</ele>
        <time>2022-04-17T07:12:58.000Z</time>
      </trkpt>
      <trkpt lat="47.25751" lon="-2.32422">
        <ele>-2.2000000476837</ele>
        <time>2022-04-17T07:13:06.000Z</time>
      </trkpt>
      <trkpt lat="47.25761" lon="-2.32419">
        <ele>-2.2000000476837</ele>
        <time>2022-04-17T07:13:09.000Z</time>
      </trkpt>
      <trkpt lat="47.25767" lon="-2.32416">
        <ele>-2.2000000476837</ele>
        <time>2022-04-17T07:13:13.000Z</time>
      </trkpt>
      <trkpt lat="47.2578" lon="-2.32414">
        <ele>-2.2000000476837</ele>
        <time>2022-04-17T07:13:18.000Z</time>
      </trkpt>
      <trkpt lat="47.25783" lon="-2.32417">
        <ele>-2.2000000476837</ele>
        <time>2022-04-17T07:13:19.000Z</time>
      </trkpt>
      <trkpt lat="47.25788" lon="-2.32426">
        <ele>-2.2000000476837</ele>
        <time>2022-04-17T07:13:21.000Z</time>
      </trkpt>
      <trkpt lat="47.25806" lon="-2.32458">
        <ele>-2.2000000476837</ele>
        <time>2022-04-17T07:13:27.000Z</time>
      </trkpt>
      <trkpt lat="47.25809" lon="-2.32464">
        <ele>-2.2000000476837</ele>
        <time>2022-04-17T07:13:28.000Z</time>
      </trkpt>
      <trkpt lat="47.25815" lon="-2.32476">
        <ele>-2.5999999046326</ele>
        <time>2022-04-17T07:13:30.000Z</time>
      </trkpt>
      <trkpt lat="47.25818" lon="-2.32482">
        <ele>-3</ele>
        <time>2022-04-17T07:13:31.000Z</time>
      </trkpt>
      <trkpt lat="47.25822" lon="-2.32488">
        <ele>-3.4000000953674</ele>
        <time>2022-04-17T07:13:32.000Z</time>
      </trkpt>
      <trkpt lat="47.25826" lon="-2.32494">
        <ele>-3.7999999523163</ele>
        <time>2022-04-17T07:13:33.000Z</time>
      </trkpt>
      <trkpt lat="47.2583" lon="-2.325">
        <ele>-4.1999998092651</ele>
        <time>2022-04-17T07:13:34.000Z</time>
      </trkpt>
      <trkpt lat="47.25848" lon="-2.32526">
        <ele>-4.1999998092651</ele>
        <time>2022-04-17T07:13:38.000Z</time>
      </trkpt>
      <trkpt lat="47.25872" lon="-2.32559">
        <ele>-4.1999998092651</ele>
        <time>2022-04-17T07:13:44.000Z</time>
      </trkpt>
      <trkpt lat="47.25891" lon="-2.32585">
        <ele>-4.1999998092651</ele>
        <time>2022-04-17T07:13:49.000Z</time>
      </trkpt>
      <trkpt lat="47.25901" lon="-2.32592">
        <ele>-4.1999998092651</ele>
        <time>2022-04-17T07:13:51.000Z</time>
      </trkpt>
      <trkpt lat="47.2591" lon="-2.32603">
        <ele>-4.1999998092651</ele>
        <time>2022-04-17T07:13:53.000Z</time>
      </trkpt>
      <trkpt lat="47.25923" lon="-2.3262">
        <ele>-4.1999998092651</ele>
        <time>2022-04-17T07:13:56.000Z</time>
      </trkpt>
      <trkpt lat="47.25948" lon="-2.32652">
        <ele>-4.1999998092651</ele>
        <time>2022-04-17T07:14:02.000Z</time>
      </trkpt>
      <trkpt lat="47.25958" lon="-2.32658">
        <ele>-4.1999998092651</ele>
        <time>2022-04-17T07:14:04.000Z</time>
      </trkpt>
      <trkpt lat="47.25975" lon="-2.32655">
        <ele>-4.1999998092651</ele>
        <time>2022-04-17T07:14:07.000Z</time>
      </trkpt>
      <trkpt lat="47.25998" lon="-2.32656">
        <ele>-4.1999998092651</ele>
        <time>2022-04-17T07:14:11.000Z</time>
      </trkpt>
      <trkpt lat="47.26019" lon="-2.32652">
        <ele>-4.1999998092651</ele>
        <time>2022-04-17T07:14:15.000Z</time>
      </trkpt>
      <trkpt lat="47.26034" lon="-2.32649">
        <ele>-4.1999998092651</ele>
        <time>2022-04-17T07:14:18.000Z</time>
      </trkpt>
      <trkpt lat="47.26071" lon="-2.32641">
        <ele>-4.1999998092651</ele>
        <time>2022-04-17T07:14:26.000Z</time>
      </trkpt>
      <trkpt lat="47.2612" lon="-2.32637">
        <ele>-4.1999998092651</ele>
        <time>2022-04-17T07:14:36.000Z</time>
      </trkpt>
      <trkpt lat="47.26151" lon="-2.32645">
        <ele>-4.1999998092651</ele>
        <time>2022-04-17T07:14:42.000Z</time>
      </trkpt>
      <trkpt lat="47.26183" lon="-2.32664">
        <ele>-4.1999998092651</ele>
        <time>2022-04-17T07:14:48.000Z</time>
      </trkpt>
      <trkpt lat="47.26221" lon="-2.32709">
        <ele>-4.1999998092651</ele>
        <time>2022-04-17T07:14:56.000Z</time>
      </trkpt>
      <trkpt lat="47.26243" lon="-2.32741">
        <ele>-4.1999998092651</ele>
        <time>2022-04-17T07:15:01.000Z</time>
      </trkpt>
      <trkpt lat="47.26247" lon="-2.32745">
        <ele>-4.1999998092651</ele>
        <time>2022-04-17T07:15:02.000Z</time>
      </trkpt>
      <trkpt lat="47.26268" lon="-2.32773">
        <ele>-4.1999998092651</ele>
        <time>2022-04-17T07:15:07.000Z</time>
      </trkpt>
      <trkpt lat="47.26278" lon="-2.32795">
        <ele>-4.1999998092651</ele>
        <time>2022-04-17T07:15:10.000Z</time>
      </trkpt>
      <trkpt lat="47.26283" lon="-2.32812">
        <ele>-4.1999998092651</ele>
        <time>2022-04-17T07:15:12.000Z</time>
      </trkpt>
      <trkpt lat="47.26288" lon="-2.32839">
        <ele>-4.1999998092651</ele>
        <time>2022-04-17T07:15:15.000Z</time>
      </trkpt>
      <trkpt lat="47.26293" lon="-2.32855">
        <ele>-4.1999998092651</ele>
        <time>2022-04-17T07:15:17.000Z</time>
      </trkpt>
      <trkpt lat="47.2631" lon="-2.32865">
        <ele>-4.1999998092651</ele>
        <time>2022-04-17T07:15:20.000Z</time>
      </trkpt>
      <trkpt lat="47.26323" lon="-2.32882">
        <ele>-4.1999998092651</ele>
        <time>2022-04-17T07:15:23.000Z</time>
      </trkpt>
      <trkpt lat="47.2633" lon="-2.32907">
        <ele>-4.1999998092651</ele>
        <time>2022-04-17T07:15:26.000Z</time>
      </trkpt>
      <trkpt lat="47.26333" lon="-2.32916">
        <ele>-4.1999998092651</ele>
        <time>2022-04-17T07:15:27.000Z</time>
      </trkpt>
      <trkpt lat="47.26352" lon="-2.32972">
        <ele>-4.1999998092651</ele>
        <time>2022-04-17T07:15:34.000Z</time>
      </trkpt>
      <trkpt lat="47.26357" lon="-2.32977">
        <ele>-4.1999998092651</ele>
        <time>2022-04-17T07:15:35.000Z</time>
      </trkpt>
      <trkpt lat="47.26366" lon="-2.33004">
        <ele>-4.1999998092651</ele>
        <time>2022-04-17T07:15:39.000Z</time>
      </trkpt>
      <trkpt lat="47.26366" lon="-2.3302">
        <ele>-4.1999998092651</ele>
        <time>2022-04-17T07:15:41.000Z</time>
      </trkpt>
      <trkpt lat="47.26368" lon="-2.33036">
        <ele>-4.1999998092651</ele>
        <time>2022-04-17T07:15:43.000Z</time>
      </trkpt>
      <trkpt lat="47.26369" lon="-2.33052">
        <ele>-4.1999998092651</ele>
        <time>2022-04-17T07:15:45.000Z</time>
      </trkpt>
      <trkpt lat="47.26373" lon="-2.33118">
        <ele>-4.1999998092651</ele>
        <time>2022-04-17T07:15:53.000Z</time>
      </trkpt>
      <trkpt lat="47.26376" lon="-2.33174">
        <ele>-4.1999998092651</ele>
        <time>2022-04-17T07:16:00.000Z</time>
      </trkpt>
      <trkpt lat="47.2638" lon="-2.33242">
        <ele>-4.1999998092651</ele>
        <time>2022-04-17T07:16:09.000Z</time>
      </trkpt>
      <trkpt lat="47.26382" lon="-2.33249">
        <ele>-4.1999998092651</ele>
        <time>2022-04-17T07:16:10.000Z</time>
      </trkpt>
      <trkpt lat="47.26392" lon="-2.33264">
        <ele>-4.1999998092651</ele>
        <time>2022-04-17T07:16:13.000Z</time>
      </trkpt>
      <trkpt lat="47.26414" lon="-2.33269">
        <ele>-4.1999998092651</ele>
        <time>2022-04-17T07:16:17.000Z</time>
      </trkpt>
      <trkpt lat="47.26449" lon="-2.33273">
        <ele>-4.1999998092651</ele>
        <time>2022-04-17T07:16:24.000Z</time>
      </trkpt>
      <trkpt lat="47.2648" lon="-2.33274">
        <ele>-4.1999998092651</ele>
        <time>2022-04-17T07:16:30.000Z</time>
      </trkpt>
      <trkpt lat="47.26485" lon="-2.3327">
        <ele>-4.1999998092651</ele>
        <time>2022-04-17T07:16:31.000Z</time>
      </trkpt>
      <trkpt lat="47.26495" lon="-2.33251">
        <ele>-4.1999998092651</ele>
        <time>2022-04-17T07:16:34.000Z</time>
      </trkpt>
      <trkpt lat="47.26502" lon="-2.3324">
        <ele>-4.1999998092651</ele>
        <time>2022-04-17T07:16:36.000Z</time>
      </trkpt>
      <trkpt lat="47.26517" lon="-2.33228">
        <ele>-4.1999998092651</ele>
        <time>2022-04-17T07:16:39.000Z</time>
      </trkpt>
      <trkpt lat="47.26563" lon="-2.332">
        <ele>-4.1999998092651</ele>
        <time>2022-04-17T07:16:48.000Z</time>
      </trkpt>
      <trkpt lat="47.26578" lon="-2.33189">
        <ele>-4.1999998092651</ele>
        <time>2022-04-17T07:16:51.000Z</time>
      </trkpt>
      <trkpt lat="47.26586" lon="-2.33177">
        <ele>-4.1999998092651</ele>
        <time>2022-04-17T07:16:53.000Z</time>
      </trkpt>
      <trkpt lat="47.26591" lon="-2.33162">
        <ele>-4.1999998092651</ele>
        <time>2022-04-17T07:16:55.000Z</time>
      </trkpt>
      <trkpt lat="47.26595" lon="-2.33148">
        <ele>-4.1999998092651</ele>
        <time>2022-04-17T07:16:57.000Z</time>
      </trkpt>
      <trkpt lat="47.26607" lon="-2.33141">
        <ele>-4.1999998092651</ele>
        <time>2022-04-17T07:17:00.000Z</time>
      </trkpt>
      <trkpt lat="47.26627" lon="-2.33146">
        <ele>-4.1999998092651</ele>
        <time>2022-04-17T07:17:04.000Z</time>
      </trkpt>
      <trkpt lat="47.26643" lon="-2.3314">
        <ele>-4.1999998092651</ele>
        <time>2022-04-17T07:17:07.000Z</time>
      </trkpt>
      <trkpt lat="47.26657" lon="-2.33128">
        <ele>-4.1999998092651</ele>
        <time>2022-04-17T07:17:10.000Z</time>
      </trkpt>
      <trkpt lat="47.26667" lon="-2.33121">
        <ele>-4.1999998092651</ele>
        <time>2022-04-17T07:17:12.000Z</time>
      </trkpt>
      <trkpt lat="47.26699" lon="-2.3309">
        <ele>-4.1999998092651</ele>
        <time>2022-04-17T07:17:19.000Z</time>
      </trkpt>
      <trkpt lat="47.26713" lon="-2.33076">
        <ele>-4.1999998092651</ele>
        <time>2022-04-17T07:17:22.000Z</time>
      </trkpt>
      <trkpt lat="47.26724" lon="-2.33059">
        <ele>-4.1999998092651</ele>
        <time>2022-04-17T07:17:25.000Z</time>
      </trkpt>
      <trkpt lat="47.26732" lon="-2.33031">
        <ele>-4.1999998092651</ele>
        <time>2022-04-17T07:17:29.000Z</time>
      </trkpt>
      <trkpt lat="47.26733" lon="-2.33004">
        <ele>-4.1999998092651</ele>
        <time>2022-04-17T07:17:33.000Z</time>
      </trkpt>
      <trkpt lat="47.26734" lon="-2.32997">
        <ele>-4.1999998092651</ele>
        <time>2022-04-17T07:17:34.000Z</time>
      </trkpt>
      <trkpt lat="47.26742" lon="-2.32977">
        <ele>-4.1999998092651</ele>
        <time>2022-04-17T07:17:37.000Z</time>
      </trkpt>
      <trkpt lat="47.26757" lon="-2.32957">
        <ele>-4.1999998092651</ele>
        <time>2022-04-17T07:17:41.000Z</time>
      </trkpt>
      <trkpt lat="47.26761" lon="-2.32952">
        <ele>-4.1999998092651</ele>
        <time>2022-04-17T07:17:42.000Z</time>
      </trkpt>
      <trkpt lat="47.26789" lon="-2.32922">
        <ele>-4.1999998092651</ele>
        <time>2022-04-17T07:17:48.000Z</time>
      </trkpt>
      <trkpt lat="47.26818" lon="-2.32901">
        <ele>-4.1999998092651</ele>
        <time>2022-04-17T07:17:54.000Z</time>
      </trkpt>
      <trkpt lat="47.26834" lon="-2.32883">
        <ele>-4.1999998092651</ele>
        <time>2022-04-17T07:17:58.000Z</time>
      </trkpt>
      <trkpt lat="47.26843" lon="-2.32877">
        <ele>-4.1999998092651</ele>
        <time>2022-04-17T07:18:00.000Z</time>
      </trkpt>
      <trkpt lat="47.2686" lon="-2.32866">
        <ele>-4.1999998092651</ele>
        <time>2022-04-17T07:18:04.000Z</time>
      </trkpt>
      <trkpt lat="47.2686" lon="-2.32851">
        <ele>-4.1999998092651</ele>
        <time>2022-04-17T07:18:07.000Z</time>
      </trkpt>
      <trkpt lat="47.26856" lon="-2.32842">
        <ele>-4.1999998092651</ele>
        <time>2022-04-17T07:18:09.000Z</time>
      </trkpt>
      <trkpt lat="47.26852" lon="-2.32829">
        <ele>-3.5999999046326</ele>
        <time>2022-04-17T07:18:12.000Z</time>
      </trkpt>
      <trkpt lat="47.26851" lon="-2.32825">
        <ele>-3.2000000476837</ele>
        <time>2022-04-17T07:18:13.000Z</time>
      </trkpt>
      <trkpt lat="47.26849" lon="-2.32822">
        <ele>-2.7999999523163</ele>
        <time>2022-04-17T07:18:14.000Z</time>
      </trkpt>
      <trkpt lat="47.26848" lon="-2.32818">
        <ele>-2.4000000953674</ele>
        <time>2022-04-17T07:18:15.000Z</time>
      </trkpt>
      <trkpt lat="47.26846" lon="-2.32814">
        <ele>-2</ele>
        <time>2022-04-17T07:18:16.000Z</time>
      </trkpt>
      <trkpt lat="47.26843" lon="-2.32808">
        <ele>-1.3999999761581</ele>
        <time>2022-04-17T07:18:18.000Z</time>
      </trkpt>
      <trkpt lat="47.26842" lon="-2.32804">
        <ele>-1</ele>
        <time>2022-04-17T07:18:19.000Z</time>
      </trkpt>
      <trkpt lat="47.26841" lon="-2.328">
        <ele>-0.60000002384186</ele>
        <time>2022-04-17T07:18:20.000Z</time>
      </trkpt>
      <trkpt lat="47.2684" lon="-2.32794">
        <ele>11.6</ele>
        <time>2022-04-17T07:18:21.000Z</time>
      </trkpt>
      <trkpt lat="47.26839" lon="-2.3279">
        <ele>0.40000000596046</ele>
        <time>2022-04-17T07:18:22.000Z</time>
      </trkpt>
      <trkpt lat="47.26836" lon="-2.32778">
        <ele>0.80000001192093</ele>
        <time>2022-04-17T07:18:25.000Z</time>
      </trkpt>
      <trkpt lat="47.26835" lon="-2.32774">
        <ele>1.3999999761581</ele>
        <time>2022-04-17T07:18:26.000Z</time>
      </trkpt>
      <trkpt lat="47.26834" lon="-2.32771">
        <ele>1.7999999523163</ele>
        <time>2022-04-17T07:18:27.000Z</time>
      </trkpt>
      <trkpt lat="47.26833" lon="-2.32768">
        <ele>2.2000000476837</ele>
        <time>2022-04-17T07:18:28.000Z</time>
      </trkpt>
      <trkpt lat="47.26832" lon="-2.32765">
        <ele>2.7999999523163</ele>
        <time>2022-04-17T07:18:29.000Z</time>
      </trkpt>
      <trkpt lat="47.26829" lon="-2.32753">
        <ele>3.2000000476837</ele>
        <time>2022-04-17T07:18:32.000Z</time>
      </trkpt>
      <trkpt lat="47.26827" lon="-2.32749">
        <ele>3.5999999046326</ele>
        <time>2022-04-17T07:18:33.000Z</time>
      </trkpt>
      <trkpt lat="47.26826" lon="-2.32746">
        <ele>4</ele>
        <time>2022-04-17T07:18:34.000Z</time>
      </trkpt>
      <trkpt lat="47.26824" lon="-2.32743">
        <ele>4.4000000953674</ele>
        <time>2022-04-17T07:18:35.000Z</time>
      </trkpt>
      <trkpt lat="47.26823" lon="-2.3274">
        <ele>4.8000001907349</ele>
        <time>2022-04-17T07:18:36.000Z</time>
      </trkpt>
      <trkpt lat="47.26819" lon="-2.32733">
        <ele>4.8000001907349</ele>
        <time>2022-04-17T07:18:38.000Z</time>
      </trkpt>
      <trkpt lat="47.26816" lon="-2.32726">
        <ele>5.1999998092651</ele>
        <time>2022-04-17T07:18:40.000Z</time>
      </trkpt>
      <trkpt lat="47.26814" lon="-2.32722">
        <ele>5.8000001907349</ele>
        <time>2022-04-17T07:18:41.000Z</time>
      </trkpt>
      <trkpt lat="47.26813" lon="-2.32719">
        <ele>6.1999998092651</ele>
        <time>2022-04-17T07:18:42.000Z</time>
      </trkpt>
      <trkpt lat="47.26811" lon="-2.32715">
        <ele>6.5999999046326</ele>
        <time>2022-04-17T07:18:43.000Z</time>
      </trkpt>
      <trkpt lat="47.26809" lon="-2.32711">
        <ele>7</ele>
        <time>2022-04-17T07:18:44.000Z</time>
      </trkpt>
      <trkpt lat="47.26806" lon="-2.32703">
        <ele>7</ele>
        <time>2022-04-17T07:18:46.000Z</time>
      </trkpt>
      <trkpt lat="47.26802" lon="-2.32676">
        <ele>7</ele>
        <time>2022-04-17T07:18:52.000Z</time>
      </trkpt>
      <trkpt lat="47.26809" lon="-2.3265">
        <ele>7</ele>
        <time>2022-04-17T07:18:57.000Z</time>
      </trkpt>
      <trkpt lat="47.26808" lon="-2.32638">
        <ele>7</ele>
        <time>2022-04-17T07:18:59.000Z</time>
      </trkpt>
      <trkpt lat="47.26806" lon="-2.32619">
        <ele>7</ele>
        <time>2022-04-17T07:19:02.000Z</time>
      </trkpt>
      <trkpt lat="47.26799" lon="-2.32562">
        <ele>7</ele>
        <time>2022-04-17T07:19:10.000Z</time>
      </trkpt>
      <trkpt lat="47.26797" lon="-2.32519">
        <ele>7</ele>
        <time>2022-04-17T07:19:16.000Z</time>
      </trkpt>
      <trkpt lat="47.26795" lon="-2.32495">
        <ele>7</ele>
        <time>2022-04-17T07:19:20.000Z</time>
      </trkpt>
      <trkpt lat="47.26793" lon="-2.32476">
        <ele>7</ele>
        <time>2022-04-17T07:19:23.000Z</time>
      </trkpt>
      <trkpt lat="47.26791" lon="-2.32457">
        <ele>7.4000000953674</ele>
        <time>2022-04-17T07:19:26.000Z</time>
      </trkpt>
      <trkpt lat="47.2679" lon="-2.32451">
        <ele>7.8000001907349</ele>
        <time>2022-04-17T07:19:27.000Z</time>
      </trkpt>
      <trkpt lat="47.26789" lon="-2.32445">
        <ele>8.1999998092651</ele>
        <time>2022-04-17T07:19:28.000Z</time>
      </trkpt>
      <trkpt lat="47.26789" lon="-2.32439">
        <ele>8.6000003814697</ele>
        <time>2022-04-17T07:19:29.000Z</time>
      </trkpt>
      <trkpt lat="47.26788" lon="-2.32433">
        <ele>9</ele>
        <time>2022-04-17T07:19:30.000Z</time>
      </trkpt>
      <trkpt lat="47.26786" lon="-2.32422">
        <ele>9</ele>
        <time>2022-04-17T07:19:32.000Z</time>
      </trkpt>
      <trkpt lat="47.26781" lon="-2.32394">
        <ele>9</ele>
        <time>2022-04-17T07:19:37.000Z</time>
      </trkpt>
      <trkpt lat="47.26779" lon="-2.32373">
        <ele>9</ele>
        <time>2022-04-17T07:19:41.000Z</time>
      </trkpt>
      <trkpt lat="47.26782" lon="-2.32369">
        <ele>9</ele>
        <time>2022-04-17T07:19:42.000Z</time>
      </trkpt>
      <trkpt lat="47.26795" lon="-2.32363">
        <ele>9</ele>
        <time>2022-04-17T07:19:45.000Z</time>
      </trkpt>
      <trkpt lat="47.26826" lon="-2.32354">
        <ele>8.1999998092651</ele>
        <time>2022-04-17T07:19:50.000Z</time>
      </trkpt>
      <trkpt lat="47.26834" lon="-2.32351">
        <ele>7.8000001907349</ele>
        <time>2022-04-17T07:19:51.000Z</time>
      </trkpt>
      <trkpt lat="47.26841" lon="-2.3235">
        <ele>7.4000000953674</ele>
        <time>2022-04-17T07:19:52.000Z</time>
      </trkpt>
      <trkpt lat="47.26849" lon="-2.32348">
        <ele>7</ele>
        <time>2022-04-17T07:19:53.000Z</time>
      </trkpt>
      <trkpt lat="47.26857" lon="-2.32347">
        <ele>6.5999999046326</ele>
        <time>2022-04-17T07:19:54.000Z</time>
      </trkpt>
      <trkpt lat="47.26865" lon="-2.32346">
        <ele>6</ele>
        <time>2022-04-17T07:19:55.000Z</time>
      </trkpt>
      <trkpt lat="47.26873" lon="-2.32344">
        <ele>5.5999999046326</ele>
        <time>2022-04-17T07:19:56.000Z</time>
      </trkpt>
      <trkpt lat="47.26881" lon="-2.32343">
        <ele>5.1999998092651</ele>
        <time>2022-04-17T07:19:57.000Z</time>
      </trkpt>
      <trkpt lat="47.26889" lon="-2.32341">
        <ele>4.5999999046326</ele>
        <time>2022-04-17T07:19:58.000Z</time>
      </trkpt>
      <trkpt lat="47.26896" lon="-2.32339">
        <ele>4.1999998092651</ele>
        <time>2022-04-17T07:19:59.000Z</time>
      </trkpt>
      <trkpt lat="47.26903" lon="-2.32338">
        <ele>3.5999999046326</ele>
        <time>2022-04-17T07:20:00.000Z</time>
      </trkpt>
      <trkpt lat="47.26909" lon="-2.32336">
        <ele>3.2000000476837</ele>
        <time>2022-04-17T07:20:01.000Z</time>
      </trkpt>
      <trkpt lat="47.26914" lon="-2.32335">
        <ele>2.7999999523163</ele>
        <time>2022-04-17T07:20:02.000Z</time>
      </trkpt>
      <trkpt lat="47.26918" lon="-2.32335">
        <ele>2.2000000476837</ele>
        <time>2022-04-17T07:20:03.000Z</time>
      </trkpt>
      <trkpt lat="47.26923" lon="-2.32336">
        <ele>1.6000000238419</ele>
        <time>2022-04-17T07:20:04.000Z</time>
      </trkpt>
      <trkpt lat="47.26927" lon="-2.32341">
        <ele>1</ele>
        <time>2022-04-17T07:20:05.000Z</time>
      </trkpt>
      <trkpt lat="47.2693" lon="-2.32345">
        <ele>0.40000000596046</ele>
        <time>2022-04-17T07:20:06.000Z</time>
      </trkpt>
      <trkpt lat="47.26934" lon="-2.32351">
        <ele>-0.20000000298023</ele>
        <time>2022-04-17T07:20:07.000Z</time>
      </trkpt>
      <trkpt lat="47.2694" lon="-2.32373">
        <ele>-0.20000000298023</ele>
        <time>2022-04-17T07:20:10.000Z</time>
      </trkpt>
      <trkpt lat="47.26942" lon="-2.32381">
        <ele>-0.20000000298023</ele>
        <time>2022-04-17T07:20:11.000Z</time>
      </trkpt>
      <trkpt lat="47.2695" lon="-2.32412">
        <ele>-0.20000000298023</ele>
        <time>2022-04-17T07:20:15.000Z</time>
      </trkpt>
      <trkpt lat="47.26953" lon="-2.32419">
        <ele>-0.20000000298023</ele>
        <time>2022-04-17T07:20:16.000Z</time>
      </trkpt>
      <trkpt lat="47.26956" lon="-2.32426">
        <ele>-0.60000002384186</ele>
        <time>2022-04-17T07:20:17.000Z</time>
      </trkpt>
      <trkpt lat="47.26961" lon="-2.32432">
        <ele>-1</ele>
        <time>2022-04-17T07:20:18.000Z</time>
      </trkpt>
      <trkpt lat="47.26965" lon="-2.32438">
        <ele>-1.3999999761581</ele>
        <time>2022-04-17T07:20:19.000Z</time>
      </trkpt>
      <trkpt lat="47.2697" lon="-2.32443">
        <ele>-1.7999999523163</ele>
        <time>2022-04-17T07:20:20.000Z</time>
      </trkpt>
      <trkpt lat="47.26974" lon="-2.32448">
        <ele>-2.2000000476837</ele>
        <time>2022-04-17T07:20:21.000Z</time>
      </trkpt>
      <trkpt lat="47.26994" lon="-2.32487">
        <ele>-2.2000000476837</ele>
        <time>2022-04-17T07:20:27.000Z</time>
      </trkpt>
      <trkpt lat="47.27001" lon="-2.325">
        <ele>-2.2000000476837</ele>
        <time>2022-04-17T07:20:29.000Z</time>
      </trkpt>
      <trkpt lat="47.27011" lon="-2.32504">
        <ele>-2.2000000476837</ele>
        <time>2022-04-17T07:20:31.000Z</time>
      </trkpt>
      <trkpt lat="47.27017" lon="-2.32502">
        <ele>-2.5999999046326</ele>
        <time>2022-04-17T07:20:32.000Z</time>
      </trkpt>
      <trkpt lat="47.27022" lon="-2.32499">
        <ele>-3</ele>
        <time>2022-04-17T07:20:33.000Z</time>
      </trkpt>
      <trkpt lat="47.27026" lon="-2.32494">
        <ele>-3.4000000953674</ele>
        <time>2022-04-17T07:20:34.000Z</time>
      </trkpt>
      <trkpt lat="47.2703" lon="-2.32488">
        <ele>-3.7999999523163</ele>
        <time>2022-04-17T07:20:35.000Z</time>
      </trkpt>
      <trkpt lat="47.27031" lon="-2.3248">
        <ele>-4.1999998092651</ele>
        <time>2022-04-17T07:20:36.000Z</time>
      </trkpt>
      <trkpt lat="47.27032" lon="-2.32471">
        <ele>-4.1999998092651</ele>
        <time>2022-04-17T07:20:37.000Z</time>
      </trkpt>
      <trkpt lat="47.27031" lon="-2.32452">
        <ele>-4.1999998092651</ele>
        <time>2022-04-17T07:20:39.000Z</time>
      </trkpt>
      <trkpt lat="47.2703" lon="-2.32424">
        <ele>-4.1999998092651</ele>
        <time>2022-04-17T07:20:42.000Z</time>
      </trkpt>
      <trkpt lat="47.27026" lon="-2.32373">
        <ele>-4.1999998092651</ele>
        <time>2022-04-17T07:20:48.000Z</time>
      </trkpt>
      <trkpt lat="47.27021" lon="-2.32325">
        <ele>-4.1999998092651</ele>
        <time>2022-04-17T07:20:54.000Z</time>
      </trkpt>
      <trkpt lat="47.27019" lon="-2.32279">
        <ele>-4.1999998092651</ele>
        <time>2022-04-17T07:21:00.000Z</time>
      </trkpt>
      <trkpt lat="47.2702" lon="-2.32233">
        <ele>-4.1999998092651</ele>
        <time>2022-04-17T07:21:06.000Z</time>
      </trkpt>
      <trkpt lat="47.2701" lon="-2.32192">
        <ele>-4.1999998092651</ele>
        <time>2022-04-17T07:21:12.000Z</time>
      </trkpt>
      <trkpt lat="47.26997" lon="-2.32169">
        <ele>-4.1999998092651</ele>
        <time>2022-04-17T07:21:16.000Z</time>
      </trkpt>
      <trkpt lat="47.26994" lon="-2.32165">
        <ele>-4.1999998092651</ele>
        <time>2022-04-17T07:21:17.000Z</time>
      </trkpt>
      <trkpt lat="47.26991" lon="-2.32159">
        <ele>-4.1999998092651</ele>
        <time>2022-04-17T07:21:18.000Z</time>
      </trkpt>
      <trkpt lat="47.26988" lon="-2.32139">
        <ele>-4.1999998092651</ele>
        <time>2022-04-17T07:21:21.000Z</time>
      </trkpt>
      <trkpt lat="47.26995" lon="-2.32125">
        <ele>-4.1999998092651</ele>
        <time>2022-04-17T07:21:24.000Z</time>
      </trkpt>
      <trkpt lat="47.27005" lon="-2.3211">
        <ele>-4.1999998092651</ele>
        <time>2022-04-17T07:21:28.000Z</time>
      </trkpt>
      <trkpt lat="47.27007" lon="-2.32105">
        <ele>-4.1999998092651</ele>
        <time>2022-04-17T07:21:29.000Z</time>
      </trkpt>
      <trkpt lat="47.27011" lon="-2.32082">
        <ele>-4.1999998092651</ele>
        <time>2022-04-17T07:21:33.000Z</time>
      </trkpt>
      <trkpt lat="47.27011" lon="-2.32042">
        <ele>-4.1999998092651</ele>
        <time>2022-04-17T07:21:40.000Z</time>
      </trkpt>
      <trkpt lat="47.2701" lon="-2.32036">
        <ele>-3.7999999523163</ele>
        <time>2022-04-17T07:21:41.000Z</time>
      </trkpt>
      <trkpt lat="47.27009" lon="-2.32031">
        <ele>-3.4000000953674</ele>
        <time>2022-04-17T07:21:42.000Z</time>
      </trkpt>
      <trkpt lat="47.27008" lon="-2.32027">
        <ele>-2.7999999523163</ele>
        <time>2022-04-17T07:21:43.000Z</time>
      </trkpt>
      <trkpt lat="47.27007" lon="-2.32021">
        <ele>-2.4000000953674</ele>
        <time>2022-04-17T07:21:44.000Z</time>
      </trkpt>
      <trkpt lat="47.27006" lon="-2.32016">
        <ele>-2</ele>
        <time>2022-04-17T07:21:45.000Z</time>
      </trkpt>
      <trkpt lat="47.27005" lon="-2.32011">
        <ele>-2</ele>
        <time>2022-04-17T07:21:46.000Z</time>
      </trkpt>
      <trkpt lat="47.27004" lon="-2.31992">
        <ele>-2</ele>
        <time>2022-04-17T07:21:49.000Z</time>
      </trkpt>
      <trkpt lat="47.27009" lon="-2.31981">
        <ele>-2</ele>
        <time>2022-04-17T07:21:51.000Z</time>
      </trkpt>
      <trkpt lat="47.27019" lon="-2.31972">
        <ele>-1.2000000476837</ele>
        <time>2022-04-17T07:21:54.000Z</time>
      </trkpt>
      <trkpt lat="47.27023" lon="-2.31969">
        <ele>-0.80000001192093</ele>
        <time>2022-04-17T07:21:55.000Z</time>
      </trkpt>
      <trkpt lat="47.27027" lon="-2.31967">
        <ele>-0.40000000596046</ele>
        <time>2022-04-17T07:21:56.000Z</time>
      </trkpt>
      <trkpt lat="47.2703" lon="-2.31964">
        <ele>10.3</ele>
        <time>2022-04-17T07:21:57.000Z</time>
      </trkpt>
      <trkpt lat="47.27046" lon="-2.31959">
        <ele>9.8</ele>
        <time>2022-04-17T07:22:01.000Z</time>
      </trkpt>
      <trkpt lat="47.27065" lon="-2.31962">
        <ele>8.7</ele>
        <time>2022-04-17T07:22:06.000Z</time>
      </trkpt>
      <trkpt lat="47.27072" lon="-2.31956">
        <ele>8.4</ele>
        <time>2022-04-17T07:22:09.000Z</time>
      </trkpt>
      <trkpt lat="47.27073" lon="-2.31953">
        <ele>8.4</ele>
        <time>2022-04-17T07:22:10.000Z</time>
      </trkpt>
      <trkpt lat="47.27075" lon="-2.31944">
        <ele>8.3</ele>
        <time>2022-04-17T07:22:14.000Z</time>
      </trkpt>
      <trkpt lat="47.27073" lon="-2.3192">
        <ele>9.2</ele>
        <time>2022-04-17T07:22:19.000Z</time>
      </trkpt>
      <trkpt lat="47.27072" lon="-2.31888">
        <ele>10.2</ele>
        <time>2022-04-17T07:22:25.000Z</time>
      </trkpt>
      <trkpt lat="47.27077" lon="-2.31867">
        <ele>10.1</ele>
        <time>2022-04-17T07:22:31.000Z</time>
      </trkpt>
      <trkpt lat="47.27074" lon="-2.31858">
        <ele>10.3</ele>
        <time>2022-04-17T07:22:35.000Z</time>
      </trkpt>
      <trkpt lat="47.27062" lon="-2.31849">
        <ele>10.8</ele>
        <time>2022-04-17T07:22:40.000Z</time>
      </trkpt>
      <trkpt lat="47.2706" lon="-2.31835">
        <ele>10.8</ele>
        <time>2022-04-17T07:22:43.000Z</time>
      </trkpt>
      <trkpt lat="47.2706" lon="-2.3183">
        <ele>11</ele>
        <time>2022-04-17T07:22:44.000Z</time>
      </trkpt>
      <trkpt lat="47.2706" lon="-2.31821">
        <ele>0.40000000596046</ele>
        <time>2022-04-17T07:22:46.000Z</time>
      </trkpt>
      <trkpt lat="47.27059" lon="-2.31816">
        <ele>0.80000001192093</ele>
        <time>2022-04-17T07:22:47.000Z</time>
      </trkpt>
      <trkpt lat="47.27059" lon="-2.31812">
        <ele>1.3999999761581</ele>
        <time>2022-04-17T07:22:48.000Z</time>
      </trkpt>
      <trkpt lat="47.27058" lon="-2.31807">
        <ele>1.7999999523163</ele>
        <time>2022-04-17T07:22:49.000Z</time>
      </trkpt>
      <trkpt lat="47.27058" lon="-2.31802">
        <ele>2.2000000476837</ele>
        <time>2022-04-17T07:22:50.000Z</time>
      </trkpt>
      <trkpt lat="47.27056" lon="-2.31798">
        <ele>2.2000000476837</ele>
        <time>2022-04-17T07:22:51.000Z</time>
      </trkpt>
      <trkpt lat="47.27054" lon="-2.31772">
        <ele>2.2000000476837</ele>
        <time>2022-04-17T07:22:57.000Z</time>
      </trkpt>
      <trkpt lat="47.27051" lon="-2.31749">
        <ele>2.2000000476837</ele>
        <time>2022-04-17T07:23:03.000Z</time>
      </trkpt>
      <trkpt lat="47.27053" lon="-2.31741">
        <ele>2.5999999046326</ele>
        <time>2022-04-17T07:23:05.000Z</time>
      </trkpt>
      <trkpt lat="47.27052" lon="-2.31737">
        <ele>3</ele>
        <time>2022-04-17T07:23:06.000Z</time>
      </trkpt>
      <trkpt lat="47.2705" lon="-2.31733">
        <ele>3.4000000953674</ele>
        <time>2022-04-17T07:23:07.000Z</time>
      </trkpt>
      <trkpt lat="47.27048" lon="-2.3173">
        <ele>3.7999999523163</ele>
        <time>2022-04-17T07:23:08.000Z</time>
      </trkpt>
      <trkpt lat="47.27045" lon="-2.31727">
        <ele>4.1999998092651</ele>
        <time>2022-04-17T07:23:09.000Z</time>
      </trkpt>
      <trkpt lat="47.27038" lon="-2.31723">
        <ele>4.1999998092651</ele>
        <time>2022-04-17T07:23:11.000Z</time>
      </trkpt>
      <trkpt lat="47.27032" lon="-2.31719">
        <ele>4.1999998092651</ele>
        <time>2022-04-17T07:23:13.000Z</time>
      </trkpt>
      <trkpt lat="47.27026" lon="-2.3171">
        <ele>4.1999998092651</ele>
        <time>2022-04-17T07:23:16.000Z</time>
      </trkpt>
      <trkpt lat="47.27027" lon="-2.31702">
        <ele>4.1999998092651</ele>
        <time>2022-04-17T07:23:18.000Z</time>
      </trkpt>
      <trkpt lat="47.27031" lon="-2.31682">
        <ele>4.5999999046326</ele>
        <time>2022-04-17T07:23:23.000Z</time>
      </trkpt>
      <trkpt lat="47.27033" lon="-2.31677">
        <ele>5</ele>
        <time>2022-04-17T07:23:24.000Z</time>
      </trkpt>
      <trkpt lat="47.27033" lon="-2.31673">
        <ele>5.4000000953674</ele>
        <time>2022-04-17T07:23:25.000Z</time>
      </trkpt>
      <trkpt lat="47.27033" lon="-2.31668">
        <ele>5.8000001907349</ele>
        <time>2022-04-17T07:23:26.000Z</time>
      </trkpt>
      <trkpt lat="47.27033" lon="-2.31663">
        <ele>6.1999998092651</ele>
        <time>2022-04-17T07:23:27.000Z</time>
      </trkpt>
      <trkpt lat="47.27032" lon="-2.31643">
        <ele>6.1999998092651</ele>
        <time>2022-04-17T07:23:31.000Z</time>
      </trkpt>
      <trkpt lat="47.2703" lon="-2.31624">
        <ele>6.5999999046326</ele>
        <time>2022-04-17T07:23:36.000Z</time>
      </trkpt>
      <trkpt lat="47.27029" lon="-2.31619">
        <ele>7</ele>
        <time>2022-04-17T07:23:37.000Z</time>
      </trkpt>
      <trkpt lat="47.27028" lon="-2.31616">
        <ele>7.4000000953674</ele>
        <time>2022-04-17T07:23:38.000Z</time>
      </trkpt>
      <trkpt lat="47.27027" lon="-2.31613">
        <ele>8</ele>
        <time>2022-04-17T07:23:39.000Z</time>
      </trkpt>
      <trkpt lat="47.27026" lon="-2.3161">
        <ele>8.3999996185303</ele>
        <time>2022-04-17T07:23:40.000Z</time>
      </trkpt>
      <trkpt lat="47.27026" lon="-2.31604">
        <ele>8.3999996185303</ele>
        <time>2022-04-17T07:23:42.000Z</time>
      </trkpt>
      <trkpt lat="47.27024" lon="-2.31594">
        <ele>8.8000001907349</ele>
        <time>2022-04-17T07:23:45.000Z</time>
      </trkpt>
      <trkpt lat="47.27023" lon="-2.3159">
        <ele>9.1999998092651</ele>
        <time>2022-04-17T07:23:46.000Z</time>
      </trkpt>
      <trkpt lat="47.27022" lon="-2.31587">
        <ele>9.6000003814697</ele>
        <time>2022-04-17T07:23:47.000Z</time>
      </trkpt>
      <trkpt lat="47.27021" lon="-2.31583">
        <ele>10</ele>
        <time>2022-04-17T07:23:48.000Z</time>
      </trkpt>
      <trkpt lat="47.2702" lon="-2.31579">
        <ele>10.39999961853</ele>
        <time>2022-04-17T07:23:49.000Z</time>
      </trkpt>
      <trkpt lat="47.27011" lon="-2.31555">
        <ele>10.800000190735</ele>
        <time>2022-04-17T07:23:56.000Z</time>
      </trkpt>
      <trkpt lat="47.2701" lon="-2.3155">
        <ele>11.199999809265</ele>
        <time>2022-04-17T07:23:57.000Z</time>
      </trkpt>
      <trkpt lat="47.27009" lon="-2.31546">
        <ele>12</ele>
        <time>2022-04-17T07:23:58.000Z</time>
      </trkpt>
      <trkpt lat="47.27008" lon="-2.31544">
        <ele>12.39999961853</ele>
        <time>2022-04-17T07:23:59.000Z</time>
      </trkpt>
      <trkpt lat="47.27005" lon="-2.31533">
        <ele>12.39999961853</ele>
        <time>2022-04-17T07:24:02.000Z</time>
      </trkpt>
      <trkpt lat="47.26999" lon="-2.31509">
        <ele>12.39999961853</ele>
        <time>2022-04-17T07:24:08.000Z</time>
      </trkpt>
      <trkpt lat="47.26998" lon="-2.31504">
        <ele>12.800000190735</ele>
        <time>2022-04-17T07:24:09.000Z</time>
      </trkpt>
      <trkpt lat="47.26997" lon="-2.315">
        <ele>13.199999809265</ele>
        <time>2022-04-17T07:24:10.000Z</time>
      </trkpt>
      <trkpt lat="47.26996" lon="-2.31495">
        <ele>13.60000038147</ele>
        <time>2022-04-17T07:24:11.000Z</time>
      </trkpt>
      <trkpt lat="47.26995" lon="-2.3149">
        <ele>14</ele>
        <time>2022-04-17T07:24:12.000Z</time>
      </trkpt>
      <trkpt lat="47.26994" lon="-2.31486">
        <ele>14.39999961853</ele>
        <time>2022-04-17T07:24:13.000Z</time>
      </trkpt>
      <trkpt lat="47.26992" lon="-2.31475">
        <ele>14.39999961853</ele>
        <time>2022-04-17T07:24:15.000Z</time>
      </trkpt>
      <trkpt lat="47.26988" lon="-2.31452">
        <ele>14.39999961853</ele>
        <time>2022-04-17T07:24:21.000Z</time>
      </trkpt>
      <trkpt lat="47.26988" lon="-2.31444">
        <ele>15.199999809265</ele>
        <time>2022-04-17T07:24:23.000Z</time>
      </trkpt>
      <trkpt lat="47.26988" lon="-2.31439">
        <ele>15.60000038147</ele>
        <time>2022-04-17T07:24:24.000Z</time>
      </trkpt>
      <trkpt lat="47.26988" lon="-2.31435">
        <ele>16.200000762939</ele>
        <time>2022-04-17T07:24:25.000Z</time>
      </trkpt>
      <trkpt lat="47.26987" lon="-2.31431">
        <ele>16.60000038147</ele>
        <time>2022-04-17T07:24:26.000Z</time>
      </trkpt>
      <trkpt lat="47.26986" lon="-2.31423">
        <ele>16.60000038147</ele>
        <time>2022-04-17T07:24:28.000Z</time>
      </trkpt>
      <trkpt lat="47.26985" lon="-2.31385">
        <ele>16.60000038147</ele>
        <time>2022-04-17T07:24:36.000Z</time>
      </trkpt>
      <trkpt lat="47.26985" lon="-2.31373">
        <ele>17</ele>
        <time>2022-04-17T07:24:39.000Z</time>
      </trkpt>
      <trkpt lat="47.26984" lon="-2.31369">
        <ele>17.39999961853</ele>
        <time>2022-04-17T07:24:40.000Z</time>
      </trkpt>
      <trkpt lat="47.26984" lon="-2.31365">
        <ele>17.799999237061</ele>
        <time>2022-04-17T07:24:41.000Z</time>
      </trkpt>
      <trkpt lat="47.26983" lon="-2.31362">
        <ele>18.200000762939</ele>
        <time>2022-04-17T07:24:42.000Z</time>
      </trkpt>
      <trkpt lat="47.26983" lon="-2.31358">
        <ele>18.60000038147</ele>
        <time>2022-04-17T07:24:43.000Z</time>
      </trkpt>
      <trkpt lat="47.26978" lon="-2.31327">
        <ele>18.60000038147</ele>
        <time>2022-04-17T07:24:50.000Z</time>
      </trkpt>
      <trkpt lat="47.26974" lon="-2.31295">
        <ele>19</ele>
        <time>2022-04-17T07:24:56.000Z</time>
      </trkpt>
      <trkpt lat="47.26975" lon="-2.31288">
        <ele>19.39999961853</ele>
        <time>2022-04-17T07:24:57.000Z</time>
      </trkpt>
      <trkpt lat="47.26975" lon="-2.31281">
        <ele>19.799999237061</ele>
        <time>2022-04-17T07:24:58.000Z</time>
      </trkpt>
      <trkpt lat="47.26975" lon="-2.31275">
        <ele>20.39999961853</ele>
        <time>2022-04-17T07:24:59.000Z</time>
      </trkpt>
      <trkpt lat="47.26975" lon="-2.31267">
        <ele>20.799999237061</ele>
        <time>2022-04-17T07:25:00.000Z</time>
      </trkpt>
      <trkpt lat="47.26974" lon="-2.31245">
        <ele>20.799999237061</ele>
        <time>2022-04-17T07:25:03.000Z</time>
      </trkpt>
      <trkpt lat="47.26981" lon="-2.31201">
        <ele>20.799999237061</ele>
        <time>2022-04-17T07:25:09.000Z</time>
      </trkpt>
      <trkpt lat="47.26984" lon="-2.31176">
        <ele>20.200000762939</ele>
        <time>2022-04-17T07:25:12.000Z</time>
      </trkpt>
      <trkpt lat="47.26986" lon="-2.31167">
        <ele>19.799999237061</ele>
        <time>2022-04-17T07:25:13.000Z</time>
      </trkpt>
      <trkpt lat="47.26986" lon="-2.31158">
        <ele>19.39999961853</ele>
        <time>2022-04-17T07:25:14.000Z</time>
      </trkpt>
      <trkpt lat="47.26986" lon="-2.3115">
        <ele>18.799999237061</ele>
        <time>2022-04-17T07:25:15.000Z</time>
      </trkpt>
      <trkpt lat="47.26988" lon="-2.31141">
        <ele>18.39999961853</ele>
        <time>2022-04-17T07:25:16.000Z</time>
      </trkpt>
      <trkpt lat="47.26989" lon="-2.31113">
        <ele>18.39999961853</ele>
        <time>2022-04-17T07:25:19.000Z</time>
      </trkpt>
      <trkpt lat="47.26989" lon="-2.31104">
        <ele>18</ele>
        <time>2022-04-17T07:25:20.000Z</time>
      </trkpt>
      <trkpt lat="47.26989" lon="-2.31096">
        <ele>17.60000038147</ele>
        <time>2022-04-17T07:25:21.000Z</time>
      </trkpt>
      <trkpt lat="47.26987" lon="-2.31089">
        <ele>17.200000762939</ele>
        <time>2022-04-17T07:25:22.000Z</time>
      </trkpt>
      <trkpt lat="47.26987" lon="-2.31083">
        <ele>16.799999237061</ele>
        <time>2022-04-17T07:25:23.000Z</time>
      </trkpt>
      <trkpt lat="47.26987" lon="-2.31078">
        <ele>16.39999961853</ele>
        <time>2022-04-17T07:25:24.000Z</time>
      </trkpt>
      <trkpt lat="47.26991" lon="-2.31059">
        <ele>16.39999961853</ele>
        <time>2022-04-17T07:25:28.000Z</time>
      </trkpt>
      <trkpt lat="47.26995" lon="-2.31056">
        <ele>16</ele>
        <time>2022-04-17T07:25:29.000Z</time>
      </trkpt>
      <trkpt lat="47.27" lon="-2.31051">
        <ele>15.60000038147</ele>
        <time>2022-04-17T07:25:30.000Z</time>
      </trkpt>
      <trkpt lat="47.27004" lon="-2.31046">
        <ele>15.199999809265</ele>
        <time>2022-04-17T07:25:31.000Z</time>
      </trkpt>
      <trkpt lat="47.27009" lon="-2.31041">
        <ele>14.800000190735</ele>
        <time>2022-04-17T07:25:32.000Z</time>
      </trkpt>
      <trkpt lat="47.27014" lon="-2.31036">
        <ele>14.39999961853</ele>
        <time>2022-04-17T07:25:33.000Z</time>
      </trkpt>
      <trkpt lat="47.2704" lon="-2.31011">
        <ele>14.39999961853</ele>
        <time>2022-04-17T07:25:38.000Z</time>
      </trkpt>
      <trkpt lat="47.27045" lon="-2.31006">
        <ele>14</ele>
        <time>2022-04-17T07:25:39.000Z</time>
      </trkpt>
      <trkpt lat="47.27049" lon="-2.31002">
        <ele>13.39999961853</ele>
        <time>2022-04-17T07:25:40.000Z</time>
      </trkpt>
      <trkpt lat="47.27053" lon="-2.30997">
        <ele>13</ele>
        <time>2022-04-17T07:25:41.000Z</time>
      </trkpt>
      <trkpt lat="47.27054" lon="-2.30991">
        <ele>12.60000038147</ele>
        <time>2022-04-17T07:25:42.000Z</time>
      </trkpt>
      <trkpt lat="47.27053" lon="-2.30985">
        <ele>12.199999809265</ele>
        <time>2022-04-17T07:25:43.000Z</time>
      </trkpt>
      <trkpt lat="47.27051" lon="-2.30974">
        <ele>12.199999809265</ele>
        <time>2022-04-17T07:25:45.000Z</time>
      </trkpt>
      <trkpt lat="47.27049" lon="-2.3096">
        <ele>12.199999809265</ele>
        <time>2022-04-17T07:25:48.000Z</time>
      </trkpt>
      <trkpt lat="47.27048" lon="-2.30949">
        <ele>12.199999809265</ele>
        <time>2022-04-17T07:25:50.000Z</time>
      </trkpt>
      <trkpt lat="47.27048" lon="-2.30943">
        <ele>12.199999809265</ele>
        <time>2022-04-17T07:25:51.000Z</time>
      </trkpt>
      <trkpt lat="47.27043" lon="-2.30927">
        <ele>12.199999809265</ele>
        <time>2022-04-17T07:25:55.000Z</time>
      </trkpt>
      <trkpt lat="47.2704" lon="-2.30912">
        <ele>12.199999809265</ele>
        <time>2022-04-17T07:26:00.000Z</time>
      </trkpt>
      <trkpt lat="47.27032" lon="-2.3089">
        <ele>12.199999809265</ele>
        <time>2022-04-17T07:26:04.000Z</time>
      </trkpt>
      <trkpt lat="47.27021" lon="-2.30867">
        <ele>12.199999809265</ele>
        <time>2022-04-17T07:26:08.000Z</time>
      </trkpt>
      <trkpt lat="47.27018" lon="-2.30861">
        <ele>12.199999809265</ele>
        <time>2022-04-17T07:26:09.000Z</time>
      </trkpt>
      <trkpt lat="47.27006" lon="-2.30837">
        <ele>12.199999809265</ele>
        <time>2022-04-17T07:26:13.000Z</time>
      </trkpt>
      <trkpt lat="47.27003" lon="-2.30832">
        <ele>12.199999809265</ele>
        <time>2022-04-17T07:26:14.000Z</time>
      </trkpt>
      <trkpt lat="47.26994" lon="-2.30816">
        <ele>12.60000038147</ele>
        <time>2022-04-17T07:26:17.000Z</time>
      </trkpt>
      <trkpt lat="47.26991" lon="-2.30812">
        <ele>13</ele>
        <time>2022-04-17T07:26:18.000Z</time>
      </trkpt>
      <trkpt lat="47.26988" lon="-2.30809">
        <ele>13.39999961853</ele>
        <time>2022-04-17T07:26:19.000Z</time>
      </trkpt>
      <trkpt lat="47.26985" lon="-2.30804">
        <ele>14</ele>
        <time>2022-04-17T07:26:20.000Z</time>
      </trkpt>
      <trkpt lat="47.26983" lon="-2.308">
        <ele>14.39999961853</ele>
        <time>2022-04-17T07:26:21.000Z</time>
      </trkpt>
      <trkpt lat="47.26968" lon="-2.30776">
        <ele>14.39999961853</ele>
        <time>2022-04-17T07:26:27.000Z</time>
      </trkpt>
      <trkpt lat="47.26959" lon="-2.30762">
        <ele>14.800000190735</ele>
        <time>2022-04-17T07:26:30.000Z</time>
      </trkpt>
      <trkpt lat="47.26956" lon="-2.30758">
        <ele>15.199999809265</ele>
        <time>2022-04-17T07:26:31.000Z</time>
      </trkpt>
      <trkpt lat="47.26954" lon="-2.30755">
        <ele>15.60000038147</ele>
        <time>2022-04-17T07:26:32.000Z</time>
      </trkpt>
      <trkpt lat="47.26951" lon="-2.3075">
        <ele>16</ele>
        <time>2022-04-17T07:26:33.000Z</time>
      </trkpt>
      <trkpt lat="47.26948" lon="-2.30746">
        <ele>16.39999961853</ele>
        <time>2022-04-17T07:26:34.000Z</time>
      </trkpt>
      <trkpt lat="47.26929" lon="-2.30716">
        <ele>17</ele>
        <time>2022-04-17T07:26:41.000Z</time>
      </trkpt>
      <trkpt lat="47.26926" lon="-2.30712">
        <ele>17.39999961853</ele>
        <time>2022-04-17T07:26:42.000Z</time>
      </trkpt>
      <trkpt lat="47.26925" lon="-2.30707">
        <ele>17.799999237061</ele>
        <time>2022-04-17T07:26:43.000Z</time>
      </trkpt>
      <trkpt lat="47.26923" lon="-2.30703">
        <ele>18.200000762939</ele>
        <time>2022-04-17T07:26:44.000Z</time>
      </trkpt>
      <trkpt lat="47.2692" lon="-2.307">
        <ele>18.60000038147</ele>
        <time>2022-04-17T07:26:45.000Z</time>
      </trkpt>
      <trkpt lat="47.2691" lon="-2.30686">
        <ele>18.60000038147</ele>
        <time>2022-04-17T07:26:49.000Z</time>
      </trkpt>
      <trkpt lat="47.26901" lon="-2.30673">
        <ele>18.60000038147</ele>
        <time>2022-04-17T07:26:54.000Z</time>
      </trkpt>
      <trkpt lat="47.26899" lon="-2.30668">
        <ele>18.60000038147</ele>
        <time>2022-04-17T07:26:58.000Z</time>
      </trkpt>
      <trkpt lat="47.26898" lon="-2.30666">
        <ele>18.60000038147</ele>
        <time>2022-04-17T07:27:14.000Z</time>
      </trkpt>
      <trkpt lat="47.26897" lon="-2.30664">
        <ele>18.60000038147</ele>
        <time>2022-04-17T07:27:15.000Z</time>
      </trkpt>
      <trkpt lat="47.26891" lon="-2.30665">
        <ele>18.60000038147</ele>
        <time>2022-04-17T07:27:18.000Z</time>
      </trkpt>
      <trkpt lat="47.26889" lon="-2.30667">
        <ele>18.60000038147</ele>
        <time>2022-04-17T07:27:19.000Z</time>
      </trkpt>
      <trkpt lat="47.26875" lon="-2.30684">
        <ele>18.60000038147</ele>
        <time>2022-04-17T07:27:24.000Z</time>
      </trkpt>
      <trkpt lat="47.26861" lon="-2.30708">
        <ele>18.60000038147</ele>
        <time>2022-04-17T07:27:29.000Z</time>
      </trkpt>
      <trkpt lat="47.26856" lon="-2.30719">
        <ele>18.60000038147</ele>
        <time>2022-04-17T07:27:31.000Z</time>
      </trkpt>
      <trkpt lat="47.26833" lon="-2.30779">
        <ele>18.60000038147</ele>
        <time>2022-04-17T07:27:40.000Z</time>
      </trkpt>
      <trkpt lat="47.2683" lon="-2.30785">
        <ele>18.60000038147</ele>
        <time>2022-04-17T07:27:41.000Z</time>
      </trkpt>
      <trkpt lat="47.26816" lon="-2.30798">
        <ele>18.60000038147</ele>
        <time>2022-04-17T07:27:44.000Z</time>
      </trkpt>
      <trkpt lat="47.26811" lon="-2.30802">
        <ele>18.60000038147</ele>
        <time>2022-04-17T07:27:45.000Z</time>
      </trkpt>
      <trkpt lat="47.26787" lon="-2.30824">
        <ele>18.60000038147</ele>
        <time>2022-04-17T07:27:50.000Z</time>
      </trkpt>
      <trkpt lat="47.26758" lon="-2.30852">
        <ele>18.60000038147</ele>
        <time>2022-04-17T07:27:56.000Z</time>
      </trkpt>
      <trkpt lat="47.26744" lon="-2.30866">
        <ele>18.60000038147</ele>
        <time>2022-04-17T07:27:59.000Z</time>
      </trkpt>
      <trkpt lat="47.26734" lon="-2.30866">
        <ele>18.60000038147</ele>
        <time>2022-04-17T07:28:01.000Z</time>
      </trkpt>
      <trkpt lat="47.26722" lon="-2.3085">
        <ele>18.60000038147</ele>
        <time>2022-04-17T07:28:04.000Z</time>
      </trkpt>
      <trkpt lat="47.26699" lon="-2.30799">
        <ele>18.60000038147</ele>
        <time>2022-04-17T07:28:11.000Z</time>
      </trkpt>
      <trkpt lat="47.26674" lon="-2.30738">
        <ele>18.60000038147</ele>
        <time>2022-04-17T07:28:18.000Z</time>
      </trkpt>
      <trkpt lat="47.26667" lon="-2.30721">
        <ele>18.200000762939</ele>
        <time>2022-04-17T07:28:20.000Z</time>
      </trkpt>
      <trkpt lat="47.26663" lon="-2.30712">
        <ele>17.799999237061</ele>
        <time>2022-04-17T07:28:21.000Z</time>
      </trkpt>
      <trkpt lat="47.2666" lon="-2.30704">
        <ele>17.39999961853</ele>
        <time>2022-04-17T07:28:22.000Z</time>
      </trkpt>
      <trkpt lat="47.26657" lon="-2.30698">
        <ele>17</ele>
        <time>2022-04-17T07:28:23.000Z</time>
      </trkpt>
      <trkpt lat="47.26654" lon="-2.30693">
        <ele>16.60000038147</ele>
        <time>2022-04-17T07:28:24.000Z</time>
      </trkpt>
      <trkpt lat="47.26647" lon="-2.30692">
        <ele>16.60000038147</ele>
        <time>2022-04-17T07:28:26.000Z</time>
      </trkpt>
      <trkpt lat="47.26637" lon="-2.30709">
        <ele>16.60000038147</ele>
        <time>2022-04-17T07:28:30.000Z</time>
      </trkpt>
      <trkpt lat="47.26635" lon="-2.30714">
        <ele>16</ele>
        <time>2022-04-17T07:28:31.000Z</time>
      </trkpt>
      <trkpt lat="47.26632" lon="-2.30717">
        <ele>15.60000038147</ele>
        <time>2022-04-17T07:28:32.000Z</time>
      </trkpt>
      <trkpt lat="47.26629" lon="-2.30721">
        <ele>15.199999809265</ele>
        <time>2022-04-17T07:28:33.000Z</time>
      </trkpt>
      <trkpt lat="47.26626" lon="-2.30724">
        <ele>14.800000190735</ele>
        <time>2022-04-17T07:28:34.000Z</time>
      </trkpt>
      <trkpt lat="47.26623" lon="-2.30728">
        <ele>14.199999809265</ele>
        <time>2022-04-17T07:28:35.000Z</time>
      </trkpt>
      <trkpt lat="47.26612" lon="-2.30741">
        <ele>14.199999809265</ele>
        <time>2022-04-17T07:28:39.000Z</time>
      </trkpt>
      <trkpt lat="47.26603" lon="-2.30752">
        <ele>14.199999809265</ele>
        <time>2022-04-17T07:28:44.000Z</time>
      </trkpt>
      <trkpt lat="47.26585" lon="-2.30774">
        <ele>13.800000190735</ele>
        <time>2022-04-17T07:28:49.000Z</time>
      </trkpt>
      <trkpt lat="47.26581" lon="-2.30779">
        <ele>13.39999961853</ele>
        <time>2022-04-17T07:28:50.000Z</time>
      </trkpt>
      <trkpt lat="47.26578" lon="-2.30783">
        <ele>13</ele>
        <time>2022-04-17T07:28:51.000Z</time>
      </trkpt>
      <trkpt lat="47.26575" lon="-2.30788">
        <ele>12.60000038147</ele>
        <time>2022-04-17T07:28:52.000Z</time>
      </trkpt>
      <trkpt lat="47.26572" lon="-2.30793">
        <ele>12.199999809265</ele>
        <time>2022-04-17T07:28:53.000Z</time>
      </trkpt>
      <trkpt lat="47.26564" lon="-2.30808">
        <ele>12.199999809265</ele>
        <time>2022-04-17T07:28:56.000Z</time>
      </trkpt>
      <trkpt lat="47.26561" lon="-2.30817">
        <ele>11.800000190735</ele>
        <time>2022-04-17T07:28:58.000Z</time>
      </trkpt>
      <trkpt lat="47.26559" lon="-2.3082">
        <ele>11.39999961853</ele>
        <time>2022-04-17T07:28:59.000Z</time>
      </trkpt>
      <trkpt lat="47.26558" lon="-2.30824">
        <ele>11</ele>
        <time>2022-04-17T07:29:00.000Z</time>
      </trkpt>
      <trkpt lat="47.26557" lon="-2.30827">
        <ele>10.60000038147</ele>
        <time>2022-04-17T07:29:01.000Z</time>
      </trkpt>
      <trkpt lat="47.26555" lon="-2.3083">
        <ele>10.199999809265</ele>
        <time>2022-04-17T07:29:02.000Z</time>
      </trkpt>
      <trkpt lat="47.26542" lon="-2.30844">
        <ele>10.199999809265</ele>
        <time>2022-04-17T07:29:07.000Z</time>
      </trkpt>
      <trkpt lat="47.2652" lon="-2.30866">
        <ele>10.199999809265</ele>
        <time>2022-04-17T07:29:13.000Z</time>
      </trkpt>
      <trkpt lat="47.2651" lon="-2.30873">
        <ele>10.199999809265</ele>
        <time>2022-04-17T07:29:16.000Z</time>
      </trkpt>
      <trkpt lat="47.26508" lon="-2.30873">
        <ele>10.199999809265</ele>
        <time>2022-04-17T07:29:17.000Z</time>
      </trkpt>
      <trkpt lat="47.26502" lon="-2.30867">
        <ele>10.199999809265</ele>
        <time>2022-04-17T07:29:21.000Z</time>
      </trkpt>
      <trkpt lat="47.26489" lon="-2.30854">
        <ele>10.199999809265</ele>
        <time>2022-04-17T07:29:27.000Z</time>
      </trkpt>
      <trkpt lat="47.26485" lon="-2.30848">
        <ele>10.60000038147</ele>
        <time>2022-04-17T07:29:29.000Z</time>
      </trkpt>
      <trkpt lat="47.26484" lon="-2.30846">
        <ele>11</ele>
        <time>2022-04-17T07:29:30.000Z</time>
      </trkpt>
      <trkpt lat="47.26482" lon="-2.30843">
        <ele>11.39999961853</ele>
        <time>2022-04-17T07:29:31.000Z</time>
      </trkpt>
      <trkpt lat="47.2648" lon="-2.30839">
        <ele>11.800000190735</ele>
        <time>2022-04-17T07:29:32.000Z</time>
      </trkpt>
      <trkpt lat="47.26478" lon="-2.30836">
        <ele>12.199999809265</ele>
        <time>2022-04-17T07:29:33.000Z</time>
      </trkpt>
      <trkpt lat="47.26471" lon="-2.30811">
        <ele>12.60000038147</ele>
        <time>2022-04-17T07:29:38.000Z</time>
      </trkpt>
      <trkpt lat="47.26469" lon="-2.30804">
        <ele>13.199999809265</ele>
        <time>2022-04-17T07:29:39.000Z</time>
      </trkpt>
      <trkpt lat="47.26466" lon="-2.30798">
        <ele>13.60000038147</ele>
        <time>2022-04-17T07:29:40.000Z</time>
      </trkpt>
      <trkpt lat="47.26464" lon="-2.30793">
        <ele>14</ele>
        <time>2022-04-17T07:29:41.000Z</time>
      </trkpt>
      <trkpt lat="47.26461" lon="-2.30788">
        <ele>14.60000038147</ele>
        <time>2022-04-17T07:29:42.000Z</time>
      </trkpt>
      <trkpt lat="47.26456" lon="-2.30776">
        <ele>14.60000038147</ele>
        <time>2022-04-17T07:29:45.000Z</time>
      </trkpt>
      <trkpt lat="47.26448" lon="-2.3075">
        <ele>14.60000038147</ele>
        <time>2022-04-17T07:29:51.000Z</time>
      </trkpt>
      <trkpt lat="47.26446" lon="-2.30746">
        <ele>15</ele>
        <time>2022-04-17T07:29:52.000Z</time>
      </trkpt>
      <trkpt lat="47.26444" lon="-2.30741">
        <ele>15.39999961853</ele>
        <time>2022-04-17T07:29:53.000Z</time>
      </trkpt>
      <trkpt lat="47.26442" lon="-2.30737">
        <ele>15.800000190735</ele>
        <time>2022-04-17T07:29:54.000Z</time>
      </trkpt>
      <trkpt lat="47.2644" lon="-2.30733">
        <ele>16.200000762939</ele>
        <time>2022-04-17T07:29:55.000Z</time>
      </trkpt>
      <trkpt lat="47.26438" lon="-2.30729">
        <ele>16.60000038147</ele>
        <time>2022-04-17T07:29:56.000Z</time>
      </trkpt>
      <trkpt lat="47.26427" lon="-2.30705">
        <ele>16.60000038147</ele>
        <time>2022-04-17T07:30:02.000Z</time>
      </trkpt>
      <trkpt lat="47.2642" lon="-2.3069">
        <ele>16.60000038147</ele>
        <time>2022-04-17T07:30:06.000Z</time>
      </trkpt>
      <trkpt lat="47.26406" lon="-2.30678">
        <ele>16.60000038147</ele>
        <time>2022-04-17T07:30:11.000Z</time>
      </trkpt>
      <trkpt lat="47.26386" lon="-2.30662">
        <ele>16.60000038147</ele>
        <time>2022-04-17T07:30:16.000Z</time>
      </trkpt>
      <trkpt lat="47.26378" lon="-2.30653">
        <ele>16.60000038147</ele>
        <time>2022-04-17T07:30:18.000Z</time>
      </trkpt>
      <trkpt lat="47.26362" lon="-2.30631">
        <ele>16.60000038147</ele>
        <time>2022-04-17T07:30:23.000Z</time>
      </trkpt>
      <trkpt lat="47.26355" lon="-2.30615">
        <ele>16.60000038147</ele>
        <time>2022-04-17T07:30:28.000Z</time>
      </trkpt>
      <trkpt lat="47.26347" lon="-2.306">
        <ele>16.60000038147</ele>
        <time>2022-04-17T07:30:33.000Z</time>
      </trkpt>
      <trkpt lat="47.26345" lon="-2.30583">
        <ele>16.60000038147</ele>
        <time>2022-04-17T07:30:38.000Z</time>
      </trkpt>
      <trkpt lat="47.26348" lon="-2.30567">
        <ele>17</ele>
        <time>2022-04-17T07:30:44.000Z</time>
      </trkpt>
      <trkpt lat="47.26348" lon="-2.30563">
        <ele>17.39999961853</ele>
        <time>2022-04-17T07:30:45.000Z</time>
      </trkpt>
      <trkpt lat="47.26348" lon="-2.3056">
        <ele>17.799999237061</ele>
        <time>2022-04-17T07:30:46.000Z</time>
      </trkpt>
      <trkpt lat="47.26347" lon="-2.30556">
        <ele>18.200000762939</ele>
        <time>2022-04-17T07:30:47.000Z</time>
      </trkpt>
      <trkpt lat="47.26347" lon="-2.30551">
        <ele>18.60000038147</ele>
        <time>2022-04-17T07:30:48.000Z</time>
      </trkpt>
      <trkpt lat="47.26346" lon="-2.30546">
        <ele>18.60000038147</ele>
        <time>2022-04-17T07:30:49.000Z</time>
      </trkpt>
      <trkpt lat="47.26338" lon="-2.3051">
        <ele>18.60000038147</ele>
        <time>2022-04-17T07:30:55.000Z</time>
      </trkpt>
      <trkpt lat="47.26328" lon="-2.30464">
        <ele>19</ele>
        <time>2022-04-17T07:31:02.000Z</time>
      </trkpt>
      <trkpt lat="47.26326" lon="-2.30456">
        <ele>19.39999961853</ele>
        <time>2022-04-17T07:31:03.000Z</time>
      </trkpt>
      <trkpt lat="47.26325" lon="-2.30449">
        <ele>19.799999237061</ele>
        <time>2022-04-17T07:31:04.000Z</time>
      </trkpt>
      <trkpt lat="47.26323" lon="-2.30442">
        <ele>20.200000762939</ele>
        <time>2022-04-17T07:31:05.000Z</time>
      </trkpt>
      <trkpt lat="47.26321" lon="-2.30434">
        <ele>20.799999237061</ele>
        <time>2022-04-17T07:31:06.000Z</time>
      </trkpt>
      <trkpt lat="47.26316" lon="-2.30412">
        <ele>20.799999237061</ele>
        <time>2022-04-17T07:31:09.000Z</time>
      </trkpt>
      <trkpt lat="47.26307" lon="-2.30363">
        <ele>20.799999237061</ele>
        <time>2022-04-17T07:31:16.000Z</time>
      </trkpt>
      <trkpt lat="47.26303" lon="-2.30336">
        <ele>20.799999237061</ele>
        <time>2022-04-17T07:31:20.000Z</time>
      </trkpt>
      <trkpt lat="47.26296" lon="-2.30318">
        <ele>20.799999237061</ele>
        <time>2022-04-17T07:31:23.000Z</time>
      </trkpt>
      <trkpt lat="47.26283" lon="-2.30275">
        <ele>20.799999237061</ele>
        <time>2022-04-17T07:31:30.000Z</time>
      </trkpt>
      <trkpt lat="47.2628" lon="-2.30262">
        <ele>20.799999237061</ele>
        <time>2022-04-17T07:31:32.000Z</time>
      </trkpt>
      <trkpt lat="47.26275" lon="-2.30235">
        <ele>20.799999237061</ele>
        <time>2022-04-17T07:31:36.000Z</time>
      </trkpt>
      <trkpt lat="47.26271" lon="-2.30208">
        <ele>20.799999237061</ele>
        <time>2022-04-17T07:31:40.000Z</time>
      </trkpt>
      <trkpt lat="47.26267" lon="-2.30189">
        <ele>20.799999237061</ele>
        <time>2022-04-17T07:31:43.000Z</time>
      </trkpt>
      <trkpt lat="47.26257" lon="-2.30155">
        <ele>20.799999237061</ele>
        <time>2022-04-17T07:31:49.000Z</time>
      </trkpt>
      <trkpt lat="47.26247" lon="-2.30132">
        <ele>20.799999237061</ele>
        <time>2022-04-17T07:31:54.000Z</time>
      </trkpt>
      <trkpt lat="47.26236" lon="-2.30133">
        <ele>20.799999237061</ele>
        <time>2022-04-17T07:31:57.000Z</time>
      </trkpt>
      <trkpt lat="47.26217" lon="-2.30142">
        <ele>20.799999237061</ele>
        <time>2022-04-17T07:32:01.000Z</time>
      </trkpt>
      <trkpt lat="47.26212" lon="-2.30144">
        <ele>20.799999237061</ele>
        <time>2022-04-17T07:32:02.000Z</time>
      </trkpt>
      <trkpt lat="47.26197" lon="-2.3015">
        <ele>20.799999237061</ele>
        <time>2022-04-17T07:32:05.000Z</time>
      </trkpt>
      <trkpt lat="47.26182" lon="-2.30156">
        <ele>20.799999237061</ele>
        <time>2022-04-17T07:32:08.000Z</time>
      </trkpt>
      <trkpt lat="47.26176" lon="-2.30157">
        <ele>20.799999237061</ele>
        <time>2022-04-17T07:32:10.000Z</time>
      </trkpt>
      <trkpt lat="47.26174" lon="-2.30154">
        <ele>20.799999237061</ele>
        <time>2022-04-17T07:32:11.000Z</time>
      </trkpt>
      <trkpt lat="47.2617" lon="-2.30146">
        <ele>20.799999237061</ele>
        <time>2022-04-17T07:32:14.000Z</time>
      </trkpt>
      <trkpt lat="47.26166" lon="-2.30148">
        <ele>20.799999237061</ele>
        <time>2022-04-17T07:32:16.000Z</time>
      </trkpt>
      <trkpt lat="47.2615" lon="-2.30154">
        <ele>20.200000762939</ele>
        <time>2022-04-17T07:32:20.000Z</time>
      </trkpt>
      <trkpt lat="47.26145" lon="-2.30156">
        <ele>19.799999237061</ele>
        <time>2022-04-17T07:32:21.000Z</time>
      </trkpt>
      <trkpt lat="47.2614" lon="-2.30157">
        <ele>19.39999961853</ele>
        <time>2022-04-17T07:32:22.000Z</time>
      </trkpt>
      <trkpt lat="47.26135" lon="-2.30158">
        <ele>19</ele>
        <time>2022-04-17T07:32:23.000Z</time>
      </trkpt>
      <trkpt lat="47.2613" lon="-2.3016">
        <ele>18.60000038147</ele>
        <time>2022-04-17T07:32:24.000Z</time>
      </trkpt>
      <trkpt lat="47.26119" lon="-2.30163">
        <ele>18.60000038147</ele>
        <time>2022-04-17T07:32:26.000Z</time>
      </trkpt>
      <trkpt lat="47.26111" lon="-2.30166">
        <ele>18.200000762939</ele>
        <time>2022-04-17T07:32:28.000Z</time>
      </trkpt>
      <trkpt lat="47.26107" lon="-2.30166">
        <ele>17.799999237061</ele>
        <time>2022-04-17T07:32:29.000Z</time>
      </trkpt>
      <trkpt lat="47.26105" lon="-2.30162">
        <ele>17.200000762939</ele>
        <time>2022-04-17T07:32:30.000Z</time>
      </trkpt>
      <trkpt lat="47.26102" lon="-2.30157">
        <ele>16.799999237061</ele>
        <time>2022-04-17T07:32:31.000Z</time>
      </trkpt>
      <trkpt lat="47.261" lon="-2.30153">
        <ele>16.39999961853</ele>
        <time>2022-04-17T07:32:32.000Z</time>
      </trkpt>
      <trkpt lat="47.26097" lon="-2.30152">
        <ele>16.39999961853</ele>
        <time>2022-04-17T07:32:33.000Z</time>
      </trkpt>
      <trkpt lat="47.26082" lon="-2.30152">
        <ele>16</ele>
        <time>2022-04-17T07:32:36.000Z</time>
      </trkpt>
      <trkpt lat="47.26077" lon="-2.30152">
        <ele>15.60000038147</ele>
        <time>2022-04-17T07:32:37.000Z</time>
      </trkpt>
      <trkpt lat="47.26072" lon="-2.3015">
        <ele>15.199999809265</ele>
        <time>2022-04-17T07:32:38.000Z</time>
      </trkpt>
      <trkpt lat="47.26067" lon="-2.30148">
        <ele>14.800000190735</ele>
        <time>2022-04-17T07:32:39.000Z</time>
      </trkpt>
      <trkpt lat="47.26063" lon="-2.30144">
        <ele>14.39999961853</ele>
        <time>2022-04-17T07:32:40.000Z</time>
      </trkpt>
      <trkpt lat="47.26048" lon="-2.30133">
        <ele>14.39999961853</ele>
        <time>2022-04-17T07:32:44.000Z</time>
      </trkpt>
      <trkpt lat="47.26043" lon="-2.30134">
        <ele>14.39999961853</ele>
        <time>2022-04-17T07:32:45.000Z</time>
      </trkpt>
      <trkpt lat="47.26034" lon="-2.30135">
        <ele>14</ele>
        <time>2022-04-17T07:32:47.000Z</time>
      </trkpt>
      <trkpt lat="47.26029" lon="-2.30135">
        <ele>13.60000038147</ele>
        <time>2022-04-17T07:32:48.000Z</time>
      </trkpt>
      <trkpt lat="47.26025" lon="-2.30133">
        <ele>13</ele>
        <time>2022-04-17T07:32:49.000Z</time>
      </trkpt>
      <trkpt lat="47.26022" lon="-2.30132">
        <ele>12.60000038147</ele>
        <time>2022-04-17T07:32:50.000Z</time>
      </trkpt>
      <trkpt lat="47.26018" lon="-2.30133">
        <ele>12.199999809265</ele>
        <time>2022-04-17T07:32:51.000Z</time>
      </trkpt>
      <trkpt lat="47.26004" lon="-2.30134">
        <ele>12.199999809265</ele>
        <time>2022-04-17T07:32:54.000Z</time>
      </trkpt>
      <trkpt lat="47.25999" lon="-2.30134">
        <ele>12.199999809265</ele>
        <time>2022-04-17T07:32:55.000Z</time>
      </trkpt>
      <trkpt lat="47.25986" lon="-2.30136">
        <ele>11.800000190735</ele>
        <time>2022-04-17T07:32:58.000Z</time>
      </trkpt>
      <trkpt lat="47.25982" lon="-2.30136">
        <ele>11.39999961853</ele>
        <time>2022-04-17T07:32:59.000Z</time>
      </trkpt>
      <trkpt lat="47.25978" lon="-2.30138">
        <ele>10.39999961853</ele>
        <time>2022-04-17T07:33:00.000Z</time>
      </trkpt>
      <trkpt lat="47.25974" lon="-2.30141">
        <ele>10</ele>
        <time>2022-04-17T07:33:01.000Z</time>
      </trkpt>
      <trkpt lat="47.25967" lon="-2.30151">
        <ele>10</ele>
        <time>2022-04-17T07:33:03.000Z</time>
      </trkpt>
      <trkpt lat="47.25964" lon="-2.30156">
        <ele>10</ele>
        <time>2022-04-17T07:33:04.000Z</time>
      </trkpt>
      <trkpt lat="47.25959" lon="-2.3016">
        <ele>10</ele>
        <time>2022-04-17T07:33:05.000Z</time>
      </trkpt>
      <trkpt lat="47.2595" lon="-2.30163">
        <ele>10</ele>
        <time>2022-04-17T07:33:07.000Z</time>
      </trkpt>
      <trkpt lat="47.25909" lon="-2.3017">
        <ele>10</ele>
        <time>2022-04-17T07:33:16.000Z</time>
      </trkpt>
      <trkpt lat="47.25891" lon="-2.30181">
        <ele>10</ele>
        <time>2022-04-17T07:33:21.000Z</time>
      </trkpt>
      <trkpt lat="47.2589" lon="-2.30187">
        <ele>10</ele>
        <time>2022-04-17T07:33:22.000Z</time>
      </trkpt>
      <trkpt lat="47.25889" lon="-2.30201">
        <ele>10</ele>
        <time>2022-04-17T07:33:24.000Z</time>
      </trkpt>
      <trkpt lat="47.2589" lon="-2.30215">
        <ele>10</ele>
        <time>2022-04-17T07:33:26.000Z</time>
      </trkpt>
      <trkpt lat="47.25892" lon="-2.30236">
        <ele>10</ele>
        <time>2022-04-17T07:33:29.000Z</time>
      </trkpt>
      <trkpt lat="47.25894" lon="-2.30274">
        <ele>10</ele>
        <time>2022-04-17T07:33:35.000Z</time>
      </trkpt>
      <trkpt lat="47.25896" lon="-2.30287">
        <ele>10</ele>
        <time>2022-04-17T07:33:37.000Z</time>
      </trkpt>
      <trkpt lat="47.25897" lon="-2.30293">
        <ele>10.39999961853</ele>
        <time>2022-04-17T07:33:38.000Z</time>
      </trkpt>
      <trkpt lat="47.25897" lon="-2.303">
        <ele>10.800000190735</ele>
        <time>2022-04-17T07:33:39.000Z</time>
      </trkpt>
      <trkpt lat="47.25898" lon="-2.30307">
        <ele>11.199999809265</ele>
        <time>2022-04-17T07:33:40.000Z</time>
      </trkpt>
      <trkpt lat="47.25899" lon="-2.30313">
        <ele>11.60000038147</ele>
        <time>2022-04-17T07:33:41.000Z</time>
      </trkpt>
      <trkpt lat="47.25902" lon="-2.30319">
        <ele>12</ele>
        <time>2022-04-17T07:33:42.000Z</time>
      </trkpt>
      <trkpt lat="47.25909" lon="-2.3033">
        <ele>12</ele>
        <time>2022-04-17T07:33:44.000Z</time>
      </trkpt>
      <trkpt lat="47.25915" lon="-2.30358">
        <ele>12</ele>
        <time>2022-04-17T07:33:48.000Z</time>
      </trkpt>
      <trkpt lat="47.25916" lon="-2.30366">
        <ele>12</ele>
        <time>2022-04-17T07:33:49.000Z</time>
      </trkpt>
      <trkpt lat="47.25914" lon="-2.30404">
        <ele>12</ele>
        <time>2022-04-17T07:33:54.000Z</time>
      </trkpt>
      <trkpt lat="47.25908" lon="-2.30439">
        <ele>12</ele>
        <time>2022-04-17T07:34:00.000Z</time>
      </trkpt>
      <trkpt lat="47.25898" lon="-2.3047">
        <ele>12.39999961853</ele>
        <time>2022-04-17T07:34:06.000Z</time>
      </trkpt>
      <trkpt lat="47.25896" lon="-2.30474">
        <ele>12.800000190735</ele>
        <time>2022-04-17T07:34:07.000Z</time>
      </trkpt>
      <trkpt lat="47.25894" lon="-2.30479">
        <ele>13.199999809265</ele>
        <time>2022-04-17T07:34:08.000Z</time>
      </trkpt>
      <trkpt lat="47.25893" lon="-2.30485">
        <ele>13.60000038147</ele>
        <time>2022-04-17T07:34:09.000Z</time>
      </trkpt>
      <trkpt lat="47.25891" lon="-2.3049">
        <ele>14</ele>
        <time>2022-04-17T07:34:10.000Z</time>
      </trkpt>
      <trkpt lat="47.25879" lon="-2.30523">
        <ele>14</ele>
        <time>2022-04-17T07:34:16.000Z</time>
      </trkpt>
      <trkpt lat="47.25864" lon="-2.30568">
        <ele>14</ele>
        <time>2022-04-17T07:34:24.000Z</time>
      </trkpt>
      <trkpt lat="47.25851" lon="-2.30619">
        <ele>14</ele>
        <time>2022-04-17T07:34:32.000Z</time>
      </trkpt>
      <trkpt lat="47.25839" lon="-2.30675">
        <ele>14</ele>
        <time>2022-04-17T07:34:40.000Z</time>
      </trkpt>
      <trkpt lat="47.25827" lon="-2.30745">
        <ele>14</ele>
        <time>2022-04-17T07:34:49.000Z</time>
      </trkpt>
      <trkpt lat="47.25817" lon="-2.30809">
        <ele>14</ele>
        <time>2022-04-17T07:34:57.000Z</time>
      </trkpt>
      <trkpt lat="47.25803" lon="-2.30893">
        <ele>14</ele>
        <time>2022-04-17T07:35:07.000Z</time>
      </trkpt>
      <trkpt lat="47.25802" lon="-2.30901">
        <ele>14</ele>
        <time>2022-04-17T07:35:08.000Z</time>
      </trkpt>
      <trkpt lat="47.25797" lon="-2.30923">
        <ele>14</ele>
        <time>2022-04-17T07:35:11.000Z</time>
      </trkpt>
      <trkpt lat="47.25794" lon="-2.30928">
        <ele>14</ele>
        <time>2022-04-17T07:35:12.000Z</time>
      </trkpt>
      <trkpt lat="47.2578" lon="-2.3093">
        <ele>14</ele>
        <time>2022-04-17T07:35:15.000Z</time>
      </trkpt>
      <trkpt lat="47.25764" lon="-2.30931">
        <ele>14</ele>
        <time>2022-04-17T07:35:18.000Z</time>
      </trkpt>
      <trkpt lat="47.25754" lon="-2.30929">
        <ele>14</ele>
        <time>2022-04-17T07:35:20.000Z</time>
      </trkpt>
      <trkpt lat="47.25717" lon="-2.30916">
        <ele>14</ele>
        <time>2022-04-17T07:35:27.000Z</time>
      </trkpt>
      <trkpt lat="47.25681" lon="-2.30904">
        <ele>14</ele>
        <time>2022-04-17T07:35:34.000Z</time>
      </trkpt>
      <trkpt lat="47.25676" lon="-2.30904">
        <ele>14</ele>
        <time>2022-04-17T07:35:35.000Z</time>
      </trkpt>
      <trkpt lat="47.25662" lon="-2.30905">
        <ele>14</ele>
        <time>2022-04-17T07:35:38.000Z</time>
      </trkpt>
      <trkpt lat="47.25658" lon="-2.30902">
        <ele>14</ele>
        <time>2022-04-17T07:35:39.000Z</time>
      </trkpt>
      <trkpt lat="47.25648" lon="-2.30892">
        <ele>14</ele>
        <time>2022-04-17T07:35:42.000Z</time>
      </trkpt>
      <trkpt lat="47.25646" lon="-2.30898">
        <ele>14</ele>
        <time>2022-04-17T07:35:44.000Z</time>
      </trkpt>
      <trkpt lat="47.25651" lon="-2.3091">
        <ele>14</ele>
        <time>2022-04-17T07:35:47.000Z</time>
      </trkpt>
      <trkpt lat="47.25649" lon="-2.30928">
        <ele>14</ele>
        <time>2022-04-17T07:35:50.000Z</time>
      </trkpt>
      <trkpt lat="47.2564" lon="-2.30974">
        <ele>14</ele>
        <time>2022-04-17T07:35:56.000Z</time>
      </trkpt>
      <trkpt lat="47.25632" lon="-2.31014">
        <ele>13.60000038147</ele>
        <time>2022-04-17T07:36:01.000Z</time>
      </trkpt>
      <trkpt lat="47.2563" lon="-2.31022">
        <ele>13.199999809265</ele>
        <time>2022-04-17T07:36:02.000Z</time>
      </trkpt>
      <trkpt lat="47.25628" lon="-2.3103">
        <ele>12.800000190735</ele>
        <time>2022-04-17T07:36:03.000Z</time>
      </trkpt>
      <trkpt lat="47.25626" lon="-2.31038">
        <ele>12.39999961853</ele>
        <time>2022-04-17T07:36:04.000Z</time>
      </trkpt>
      <trkpt lat="47.25624" lon="-2.31045">
        <ele>12</ele>
        <time>2022-04-17T07:36:05.000Z</time>
      </trkpt>
      <trkpt lat="47.25611" lon="-2.31081">
        <ele>12</ele>
        <time>2022-04-17T07:36:11.000Z</time>
      </trkpt>
      <trkpt lat="47.25601" lon="-2.31071">
        <ele>12</ele>
        <time>2022-04-17T07:36:14.000Z</time>
      </trkpt>
      <trkpt lat="47.25581" lon="-2.31053">
        <ele>12</ele>
        <time>2022-04-17T07:36:19.000Z</time>
      </trkpt>
      <trkpt lat="47.25558" lon="-2.31036">
        <ele>12</ele>
        <time>2022-04-17T07:36:23.000Z</time>
      </trkpt>
      <trkpt lat="47.25552" lon="-2.31033">
        <ele>11.60000038147</ele>
        <time>2022-04-17T07:36:24.000Z</time>
      </trkpt>
      <trkpt lat="47.25545" lon="-2.31031">
        <ele>11.199999809265</ele>
        <time>2022-04-17T07:36:25.000Z</time>
      </trkpt>
      <trkpt lat="47.25539" lon="-2.3103">
        <ele>10.60000038147</ele>
        <time>2022-04-17T07:36:26.000Z</time>
      </trkpt>
      <trkpt lat="47.25533" lon="-2.31029">
        <ele>10.199999809265</ele>
        <time>2022-04-17T07:36:27.000Z</time>
      </trkpt>
      <trkpt lat="47.25528" lon="-2.31029">
        <ele>9.8000001907349</ele>
        <time>2022-04-17T07:36:28.000Z</time>
      </trkpt>
      <trkpt lat="47.2552" lon="-2.31026">
        <ele>9.8000001907349</ele>
        <time>2022-04-17T07:36:30.000Z</time>
      </trkpt>
      <trkpt lat="47.25513" lon="-2.31015">
        <ele>9.8000001907349</ele>
        <time>2022-04-17T07:36:33.000Z</time>
      </trkpt>
      <trkpt lat="47.25512" lon="-2.31011">
        <ele>9.8000001907349</ele>
        <time>2022-04-17T07:36:34.000Z</time>
      </trkpt>
      <trkpt lat="47.25512" lon="-2.31001">
        <ele>10.199999809265</ele>
        <time>2022-04-17T07:36:36.000Z</time>
      </trkpt>
      <trkpt lat="47.25513" lon="-2.30995">
        <ele>10.60000038147</ele>
        <time>2022-04-17T07:36:37.000Z</time>
      </trkpt>
      <trkpt lat="47.25515" lon="-2.30989">
        <ele>11</ele>
        <time>2022-04-17T07:36:38.000Z</time>
      </trkpt>
      <trkpt lat="47.25516" lon="-2.30982">
        <ele>11.60000038147</ele>
        <time>2022-04-17T07:36:39.000Z</time>
      </trkpt>
      <trkpt lat="47.25517" lon="-2.30975">
        <ele>12</ele>
        <time>2022-04-17T07:36:40.000Z</time>
      </trkpt>
      <trkpt lat="47.25522" lon="-2.30948">
        <ele>12</ele>
        <time>2022-04-17T07:36:44.000Z</time>
      </trkpt>
      <trkpt lat="47.25526" lon="-2.30933">
        <ele>12</ele>
        <time>2022-04-17T07:36:46.000Z</time>
      </trkpt>
      <trkpt lat="47.25533" lon="-2.30921">
        <ele>12</ele>
        <time>2022-04-17T07:36:48.000Z</time>
      </trkpt>
      <trkpt lat="47.2555" lon="-2.30913">
        <ele>12</ele>
        <time>2022-04-17T07:36:51.000Z</time>
      </trkpt>
      <trkpt lat="47.25555" lon="-2.30913">
        <ele>12</ele>
        <time>2022-04-17T07:36:52.000Z</time>
      </trkpt>
      <trkpt lat="47.25577" lon="-2.3091">
        <ele>12</ele>
        <time>2022-04-17T07:36:56.000Z</time>
      </trkpt>
      <trkpt lat="47.25582" lon="-2.30907">
        <ele>12</ele>
        <time>2022-04-17T07:36:57.000Z</time>
      </trkpt>
      <trkpt lat="47.25591" lon="-2.30893">
        <ele>12</ele>
        <time>2022-04-17T07:37:00.000Z</time>
      </trkpt>
      <trkpt lat="47.25593" lon="-2.30887">
        <ele>12</ele>
        <time>2022-04-17T07:37:01.000Z</time>
      </trkpt>
      <trkpt lat="47.25598" lon="-2.30865">
        <ele>12</ele>
        <time>2022-04-17T07:37:04.000Z</time>
      </trkpt>
      <trkpt lat="47.256" lon="-2.3085">
        <ele>12</ele>
        <time>2022-04-17T07:37:06.000Z</time>
      </trkpt>
      <trkpt lat="47.25605" lon="-2.30796">
        <ele>12</ele>
        <time>2022-04-17T07:37:13.000Z</time>
      </trkpt>
      <trkpt lat="47.25609" lon="-2.30743">
        <ele>12</ele>
        <time>2022-04-17T07:37:20.000Z</time>
      </trkpt>
      <trkpt lat="47.25615" lon="-2.30716">
        <ele>12</ele>
        <time>2022-04-17T07:37:24.000Z</time>
      </trkpt>
      <trkpt lat="47.25619" lon="-2.30703">
        <ele>12</ele>
        <time>2022-04-17T07:37:26.000Z</time>
      </trkpt>
      <trkpt lat="47.25624" lon="-2.30679">
        <ele>12</ele>
        <time>2022-04-17T07:37:30.000Z</time>
      </trkpt>
      <trkpt lat="47.25622" lon="-2.30675">
        <ele>12</ele>
        <time>2022-04-17T07:37:31.000Z</time>
      </trkpt>
      <trkpt lat="47.25616" lon="-2.30671">
        <ele>12</ele>
        <time>2022-04-17T07:37:33.000Z</time>
      </trkpt>
      <trkpt lat="47.25608" lon="-2.30669">
        <ele>12</ele>
        <time>2022-04-17T07:37:35.000Z</time>
      </trkpt>
      <trkpt lat="47.25599" lon="-2.30666">
        <ele>12</ele>
        <time>2022-04-17T07:37:37.000Z</time>
      </trkpt>
      <trkpt lat="47.25595" lon="-2.30662">
        <ele>12</ele>
        <time>2022-04-17T07:37:38.000Z</time>
      </trkpt>
      <trkpt lat="47.25585" lon="-2.30649">
        <ele>12</ele>
        <time>2022-04-17T07:37:42.000Z</time>
      </trkpt>
      <trkpt lat="47.25587" lon="-2.30635">
        <ele>12</ele>
        <time>2022-04-17T07:37:47.000Z</time>
      </trkpt>
      <trkpt lat="47.25594" lon="-2.3061">
        <ele>12</ele>
        <time>2022-04-17T07:37:53.000Z</time>
      </trkpt>
      <trkpt lat="47.25599" lon="-2.30587">
        <ele>12</ele>
        <time>2022-04-17T07:37:58.000Z</time>
      </trkpt>
      <trkpt lat="47.25597" lon="-2.30584">
        <ele>12</ele>
        <time>2022-04-17T07:37:59.000Z</time>
      </trkpt>
      <trkpt lat="47.25587" lon="-2.30577">
        <ele>12</ele>
        <time>2022-04-17T07:38:02.000Z</time>
      </trkpt>
      <trkpt lat="47.25583" lon="-2.30576">
        <ele>12</ele>
        <time>2022-04-17T07:38:03.000Z</time>
      </trkpt>
      <trkpt lat="47.25553" lon="-2.30566">
        <ele>12</ele>
        <time>2022-04-17T07:38:10.000Z</time>
      </trkpt>
      <trkpt lat="47.2553" lon="-2.30558">
        <ele>12</ele>
        <time>2022-04-17T07:38:16.000Z</time>
      </trkpt>
      <trkpt lat="47.25527" lon="-2.30542">
        <ele>12.39999961853</ele>
        <time>2022-04-17T07:38:19.000Z</time>
      </trkpt>
      <trkpt lat="47.25526" lon="-2.30535">
        <ele>12.800000190735</ele>
        <time>2022-04-17T07:38:20.000Z</time>
      </trkpt>
      <trkpt lat="47.25526" lon="-2.30529">
        <ele>13.199999809265</ele>
        <time>2022-04-17T07:38:21.000Z</time>
      </trkpt>
      <trkpt lat="47.25526" lon="-2.30522">
        <ele>14</ele>
        <time>2022-04-17T07:38:22.000Z</time>
      </trkpt>
      <trkpt lat="47.25525" lon="-2.30509">
        <ele>14</ele>
        <time>2022-04-17T07:38:24.000Z</time>
      </trkpt>
      <trkpt lat="47.25524" lon="-2.30497">
        <ele>14</ele>
        <time>2022-04-17T07:38:26.000Z</time>
      </trkpt>
      <trkpt lat="47.25523" lon="-2.30452">
        <ele>14</ele>
        <time>2022-04-17T07:38:33.000Z</time>
      </trkpt>
      <trkpt lat="47.25521" lon="-2.30414">
        <ele>14</ele>
        <time>2022-04-17T07:38:39.000Z</time>
      </trkpt>
      <trkpt lat="47.25524" lon="-2.30395">
        <ele>14</ele>
        <time>2022-04-17T07:38:43.000Z</time>
      </trkpt>
      <trkpt lat="47.25529" lon="-2.30393">
        <ele>14</ele>
        <time>2022-04-17T07:38:46.000Z</time>
      </trkpt>
      <trkpt lat="47.25541" lon="-2.30389">
        <ele>14</ele>
        <time>2022-04-17T07:38:50.000Z</time>
      </trkpt>
      <trkpt lat="47.25546" lon="-2.30385">
        <ele>14</ele>
        <time>2022-04-17T07:38:52.000Z</time>
      </trkpt>
      <trkpt lat="47.25551" lon="-2.30378">
        <ele>14</ele>
        <time>2022-04-17T07:38:54.000Z</time>
      </trkpt>
      <trkpt lat="47.25563" lon="-2.30369">
        <ele>14</ele>
        <time>2022-04-17T07:38:57.000Z</time>
      </trkpt>
      <trkpt lat="47.25574" lon="-2.30367">
        <ele>14</ele>
        <time>2022-04-17T07:38:59.000Z</time>
      </trkpt>
      <trkpt lat="47.25612" lon="-2.30358">
        <ele>14</ele>
        <time>2022-04-17T07:39:06.000Z</time>
      </trkpt>
      <trkpt lat="47.25622" lon="-2.30354">
        <ele>14</ele>
        <time>2022-04-17T07:39:08.000Z</time>
      </trkpt>
      <trkpt lat="47.25628" lon="-2.30342">
        <ele>14</ele>
        <time>2022-04-17T07:39:10.000Z</time>
      </trkpt>
      <trkpt lat="47.25628" lon="-2.3032">
        <ele>14</ele>
        <time>2022-04-17T07:39:13.000Z</time>
      </trkpt>
      <trkpt lat="47.25628" lon="-2.30312">
        <ele>14</ele>
        <time>2022-04-17T07:39:14.000Z</time>
      </trkpt>
      <trkpt lat="47.25625" lon="-2.30289">
        <ele>14</ele>
        <time>2022-04-17T07:39:17.000Z</time>
      </trkpt>
      <trkpt lat="47.25622" lon="-2.30265">
        <ele>14</ele>
        <time>2022-04-17T07:39:20.000Z</time>
      </trkpt>
      <trkpt lat="47.2561" lon="-2.30219">
        <ele>14</ele>
        <time>2022-04-17T07:39:26.000Z</time>
      </trkpt>
      <trkpt lat="47.25608" lon="-2.30213">
        <ele>14</ele>
        <time>2022-04-17T07:39:27.000Z</time>
      </trkpt>
      <trkpt lat="47.25596" lon="-2.30199">
        <ele>14</ele>
        <time>2022-04-17T07:39:30.000Z</time>
      </trkpt>
      <trkpt lat="47.25592" lon="-2.30194">
        <ele>14</ele>
        <time>2022-04-17T07:39:31.000Z</time>
      </trkpt>
      <trkpt lat="47.25577" lon="-2.30185">
        <ele>14</ele>
        <time>2022-04-17T07:39:34.000Z</time>
      </trkpt>
      <trkpt lat="47.25572" lon="-2.30183">
        <ele>14</ele>
        <time>2022-04-17T07:39:35.000Z</time>
      </trkpt>
      <trkpt lat="47.25551" lon="-2.30186">
        <ele>14</ele>
        <time>2022-04-17T07:39:39.000Z</time>
      </trkpt>
      <trkpt lat="47.25546" lon="-2.30189">
        <ele>14</ele>
        <time>2022-04-17T07:39:40.000Z</time>
      </trkpt>
      <trkpt lat="47.25534" lon="-2.30197">
        <ele>14</ele>
        <time>2022-04-17T07:39:43.000Z</time>
      </trkpt>
      <trkpt lat="47.2552" lon="-2.30197">
        <ele>14</ele>
        <time>2022-04-17T07:39:47.000Z</time>
      </trkpt>
      <trkpt lat="47.25502" lon="-2.30202">
        <ele>14</ele>
        <time>2022-04-17T07:39:52.000Z</time>
      </trkpt>
      <trkpt lat="47.25487" lon="-2.30221">
        <ele>14.39999961853</ele>
        <time>2022-04-17T07:39:58.000Z</time>
      </trkpt>
      <trkpt lat="47.25485" lon="-2.30226">
        <ele>14.800000190735</ele>
        <time>2022-04-17T07:39:59.000Z</time>
      </trkpt>
      <trkpt lat="47.25484" lon="-2.30231">
        <ele>15.800000190735</ele>
        <time>2022-04-17T07:40:00.000Z</time>
      </trkpt>
      <trkpt lat="47.25483" lon="-2.30236">
        <ele>16.200000762939</ele>
        <time>2022-04-17T07:40:01.000Z</time>
      </trkpt>
      <trkpt lat="47.25481" lon="-2.3024">
        <ele>16.200000762939</ele>
        <time>2022-04-17T07:40:02.000Z</time>
      </trkpt>
      <trkpt lat="47.25479" lon="-2.30241">
        <ele>16.200000762939</ele>
        <time>2022-04-17T07:40:03.000Z</time>
      </trkpt>
      <trkpt lat="47.25469" lon="-2.30243">
        <ele>16.200000762939</ele>
        <time>2022-04-17T07:40:07.000Z</time>
      </trkpt>
      <trkpt lat="47.25465" lon="-2.30242">
        <ele>16.200000762939</ele>
        <time>2022-04-17T07:40:08.000Z</time>
      </trkpt>
      <trkpt lat="47.25455" lon="-2.3024">
        <ele>16.200000762939</ele>
        <time>2022-04-17T07:40:10.000Z</time>
      </trkpt>
      <trkpt lat="47.25441" lon="-2.30237">
        <ele>16.200000762939</ele>
        <time>2022-04-17T07:40:13.000Z</time>
      </trkpt>
      <trkpt lat="47.25424" lon="-2.30232">
        <ele>16.60000038147</ele>
        <time>2022-04-17T07:40:17.000Z</time>
      </trkpt>
      <trkpt lat="47.25419" lon="-2.30229">
        <ele>17</ele>
        <time>2022-04-17T07:40:18.000Z</time>
      </trkpt>
      <trkpt lat="47.25413" lon="-2.30227">
        <ele>17.39999961853</ele>
        <time>2022-04-17T07:40:19.000Z</time>
      </trkpt>
      <trkpt lat="47.25409" lon="-2.30225">
        <ele>17.799999237061</ele>
        <time>2022-04-17T07:40:20.000Z</time>
      </trkpt>
      <trkpt lat="47.25405" lon="-2.30223">
        <ele>18.200000762939</ele>
        <time>2022-04-17T07:40:21.000Z</time>
      </trkpt>
      <trkpt lat="47.25401" lon="-2.30221">
        <ele>18.200000762939</ele>
        <time>2022-04-17T07:40:22.000Z</time>
      </trkpt>
      <trkpt lat="47.25398" lon="-2.3022">
        <ele>18.200000762939</ele>
        <time>2022-04-17T07:40:23.000Z</time>
      </trkpt>
      <trkpt lat="47.25392" lon="-2.30218">
        <ele>18.200000762939</ele>
        <time>2022-04-17T07:40:26.000Z</time>
      </trkpt>
      <trkpt lat="47.25379" lon="-2.30217">
        <ele>18.200000762939</ele>
        <time>2022-04-17T07:40:31.000Z</time>
      </trkpt>
      <trkpt lat="47.25375" lon="-2.30217">
        <ele>18.200000762939</ele>
        <time>2022-04-17T07:40:32.000Z</time>
      </trkpt>
      <trkpt lat="47.25353" lon="-2.30215">
        <ele>18.200000762939</ele>
        <time>2022-04-17T07:40:36.000Z</time>
      </trkpt>
      <trkpt lat="47.25335" lon="-2.30213">
        <ele>18.200000762939</ele>
        <time>2022-04-17T07:40:40.000Z</time>
      </trkpt>
      <trkpt lat="47.2533" lon="-2.30212">
        <ele>18.60000038147</ele>
        <time>2022-04-17T07:40:41.000Z</time>
      </trkpt>
      <trkpt lat="47.25327" lon="-2.30211">
        <ele>19</ele>
        <time>2022-04-17T07:40:42.000Z</time>
      </trkpt>
      <trkpt lat="47.25323" lon="-2.30209">
        <ele>19.60000038147</ele>
        <time>2022-04-17T07:40:43.000Z</time>
      </trkpt>
      <trkpt lat="47.25321" lon="-2.30208">
        <ele>20</ele>
        <time>2022-04-17T07:40:44.000Z</time>
      </trkpt>
      <trkpt lat="47.25318" lon="-2.30209">
        <ele>20.39999961853</ele>
        <time>2022-04-17T07:40:45.000Z</time>
      </trkpt>
      <trkpt lat="47.25316" lon="-2.30212">
        <ele>20.39999961853</ele>
        <time>2022-04-17T07:40:46.000Z</time>
      </trkpt>
      <trkpt lat="47.2531" lon="-2.30216">
        <ele>20.39999961853</ele>
        <time>2022-04-17T07:40:50.000Z</time>
      </trkpt>
      <trkpt lat="47.25306" lon="-2.30215">
        <ele>20.39999961853</ele>
        <time>2022-04-17T07:40:52.000Z</time>
      </trkpt>
      <trkpt lat="47.25297" lon="-2.3021">
        <ele>20.39999961853</ele>
        <time>2022-04-17T07:40:55.000Z</time>
      </trkpt>
      <trkpt lat="47.2528" lon="-2.30203">
        <ele>20.39999961853</ele>
        <time>2022-04-17T07:41:00.000Z</time>
      </trkpt>
      <trkpt lat="47.25264" lon="-2.30198">
        <ele>20.39999961853</ele>
        <time>2022-04-17T07:41:06.000Z</time>
      </trkpt>
      <trkpt lat="47.25258" lon="-2.30195">
        <ele>20.799999237061</ele>
        <time>2022-04-17T07:41:08.000Z</time>
      </trkpt>
      <trkpt lat="47.25256" lon="-2.30195">
        <ele>21.200000762939</ele>
        <time>2022-04-17T07:41:09.000Z</time>
      </trkpt>
      <trkpt lat="47.25253" lon="-2.30194">
        <ele>21.60000038147</ele>
        <time>2022-04-17T07:41:10.000Z</time>
      </trkpt>
      <trkpt lat="47.25249" lon="-2.30194">
        <ele>22</ele>
        <time>2022-04-17T07:41:11.000Z</time>
      </trkpt>
      <trkpt lat="47.25244" lon="-2.30193">
        <ele>22.39999961853</ele>
        <time>2022-04-17T07:41:12.000Z</time>
      </trkpt>
      <trkpt lat="47.25228" lon="-2.30181">
        <ele>22.39999961853</ele>
        <time>2022-04-17T07:41:17.000Z</time>
      </trkpt>
      <trkpt lat="47.25219" lon="-2.3017">
        <ele>22.799999237061</ele>
        <time>2022-04-17T07:41:20.000Z</time>
      </trkpt>
      <trkpt lat="47.25216" lon="-2.30167">
        <ele>23.200000762939</ele>
        <time>2022-04-17T07:41:21.000Z</time>
      </trkpt>
      <trkpt lat="47.25213" lon="-2.30163">
        <ele>23.60000038147</ele>
        <time>2022-04-17T07:41:22.000Z</time>
      </trkpt>
      <trkpt lat="47.2521" lon="-2.30157">
        <ele>24</ele>
        <time>2022-04-17T07:41:23.000Z</time>
      </trkpt>
      <trkpt lat="47.25207" lon="-2.30151">
        <ele>24.39999961853</ele>
        <time>2022-04-17T07:41:24.000Z</time>
      </trkpt>
      <trkpt lat="47.25184" lon="-2.3013">
        <ele>24.39999961853</ele>
        <time>2022-04-17T07:41:29.000Z</time>
      </trkpt>
      <trkpt lat="47.25174" lon="-2.3013">
        <ele>24.39999961853</ele>
        <time>2022-04-17T07:41:31.000Z</time>
      </trkpt>
      <trkpt lat="47.25156" lon="-2.30134">
        <ele>24.39999961853</ele>
        <time>2022-04-17T07:41:35.000Z</time>
      </trkpt>
      <trkpt lat="47.25145" lon="-2.30137">
        <ele>24.799999237061</ele>
        <time>2022-04-17T07:41:38.000Z</time>
      </trkpt>
      <trkpt lat="47.25141" lon="-2.30137">
        <ele>25.799999237061</ele>
        <time>2022-04-17T07:41:39.000Z</time>
      </trkpt>
      <trkpt lat="47.25137" lon="-2.30137">
        <ele>26.200000762939</ele>
        <time>2022-04-17T07:41:40.000Z</time>
      </trkpt>
      <trkpt lat="47.25133" lon="-2.30137">
        <ele>26.60000038147</ele>
        <time>2022-04-17T07:41:41.000Z</time>
      </trkpt>
      <trkpt lat="47.25115" lon="-2.30142">
        <ele>26.60000038147</ele>
        <time>2022-04-17T07:41:46.000Z</time>
      </trkpt>
      <trkpt lat="47.25088" lon="-2.30144">
        <ele>26.60000038147</ele>
        <time>2022-04-17T07:41:53.000Z</time>
      </trkpt>
      <trkpt lat="47.25079" lon="-2.30136">
        <ele>26.60000038147</ele>
        <time>2022-04-17T07:41:57.000Z</time>
      </trkpt>
      <trkpt lat="47.25077" lon="-2.30118">
        <ele>26.60000038147</ele>
        <time>2022-04-17T07:42:01.000Z</time>
      </trkpt>
      <trkpt lat="47.25075" lon="-2.3008">
        <ele>26.60000038147</ele>
        <time>2022-04-17T07:42:08.000Z</time>
      </trkpt>
      <trkpt lat="47.25075" lon="-2.30075">
        <ele>27</ele>
        <time>2022-04-17T07:42:09.000Z</time>
      </trkpt>
      <trkpt lat="47.25076" lon="-2.3007">
        <ele>27.39999961853</ele>
        <time>2022-04-17T07:42:10.000Z</time>
      </trkpt>
      <trkpt lat="47.25075" lon="-2.30065">
        <ele>27.799999237061</ele>
        <time>2022-04-17T07:42:11.000Z</time>
      </trkpt>
      <trkpt lat="47.25073" lon="-2.30061">
        <ele>28.200000762939</ele>
        <time>2022-04-17T07:42:12.000Z</time>
      </trkpt>
      <trkpt lat="47.2507" lon="-2.30059">
        <ele>28.60000038147</ele>
        <time>2022-04-17T07:42:13.000Z</time>
      </trkpt>
      <trkpt lat="47.25052" lon="-2.30057">
        <ele>28.60000038147</ele>
        <time>2022-04-17T07:42:18.000Z</time>
      </trkpt>
      <trkpt lat="47.25048" lon="-2.30057">
        <ele>28.60000038147</ele>
        <time>2022-04-17T07:42:19.000Z</time>
      </trkpt>
      <trkpt lat="47.25021" lon="-2.30055">
        <ele>28.60000038147</ele>
        <time>2022-04-17T07:42:25.000Z</time>
      </trkpt>
      <trkpt lat="47.24996" lon="-2.30056">
        <ele>28.60000038147</ele>
        <time>2022-04-17T07:42:31.000Z</time>
      </trkpt>
      <trkpt lat="47.24974" lon="-2.30059">
        <ele>28.60000038147</ele>
        <time>2022-04-17T07:42:36.000Z</time>
      </trkpt>
      <trkpt lat="47.24965" lon="-2.30059">
        <ele>29</ele>
        <time>2022-04-17T07:42:38.000Z</time>
      </trkpt>
      <trkpt lat="47.2496" lon="-2.30059">
        <ele>29.39999961853</ele>
        <time>2022-04-17T07:42:39.000Z</time>
      </trkpt>
      <trkpt lat="47.24956" lon="-2.30058">
        <ele>29.799999237061</ele>
        <time>2022-04-17T07:42:40.000Z</time>
      </trkpt>
      <trkpt lat="47.24952" lon="-2.30058">
        <ele>30.200000762939</ele>
        <time>2022-04-17T07:42:41.000Z</time>
      </trkpt>
      <trkpt lat="47.24948" lon="-2.30058">
        <ele>30.60000038147</ele>
        <time>2022-04-17T07:42:42.000Z</time>
      </trkpt>
      <trkpt lat="47.24939" lon="-2.30058">
        <ele>30.60000038147</ele>
        <time>2022-04-17T07:42:44.000Z</time>
      </trkpt>
      <trkpt lat="47.24916" lon="-2.30058">
        <ele>30.60000038147</ele>
        <time>2022-04-17T07:42:50.000Z</time>
      </trkpt>
      <trkpt lat="47.24906" lon="-2.30054">
        <ele>30.60000038147</ele>
        <time>2022-04-17T07:42:53.000Z</time>
      </trkpt>
      <trkpt lat="47.24904" lon="-2.30049">
        <ele>30.60000038147</ele>
        <time>2022-04-17T07:42:54.000Z</time>
      </trkpt>
      <trkpt lat="47.24903" lon="-2.30028">
        <ele>30.60000038147</ele>
        <time>2022-04-17T07:42:57.000Z</time>
      </trkpt>
      <trkpt lat="47.24902" lon="-2.30019">
        <ele>30.60000038147</ele>
        <time>2022-04-17T07:42:58.000Z</time>
      </trkpt>
      <trkpt lat="47.24896" lon="-2.29995">
        <ele>30.60000038147</ele>
        <time>2022-04-17T07:43:01.000Z</time>
      </trkpt>
      <trkpt lat="47.2488" lon="-2.29926">
        <ele>30.60000038147</ele>
        <time>2022-04-17T07:43:09.000Z</time>
      </trkpt>
      <trkpt lat="47.24877" lon="-2.29909">
        <ele>30.60000038147</ele>
        <time>2022-04-17T07:43:11.000Z</time>
      </trkpt>
      <trkpt lat="47.24875" lon="-2.29883">
        <ele>30.60000038147</ele>
        <time>2022-04-17T07:43:14.000Z</time>
      </trkpt>
      <trkpt lat="47.24872" lon="-2.29868">
        <ele>30.60000038147</ele>
        <time>2022-04-17T07:43:16.000Z</time>
      </trkpt>
      <trkpt lat="47.24866" lon="-2.29844">
        <ele>30.60000038147</ele>
        <time>2022-04-17T07:43:19.000Z</time>
      </trkpt>
      <trkpt lat="47.24863" lon="-2.29832">
        <ele>30.60000038147</ele>
        <time>2022-04-17T07:43:21.000Z</time>
      </trkpt>
      <trkpt lat="47.24856" lon="-2.2983">
        <ele>30.60000038147</ele>
        <time>2022-04-17T07:43:23.000Z</time>
      </trkpt>
      <trkpt lat="47.24843" lon="-2.2984">
        <ele>30.60000038147</ele>
        <time>2022-04-17T07:43:27.000Z</time>
      </trkpt>
      <trkpt lat="47.24831" lon="-2.29846">
        <ele>30.60000038147</ele>
        <time>2022-04-17T07:43:30.000Z</time>
      </trkpt>
      <trkpt lat="47.24818" lon="-2.2985">
        <ele>30.60000038147</ele>
        <time>2022-04-17T07:43:33.000Z</time>
      </trkpt>
      <trkpt lat="47.24787" lon="-2.29865">
        <ele>30.60000038147</ele>
        <time>2022-04-17T07:43:39.000Z</time>
      </trkpt>
      <trkpt lat="47.24753" lon="-2.29888">
        <ele>30.60000038147</ele>
        <time>2022-04-17T07:43:46.000Z</time>
      </trkpt>
      <trkpt lat="47.24749" lon="-2.29892">
        <ele>30.60000038147</ele>
        <time>2022-04-17T07:43:47.000Z</time>
      </trkpt>
      <trkpt lat="47.24743" lon="-2.2991">
        <ele>30.60000038147</ele>
        <time>2022-04-17T07:43:50.000Z</time>
      </trkpt>
      <trkpt lat="47.24744" lon="-2.29923">
        <ele>30.60000038147</ele>
        <time>2022-04-17T07:43:52.000Z</time>
      </trkpt>
      <trkpt lat="47.24744" lon="-2.29932">
        <ele>30.60000038147</ele>
        <time>2022-04-17T07:43:54.000Z</time>
      </trkpt>
      <trkpt lat="47.24744" lon="-2.29949">
        <ele>30.60000038147</ele>
        <time>2022-04-17T07:44:00.000Z</time>
      </trkpt>
      <trkpt lat="47.24741" lon="-2.29971">
        <ele>30.60000038147</ele>
        <time>2022-04-17T07:44:08.000Z</time>
      </trkpt>
      <trkpt lat="47.24735" lon="-2.29991">
        <ele>30.60000038147</ele>
        <time>2022-04-17T07:44:14.000Z</time>
      </trkpt>
      <trkpt lat="47.2473" lon="-2.30003">
        <ele>30.200000762939</ele>
        <time>2022-04-17T07:44:18.000Z</time>
      </trkpt>
      <trkpt lat="47.24728" lon="-2.30005">
        <ele>29.799999237061</ele>
        <time>2022-04-17T07:44:19.000Z</time>
      </trkpt>
      <trkpt lat="47.24726" lon="-2.30009">
        <ele>29.39999961853</ele>
        <time>2022-04-17T07:44:20.000Z</time>
      </trkpt>
      <trkpt lat="47.24723" lon="-2.30012">
        <ele>29</ele>
        <time>2022-04-17T07:44:21.000Z</time>
      </trkpt>
      <trkpt lat="47.24721" lon="-2.30015">
        <ele>28.60000038147</ele>
        <time>2022-04-17T07:44:22.000Z</time>
      </trkpt>
      <trkpt lat="47.24707" lon="-2.30029">
        <ele>28.60000038147</ele>
        <time>2022-04-17T07:44:27.000Z</time>
      </trkpt>
      <trkpt lat="47.24679" lon="-2.30053">
        <ele>28.60000038147</ele>
        <time>2022-04-17T07:44:36.000Z</time>
      </trkpt>
      <trkpt lat="47.2465" lon="-2.30075">
        <ele>28.60000038147</ele>
        <time>2022-04-17T07:44:44.000Z</time>
      </trkpt>
      <trkpt lat="47.24649" lon="-2.30075">
        <ele>28</ele>
        <time>2022-04-17T07:44:45.000Z</time>
      </trkpt>
      <trkpt lat="47.24648" lon="-2.30075">
        <ele>27.60000038147</ele>
        <time>2022-04-17T07:44:46.000Z</time>
      </trkpt>
      <trkpt lat="47.24648" lon="-2.30076">
        <ele>27.200000762939</ele>
        <time>2022-04-17T07:44:47.000Z</time>
      </trkpt>
      <trkpt lat="47.24648" lon="-2.30077">
        <ele>26.799999237061</ele>
        <time>2022-04-17T07:44:48.000Z</time>
      </trkpt>
      <trkpt lat="47.24646" lon="-2.30079">
        <ele>26.39999961853</ele>
        <time>2022-04-17T07:44:53.000Z</time>
      </trkpt>
      <trkpt lat="47.24642" lon="-2.30084">
        <ele>26.39999961853</ele>
        <time>2022-04-17T07:44:55.000Z</time>
      </trkpt>
      <trkpt lat="47.24633" lon="-2.30095">
        <ele>26.39999961853</ele>
        <time>2022-04-17T07:44:58.000Z</time>
      </trkpt>
      <trkpt lat="47.24629" lon="-2.30099">
        <ele>26.39999961853</ele>
        <time>2022-04-17T07:44:59.000Z</time>
      </trkpt>
      <trkpt lat="47.24607" lon="-2.3012">
        <ele>26.39999961853</ele>
        <time>2022-04-17T07:45:04.000Z</time>
      </trkpt>
      <trkpt lat="47.24602" lon="-2.30125">
        <ele>26.39999961853</ele>
        <time>2022-04-17T07:45:05.000Z</time>
      </trkpt>
      <trkpt lat="47.24593" lon="-2.30136">
        <ele>26.39999961853</ele>
        <time>2022-04-17T07:45:07.000Z</time>
      </trkpt>
      <trkpt lat="47.24582" lon="-2.30153">
        <ele>26.39999961853</ele>
        <time>2022-04-17T07:45:10.000Z</time>
      </trkpt>
      <trkpt lat="47.24579" lon="-2.30158">
        <ele>26.39999961853</ele>
        <time>2022-04-17T07:45:11.000Z</time>
      </trkpt>
      <trkpt lat="47.24567" lon="-2.30178">
        <ele>26.39999961853</ele>
        <time>2022-04-17T07:45:15.000Z</time>
      </trkpt>
      <trkpt lat="47.24535" lon="-2.30219">
        <ele>26.39999961853</ele>
        <time>2022-04-17T07:45:24.000Z</time>
      </trkpt>
      <trkpt lat="47.24517" lon="-2.30237">
        <ele>26</ele>
        <time>2022-04-17T07:45:28.000Z</time>
      </trkpt>
      <trkpt lat="47.24512" lon="-2.30241">
        <ele>25.60000038147</ele>
        <time>2022-04-17T07:45:29.000Z</time>
      </trkpt>
      <trkpt lat="47.24507" lon="-2.30245">
        <ele>25.200000762939</ele>
        <time>2022-04-17T07:45:30.000Z</time>
      </trkpt>
      <trkpt lat="47.24502" lon="-2.30249">
        <ele>24.799999237061</ele>
        <time>2022-04-17T07:45:31.000Z</time>
      </trkpt>
      <trkpt lat="47.24496" lon="-2.30253">
        <ele>24.39999961853</ele>
        <time>2022-04-17T07:45:32.000Z</time>
      </trkpt>
      <trkpt lat="47.2448" lon="-2.3027">
        <ele>24.39999961853</ele>
        <time>2022-04-17T07:45:35.000Z</time>
      </trkpt>
      <trkpt lat="47.24466" lon="-2.30304">
        <ele>24.39999961853</ele>
        <time>2022-04-17T07:45:39.000Z</time>
      </trkpt>
      <trkpt lat="47.24463" lon="-2.30314">
        <ele>23.799999237061</ele>
        <time>2022-04-17T07:45:40.000Z</time>
      </trkpt>
      <trkpt lat="47.24462" lon="-2.30324">
        <ele>23.39999961853</ele>
        <time>2022-04-17T07:45:41.000Z</time>
      </trkpt>
      <trkpt lat="47.24461" lon="-2.30335">
        <ele>23</ele>
        <time>2022-04-17T07:45:42.000Z</time>
      </trkpt>
      <trkpt lat="47.2446" lon="-2.30347">
        <ele>22.60000038147</ele>
        <time>2022-04-17T07:45:43.000Z</time>
      </trkpt>
      <trkpt lat="47.2446" lon="-2.30359">
        <ele>22</ele>
        <time>2022-04-17T07:45:44.000Z</time>
      </trkpt>
      <trkpt lat="47.24459" lon="-2.3038">
        <ele>21.60000038147</ele>
        <time>2022-04-17T07:45:46.000Z</time>
      </trkpt>
      <trkpt lat="47.24459" lon="-2.30392">
        <ele>20.799999237061</ele>
        <time>2022-04-17T07:45:47.000Z</time>
      </trkpt>
      <trkpt lat="47.2446" lon="-2.30404">
        <ele>20.39999961853</ele>
        <time>2022-04-17T07:45:48.000Z</time>
      </trkpt>
      <trkpt lat="47.2446" lon="-2.30416">
        <ele>19.799999237061</ele>
        <time>2022-04-17T07:45:49.000Z</time>
      </trkpt>
      <trkpt lat="47.2446" lon="-2.3044">
        <ele>19.39999961853</ele>
        <time>2022-04-17T07:45:51.000Z</time>
      </trkpt>
      <trkpt lat="47.24461" lon="-2.30452">
        <ele>19</ele>
        <time>2022-04-17T07:45:52.000Z</time>
      </trkpt>
      <trkpt lat="47.24463" lon="-2.30462">
        <ele>18.39999961853</ele>
        <time>2022-04-17T07:45:53.000Z</time>
      </trkpt>
      <trkpt lat="47.24467" lon="-2.3047">
        <ele>18</ele>
        <time>2022-04-17T07:45:54.000Z</time>
      </trkpt>
      <trkpt lat="47.24471" lon="-2.30478">
        <ele>17.60000038147</ele>
        <time>2022-04-17T07:45:55.000Z</time>
      </trkpt>
      <trkpt lat="47.24475" lon="-2.30487">
        <ele>17.60000038147</ele>
        <time>2022-04-17T07:45:56.000Z</time>
      </trkpt>
      <trkpt lat="47.24477" lon="-2.30516">
        <ele>17.60000038147</ele>
        <time>2022-04-17T07:45:59.000Z</time>
      </trkpt>
      <trkpt lat="47.24475" lon="-2.3054">
        <ele>17.60000038147</ele>
        <time>2022-04-17T07:46:02.000Z</time>
      </trkpt>
      <trkpt lat="47.24472" lon="-2.30555">
        <ele>17.60000038147</ele>
        <time>2022-04-17T07:46:04.000Z</time>
      </trkpt>
      <trkpt lat="47.24465" lon="-2.30597">
        <ele>17.60000038147</ele>
        <time>2022-04-17T07:46:10.000Z</time>
      </trkpt>
      <trkpt lat="47.24464" lon="-2.30604">
        <ele>17.60000038147</ele>
        <time>2022-04-17T07:46:11.000Z</time>
      </trkpt>
      <trkpt lat="47.24457" lon="-2.30639">
        <ele>17.60000038147</ele>
        <time>2022-04-17T07:46:16.000Z</time>
      </trkpt>
      <trkpt lat="47.24446" lon="-2.30686">
        <ele>18</ele>
        <time>2022-04-17T07:46:23.000Z</time>
      </trkpt>
      <trkpt lat="47.24444" lon="-2.30693">
        <ele>18.39999961853</ele>
        <time>2022-04-17T07:46:24.000Z</time>
      </trkpt>
      <trkpt lat="47.24443" lon="-2.307">
        <ele>18.799999237061</ele>
        <time>2022-04-17T07:46:25.000Z</time>
      </trkpt>
      <trkpt lat="47.24442" lon="-2.30707">
        <ele>19.200000762939</ele>
        <time>2022-04-17T07:46:26.000Z</time>
      </trkpt>
      <trkpt lat="47.24442" lon="-2.30714">
        <ele>19.60000038147</ele>
        <time>2022-04-17T07:46:27.000Z</time>
      </trkpt>
      <trkpt lat="47.2444" lon="-2.30737">
        <ele>19.60000038147</ele>
        <time>2022-04-17T07:46:30.000Z</time>
      </trkpt>
      <trkpt lat="47.2444" lon="-2.30767">
        <ele>19.60000038147</ele>
        <time>2022-04-17T07:46:34.000Z</time>
      </trkpt>
      <trkpt lat="47.2444" lon="-2.30784">
        <ele>19.60000038147</ele>
        <time>2022-04-17T07:46:36.000Z</time>
      </trkpt>
      <trkpt lat="47.24439" lon="-2.30856">
        <ele>19.60000038147</ele>
        <time>2022-04-17T07:46:44.000Z</time>
      </trkpt>
      <trkpt lat="47.24436" lon="-2.30912">
        <ele>19.60000038147</ele>
        <time>2022-04-17T07:46:50.000Z</time>
      </trkpt>
      <trkpt lat="47.24434" lon="-2.30921">
        <ele>19.60000038147</ele>
        <time>2022-04-17T07:46:51.000Z</time>
      </trkpt>
      <trkpt lat="47.24431" lon="-2.30929">
        <ele>19.200000762939</ele>
        <time>2022-04-17T07:46:52.000Z</time>
      </trkpt>
      <trkpt lat="47.24428" lon="-2.30936">
        <ele>18.799999237061</ele>
        <time>2022-04-17T07:46:53.000Z</time>
      </trkpt>
      <trkpt lat="47.24423" lon="-2.30943">
        <ele>18.200000762939</ele>
        <time>2022-04-17T07:46:54.000Z</time>
      </trkpt>
      <trkpt lat="47.24419" lon="-2.30949">
        <ele>17.799999237061</ele>
        <time>2022-04-17T07:46:55.000Z</time>
      </trkpt>
      <trkpt lat="47.24414" lon="-2.30955">
        <ele>17.39999961853</ele>
        <time>2022-04-17T07:46:56.000Z</time>
      </trkpt>
      <trkpt lat="47.24411" lon="-2.30962">
        <ele>17.39999961853</ele>
        <time>2022-04-17T07:46:57.000Z</time>
      </trkpt>
      <trkpt lat="47.24408" lon="-2.30972">
        <ele>17.39999961853</ele>
        <time>2022-04-17T07:46:58.000Z</time>
      </trkpt>
      <trkpt lat="47.24406" lon="-2.3098">
        <ele>17</ele>
        <time>2022-04-17T07:46:59.000Z</time>
      </trkpt>
      <trkpt lat="47.24406" lon="-2.30988">
        <ele>16.60000038147</ele>
        <time>2022-04-17T07:47:00.000Z</time>
      </trkpt>
      <trkpt lat="47.24406" lon="-2.30997">
        <ele>15.800000190735</ele>
        <time>2022-04-17T07:47:01.000Z</time>
      </trkpt>
      <trkpt lat="47.24406" lon="-2.31005">
        <ele>15.39999961853</ele>
        <time>2022-04-17T07:47:02.000Z</time>
      </trkpt>
      <trkpt lat="47.24409" lon="-2.31057">
        <ele>15.39999961853</ele>
        <time>2022-04-17T07:47:09.000Z</time>
      </trkpt>
      <trkpt lat="47.24411" lon="-2.31105">
        <ele>15.39999961853</ele>
        <time>2022-04-17T07:47:15.000Z</time>
      </trkpt>
      <trkpt lat="47.24413" lon="-2.3116">
        <ele>14.800000190735</ele>
        <time>2022-04-17T07:47:21.000Z</time>
      </trkpt>
      <trkpt lat="47.24413" lon="-2.31168">
        <ele>14.199999809265</ele>
        <time>2022-04-17T07:47:22.000Z</time>
      </trkpt>
      <trkpt lat="47.24413" lon="-2.31173">
        <ele>13.800000190735</ele>
        <time>2022-04-17T07:47:23.000Z</time>
      </trkpt>
      <trkpt lat="47.24413" lon="-2.31177">
        <ele>13.199999809265</ele>
        <time>2022-04-17T07:47:24.000Z</time>
      </trkpt>
      <trkpt lat="47.24413" lon="-2.3118">
        <ele>12.60000038147</ele>
        <time>2022-04-17T07:47:25.000Z</time>
      </trkpt>
      <trkpt lat="47.24412" lon="-2.31182">
        <ele>11.199999809265</ele>
        <time>2022-04-17T07:47:26.000Z</time>
      </trkpt>
      <trkpt lat="47.24412" lon="-2.31185">
        <ele>10.60000038147</ele>
        <time>2022-04-17T07:47:27.000Z</time>
      </trkpt>
      <trkpt lat="47.24412" lon="-2.31191">
        <ele>10.60000038147</ele>
        <time>2022-04-17T07:47:30.000Z</time>
      </trkpt>
      <trkpt lat="47.24413" lon="-2.31193">
        <ele>10.199999809265</ele>
        <time>2022-04-17T07:47:31.000Z</time>
      </trkpt>
      <trkpt lat="47.24415" lon="-2.31197">
        <ele>9.8000001907349</ele>
        <time>2022-04-17T07:47:32.000Z</time>
      </trkpt>
      <trkpt lat="47.24416" lon="-2.31201">
        <ele>9.3999996185303</ele>
        <time>2022-04-17T07:47:33.000Z</time>
      </trkpt>
      <trkpt lat="47.24417" lon="-2.31205">
        <ele>9</ele>
        <time>2022-04-17T07:47:34.000Z</time>
      </trkpt>
      <trkpt lat="47.24418" lon="-2.31211">
        <ele>8.3999996185303</ele>
        <time>2022-04-17T07:47:35.000Z</time>
      </trkpt>
      <trkpt lat="47.2442" lon="-2.31217">
        <ele>7.8000001907349</ele>
        <time>2022-04-17T07:47:36.000Z</time>
      </trkpt>
      <trkpt lat="47.24422" lon="-2.31221">
        <ele>7.4000000953674</ele>
        <time>2022-04-17T07:47:37.000Z</time>
      </trkpt>
      <trkpt lat="47.24425" lon="-2.31224">
        <ele>6.8000001907349</ele>
        <time>2022-04-17T07:47:38.000Z</time>
      </trkpt>
      <trkpt lat="47.24428" lon="-2.31226">
        <ele>6.4000000953674</ele>
        <time>2022-04-17T07:47:39.000Z</time>
      </trkpt>
      <trkpt lat="47.24436" lon="-2.31226">
        <ele>6.4000000953674</ele>
        <time>2022-04-17T07:47:42.000Z</time>
      </trkpt>
      <trkpt lat="47.24442" lon="-2.3123">
        <ele>6.4000000953674</ele>
        <time>2022-04-17T07:47:46.000Z</time>
      </trkpt>
      <trkpt lat="47.24444" lon="-2.31232">
        <ele>6.4000000953674</ele>
        <time>2022-04-17T07:47:47.000Z</time>
      </trkpt>
      <trkpt lat="47.24445" lon="-2.31236">
        <ele>6.8000001907349</ele>
        <time>2022-04-17T07:47:48.000Z</time>
      </trkpt>
      <trkpt lat="47.24447" lon="-2.3124">
        <ele>7.1999998092651</ele>
        <time>2022-04-17T07:47:49.000Z</time>
      </trkpt>
      <trkpt lat="47.24449" lon="-2.31245">
        <ele>8.1999998092651</ele>
        <time>2022-04-17T07:47:50.000Z</time>
      </trkpt>
      <trkpt lat="47.24452" lon="-2.31251">
        <ele>8.6000003814697</ele>
        <time>2022-04-17T07:47:51.000Z</time>
      </trkpt>
      <trkpt lat="47.24453" lon="-2.31262">
        <ele>8.6000003814697</ele>
        <time>2022-04-17T07:47:53.000Z</time>
      </trkpt>
      <trkpt lat="47.2445" lon="-2.31266">
        <ele>8.6000003814697</ele>
        <time>2022-04-17T07:47:54.000Z</time>
      </trkpt>
      <trkpt lat="47.24438" lon="-2.31281">
        <ele>8.6000003814697</ele>
        <time>2022-04-17T07:47:57.000Z</time>
      </trkpt>
      <trkpt lat="47.24433" lon="-2.31285">
        <ele>8.6000003814697</ele>
        <time>2022-04-17T07:47:58.000Z</time>
      </trkpt>
      <trkpt lat="47.24415" lon="-2.31297">
        <ele>8.1999998092651</ele>
        <time>2022-04-17T07:48:01.000Z</time>
      </trkpt>
      <trkpt lat="47.24408" lon="-2.31302">
        <ele>7.5999999046326</ele>
        <time>2022-04-17T07:48:02.000Z</time>
      </trkpt>
      <trkpt lat="47.24401" lon="-2.31307">
        <ele>7.1999998092651</ele>
        <time>2022-04-17T07:48:03.000Z</time>
      </trkpt>
      <trkpt lat="47.24395" lon="-2.31312">
        <ele>6.8000001907349</ele>
        <time>2022-04-17T07:48:04.000Z</time>
      </trkpt>
      <trkpt lat="47.24389" lon="-2.31317">
        <ele>6.4000000953674</ele>
        <time>2022-04-17T07:48:05.000Z</time>
      </trkpt>
      <trkpt lat="47.24379" lon="-2.31326">
        <ele>5.8000001907349</ele>
        <time>2022-04-17T07:48:07.000Z</time>
      </trkpt>
      <trkpt lat="47.24375" lon="-2.3133">
        <ele>5.4000000953674</ele>
        <time>2022-04-17T07:48:08.000Z</time>
      </trkpt>
      <trkpt lat="47.24371" lon="-2.31333">
        <ele>5</ele>
        <time>2022-04-17T07:48:09.000Z</time>
      </trkpt>
      <trkpt lat="47.24368" lon="-2.31334">
        <ele>4.5999999046326</ele>
        <time>2022-04-17T07:48:10.000Z</time>
      </trkpt>
      <trkpt lat="47.24366" lon="-2.31336">
        <ele>4.1999998092651</ele>
        <time>2022-04-17T07:48:11.000Z</time>
      </trkpt>
      <trkpt lat="47.24364" lon="-2.31337">
        <ele>4.1999998092651</ele>
        <time>2022-04-17T07:48:12.000Z</time>
      </trkpt>
      <trkpt lat="47.24359" lon="-2.31335">
        <ele>4.1999998092651</ele>
        <time>2022-04-17T07:48:17.000Z</time>
      </trkpt>
      <trkpt lat="47.24351" lon="-2.31319">
        <ele>4.1999998092651</ele>
        <time>2022-04-17T07:48:22.000Z</time>
      </trkpt>
      <trkpt lat="47.24341" lon="-2.31292">
        <ele>4.1999998092651</ele>
        <time>2022-04-17T07:48:28.000Z</time>
      </trkpt>
      <trkpt lat="47.24339" lon="-2.31287">
        <ele>4.1999998092651</ele>
        <time>2022-04-17T07:48:29.000Z</time>
      </trkpt>
      <trkpt lat="47.24326" lon="-2.31252">
        <ele>4.1999998092651</ele>
        <time>2022-04-17T07:48:35.000Z</time>
      </trkpt>
      <trkpt lat="47.24315" lon="-2.31237">
        <ele>4.1999998092651</ele>
        <time>2022-04-17T07:48:39.000Z</time>
      </trkpt>
      <trkpt lat="47.24296" lon="-2.31243">
        <ele>4.1999998092651</ele>
        <time>2022-04-17T07:48:43.000Z</time>
      </trkpt>
      <trkpt lat="47.24272" lon="-2.31257">
        <ele>3.7999999523163</ele>
        <time>2022-04-17T07:48:48.000Z</time>
      </trkpt>
      <trkpt lat="47.24266" lon="-2.3126">
        <ele>3.2000000476837</ele>
        <time>2022-04-17T07:48:49.000Z</time>
      </trkpt>
      <trkpt lat="47.24261" lon="-2.31262">
        <ele>2.7999999523163</ele>
        <time>2022-04-17T07:48:50.000Z</time>
      </trkpt>
      <trkpt lat="47.24257" lon="-2.31264">
        <ele>2.4000000953674</ele>
        <time>2022-04-17T07:48:51.000Z</time>
      </trkpt>
      <trkpt lat="47.24255" lon="-2.31266">
        <ele>2</ele>
        <time>2022-04-17T07:48:52.000Z</time>
      </trkpt>
      <trkpt lat="47.24252" lon="-2.31267">
        <ele>2</ele>
        <time>2022-04-17T07:48:53.000Z</time>
      </trkpt>
      <trkpt lat="47.24247" lon="-2.3127">
        <ele>2</ele>
        <time>2022-04-17T07:48:58.000Z</time>
      </trkpt>
      <trkpt lat="47.24244" lon="-2.31266">
        <ele>2</ele>
        <time>2022-04-17T07:50:31.000Z</time>
      </trkpt>
      <trkpt lat="47.24241" lon="-2.31261">
        <ele>2</ele>
        <time>2022-04-17T07:50:33.000Z</time>
      </trkpt>
      <trkpt lat="47.24236" lon="-2.31252">
        <ele>2</ele>
        <time>2022-04-17T07:50:36.000Z</time>
      </trkpt>
      <trkpt lat="47.24231" lon="-2.31241">
        <ele>2</ele>
        <time>2022-04-17T07:50:39.000Z</time>
      </trkpt>
      <trkpt lat="47.24217" lon="-2.31212">
        <ele>2</ele>
        <time>2022-04-17T07:50:47.000Z</time>
      </trkpt>
      <trkpt lat="47.24205" lon="-2.31188">
        <ele>2</ele>
        <time>2022-04-17T07:50:53.000Z</time>
      </trkpt>
      <trkpt lat="47.24185" lon="-2.3115">
        <ele>2</ele>
        <time>2022-04-17T07:51:02.000Z</time>
      </trkpt>
      <trkpt lat="47.24164" lon="-2.31113">
        <ele>2</ele>
        <time>2022-04-17T07:51:10.000Z</time>
      </trkpt>
      <trkpt lat="47.24149" lon="-2.31086">
        <ele>2</ele>
        <time>2022-04-17T07:51:17.000Z</time>
      </trkpt>
      <trkpt lat="47.24134" lon="-2.31061">
        <ele>2</ele>
        <time>2022-04-17T07:51:24.000Z</time>
      </trkpt>
      <trkpt lat="47.24118" lon="-2.31035">
        <ele>2</ele>
        <time>2022-04-17T07:51:30.000Z</time>
      </trkpt>
      <trkpt lat="47.24116" lon="-2.31025">
        <ele>2</ele>
        <time>2022-04-17T07:51:32.000Z</time>
      </trkpt>
      <trkpt lat="47.24118" lon="-2.31014">
        <ele>2</ele>
        <time>2022-04-17T07:51:34.000Z</time>
      </trkpt>
      <trkpt lat="47.24124" lon="-2.31005">
        <ele>2</ele>
        <time>2022-04-17T07:51:36.000Z</time>
      </trkpt>
      <trkpt lat="47.24129" lon="-2.30993">
        <ele>2</ele>
        <time>2022-04-17T07:51:38.000Z</time>
      </trkpt>
      <trkpt lat="47.24141" lon="-2.30969">
        <ele>2</ele>
        <time>2022-04-17T07:51:42.000Z</time>
      </trkpt>
      <trkpt lat="47.24147" lon="-2.30957">
        <ele>2</ele>
        <time>2022-04-17T07:51:44.000Z</time>
      </trkpt>
      <trkpt lat="47.24168" lon="-2.30915">
        <ele>2</ele>
        <time>2022-04-17T07:51:52.000Z</time>
      </trkpt>
      <trkpt lat="47.24186" lon="-2.30879">
        <ele>2</ele>
        <time>2022-04-17T07:51:59.000Z</time>
      </trkpt>
      <trkpt lat="47.24191" lon="-2.3087">
        <ele>2.4000000953674</ele>
        <time>2022-04-17T07:52:01.000Z</time>
      </trkpt>
      <trkpt lat="47.24194" lon="-2.30866">
        <ele>3</ele>
        <time>2022-04-17T07:52:02.000Z</time>
      </trkpt>
      <trkpt lat="47.24196" lon="-2.30861">
        <ele>3.4000000953674</ele>
        <time>2022-04-17T07:52:03.000Z</time>
      </trkpt>
      <trkpt lat="47.24197" lon="-2.30855">
        <ele>3.7999999523163</ele>
        <time>2022-04-17T07:52:04.000Z</time>
      </trkpt>
      <trkpt lat="47.24199" lon="-2.3085">
        <ele>4.1999998092651</ele>
        <time>2022-04-17T07:52:05.000Z</time>
      </trkpt>
      <trkpt lat="47.24202" lon="-2.3084">
        <ele>4.8000001907349</ele>
        <time>2022-04-17T07:52:07.000Z</time>
      </trkpt>
      <trkpt lat="47.24204" lon="-2.30835">
        <ele>5.1999998092651</ele>
        <time>2022-04-17T07:52:08.000Z</time>
      </trkpt>
      <trkpt lat="47.24206" lon="-2.3083">
        <ele>5.5999999046326</ele>
        <time>2022-04-17T07:52:09.000Z</time>
      </trkpt>
      <trkpt lat="47.24209" lon="-2.30826">
        <ele>6</ele>
        <time>2022-04-17T07:52:10.000Z</time>
      </trkpt>
      <trkpt lat="47.24211" lon="-2.30822">
        <ele>6.5999999046326</ele>
        <time>2022-04-17T07:52:11.000Z</time>
      </trkpt>
      <trkpt lat="47.24215" lon="-2.30812">
        <ele>7</ele>
        <time>2022-04-17T07:52:13.000Z</time>
      </trkpt>
      <trkpt lat="47.24217" lon="-2.30807">
        <ele>7.4000000953674</ele>
        <time>2022-04-17T07:52:14.000Z</time>
      </trkpt>
      <trkpt lat="47.24218" lon="-2.30803">
        <ele>8</ele>
        <time>2022-04-17T07:52:15.000Z</time>
      </trkpt>
      <trkpt lat="47.2422" lon="-2.308">
        <ele>8.3999996185303</ele>
        <time>2022-04-17T07:52:16.000Z</time>
      </trkpt>
      <trkpt lat="47.24222" lon="-2.30797">
        <ele>9</ele>
        <time>2022-04-17T07:52:17.000Z</time>
      </trkpt>
      <trkpt lat="47.24225" lon="-2.30793">
        <ele>9</ele>
        <time>2022-04-17T07:52:19.000Z</time>
      </trkpt>
      <trkpt lat="47.24229" lon="-2.30792">
        <ele>9</ele>
        <time>2022-04-17T07:52:21.000Z</time>
      </trkpt>
      <trkpt lat="47.24232" lon="-2.30793">
        <ele>9</ele>
        <time>2022-04-17T07:52:23.000Z</time>
      </trkpt>
      <trkpt lat="47.24233" lon="-2.30793">
        <ele>9</ele>
        <time>2022-04-17T07:52:26.000Z</time>
      </trkpt>
      <trkpt lat="47.24237" lon="-2.30799">
        <ele>9</ele>
        <time>2022-04-17T07:52:31.000Z</time>
      </trkpt>
      <trkpt lat="47.24248" lon="-2.30821">
        <ele>9</ele>
        <time>2022-04-17T07:52:36.000Z</time>
      </trkpt>
      <trkpt lat="47.24256" lon="-2.3084">
        <ele>9.3999996185303</ele>
        <time>2022-04-17T07:52:40.000Z</time>
      </trkpt>
      <trkpt lat="47.24259" lon="-2.30845">
        <ele>9.8000001907349</ele>
        <time>2022-04-17T07:52:41.000Z</time>
      </trkpt>
      <trkpt lat="47.24262" lon="-2.30848">
        <ele>10.199999809265</ele>
        <time>2022-04-17T07:52:42.000Z</time>
      </trkpt>
      <trkpt lat="47.24265" lon="-2.30852">
        <ele>10.60000038147</ele>
        <time>2022-04-17T07:52:43.000Z</time>
      </trkpt>
      <trkpt lat="47.24268" lon="-2.30856">
        <ele>11</ele>
        <time>2022-04-17T07:52:44.000Z</time>
      </trkpt>
      <trkpt lat="47.24281" lon="-2.30864">
        <ele>11</ele>
        <time>2022-04-17T07:52:48.000Z</time>
      </trkpt>
      <trkpt lat="47.24283" lon="-2.30862">
        <ele>11</ele>
        <time>2022-04-17T07:52:49.000Z</time>
      </trkpt>
      <trkpt lat="47.24285" lon="-2.30848">
        <ele>11</ele>
        <time>2022-04-17T07:52:52.000Z</time>
      </trkpt>
      <trkpt lat="47.24286" lon="-2.30844">
        <ele>11.39999961853</ele>
        <time>2022-04-17T07:52:53.000Z</time>
      </trkpt>
      <trkpt lat="47.24288" lon="-2.3084">
        <ele>11.800000190735</ele>
        <time>2022-04-17T07:52:54.000Z</time>
      </trkpt>
      <trkpt lat="47.2429" lon="-2.30835">
        <ele>12.199999809265</ele>
        <time>2022-04-17T07:52:55.000Z</time>
      </trkpt>
      <trkpt lat="47.24291" lon="-2.30829">
        <ele>12.60000038147</ele>
        <time>2022-04-17T07:52:56.000Z</time>
      </trkpt>
      <trkpt lat="47.24292" lon="-2.30824">
        <ele>13</ele>
        <time>2022-04-17T07:52:57.000Z</time>
      </trkpt>
      <trkpt lat="47.24306" lon="-2.30803">
        <ele>13</ele>
        <time>2022-04-17T07:53:02.000Z</time>
      </trkpt>
      <trkpt lat="47.2431" lon="-2.308">
        <ele>13</ele>
        <time>2022-04-17T07:53:03.000Z</time>
      </trkpt>
      <trkpt lat="47.24325" lon="-2.3079">
        <ele>13</ele>
        <time>2022-04-17T07:53:07.000Z</time>
      </trkpt>
      <trkpt lat="47.24333" lon="-2.30786">
        <ele>13.60000038147</ele>
        <time>2022-04-17T07:53:09.000Z</time>
      </trkpt>
      <trkpt lat="47.24337" lon="-2.30784">
        <ele>14.39999961853</ele>
        <time>2022-04-17T07:53:10.000Z</time>
      </trkpt>
      <trkpt lat="47.24341" lon="-2.30782">
        <ele>14.800000190735</ele>
        <time>2022-04-17T07:53:11.000Z</time>
      </trkpt>
      <trkpt lat="47.24344" lon="-2.30779">
        <ele>15.199999809265</ele>
        <time>2022-04-17T07:53:12.000Z</time>
      </trkpt>
      <trkpt lat="47.24348" lon="-2.30776">
        <ele>15.199999809265</ele>
        <time>2022-04-17T07:53:13.000Z</time>
      </trkpt>
      <trkpt lat="47.24361" lon="-2.30764">
        <ele>15.800000190735</ele>
        <time>2022-04-17T07:53:17.000Z</time>
      </trkpt>
      <trkpt lat="47.24364" lon="-2.30761">
        <ele>16.200000762939</ele>
        <time>2022-04-17T07:53:18.000Z</time>
      </trkpt>
      <trkpt lat="47.24367" lon="-2.30757">
        <ele>16.60000038147</ele>
        <time>2022-04-17T07:53:19.000Z</time>
      </trkpt>
      <trkpt lat="47.2437" lon="-2.30754">
        <ele>17</ele>
        <time>2022-04-17T07:53:20.000Z</time>
      </trkpt>
      <trkpt lat="47.24373" lon="-2.3075">
        <ele>17.60000038147</ele>
        <time>2022-04-17T07:53:21.000Z</time>
      </trkpt>
      <trkpt lat="47.24386" lon="-2.30737">
        <ele>18</ele>
        <time>2022-04-17T07:53:25.000Z</time>
      </trkpt>
      <trkpt lat="47.24389" lon="-2.30733">
        <ele>18.39999961853</ele>
        <time>2022-04-17T07:53:26.000Z</time>
      </trkpt>
      <trkpt lat="47.24391" lon="-2.30727">
        <ele>18.799999237061</ele>
        <time>2022-04-17T07:53:27.000Z</time>
      </trkpt>
      <trkpt lat="47.24392" lon="-2.30721">
        <ele>19.200000762939</ele>
        <time>2022-04-17T07:53:28.000Z</time>
      </trkpt>
      <trkpt lat="47.24393" lon="-2.30716">
        <ele>19.60000038147</ele>
        <time>2022-04-17T07:53:29.000Z</time>
      </trkpt>
      <trkpt lat="47.24394" lon="-2.30703">
        <ele>19.60000038147</ele>
        <time>2022-04-17T07:53:31.000Z</time>
      </trkpt>
      <trkpt lat="47.24396" lon="-2.30698">
        <ele>19.60000038147</ele>
        <time>2022-04-17T07:53:32.000Z</time>
      </trkpt>
      <trkpt lat="47.24404" lon="-2.30679">
        <ele>19.60000038147</ele>
        <time>2022-04-17T07:53:35.000Z</time>
      </trkpt>
      <trkpt lat="47.24417" lon="-2.30635">
        <ele>19.60000038147</ele>
        <time>2022-04-17T07:53:42.000Z</time>
      </trkpt>
      <trkpt lat="47.24419" lon="-2.30628">
        <ele>19.60000038147</ele>
        <time>2022-04-17T07:53:43.000Z</time>
      </trkpt>
      <trkpt lat="47.24431" lon="-2.30612">
        <ele>19.60000038147</ele>
        <time>2022-04-17T07:53:47.000Z</time>
      </trkpt>
      <trkpt lat="47.2444" lon="-2.30602">
        <ele>19.60000038147</ele>
        <time>2022-04-17T07:53:49.000Z</time>
      </trkpt>
      <trkpt lat="47.24453" lon="-2.30587">
        <ele>19.60000038147</ele>
        <time>2022-04-17T07:53:52.000Z</time>
      </trkpt>
      <trkpt lat="47.24466" lon="-2.30569">
        <ele>19.200000762939</ele>
        <time>2022-04-17T07:53:55.000Z</time>
      </trkpt>
      <trkpt lat="47.24469" lon="-2.30562">
        <ele>18.799999237061</ele>
        <time>2022-04-17T07:53:56.000Z</time>
      </trkpt>
      <trkpt lat="47.2447" lon="-2.30555">
        <ele>18.39999961853</ele>
        <time>2022-04-17T07:53:57.000Z</time>
      </trkpt>
      <trkpt lat="47.24471" lon="-2.3055">
        <ele>18</ele>
        <time>2022-04-17T07:53:58.000Z</time>
      </trkpt>
      <trkpt lat="47.2447" lon="-2.30546">
        <ele>17.60000038147</ele>
        <time>2022-04-17T07:53:59.000Z</time>
      </trkpt>
      <trkpt lat="47.24467" lon="-2.30545">
        <ele>17.60000038147</ele>
        <time>2022-04-17T07:54:00.000Z</time>
      </trkpt>
      <trkpt lat="47.24464" lon="-2.30546">
        <ele>17</ele>
        <time>2022-04-17T07:54:01.000Z</time>
      </trkpt>
      <trkpt lat="47.2446" lon="-2.3055">
        <ele>16.60000038147</ele>
        <time>2022-04-17T07:54:02.000Z</time>
      </trkpt>
      <trkpt lat="47.24456" lon="-2.30553">
        <ele>16.200000762939</ele>
        <time>2022-04-17T07:54:03.000Z</time>
      </trkpt>
      <trkpt lat="47.24453" lon="-2.30557">
        <ele>15.800000190735</ele>
        <time>2022-04-17T07:54:04.000Z</time>
      </trkpt>
      <trkpt lat="47.24449" lon="-2.30562">
        <ele>15.39999961853</ele>
        <time>2022-04-17T07:54:05.000Z</time>
      </trkpt>
      <trkpt lat="47.2444" lon="-2.3057">
        <ele>15.39999961853</ele>
        <time>2022-04-17T07:54:07.000Z</time>
      </trkpt>
      <trkpt lat="47.24435" lon="-2.30573">
        <ele>15.39999961853</ele>
        <time>2022-04-17T07:54:08.000Z</time>
      </trkpt>
      <trkpt lat="47.2443" lon="-2.30576">
        <ele>15</ele>
        <time>2022-04-17T07:54:09.000Z</time>
      </trkpt>
      <trkpt lat="47.24425" lon="-2.30579">
        <ele>14.60000038147</ele>
        <time>2022-04-17T07:54:10.000Z</time>
      </trkpt>
      <trkpt lat="47.24419" lon="-2.30581">
        <ele>14</ele>
        <time>2022-04-17T07:54:11.000Z</time>
      </trkpt>
      <trkpt lat="47.24414" lon="-2.30584">
        <ele>13.60000038147</ele>
        <time>2022-04-17T07:54:12.000Z</time>
      </trkpt>
      <trkpt lat="47.24409" lon="-2.30585">
        <ele>13.199999809265</ele>
        <time>2022-04-17T07:54:13.000Z</time>
      </trkpt>
      <trkpt lat="47.24404" lon="-2.30584">
        <ele>13.199999809265</ele>
        <time>2022-04-17T07:54:14.000Z</time>
      </trkpt>
      <trkpt lat="47.24384" lon="-2.30574">
        <ele>12.800000190735</ele>
        <time>2022-04-17T07:54:18.000Z</time>
      </trkpt>
      <trkpt lat="47.2438" lon="-2.30568">
        <ele>12.39999961853</ele>
        <time>2022-04-17T07:54:19.000Z</time>
      </trkpt>
      <trkpt lat="47.24375" lon="-2.30563">
        <ele>12</ele>
        <time>2022-04-17T07:54:20.000Z</time>
      </trkpt>
      <trkpt lat="47.24371" lon="-2.30557">
        <ele>11.60000038147</ele>
        <time>2022-04-17T07:54:21.000Z</time>
      </trkpt>
      <trkpt lat="47.24368" lon="-2.3055">
        <ele>11.199999809265</ele>
        <time>2022-04-17T07:54:22.000Z</time>
      </trkpt>
      <trkpt lat="47.24366" lon="-2.30542">
        <ele>11.199999809265</ele>
        <time>2022-04-17T07:54:23.000Z</time>
      </trkpt>
      <trkpt lat="47.24363" lon="-2.30534">
        <ele>11.199999809265</ele>
        <time>2022-04-17T07:54:24.000Z</time>
      </trkpt>
      <trkpt lat="47.24362" lon="-2.30528">
        <ele>11.199999809265</ele>
        <time>2022-04-17T07:54:25.000Z</time>
      </trkpt>
      <trkpt lat="47.24361" lon="-2.30516">
        <ele>11.199999809265</ele>
        <time>2022-04-17T07:54:27.000Z</time>
      </trkpt>
      <trkpt lat="47.2436" lon="-2.30507">
        <ele>11.60000038147</ele>
        <time>2022-04-17T07:54:29.000Z</time>
      </trkpt>
      <trkpt lat="47.24361" lon="-2.30502">
        <ele>12.199999809265</ele>
        <time>2022-04-17T07:54:30.000Z</time>
      </trkpt>
      <trkpt lat="47.24362" lon="-2.30497">
        <ele>12.60000038147</ele>
        <time>2022-04-17T07:54:31.000Z</time>
      </trkpt>
      <trkpt lat="47.24365" lon="-2.30492">
        <ele>13</ele>
        <time>2022-04-17T07:54:32.000Z</time>
      </trkpt>
      <trkpt lat="47.24367" lon="-2.30487">
        <ele>13.60000038147</ele>
        <time>2022-04-17T07:54:33.000Z</time>
      </trkpt>
      <trkpt lat="47.2437" lon="-2.30472">
        <ele>14</ele>
        <time>2022-04-17T07:54:36.000Z</time>
      </trkpt>
      <trkpt lat="47.24371" lon="-2.30467">
        <ele>14.39999961853</ele>
        <time>2022-04-17T07:54:37.000Z</time>
      </trkpt>
      <trkpt lat="47.24371" lon="-2.30462">
        <ele>14.800000190735</ele>
        <time>2022-04-17T07:54:38.000Z</time>
      </trkpt>
      <trkpt lat="47.24372" lon="-2.30457">
        <ele>15.199999809265</ele>
        <time>2022-04-17T07:54:39.000Z</time>
      </trkpt>
      <trkpt lat="47.24372" lon="-2.30453">
        <ele>15.60000038147</ele>
        <time>2022-04-17T07:54:40.000Z</time>
      </trkpt>
      <trkpt lat="47.2437" lon="-2.30452">
        <ele>15.60000038147</ele>
        <time>2022-04-17T07:54:41.000Z</time>
      </trkpt>
      <trkpt lat="47.24363" lon="-2.3045">
        <ele>15.60000038147</ele>
        <time>2022-04-17T07:54:43.000Z</time>
      </trkpt>
      <trkpt lat="47.24355" lon="-2.30452">
        <ele>15.60000038147</ele>
        <time>2022-04-17T07:54:46.000Z</time>
      </trkpt>
      <trkpt lat="47.24352" lon="-2.30453">
        <ele>15.60000038147</ele>
        <time>2022-04-17T07:54:48.000Z</time>
      </trkpt>
      <trkpt lat="47.24352" lon="-2.30452">
        <ele>15.60000038147</ele>
        <time>2022-04-17T07:54:50.000Z</time>
      </trkpt>
      <trkpt lat="47.24348" lon="-2.30448">
        <ele>15.60000038147</ele>
        <time>2022-04-17T07:55:14.000Z</time>
      </trkpt>
      <trkpt lat="47.24346" lon="-2.30447">
        <ele>15.60000038147</ele>
        <time>2022-04-17T07:55:15.000Z</time>
      </trkpt>
      <trkpt lat="47.24345" lon="-2.30446">
        <ele>16</ele>
        <time>2022-04-17T07:55:16.000Z</time>
      </trkpt>
      <trkpt lat="47.24342" lon="-2.30444">
        <ele>16.39999961853</ele>
        <time>2022-04-17T07:55:17.000Z</time>
      </trkpt>
      <trkpt lat="47.2434" lon="-2.30442">
        <ele>16.799999237061</ele>
        <time>2022-04-17T07:55:18.000Z</time>
      </trkpt>
      <trkpt lat="47.24337" lon="-2.30441">
        <ele>17.200000762939</ele>
        <time>2022-04-17T07:55:19.000Z</time>
      </trkpt>
      <trkpt lat="47.24334" lon="-2.30439">
        <ele>17.799999237061</ele>
        <time>2022-04-17T07:55:20.000Z</time>
      </trkpt>
      <trkpt lat="47.24317" lon="-2.30425">
        <ele>17.799999237061</ele>
        <time>2022-04-17T07:55:27.000Z</time>
      </trkpt>
      <trkpt lat="47.24311" lon="-2.3042">
        <ele>17.799999237061</ele>
        <time>2022-04-17T07:55:30.000Z</time>
      </trkpt>
      <trkpt lat="47.24305" lon="-2.30418">
        <ele>17.799999237061</ele>
        <time>2022-04-17T07:55:32.000Z</time>
      </trkpt>
      <trkpt lat="47.24286" lon="-2.30404">
        <ele>17.799999237061</ele>
        <time>2022-04-17T07:55:37.000Z</time>
      </trkpt>
      <trkpt lat="47.24272" lon="-2.30385">
        <ele>18.200000762939</ele>
        <time>2022-04-17T07:55:41.000Z</time>
      </trkpt>
      <trkpt lat="47.24267" lon="-2.30378">
        <ele>18.60000038147</ele>
        <time>2022-04-17T07:55:42.000Z</time>
      </trkpt>
      <trkpt lat="47.24263" lon="-2.30371">
        <ele>19</ele>
        <time>2022-04-17T07:55:43.000Z</time>
      </trkpt>
      <trkpt lat="47.24259" lon="-2.30365">
        <ele>19.39999961853</ele>
        <time>2022-04-17T07:55:44.000Z</time>
      </trkpt>
      <trkpt lat="47.24256" lon="-2.30359">
        <ele>19.799999237061</ele>
        <time>2022-04-17T07:55:45.000Z</time>
      </trkpt>
      <trkpt lat="47.24237" lon="-2.30327">
        <ele>19.799999237061</ele>
        <time>2022-04-17T07:55:51.000Z</time>
      </trkpt>
      <trkpt lat="47.24225" lon="-2.30324">
        <ele>19.799999237061</ele>
        <time>2022-04-17T07:55:54.000Z</time>
      </trkpt>
      <trkpt lat="47.24216" lon="-2.30331">
        <ele>19.799999237061</ele>
        <time>2022-04-17T07:55:56.000Z</time>
      </trkpt>
      <trkpt lat="47.24211" lon="-2.30334">
        <ele>19.200000762939</ele>
        <time>2022-04-17T07:55:57.000Z</time>
      </trkpt>
      <trkpt lat="47.24208" lon="-2.30333">
        <ele>18.60000038147</ele>
        <time>2022-04-17T07:55:58.000Z</time>
      </trkpt>
      <trkpt lat="47.24204" lon="-2.30329">
        <ele>18.200000762939</ele>
        <time>2022-04-17T07:55:59.000Z</time>
      </trkpt>
      <trkpt lat="47.24202" lon="-2.30321">
        <ele>17.60000038147</ele>
        <time>2022-04-17T07:56:00.000Z</time>
      </trkpt>
      <trkpt lat="47.24199" lon="-2.30312">
        <ele>17</ele>
        <time>2022-04-17T07:56:01.000Z</time>
      </trkpt>
      <trkpt lat="47.24197" lon="-2.30304">
        <ele>15.800000190735</ele>
        <time>2022-04-17T07:56:02.000Z</time>
      </trkpt>
      <trkpt lat="47.24195" lon="-2.30295">
        <ele>15.39999961853</ele>
        <time>2022-04-17T07:56:03.000Z</time>
      </trkpt>
      <trkpt lat="47.24194" lon="-2.30287">
        <ele>14.800000190735</ele>
        <time>2022-04-17T07:56:04.000Z</time>
      </trkpt>
      <trkpt lat="47.24193" lon="-2.30277">
        <ele>14.800000190735</ele>
        <time>2022-04-17T07:56:05.000Z</time>
      </trkpt>
      <trkpt lat="47.24189" lon="-2.30246">
        <ele>14.800000190735</ele>
        <time>2022-04-17T07:56:09.000Z</time>
      </trkpt>
      <trkpt lat="47.24186" lon="-2.30242">
        <ele>14.39999961853</ele>
        <time>2022-04-17T07:56:11.000Z</time>
      </trkpt>
      <trkpt lat="47.24184" lon="-2.30243">
        <ele>14</ele>
        <time>2022-04-17T07:56:12.000Z</time>
      </trkpt>
      <trkpt lat="47.24181" lon="-2.30246">
        <ele>13.60000038147</ele>
        <time>2022-04-17T07:56:13.000Z</time>
      </trkpt>
      <trkpt lat="47.24177" lon="-2.30247">
        <ele>13.199999809265</ele>
        <time>2022-04-17T07:56:14.000Z</time>
      </trkpt>
      <trkpt lat="47.24174" lon="-2.30247">
        <ele>12.800000190735</ele>
        <time>2022-04-17T07:56:15.000Z</time>
      </trkpt>
      <trkpt lat="47.24167" lon="-2.30239">
        <ele>12.800000190735</ele>
        <time>2022-04-17T07:56:17.000Z</time>
      </trkpt>
      <trkpt lat="47.24163" lon="-2.30228">
        <ele>12.800000190735</ele>
        <time>2022-04-17T07:56:19.000Z</time>
      </trkpt>
      <trkpt lat="47.24158" lon="-2.30217">
        <ele>12.800000190735</ele>
        <time>2022-04-17T07:56:21.000Z</time>
      </trkpt>
      <trkpt lat="47.24155" lon="-2.30207">
        <ele>13.199999809265</ele>
        <time>2022-04-17T07:56:23.000Z</time>
      </trkpt>
      <trkpt lat="47.24153" lon="-2.30203">
        <ele>13.60000038147</ele>
        <time>2022-04-17T07:56:24.000Z</time>
      </trkpt>
      <trkpt lat="47.24151" lon="-2.30199">
        <ele>14</ele>
        <time>2022-04-17T07:56:25.000Z</time>
      </trkpt>
      <trkpt lat="47.2415" lon="-2.30194">
        <ele>14.39999961853</ele>
        <time>2022-04-17T07:56:26.000Z</time>
      </trkpt>
      <trkpt lat="47.24148" lon="-2.30189">
        <ele>14.800000190735</ele>
        <time>2022-04-17T07:56:27.000Z</time>
      </trkpt>
      <trkpt lat="47.2414" lon="-2.30165">
        <ele>14.800000190735</ele>
        <time>2022-04-17T07:56:32.000Z</time>
      </trkpt>
      <trkpt lat="47.24138" lon="-2.30161">
        <ele>15.39999961853</ele>
        <time>2022-04-17T07:56:33.000Z</time>
      </trkpt>
      <trkpt lat="47.24137" lon="-2.30159">
        <ele>15.800000190735</ele>
        <time>2022-04-17T07:56:34.000Z</time>
      </trkpt>
      <trkpt lat="47.24136" lon="-2.30158">
        <ele>16.39999961853</ele>
        <time>2022-04-17T07:56:35.000Z</time>
      </trkpt>
      <trkpt lat="47.24135" lon="-2.30158">
        <ele>16.799999237061</ele>
        <time>2022-04-17T07:56:36.000Z</time>
      </trkpt>
      <trkpt lat="47.24133" lon="-2.30159">
        <ele>17.39999961853</ele>
        <time>2022-04-17T07:56:37.000Z</time>
      </trkpt>
      <trkpt lat="47.24132" lon="-2.30158">
        <ele>17.799999237061</ele>
        <time>2022-04-17T07:56:38.000Z</time>
      </trkpt>
      <trkpt lat="47.24131" lon="-2.30158">
        <ele>18.39999961853</ele>
        <time>2022-04-17T07:56:39.000Z</time>
      </trkpt>
      <trkpt lat="47.2413" lon="-2.30158">
        <ele>19</ele>
        <time>2022-04-17T07:56:40.000Z</time>
      </trkpt>
      <trkpt lat="47.24127" lon="-2.30163">
        <ele>19.39999961853</ele>
        <time>2022-04-17T07:57:41.000Z</time>
      </trkpt>
      <trkpt lat="47.24124" lon="-2.30164">
        <ele>19.39999961853</ele>
        <time>2022-04-17T07:57:43.000Z</time>
      </trkpt>
      <trkpt lat="47.2412" lon="-2.30163">
        <ele>19.39999961853</ele>
        <time>2022-04-17T07:57:45.000Z</time>
      </trkpt>
      <trkpt lat="47.24102" lon="-2.30161">
        <ele>19.39999961853</ele>
        <time>2022-04-17T07:57:52.000Z</time>
      </trkpt>
      <trkpt lat="47.24096" lon="-2.30163">
        <ele>20</ele>
        <time>2022-04-17T07:57:54.000Z</time>
      </trkpt>
      <trkpt lat="47.24094" lon="-2.30164">
        <ele>20.39999961853</ele>
        <time>2022-04-17T07:57:55.000Z</time>
      </trkpt>
      <trkpt lat="47.24091" lon="-2.30166">
        <ele>20.799999237061</ele>
        <time>2022-04-17T07:57:56.000Z</time>
      </trkpt>
      <trkpt lat="47.24089" lon="-2.30168">
        <ele>21.200000762939</ele>
        <time>2022-04-17T07:57:57.000Z</time>
      </trkpt>
      <trkpt lat="47.24086" lon="-2.30169">
        <ele>21.60000038147</ele>
        <time>2022-04-17T07:57:58.000Z</time>
      </trkpt>
      <trkpt lat="47.24073" lon="-2.30178">
        <ele>21.60000038147</ele>
        <time>2022-04-17T07:58:02.000Z</time>
      </trkpt>
      <trkpt lat="47.24058" lon="-2.30187">
        <ele>21.60000038147</ele>
        <time>2022-04-17T07:58:07.000Z</time>
      </trkpt>
      <trkpt lat="47.24049" lon="-2.30181">
        <ele>21.60000038147</ele>
        <time>2022-04-17T07:58:11.000Z</time>
      </trkpt>
      <trkpt lat="47.24047" lon="-2.30179">
        <ele>21.60000038147</ele>
        <time>2022-04-17T07:58:12.000Z</time>
      </trkpt>
      <trkpt lat="47.24029" lon="-2.30167">
        <ele>21.60000038147</ele>
        <time>2022-04-17T07:58:18.000Z</time>
      </trkpt>
      <trkpt lat="47.24011" lon="-2.30156">
        <ele>21.60000038147</ele>
        <time>2022-04-17T07:58:24.000Z</time>
      </trkpt>
      <trkpt lat="47.23997" lon="-2.3015">
        <ele>21.60000038147</ele>
        <time>2022-04-17T07:58:28.000Z</time>
      </trkpt>
      <trkpt lat="47.23974" lon="-2.30141">
        <ele>21.60000038147</ele>
        <time>2022-04-17T07:58:33.000Z</time>
      </trkpt>
      <trkpt lat="47.23949" lon="-2.30143">
        <ele>21.200000762939</ele>
        <time>2022-04-17T07:58:37.000Z</time>
      </trkpt>
      <trkpt lat="47.23943" lon="-2.30145">
        <ele>20.799999237061</ele>
        <time>2022-04-17T07:58:38.000Z</time>
      </trkpt>
      <trkpt lat="47.23937" lon="-2.30144">
        <ele>20.39999961853</ele>
        <time>2022-04-17T07:58:39.000Z</time>
      </trkpt>
      <trkpt lat="47.2393" lon="-2.30141">
        <ele>20</ele>
        <time>2022-04-17T07:58:40.000Z</time>
      </trkpt>
      <trkpt lat="47.23924" lon="-2.30136">
        <ele>19.60000038147</ele>
        <time>2022-04-17T07:58:41.000Z</time>
      </trkpt>
      <trkpt lat="47.23916" lon="-2.3013">
        <ele>19.60000038147</ele>
        <time>2022-04-17T07:58:43.000Z</time>
      </trkpt>
      <trkpt lat="47.23909" lon="-2.30111">
        <ele>19.60000038147</ele>
        <time>2022-04-17T07:58:47.000Z</time>
      </trkpt>
      <trkpt lat="47.23909" lon="-2.30106">
        <ele>19.60000038147</ele>
        <time>2022-04-17T07:58:48.000Z</time>
      </trkpt>
      <trkpt lat="47.23908" lon="-2.30097">
        <ele>19.60000038147</ele>
        <time>2022-04-17T07:58:51.000Z</time>
      </trkpt>
      <trkpt lat="47.23906" lon="-2.30096">
        <ele>19.60000038147</ele>
        <time>2022-04-17T07:58:52.000Z</time>
      </trkpt>
      <trkpt lat="47.23895" lon="-2.30089">
        <ele>19.60000038147</ele>
        <time>2022-04-17T07:58:55.000Z</time>
      </trkpt>
      <trkpt lat="47.23888" lon="-2.30083">
        <ele>19.60000038147</ele>
        <time>2022-04-17T07:58:56.000Z</time>
      </trkpt>
      <trkpt lat="47.23856" lon="-2.30059">
        <ele>19.60000038147</ele>
        <time>2022-04-17T07:59:02.000Z</time>
      </trkpt>
      <trkpt lat="47.23849" lon="-2.30045">
        <ele>19.60000038147</ele>
        <time>2022-04-17T07:59:04.000Z</time>
      </trkpt>
      <trkpt lat="47.23847" lon="-2.30038">
        <ele>19.60000038147</ele>
        <time>2022-04-17T07:59:05.000Z</time>
      </trkpt>
      <trkpt lat="47.23842" lon="-2.30006">
        <ele>20</ele>
        <time>2022-04-17T07:59:10.000Z</time>
      </trkpt>
      <trkpt lat="47.2384" lon="-2.3">
        <ele>20.39999961853</ele>
        <time>2022-04-17T07:59:11.000Z</time>
      </trkpt>
      <trkpt lat="47.23839" lon="-2.29994">
        <ele>20.799999237061</ele>
        <time>2022-04-17T07:59:12.000Z</time>
      </trkpt>
      <trkpt lat="47.23838" lon="-2.29988">
        <ele>21.200000762939</ele>
        <time>2022-04-17T07:59:13.000Z</time>
      </trkpt>
      <trkpt lat="47.23837" lon="-2.29982">
        <ele>21.60000038147</ele>
        <time>2022-04-17T07:59:14.000Z</time>
      </trkpt>
      <trkpt lat="47.23829" lon="-2.29946">
        <ele>21.60000038147</ele>
        <time>2022-04-17T07:59:20.000Z</time>
      </trkpt>
      <trkpt lat="47.23827" lon="-2.29935">
        <ele>22</ele>
        <time>2022-04-17T07:59:22.000Z</time>
      </trkpt>
      <trkpt lat="47.23826" lon="-2.29928">
        <ele>22.39999961853</ele>
        <time>2022-04-17T07:59:23.000Z</time>
      </trkpt>
      <trkpt lat="47.23825" lon="-2.29922">
        <ele>22.799999237061</ele>
        <time>2022-04-17T07:59:24.000Z</time>
      </trkpt>
      <trkpt lat="47.23824" lon="-2.29917">
        <ele>23.200000762939</ele>
        <time>2022-04-17T07:59:25.000Z</time>
      </trkpt>
      <trkpt lat="47.23823" lon="-2.29911">
        <ele>23.60000038147</ele>
        <time>2022-04-17T07:59:26.000Z</time>
      </trkpt>
      <trkpt lat="47.2382" lon="-2.29893">
        <ele>23.60000038147</ele>
        <time>2022-04-17T07:59:29.000Z</time>
      </trkpt>
      <trkpt lat="47.2381" lon="-2.29821">
        <ele>23.60000038147</ele>
        <time>2022-04-17T07:59:41.000Z</time>
      </trkpt>
      <trkpt lat="47.23811" lon="-2.29761">
        <ele>23.60000038147</ele>
        <time>2022-04-17T07:59:50.000Z</time>
      </trkpt>
      <trkpt lat="47.23813" lon="-2.29708">
        <ele>23.60000038147</ele>
        <time>2022-04-17T07:59:58.000Z</time>
      </trkpt>
      <trkpt lat="47.23815" lon="-2.29647">
        <ele>23.60000038147</ele>
        <time>2022-04-17T08:00:07.000Z</time>
      </trkpt>
      <trkpt lat="47.23816" lon="-2.29593">
        <ele>23.60000038147</ele>
        <time>2022-04-17T08:00:15.000Z</time>
      </trkpt>
      <trkpt lat="47.23818" lon="-2.29542">
        <ele>23.60000038147</ele>
        <time>2022-04-17T08:00:22.000Z</time>
      </trkpt>
      <trkpt lat="47.23818" lon="-2.29522">
        <ele>23.60000038147</ele>
        <time>2022-04-17T08:00:25.000Z</time>
      </trkpt>
      <trkpt lat="47.23819" lon="-2.29509">
        <ele>23.60000038147</ele>
        <time>2022-04-17T08:00:27.000Z</time>
      </trkpt>
      <trkpt lat="47.2382" lon="-2.29465">
        <ele>23.60000038147</ele>
        <time>2022-04-17T08:00:33.000Z</time>
      </trkpt>
      <trkpt lat="47.23822" lon="-2.29433">
        <ele>23.60000038147</ele>
        <time>2022-04-17T08:00:38.000Z</time>
      </trkpt>
      <trkpt lat="47.23831" lon="-2.29413">
        <ele>23.60000038147</ele>
        <time>2022-04-17T08:00:42.000Z</time>
      </trkpt>
      <trkpt lat="47.23834" lon="-2.29407">
        <ele>23.60000038147</ele>
        <time>2022-04-17T08:00:43.000Z</time>
      </trkpt>
      <trkpt lat="47.23858" lon="-2.29354">
        <ele>23.60000038147</ele>
        <time>2022-04-17T08:00:52.000Z</time>
      </trkpt>
      <trkpt lat="47.23866" lon="-2.29339">
        <ele>23.60000038147</ele>
        <time>2022-04-17T08:00:55.000Z</time>
      </trkpt>
      <trkpt lat="47.23875" lon="-2.29333">
        <ele>23.60000038147</ele>
        <time>2022-04-17T08:00:57.000Z</time>
      </trkpt>
      <trkpt lat="47.2389" lon="-2.29332">
        <ele>23.60000038147</ele>
        <time>2022-04-17T08:01:00.000Z</time>
      </trkpt>
      <trkpt lat="47.23895" lon="-2.29331">
        <ele>23.60000038147</ele>
        <time>2022-04-17T08:01:01.000Z</time>
      </trkpt>
      <trkpt lat="47.23905" lon="-2.29332">
        <ele>23.60000038147</ele>
        <time>2022-04-17T08:01:03.000Z</time>
      </trkpt>
      <trkpt lat="47.23913" lon="-2.29341">
        <ele>23.60000038147</ele>
        <time>2022-04-17T08:01:05.000Z</time>
      </trkpt>
      <trkpt lat="47.23941" lon="-2.29392">
        <ele>23.60000038147</ele>
        <time>2022-04-17T08:01:14.000Z</time>
      </trkpt>
      <trkpt lat="47.23962" lon="-2.29434">
        <ele>23.60000038147</ele>
        <time>2022-04-17T08:01:22.000Z</time>
      </trkpt>
      <trkpt lat="47.23984" lon="-2.29476">
        <ele>23.60000038147</ele>
        <time>2022-04-17T08:01:30.000Z</time>
      </trkpt>
      <trkpt lat="47.23993" lon="-2.29497">
        <ele>23.60000038147</ele>
        <time>2022-04-17T08:01:34.000Z</time>
      </trkpt>
      <trkpt lat="47.23995" lon="-2.2951">
        <ele>23.60000038147</ele>
        <time>2022-04-17T08:01:36.000Z</time>
      </trkpt>
      <trkpt lat="47.23996" lon="-2.29523">
        <ele>23.60000038147</ele>
        <time>2022-04-17T08:01:38.000Z</time>
      </trkpt>
      <trkpt lat="47.23999" lon="-2.29557">
        <ele>23.60000038147</ele>
        <time>2022-04-17T08:01:43.000Z</time>
      </trkpt>
      <trkpt lat="47.24002" lon="-2.29598">
        <ele>24</ele>
        <time>2022-04-17T08:01:49.000Z</time>
      </trkpt>
      <trkpt lat="47.24003" lon="-2.29605">
        <ele>24.60000038147</ele>
        <time>2022-04-17T08:01:50.000Z</time>
      </trkpt>
      <trkpt lat="47.24004" lon="-2.29611">
        <ele>25</ele>
        <time>2022-04-17T08:01:51.000Z</time>
      </trkpt>
      <trkpt lat="47.24004" lon="-2.29617">
        <ele>25.39999961853</ele>
        <time>2022-04-17T08:01:52.000Z</time>
      </trkpt>
      <trkpt lat="47.24004" lon="-2.29623">
        <ele>25.799999237061</ele>
        <time>2022-04-17T08:01:53.000Z</time>
      </trkpt>
      <trkpt lat="47.24006" lon="-2.29648">
        <ele>25.799999237061</ele>
        <time>2022-04-17T08:01:57.000Z</time>
      </trkpt>
      <trkpt lat="47.24011" lon="-2.29686">
        <ele>25.799999237061</ele>
        <time>2022-04-17T08:02:02.000Z</time>
      </trkpt>
      <trkpt lat="47.24012" lon="-2.29708">
        <ele>25.799999237061</ele>
        <time>2022-04-17T08:02:05.000Z</time>
      </trkpt>
      <trkpt lat="47.24013" lon="-2.2973">
        <ele>25.799999237061</ele>
        <time>2022-04-17T08:02:08.000Z</time>
      </trkpt>
      <trkpt lat="47.24015" lon="-2.29776">
        <ele>25.799999237061</ele>
        <time>2022-04-17T08:02:15.000Z</time>
      </trkpt>
      <trkpt lat="47.24014" lon="-2.29791">
        <ele>25.799999237061</ele>
        <time>2022-04-17T08:02:19.000Z</time>
      </trkpt>
      <trkpt lat="47.24015" lon="-2.298">
        <ele>25.799999237061</ele>
        <time>2022-04-17T08:02:24.000Z</time>
      </trkpt>
      <trkpt lat="47.24019" lon="-2.29803">
        <ele>25.799999237061</ele>
        <time>2022-04-17T08:02:28.000Z</time>
      </trkpt>
      <trkpt lat="47.24022" lon="-2.29806">
        <ele>25.799999237061</ele>
        <time>2022-04-17T08:02:30.000Z</time>
      </trkpt>
      <trkpt lat="47.24034" lon="-2.29812">
        <ele>25.799999237061</ele>
        <time>2022-04-17T08:02:35.000Z</time>
      </trkpt>
      <trkpt lat="47.24043" lon="-2.29814">
        <ele>25.799999237061</ele>
        <time>2022-04-17T08:02:39.000Z</time>
      </trkpt>
      <trkpt lat="47.24044" lon="-2.29816">
        <ele>25.799999237061</ele>
        <time>2022-04-17T08:02:40.000Z</time>
      </trkpt>
      <trkpt lat="47.24058" lon="-2.29828">
        <ele>25.799999237061</ele>
        <time>2022-04-17T08:02:45.000Z</time>
      </trkpt>
      <trkpt lat="47.24084" lon="-2.29844">
        <ele>25.799999237061</ele>
        <time>2022-04-17T08:02:52.000Z</time>
      </trkpt>
      <trkpt lat="47.24108" lon="-2.29847">
        <ele>25.799999237061</ele>
        <time>2022-04-17T08:02:57.000Z</time>
      </trkpt>
      <trkpt lat="47.24133" lon="-2.2984">
        <ele>25.799999237061</ele>
        <time>2022-04-17T08:03:03.000Z</time>
      </trkpt>
      <trkpt lat="47.24155" lon="-2.29842">
        <ele>25.799999237061</ele>
        <time>2022-04-17T08:03:08.000Z</time>
      </trkpt>
      <trkpt lat="47.24166" lon="-2.2985">
        <ele>25.799999237061</ele>
        <time>2022-04-17T08:03:13.000Z</time>
      </trkpt>
      <trkpt lat="47.24167" lon="-2.29853">
        <ele>25.799999237061</ele>
        <time>2022-04-17T08:03:14.000Z</time>
      </trkpt>
      <trkpt lat="47.24171" lon="-2.29864">
        <ele>25.799999237061</ele>
        <time>2022-04-17T08:03:18.000Z</time>
      </trkpt>
      <trkpt lat="47.24175" lon="-2.29879">
        <ele>25.799999237061</ele>
        <time>2022-04-17T08:03:23.000Z</time>
      </trkpt>
      <trkpt lat="47.24176" lon="-2.29881">
        <ele>25.799999237061</ele>
        <time>2022-04-17T08:03:24.000Z</time>
      </trkpt>
      <trkpt lat="47.24176" lon="-2.29888">
        <ele>25.799999237061</ele>
        <time>2022-04-17T08:03:27.000Z</time>
      </trkpt>
      <trkpt lat="47.24175" lon="-2.29895">
        <ele>25.799999237061</ele>
        <time>2022-04-17T08:03:29.000Z</time>
      </trkpt>
      <trkpt lat="47.24168" lon="-2.29915">
        <ele>25.799999237061</ele>
        <time>2022-04-17T08:03:33.000Z</time>
      </trkpt>
      <trkpt lat="47.24159" lon="-2.29949">
        <ele>25.799999237061</ele>
        <time>2022-04-17T08:03:39.000Z</time>
      </trkpt>
      <trkpt lat="47.24153" lon="-2.29969">
        <ele>25.799999237061</ele>
        <time>2022-04-17T08:03:43.000Z</time>
      </trkpt>
      <trkpt lat="47.24155" lon="-2.29978">
        <ele>25.799999237061</ele>
        <time>2022-04-17T08:03:47.000Z</time>
      </trkpt>
      <trkpt lat="47.24157" lon="-2.29983">
        <ele>25.799999237061</ele>
        <time>2022-04-17T08:03:49.000Z</time>
      </trkpt>
      <trkpt lat="47.24159" lon="-2.29989">
        <ele>25.39999961853</ele>
        <time>2022-04-17T08:03:51.000Z</time>
      </trkpt>
      <trkpt lat="47.2416" lon="-2.29993">
        <ele>24.799999237061</ele>
        <time>2022-04-17T08:03:52.000Z</time>
      </trkpt>
      <trkpt lat="47.24162" lon="-2.29997">
        <ele>24.39999961853</ele>
        <time>2022-04-17T08:03:53.000Z</time>
      </trkpt>
      <trkpt lat="47.24163" lon="-2.30001">
        <ele>24</ele>
        <time>2022-04-17T08:03:54.000Z</time>
      </trkpt>
      <trkpt lat="47.24163" lon="-2.30006">
        <ele>23.39999961853</ele>
        <time>2022-04-17T08:03:55.000Z</time>
      </trkpt>
      <trkpt lat="47.24168" lon="-2.30022">
        <ele>23.39999961853</ele>
        <time>2022-04-17T08:03:58.000Z</time>
      </trkpt>
      <trkpt lat="47.24169" lon="-2.30025">
        <ele>23.39999961853</ele>
        <time>2022-04-17T08:03:59.000Z</time>
      </trkpt>
      <trkpt lat="47.24162" lon="-2.30025">
        <ele>23.39999961853</ele>
        <time>2022-04-17T08:04:06.000Z</time>
      </trkpt>
      <trkpt lat="47.24159" lon="-2.30017">
        <ele>23.39999961853</ele>
        <time>2022-04-17T08:04:10.000Z</time>
      </trkpt>
      <trkpt lat="47.24158" lon="-2.30015">
        <ele>23.39999961853</ele>
        <time>2022-04-17T08:04:12.000Z</time>
      </trkpt>
      <trkpt lat="47.24154" lon="-2.30014">
        <ele>23.39999961853</ele>
        <time>2022-04-17T08:04:18.000Z</time>
      </trkpt>
      <trkpt lat="47.2415" lon="-2.3002">
        <ele>23.39999961853</ele>
        <time>2022-04-17T08:04:23.000Z</time>
      </trkpt>
      <trkpt lat="47.2415" lon="-2.30022">
        <ele>23.39999961853</ele>
        <time>2022-04-17T08:04:24.000Z</time>
      </trkpt>
      <trkpt lat="47.24152" lon="-2.30039">
        <ele>23.39999961853</ele>
        <time>2022-04-17T08:04:29.000Z</time>
      </trkpt>
      <trkpt lat="47.24156" lon="-2.30048">
        <ele>23</ele>
        <time>2022-04-17T08:04:32.000Z</time>
      </trkpt>
      <trkpt lat="47.24157" lon="-2.3005">
        <ele>22.60000038147</ele>
        <time>2022-04-17T08:04:33.000Z</time>
      </trkpt>
      <trkpt lat="47.24158" lon="-2.30053">
        <ele>22.200000762939</ele>
        <time>2022-04-17T08:04:34.000Z</time>
      </trkpt>
      <trkpt lat="47.24159" lon="-2.30055">
        <ele>21.799999237061</ele>
        <time>2022-04-17T08:04:35.000Z</time>
      </trkpt>
      <trkpt lat="47.2416" lon="-2.30057">
        <ele>21.39999961853</ele>
        <time>2022-04-17T08:04:36.000Z</time>
      </trkpt>
      <trkpt lat="47.24168" lon="-2.30079">
        <ele>21.39999961853</ele>
        <time>2022-04-17T08:04:42.000Z</time>
      </trkpt>
      <trkpt lat="47.24169" lon="-2.30083">
        <ele>21</ele>
        <time>2022-04-17T08:04:43.000Z</time>
      </trkpt>
      <trkpt lat="47.24169" lon="-2.30089">
        <ele>20.60000038147</ele>
        <time>2022-04-17T08:04:44.000Z</time>
      </trkpt>
      <trkpt lat="47.24168" lon="-2.30093">
        <ele>20</ele>
        <time>2022-04-17T08:04:45.000Z</time>
      </trkpt>
      <trkpt lat="47.24167" lon="-2.30098">
        <ele>19.60000038147</ele>
        <time>2022-04-17T08:04:46.000Z</time>
      </trkpt>
      <trkpt lat="47.24166" lon="-2.30102">
        <ele>19.200000762939</ele>
        <time>2022-04-17T08:04:47.000Z</time>
      </trkpt>
      <trkpt lat="47.24155" lon="-2.30113">
        <ele>19.200000762939</ele>
        <time>2022-04-17T08:04:50.000Z</time>
      </trkpt>
      <trkpt lat="47.24139" lon="-2.30114">
        <ele>19.60000038147</ele>
        <time>2022-04-17T08:04:55.000Z</time>
      </trkpt>
      <trkpt lat="47.24136" lon="-2.30113">
        <ele>20</ele>
        <time>2022-04-17T08:04:56.000Z</time>
      </trkpt>
      <trkpt lat="47.24131" lon="-2.30115">
        <ele>20.39999961853</ele>
        <time>2022-04-17T08:04:57.000Z</time>
      </trkpt>
      <trkpt lat="47.24128" lon="-2.30116">
        <ele>20.799999237061</ele>
        <time>2022-04-17T08:04:58.000Z</time>
      </trkpt>
      <trkpt lat="47.24123" lon="-2.30116">
        <ele>21.200000762939</ele>
        <time>2022-04-17T08:04:59.000Z</time>
      </trkpt>
      <trkpt lat="47.24112" lon="-2.30118">
        <ele>21.200000762939</ele>
        <time>2022-04-17T08:05:01.000Z</time>
      </trkpt>
      <trkpt lat="47.24093" lon="-2.30113">
        <ele>21.200000762939</ele>
        <time>2022-04-17T08:05:05.000Z</time>
      </trkpt>
      <trkpt lat="47.2409" lon="-2.3011">
        <ele>21.200000762939</ele>
        <time>2022-04-17T08:05:06.000Z</time>
      </trkpt>
      <trkpt lat="47.24088" lon="-2.30107">
        <ele>21.60000038147</ele>
        <time>2022-04-17T08:05:07.000Z</time>
      </trkpt>
      <trkpt lat="47.24085" lon="-2.30103">
        <ele>22</ele>
        <time>2022-04-17T08:05:08.000Z</time>
      </trkpt>
      <trkpt lat="47.24082" lon="-2.301">
        <ele>22.39999961853</ele>
        <time>2022-04-17T08:05:09.000Z</time>
      </trkpt>
      <trkpt lat="47.24079" lon="-2.30096">
        <ele>23</ele>
        <time>2022-04-17T08:05:10.000Z</time>
      </trkpt>
      <trkpt lat="47.24077" lon="-2.3009">
        <ele>23.39999961853</ele>
        <time>2022-04-17T08:05:11.000Z</time>
      </trkpt>
      <trkpt lat="47.24067" lon="-2.30081">
        <ele>23.39999961853</ele>
        <time>2022-04-17T08:05:14.000Z</time>
      </trkpt>
      <trkpt lat="47.24065" lon="-2.30079">
        <ele>23.39999961853</ele>
        <time>2022-04-17T08:05:15.000Z</time>
      </trkpt>
      <trkpt lat="47.24062" lon="-2.30077">
        <ele>23.39999961853</ele>
        <time>2022-04-17T08:05:17.000Z</time>
      </trkpt>
      <trkpt lat="47.24061" lon="-2.30073">
        <ele>23.39999961853</ele>
        <time>2022-04-17T08:05:19.000Z</time>
      </trkpt>
      <trkpt lat="47.24063" lon="-2.30057">
        <ele>23.39999961853</ele>
        <time>2022-04-17T08:05:24.000Z</time>
      </trkpt>
      <trkpt lat="47.24062" lon="-2.30051">
        <ele>23.39999961853</ele>
        <time>2022-04-17T08:05:26.000Z</time>
      </trkpt>
      <trkpt lat="47.24061" lon="-2.30046">
        <ele>23.39999961853</ele>
        <time>2022-04-17T08:05:29.000Z</time>
      </trkpt>
      <trkpt lat="47.24053" lon="-2.30045">
        <ele>23.39999961853</ele>
        <time>2022-04-17T08:05:54.000Z</time>
      </trkpt>
      <trkpt lat="47.24047" lon="-2.30041">
        <ele>23.39999961853</ele>
        <time>2022-04-17T08:05:57.000Z</time>
      </trkpt>
      <trkpt lat="47.24041" lon="-2.30035">
        <ele>23.39999961853</ele>
        <time>2022-04-17T08:06:00.000Z</time>
      </trkpt>
      <trkpt lat="47.24035" lon="-2.30031">
        <ele>23.39999961853</ele>
        <time>2022-04-17T08:06:03.000Z</time>
      </trkpt>
      <trkpt lat="47.24027" lon="-2.30032">
        <ele>23.39999961853</ele>
        <time>2022-04-17T08:06:08.000Z</time>
      </trkpt>
      <trkpt lat="47.24025" lon="-2.30031">
        <ele>23.39999961853</ele>
        <time>2022-04-17T08:06:11.000Z</time>
      </trkpt>
      <trkpt lat="47.24021" lon="-2.30025">
        <ele>23.39999961853</ele>
        <time>2022-04-17T08:06:13.000Z</time>
      </trkpt>
      <trkpt lat="47.24018" lon="-2.3002">
        <ele>23.39999961853</ele>
        <time>2022-04-17T08:06:15.000Z</time>
      </trkpt>
      <trkpt lat="47.24017" lon="-2.30016">
        <ele>23.39999961853</ele>
        <time>2022-04-17T08:06:17.000Z</time>
      </trkpt>
      <trkpt lat="47.24017" lon="-2.30014">
        <ele>23.39999961853</ele>
        <time>2022-04-17T08:06:18.000Z</time>
      </trkpt>
      <trkpt lat="47.24017" lon="-2.30011">
        <ele>23.39999961853</ele>
        <time>2022-04-17T08:06:19.000Z</time>
      </trkpt>
      <trkpt lat="47.2402" lon="-2.30006">
        <ele>23.39999961853</ele>
        <time>2022-04-17T08:06:23.000Z</time>
      </trkpt>
      <trkpt lat="47.24026" lon="-2.29993">
        <ele>23.39999961853</ele>
        <time>2022-04-17T08:06:30.000Z</time>
      </trkpt>
      <trkpt lat="47.24029" lon="-2.29987">
        <ele>23.39999961853</ele>
        <time>2022-04-17T08:06:32.000Z</time>
      </trkpt>
      <trkpt lat="47.24035" lon="-2.29981">
        <ele>23.39999961853</ele>
        <time>2022-04-17T08:06:34.000Z</time>
      </trkpt>
      <trkpt lat="47.24047" lon="-2.29966">
        <ele>23.39999961853</ele>
        <time>2022-04-17T08:06:39.000Z</time>
      </trkpt>
      <trkpt lat="47.24052" lon="-2.29956">
        <ele>23.39999961853</ele>
        <time>2022-04-17T08:06:42.000Z</time>
      </trkpt>
      <trkpt lat="47.24053" lon="-2.29949">
        <ele>23.39999961853</ele>
        <time>2022-04-17T08:06:44.000Z</time>
      </trkpt>
      <trkpt lat="47.24056" lon="-2.29928">
        <ele>23.39999961853</ele>
        <time>2022-04-17T08:06:51.000Z</time>
      </trkpt>
      <trkpt lat="47.24057" lon="-2.29919">
        <ele>23.799999237061</ele>
        <time>2022-04-17T08:06:53.000Z</time>
      </trkpt>
      <trkpt lat="47.24057" lon="-2.29916">
        <ele>24.200000762939</ele>
        <time>2022-04-17T08:06:54.000Z</time>
      </trkpt>
      <trkpt lat="47.24057" lon="-2.29913">
        <ele>24.60000038147</ele>
        <time>2022-04-17T08:06:55.000Z</time>
      </trkpt>
      <trkpt lat="47.24056" lon="-2.29909">
        <ele>25</ele>
        <time>2022-04-17T08:06:56.000Z</time>
      </trkpt>
      <trkpt lat="47.24055" lon="-2.29905">
        <ele>25.39999961853</ele>
        <time>2022-04-17T08:06:57.000Z</time>
      </trkpt>
      <trkpt lat="47.24049" lon="-2.29891">
        <ele>25.39999961853</ele>
        <time>2022-04-17T08:07:01.000Z</time>
      </trkpt>
      <trkpt lat="47.24048" lon="-2.29886">
        <ele>25.39999961853</ele>
        <time>2022-04-17T08:07:02.000Z</time>
      </trkpt>
      <trkpt lat="47.24049" lon="-2.29872">
        <ele>25.39999961853</ele>
        <time>2022-04-17T08:07:05.000Z</time>
      </trkpt>
      <trkpt lat="47.24052" lon="-2.29848">
        <ele>25.39999961853</ele>
        <time>2022-04-17T08:07:11.000Z</time>
      </trkpt>
      <trkpt lat="47.24057" lon="-2.29823">
        <ele>25.39999961853</ele>
        <time>2022-04-17T08:07:18.000Z</time>
      </trkpt>
      <trkpt lat="47.24061" lon="-2.29806">
        <ele>25.39999961853</ele>
        <time>2022-04-17T08:07:25.000Z</time>
      </trkpt>
      <trkpt lat="47.24066" lon="-2.29804">
        <ele>25.39999961853</ele>
        <time>2022-04-17T08:07:28.000Z</time>
      </trkpt>
      <trkpt lat="47.24069" lon="-2.29806">
        <ele>25.39999961853</ele>
        <time>2022-04-17T08:07:30.000Z</time>
      </trkpt>
      <trkpt lat="47.24072" lon="-2.29812">
        <ele>25.39999961853</ele>
        <time>2022-04-17T08:07:33.000Z</time>
      </trkpt>
      <trkpt lat="47.24073" lon="-2.29817">
        <ele>25.39999961853</ele>
        <time>2022-04-17T08:07:34.000Z</time>
      </trkpt>
      <trkpt lat="47.24071" lon="-2.29833">
        <ele>25.39999961853</ele>
        <time>2022-04-17T08:07:38.000Z</time>
      </trkpt>
      <trkpt lat="47.2407" lon="-2.2985">
        <ele>25.39999961853</ele>
        <time>2022-04-17T08:07:43.000Z</time>
      </trkpt>
      <trkpt lat="47.24065" lon="-2.29876">
        <ele>25.39999961853</ele>
        <time>2022-04-17T08:07:50.000Z</time>
      </trkpt>
      <trkpt lat="47.24059" lon="-2.29898">
        <ele>25.39999961853</ele>
        <time>2022-04-17T08:07:56.000Z</time>
      </trkpt>
      <trkpt lat="47.24063" lon="-2.299">
        <ele>25.39999961853</ele>
        <time>2022-04-17T08:08:50.000Z</time>
      </trkpt>
      <trkpt lat="47.24069" lon="-2.29902">
        <ele>25.39999961853</ele>
        <time>2022-04-17T08:08:53.000Z</time>
      </trkpt>
      <trkpt lat="47.24072" lon="-2.29905">
        <ele>25.39999961853</ele>
        <time>2022-04-17T08:08:55.000Z</time>
      </trkpt>
      <trkpt lat="47.24085" lon="-2.29915">
        <ele>25.39999961853</ele>
        <time>2022-04-17T08:08:59.000Z</time>
      </trkpt>
      <trkpt lat="47.24096" lon="-2.29936">
        <ele>25.39999961853</ele>
        <time>2022-04-17T08:09:04.000Z</time>
      </trkpt>
      <trkpt lat="47.24108" lon="-2.2995">
        <ele>25.39999961853</ele>
        <time>2022-04-17T08:09:09.000Z</time>
      </trkpt>
      <trkpt lat="47.24111" lon="-2.29955">
        <ele>25.39999961853</ele>
        <time>2022-04-17T08:09:11.000Z</time>
      </trkpt>
      <trkpt lat="47.24112" lon="-2.29962">
        <ele>25.39999961853</ele>
        <time>2022-04-17T08:09:13.000Z</time>
      </trkpt>
      <trkpt lat="47.24121" lon="-2.29981">
        <ele>25.39999961853</ele>
        <time>2022-04-17T08:09:19.000Z</time>
      </trkpt>
      <trkpt lat="47.24124" lon="-2.29982">
        <ele>25.39999961853</ele>
        <time>2022-04-17T08:09:20.000Z</time>
      </trkpt>
      <trkpt lat="47.24134" lon="-2.29983">
        <ele>25.39999961853</ele>
        <time>2022-04-17T08:09:23.000Z</time>
      </trkpt>
      <trkpt lat="47.24143" lon="-2.2998">
        <ele>25.39999961853</ele>
        <time>2022-04-17T08:09:26.000Z</time>
      </trkpt>
      <trkpt lat="47.24148" lon="-2.29978">
        <ele>25.39999961853</ele>
        <time>2022-04-17T08:09:29.000Z</time>
      </trkpt>
      <trkpt lat="47.24149" lon="-2.29978">
        <ele>25.39999961853</ele>
        <time>2022-04-17T08:09:31.000Z</time>
      </trkpt>
      <trkpt lat="47.24151" lon="-2.29977">
        <ele>25.39999961853</ele>
        <time>2022-04-17T08:09:54.000Z</time>
      </trkpt>
      <trkpt lat="47.24154" lon="-2.29977">
        <ele>25.39999961853</ele>
        <time>2022-04-17T08:09:55.000Z</time>
      </trkpt>
      <trkpt lat="47.24157" lon="-2.29977">
        <ele>25.39999961853</ele>
        <time>2022-04-17T08:09:56.000Z</time>
      </trkpt>
      <trkpt lat="47.24188" lon="-2.29972">
        <ele>25.39999961853</ele>
        <time>2022-04-17T08:10:02.000Z</time>
      </trkpt>
      <trkpt lat="47.24193" lon="-2.2997">
        <ele>25</ele>
        <time>2022-04-17T08:10:03.000Z</time>
      </trkpt>
      <trkpt lat="47.24198" lon="-2.2997">
        <ele>24.60000038147</ele>
        <time>2022-04-17T08:10:04.000Z</time>
      </trkpt>
      <trkpt lat="47.24202" lon="-2.29968">
        <ele>24</ele>
        <time>2022-04-17T08:10:05.000Z</time>
      </trkpt>
      <trkpt lat="47.24207" lon="-2.29966">
        <ele>23.60000038147</ele>
        <time>2022-04-17T08:10:06.000Z</time>
      </trkpt>
      <trkpt lat="47.24213" lon="-2.29964">
        <ele>23.200000762939</ele>
        <time>2022-04-17T08:10:07.000Z</time>
      </trkpt>
      <trkpt lat="47.24224" lon="-2.29959">
        <ele>23.200000762939</ele>
        <time>2022-04-17T08:10:09.000Z</time>
      </trkpt>
      <trkpt lat="47.24236" lon="-2.29952">
        <ele>23.200000762939</ele>
        <time>2022-04-17T08:10:11.000Z</time>
      </trkpt>
      <trkpt lat="47.24249" lon="-2.29942">
        <ele>23.200000762939</ele>
        <time>2022-04-17T08:10:13.000Z</time>
      </trkpt>
      <trkpt lat="47.24255" lon="-2.29936">
        <ele>23.200000762939</ele>
        <time>2022-04-17T08:10:14.000Z</time>
      </trkpt>
      <trkpt lat="47.24277" lon="-2.29914">
        <ele>23.200000762939</ele>
        <time>2022-04-17T08:10:18.000Z</time>
      </trkpt>
      <trkpt lat="47.2431" lon="-2.29889">
        <ele>23.200000762939</ele>
        <time>2022-04-17T08:10:24.000Z</time>
      </trkpt>
      <trkpt lat="47.2432" lon="-2.2987">
        <ele>23.200000762939</ele>
        <time>2022-04-17T08:10:27.000Z</time>
      </trkpt>
      <trkpt lat="47.2432" lon="-2.29847">
        <ele>23.200000762939</ele>
        <time>2022-04-17T08:10:30.000Z</time>
      </trkpt>
      <trkpt lat="47.2432" lon="-2.29839">
        <ele>23.200000762939</ele>
        <time>2022-04-17T08:10:31.000Z</time>
      </trkpt>
      <trkpt lat="47.24322" lon="-2.29823">
        <ele>23.200000762939</ele>
        <time>2022-04-17T08:10:33.000Z</time>
      </trkpt>
      <trkpt lat="47.2433" lon="-2.29812">
        <ele>23.200000762939</ele>
        <time>2022-04-17T08:10:35.000Z</time>
      </trkpt>
      <trkpt lat="47.24346" lon="-2.29805">
        <ele>23.200000762939</ele>
        <time>2022-04-17T08:10:39.000Z</time>
      </trkpt>
      <trkpt lat="47.2435" lon="-2.29802">
        <ele>23.200000762939</ele>
        <time>2022-04-17T08:10:40.000Z</time>
      </trkpt>
      <trkpt lat="47.24364" lon="-2.29786">
        <ele>23.200000762939</ele>
        <time>2022-04-17T08:10:44.000Z</time>
      </trkpt>
      <trkpt lat="47.24371" lon="-2.29775">
        <ele>23.200000762939</ele>
        <time>2022-04-17T08:10:46.000Z</time>
      </trkpt>
      <trkpt lat="47.24379" lon="-2.29757">
        <ele>23.60000038147</ele>
        <time>2022-04-17T08:10:49.000Z</time>
      </trkpt>
      <trkpt lat="47.24381" lon="-2.2975">
        <ele>24.60000038147</ele>
        <time>2022-04-17T08:10:50.000Z</time>
      </trkpt>
      <trkpt lat="47.24384" lon="-2.29744">
        <ele>25</ele>
        <time>2022-04-17T08:10:51.000Z</time>
      </trkpt>
      <trkpt lat="47.24386" lon="-2.29738">
        <ele>25.39999961853</ele>
        <time>2022-04-17T08:10:52.000Z</time>
      </trkpt>
      <trkpt lat="47.24396" lon="-2.29714">
        <ele>25.39999961853</ele>
        <time>2022-04-17T08:10:56.000Z</time>
      </trkpt>
      <trkpt lat="47.24402" lon="-2.29704">
        <ele>25.39999961853</ele>
        <time>2022-04-17T08:10:58.000Z</time>
      </trkpt>
      <trkpt lat="47.24418" lon="-2.29694">
        <ele>25.39999961853</ele>
        <time>2022-04-17T08:11:02.000Z</time>
      </trkpt>
      <trkpt lat="47.24423" lon="-2.29692">
        <ele>25.39999961853</ele>
        <time>2022-04-17T08:11:03.000Z</time>
      </trkpt>
      <trkpt lat="47.24434" lon="-2.29679">
        <ele>25.39999961853</ele>
        <time>2022-04-17T08:11:06.000Z</time>
      </trkpt>
      <trkpt lat="47.24437" lon="-2.29661">
        <ele>25.39999961853</ele>
        <time>2022-04-17T08:11:09.000Z</time>
      </trkpt>
      <trkpt lat="47.24437" lon="-2.29648">
        <ele>25.39999961853</ele>
        <time>2022-04-17T08:11:11.000Z</time>
      </trkpt>
      <trkpt lat="47.2444" lon="-2.29633">
        <ele>25.39999961853</ele>
        <time>2022-04-17T08:11:14.000Z</time>
      </trkpt>
      <trkpt lat="47.24445" lon="-2.29628">
        <ele>25.39999961853</ele>
        <time>2022-04-17T08:11:16.000Z</time>
      </trkpt>
      <trkpt lat="47.24448" lon="-2.29627">
        <ele>25.39999961853</ele>
        <time>2022-04-17T08:11:17.000Z</time>
      </trkpt>
      <trkpt lat="47.24467" lon="-2.29614">
        <ele>25.39999961853</ele>
        <time>2022-04-17T08:11:21.000Z</time>
      </trkpt>
      <trkpt lat="47.24472" lon="-2.29609">
        <ele>25.39999961853</ele>
        <time>2022-04-17T08:11:22.000Z</time>
      </trkpt>
      <trkpt lat="47.24504" lon="-2.29578">
        <ele>25.39999961853</ele>
        <time>2022-04-17T08:11:29.000Z</time>
      </trkpt>
      <trkpt lat="47.24521" lon="-2.29565">
        <ele>25.39999961853</ele>
        <time>2022-04-17T08:11:34.000Z</time>
      </trkpt>
      <trkpt lat="47.24524" lon="-2.29555">
        <ele>25.39999961853</ele>
        <time>2022-04-17T08:11:36.000Z</time>
      </trkpt>
      <trkpt lat="47.24523" lon="-2.29548">
        <ele>25.39999961853</ele>
        <time>2022-04-17T08:11:37.000Z</time>
      </trkpt>
      <trkpt lat="47.24521" lon="-2.29535">
        <ele>25.799999237061</ele>
        <time>2022-04-17T08:11:39.000Z</time>
      </trkpt>
      <trkpt lat="47.2452" lon="-2.29528">
        <ele>26.200000762939</ele>
        <time>2022-04-17T08:11:40.000Z</time>
      </trkpt>
      <trkpt lat="47.2452" lon="-2.2952">
        <ele>26.60000038147</ele>
        <time>2022-04-17T08:11:41.000Z</time>
      </trkpt>
      <trkpt lat="47.24519" lon="-2.29513">
        <ele>27</ele>
        <time>2022-04-17T08:11:42.000Z</time>
      </trkpt>
      <trkpt lat="47.24519" lon="-2.29505">
        <ele>27.39999961853</ele>
        <time>2022-04-17T08:11:43.000Z</time>
      </trkpt>
      <trkpt lat="47.24519" lon="-2.2949">
        <ele>27.39999961853</ele>
        <time>2022-04-17T08:11:45.000Z</time>
      </trkpt>
      <trkpt lat="47.24521" lon="-2.29437">
        <ele>27.39999961853</ele>
        <time>2022-04-17T08:11:52.000Z</time>
      </trkpt>
      <trkpt lat="47.24519" lon="-2.29375">
        <ele>27.39999961853</ele>
        <time>2022-04-17T08:12:00.000Z</time>
      </trkpt>
      <trkpt lat="47.24518" lon="-2.29367">
        <ele>27.39999961853</ele>
        <time>2022-04-17T08:12:01.000Z</time>
      </trkpt>
      <trkpt lat="47.24514" lon="-2.29347">
        <ele>27.39999961853</ele>
        <time>2022-04-17T08:12:04.000Z</time>
      </trkpt>
      <trkpt lat="47.24514" lon="-2.2934">
        <ele>27.39999961853</ele>
        <time>2022-04-17T08:12:05.000Z</time>
      </trkpt>
      <trkpt lat="47.24515" lon="-2.29307">
        <ele>27.39999961853</ele>
        <time>2022-04-17T08:12:09.000Z</time>
      </trkpt>
      <trkpt lat="47.24513" lon="-2.29255">
        <ele>27.39999961853</ele>
        <time>2022-04-17T08:12:15.000Z</time>
      </trkpt>
      <trkpt lat="47.24519" lon="-2.29194">
        <ele>27.39999961853</ele>
        <time>2022-04-17T08:12:22.000Z</time>
      </trkpt>
      <trkpt lat="47.2453" lon="-2.2914">
        <ele>27.39999961853</ele>
        <time>2022-04-17T08:12:28.000Z</time>
      </trkpt>
      <trkpt lat="47.24535" lon="-2.29124">
        <ele>27</ele>
        <time>2022-04-17T08:12:30.000Z</time>
      </trkpt>
      <trkpt lat="47.24537" lon="-2.29116">
        <ele>26.60000038147</ele>
        <time>2022-04-17T08:12:31.000Z</time>
      </trkpt>
      <trkpt lat="47.24539" lon="-2.29108">
        <ele>26.200000762939</ele>
        <time>2022-04-17T08:12:32.000Z</time>
      </trkpt>
      <trkpt lat="47.24542" lon="-2.291">
        <ele>25.799999237061</ele>
        <time>2022-04-17T08:12:33.000Z</time>
      </trkpt>
      <trkpt lat="47.24543" lon="-2.29091">
        <ele>25.39999961853</ele>
        <time>2022-04-17T08:12:34.000Z</time>
      </trkpt>
      <trkpt lat="47.24545" lon="-2.29082">
        <ele>25.39999961853</ele>
        <time>2022-04-17T08:12:35.000Z</time>
      </trkpt>
      <trkpt lat="47.24553" lon="-2.29019">
        <ele>25.39999961853</ele>
        <time>2022-04-17T08:12:42.000Z</time>
      </trkpt>
      <trkpt lat="47.24553" lon="-2.29001">
        <ele>25.39999961853</ele>
        <time>2022-04-17T08:12:44.000Z</time>
      </trkpt>
      <trkpt lat="47.24551" lon="-2.28985">
        <ele>25.39999961853</ele>
        <time>2022-04-17T08:12:46.000Z</time>
      </trkpt>
      <trkpt lat="47.24536" lon="-2.28928">
        <ele>25.39999961853</ele>
        <time>2022-04-17T08:12:53.000Z</time>
      </trkpt>
      <trkpt lat="47.24527" lon="-2.28903">
        <ele>25</ele>
        <time>2022-04-17T08:12:56.000Z</time>
      </trkpt>
      <trkpt lat="47.24524" lon="-2.28894">
        <ele>24.60000038147</ele>
        <time>2022-04-17T08:12:57.000Z</time>
      </trkpt>
      <trkpt lat="47.24522" lon="-2.28885">
        <ele>24.200000762939</ele>
        <time>2022-04-17T08:12:58.000Z</time>
      </trkpt>
      <trkpt lat="47.24522" lon="-2.28876">
        <ele>23.60000038147</ele>
        <time>2022-04-17T08:12:59.000Z</time>
      </trkpt>
      <trkpt lat="47.24524" lon="-2.28868">
        <ele>23.200000762939</ele>
        <time>2022-04-17T08:13:00.000Z</time>
      </trkpt>
      <trkpt lat="47.24531" lon="-2.28854">
        <ele>23.200000762939</ele>
        <time>2022-04-17T08:13:02.000Z</time>
      </trkpt>
      <trkpt lat="47.24547" lon="-2.2884">
        <ele>23.200000762939</ele>
        <time>2022-04-17T08:13:05.000Z</time>
      </trkpt>
      <trkpt lat="47.24553" lon="-2.28834">
        <ele>23.200000762939</ele>
        <time>2022-04-17T08:13:06.000Z</time>
      </trkpt>
      <trkpt lat="47.24583" lon="-2.28803">
        <ele>23.200000762939</ele>
        <time>2022-04-17T08:13:12.000Z</time>
      </trkpt>
      <trkpt lat="47.24609" lon="-2.2878">
        <ele>23.200000762939</ele>
        <time>2022-04-17T08:13:17.000Z</time>
      </trkpt>
      <trkpt lat="47.24614" lon="-2.28773">
        <ele>23.200000762939</ele>
        <time>2022-04-17T08:13:18.000Z</time>
      </trkpt>
      <trkpt lat="47.24641" lon="-2.28732">
        <ele>23.200000762939</ele>
        <time>2022-04-17T08:13:24.000Z</time>
      </trkpt>
      <trkpt lat="47.24646" lon="-2.28725">
        <ele>23.200000762939</ele>
        <time>2022-04-17T08:13:25.000Z</time>
      </trkpt>
      <trkpt lat="47.24667" lon="-2.28701">
        <ele>23.200000762939</ele>
        <time>2022-04-17T08:13:29.000Z</time>
      </trkpt>
      <trkpt lat="47.24691" lon="-2.2867">
        <ele>23.200000762939</ele>
        <time>2022-04-17T08:13:34.000Z</time>
      </trkpt>
      <trkpt lat="47.247" lon="-2.28657">
        <ele>23.200000762939</ele>
        <time>2022-04-17T08:13:36.000Z</time>
      </trkpt>
      <trkpt lat="47.24715" lon="-2.28641">
        <ele>23.200000762939</ele>
        <time>2022-04-17T08:13:39.000Z</time>
      </trkpt>
      <trkpt lat="47.24735" lon="-2.28619">
        <ele>23.200000762939</ele>
        <time>2022-04-17T08:13:43.000Z</time>
      </trkpt>
      <trkpt lat="47.24738" lon="-2.28612">
        <ele>23.200000762939</ele>
        <time>2022-04-17T08:13:44.000Z</time>
      </trkpt>
      <trkpt lat="47.24745" lon="-2.28581">
        <ele>23.200000762939</ele>
        <time>2022-04-17T08:13:48.000Z</time>
      </trkpt>
      <trkpt lat="47.24747" lon="-2.28573">
        <ele>23.200000762939</ele>
        <time>2022-04-17T08:13:49.000Z</time>
      </trkpt>
      <trkpt lat="47.2476" lon="-2.28553">
        <ele>23.200000762939</ele>
        <time>2022-04-17T08:13:52.000Z</time>
      </trkpt>
      <trkpt lat="47.24765" lon="-2.28547">
        <ele>23.200000762939</ele>
        <time>2022-04-17T08:13:53.000Z</time>
      </trkpt>
      <trkpt lat="47.24771" lon="-2.28541">
        <ele>23.200000762939</ele>
        <time>2022-04-17T08:13:54.000Z</time>
      </trkpt>
      <trkpt lat="47.24783" lon="-2.2853">
        <ele>23.60000038147</ele>
        <time>2022-04-17T08:13:56.000Z</time>
      </trkpt>
      <trkpt lat="47.24788" lon="-2.28524">
        <ele>24</ele>
        <time>2022-04-17T08:13:57.000Z</time>
      </trkpt>
      <trkpt lat="47.24794" lon="-2.28519">
        <ele>24.39999961853</ele>
        <time>2022-04-17T08:13:58.000Z</time>
      </trkpt>
      <trkpt lat="47.248" lon="-2.28514">
        <ele>24.799999237061</ele>
        <time>2022-04-17T08:13:59.000Z</time>
      </trkpt>
      <trkpt lat="47.24806" lon="-2.28509">
        <ele>25.200000762939</ele>
        <time>2022-04-17T08:14:00.000Z</time>
      </trkpt>
      <trkpt lat="47.24824" lon="-2.28495">
        <ele>25.200000762939</ele>
        <time>2022-04-17T08:14:03.000Z</time>
      </trkpt>
      <trkpt lat="47.24862" lon="-2.28463">
        <ele>25.200000762939</ele>
        <time>2022-04-17T08:14:09.000Z</time>
      </trkpt>
      <trkpt lat="47.24873" lon="-2.28449">
        <ele>24.799999237061</ele>
        <time>2022-04-17T08:14:11.000Z</time>
      </trkpt>
      <trkpt lat="47.24878" lon="-2.28442">
        <ele>24.39999961853</ele>
        <time>2022-04-17T08:14:12.000Z</time>
      </trkpt>
      <trkpt lat="47.24884" lon="-2.28436">
        <ele>24</ele>
        <time>2022-04-17T08:14:13.000Z</time>
      </trkpt>
      <trkpt lat="47.24891" lon="-2.2843">
        <ele>23.60000038147</ele>
        <time>2022-04-17T08:14:14.000Z</time>
      </trkpt>
      <trkpt lat="47.24898" lon="-2.28425">
        <ele>23.200000762939</ele>
        <time>2022-04-17T08:14:15.000Z</time>
      </trkpt>
      <trkpt lat="47.24912" lon="-2.28417">
        <ele>23.200000762939</ele>
        <time>2022-04-17T08:14:17.000Z</time>
      </trkpt>
      <trkpt lat="47.2492" lon="-2.28414">
        <ele>22.799999237061</ele>
        <time>2022-04-17T08:14:18.000Z</time>
      </trkpt>
      <trkpt lat="47.24928" lon="-2.28411">
        <ele>22.39999961853</ele>
        <time>2022-04-17T08:14:19.000Z</time>
      </trkpt>
      <trkpt lat="47.24935" lon="-2.28408">
        <ele>22</ele>
        <time>2022-04-17T08:14:20.000Z</time>
      </trkpt>
      <trkpt lat="47.24943" lon="-2.28405">
        <ele>21.39999961853</ele>
        <time>2022-04-17T08:14:21.000Z</time>
      </trkpt>
      <trkpt lat="47.24951" lon="-2.28403">
        <ele>21</ele>
        <time>2022-04-17T08:14:22.000Z</time>
      </trkpt>
      <trkpt lat="47.24968" lon="-2.28396">
        <ele>20.60000038147</ele>
        <time>2022-04-17T08:14:24.000Z</time>
      </trkpt>
      <trkpt lat="47.24975" lon="-2.28392">
        <ele>20.200000762939</ele>
        <time>2022-04-17T08:14:25.000Z</time>
      </trkpt>
      <trkpt lat="47.24982" lon="-2.28385">
        <ele>19.799999237061</ele>
        <time>2022-04-17T08:14:26.000Z</time>
      </trkpt>
      <trkpt lat="47.24988" lon="-2.28377">
        <ele>19.39999961853</ele>
        <time>2022-04-17T08:14:27.000Z</time>
      </trkpt>
      <trkpt lat="47.24993" lon="-2.28369">
        <ele>18.799999237061</ele>
        <time>2022-04-17T08:14:28.000Z</time>
      </trkpt>
      <trkpt lat="47.25002" lon="-2.28352">
        <ele>18.799999237061</ele>
        <time>2022-04-17T08:14:30.000Z</time>
      </trkpt>
      <trkpt lat="47.2502" lon="-2.28331">
        <ele>18.799999237061</ele>
        <time>2022-04-17T08:14:34.000Z</time>
      </trkpt>
      <trkpt lat="47.25024" lon="-2.28327">
        <ele>18.799999237061</ele>
        <time>2022-04-17T08:14:35.000Z</time>
      </trkpt>
      <trkpt lat="47.25027" lon="-2.28321">
        <ele>18.799999237061</ele>
        <time>2022-04-17T08:14:36.000Z</time>
      </trkpt>
      <trkpt lat="47.25029" lon="-2.28311">
        <ele>18.799999237061</ele>
        <time>2022-04-17T08:14:38.000Z</time>
      </trkpt>
      <trkpt lat="47.25031" lon="-2.28275">
        <ele>18.799999237061</ele>
        <time>2022-04-17T08:14:43.000Z</time>
      </trkpt>
      <trkpt lat="47.25036" lon="-2.28244">
        <ele>19.200000762939</ele>
        <time>2022-04-17T08:14:47.000Z</time>
      </trkpt>
      <trkpt lat="47.25037" lon="-2.28237">
        <ele>19.60000038147</ele>
        <time>2022-04-17T08:14:48.000Z</time>
      </trkpt>
      <trkpt lat="47.25039" lon="-2.28231">
        <ele>20</ele>
        <time>2022-04-17T08:14:49.000Z</time>
      </trkpt>
      <trkpt lat="47.25041" lon="-2.28225">
        <ele>20.60000038147</ele>
        <time>2022-04-17T08:14:50.000Z</time>
      </trkpt>
      <trkpt lat="47.25042" lon="-2.28218">
        <ele>21</ele>
        <time>2022-04-17T08:14:51.000Z</time>
      </trkpt>
      <trkpt lat="47.25043" lon="-2.28211">
        <ele>21</ele>
        <time>2022-04-17T08:14:52.000Z</time>
      </trkpt>
      <trkpt lat="47.25047" lon="-2.28191">
        <ele>21</ele>
        <time>2022-04-17T08:14:55.000Z</time>
      </trkpt>
      <trkpt lat="47.2505" lon="-2.28179">
        <ele>21</ele>
        <time>2022-04-17T08:14:57.000Z</time>
      </trkpt>
      <trkpt lat="47.25054" lon="-2.2816">
        <ele>21</ele>
        <time>2022-04-17T08:15:00.000Z</time>
      </trkpt>
      <trkpt lat="47.25066" lon="-2.28119">
        <ele>21</ele>
        <time>2022-04-17T08:15:07.000Z</time>
      </trkpt>
      <trkpt lat="47.25072" lon="-2.28089">
        <ele>21</ele>
        <time>2022-04-17T08:15:11.000Z</time>
      </trkpt>
      <trkpt lat="47.25078" lon="-2.28074">
        <ele>21</ele>
        <time>2022-04-17T08:15:13.000Z</time>
      </trkpt>
      <trkpt lat="47.25087" lon="-2.28053">
        <ele>21</ele>
        <time>2022-04-17T08:15:16.000Z</time>
      </trkpt>
      <trkpt lat="47.25108" lon="-2.28002">
        <ele>21</ele>
        <time>2022-04-17T08:15:23.000Z</time>
      </trkpt>
      <trkpt lat="47.25116" lon="-2.27989">
        <ele>21.39999961853</ele>
        <time>2022-04-17T08:15:25.000Z</time>
      </trkpt>
      <trkpt lat="47.25119" lon="-2.27983">
        <ele>21.799999237061</ele>
        <time>2022-04-17T08:15:26.000Z</time>
      </trkpt>
      <trkpt lat="47.25123" lon="-2.27976">
        <ele>22.200000762939</ele>
        <time>2022-04-17T08:15:27.000Z</time>
      </trkpt>
      <trkpt lat="47.25128" lon="-2.2797">
        <ele>22.60000038147</ele>
        <time>2022-04-17T08:15:28.000Z</time>
      </trkpt>
      <trkpt lat="47.25132" lon="-2.27964">
        <ele>23</ele>
        <time>2022-04-17T08:15:29.000Z</time>
      </trkpt>
      <trkpt lat="47.25138" lon="-2.27959">
        <ele>23</ele>
        <time>2022-04-17T08:15:30.000Z</time>
      </trkpt>
      <trkpt lat="47.25155" lon="-2.27946">
        <ele>23</ele>
        <time>2022-04-17T08:15:33.000Z</time>
      </trkpt>
      <trkpt lat="47.25197" lon="-2.27915">
        <ele>23</ele>
        <time>2022-04-17T08:15:41.000Z</time>
      </trkpt>
      <trkpt lat="47.25207" lon="-2.2791">
        <ele>23</ele>
        <time>2022-04-17T08:15:43.000Z</time>
      </trkpt>
      <trkpt lat="47.25216" lon="-2.27906">
        <ele>23.799999237061</ele>
        <time>2022-04-17T08:15:45.000Z</time>
      </trkpt>
      <trkpt lat="47.25221" lon="-2.27903">
        <ele>24.200000762939</ele>
        <time>2022-04-17T08:15:46.000Z</time>
      </trkpt>
      <trkpt lat="47.25227" lon="-2.27902">
        <ele>24.60000038147</ele>
        <time>2022-04-17T08:15:47.000Z</time>
      </trkpt>
      <trkpt lat="47.25233" lon="-2.279">
        <ele>25</ele>
        <time>2022-04-17T08:15:48.000Z</time>
      </trkpt>
      <trkpt lat="47.25238" lon="-2.27897">
        <ele>25</ele>
        <time>2022-04-17T08:15:49.000Z</time>
      </trkpt>
      <trkpt lat="47.25249" lon="-2.27892">
        <ele>25</ele>
        <time>2022-04-17T08:15:51.000Z</time>
      </trkpt>
      <trkpt lat="47.25279" lon="-2.27879">
        <ele>25</ele>
        <time>2022-04-17T08:15:56.000Z</time>
      </trkpt>
      <trkpt lat="47.25292" lon="-2.27876">
        <ele>25</ele>
        <time>2022-04-17T08:15:58.000Z</time>
      </trkpt>
      <trkpt lat="47.25305" lon="-2.27874">
        <ele>25.39999961853</ele>
        <time>2022-04-17T08:16:00.000Z</time>
      </trkpt>
      <trkpt lat="47.25311" lon="-2.27873">
        <ele>25.799999237061</ele>
        <time>2022-04-17T08:16:01.000Z</time>
      </trkpt>
      <trkpt lat="47.25317" lon="-2.27872">
        <ele>26.39999961853</ele>
        <time>2022-04-17T08:16:02.000Z</time>
      </trkpt>
      <trkpt lat="47.25323" lon="-2.2787">
        <ele>26.799999237061</ele>
        <time>2022-04-17T08:16:03.000Z</time>
      </trkpt>
      <trkpt lat="47.25329" lon="-2.27869">
        <ele>27.200000762939</ele>
        <time>2022-04-17T08:16:04.000Z</time>
      </trkpt>
      <trkpt lat="47.25341" lon="-2.27867">
        <ele>27.200000762939</ele>
        <time>2022-04-17T08:16:06.000Z</time>
      </trkpt>
      <trkpt lat="47.25377" lon="-2.27856">
        <ele>27.200000762939</ele>
        <time>2022-04-17T08:16:12.000Z</time>
      </trkpt>
      <trkpt lat="47.25417" lon="-2.27841">
        <ele>27.60000038147</ele>
        <time>2022-04-17T08:16:19.000Z</time>
      </trkpt>
      <trkpt lat="47.25422" lon="-2.27838">
        <ele>28</ele>
        <time>2022-04-17T08:16:20.000Z</time>
      </trkpt>
      <trkpt lat="47.25428" lon="-2.27834">
        <ele>28.39999961853</ele>
        <time>2022-04-17T08:16:21.000Z</time>
      </trkpt>
      <trkpt lat="47.25433" lon="-2.27829">
        <ele>28.799999237061</ele>
        <time>2022-04-17T08:16:22.000Z</time>
      </trkpt>
      <trkpt lat="47.25438" lon="-2.27825">
        <ele>29.200000762939</ele>
        <time>2022-04-17T08:16:23.000Z</time>
      </trkpt>
      <trkpt lat="47.25448" lon="-2.27816">
        <ele>29.200000762939</ele>
        <time>2022-04-17T08:16:25.000Z</time>
      </trkpt>
      <trkpt lat="47.25455" lon="-2.27805">
        <ele>29.200000762939</ele>
        <time>2022-04-17T08:16:27.000Z</time>
      </trkpt>
      <trkpt lat="47.25466" lon="-2.2779">
        <ele>29.200000762939</ele>
        <time>2022-04-17T08:16:30.000Z</time>
      </trkpt>
      <trkpt lat="47.25485" lon="-2.27768">
        <ele>29.200000762939</ele>
        <time>2022-04-17T08:16:35.000Z</time>
      </trkpt>
      <trkpt lat="47.25493" lon="-2.2776">
        <ele>29.200000762939</ele>
        <time>2022-04-17T08:16:37.000Z</time>
      </trkpt>
      <trkpt lat="47.255" lon="-2.27749">
        <ele>29.200000762939</ele>
        <time>2022-04-17T08:16:39.000Z</time>
      </trkpt>
      <trkpt lat="47.25502" lon="-2.27742">
        <ele>29.60000038147</ele>
        <time>2022-04-17T08:16:40.000Z</time>
      </trkpt>
      <trkpt lat="47.25502" lon="-2.27736">
        <ele>30</ele>
        <time>2022-04-17T08:16:41.000Z</time>
      </trkpt>
      <trkpt lat="47.25503" lon="-2.2773">
        <ele>30.39999961853</ele>
        <time>2022-04-17T08:16:42.000Z</time>
      </trkpt>
      <trkpt lat="47.25501" lon="-2.27724">
        <ele>30.799999237061</ele>
        <time>2022-04-17T08:16:43.000Z</time>
      </trkpt>
      <trkpt lat="47.25499" lon="-2.27717">
        <ele>31.200000762939</ele>
        <time>2022-04-17T08:16:44.000Z</time>
      </trkpt>
      <trkpt lat="47.25498" lon="-2.2771">
        <ele>31.200000762939</ele>
        <time>2022-04-17T08:16:45.000Z</time>
      </trkpt>
      <trkpt lat="47.25486" lon="-2.27671">
        <ele>31.200000762939</ele>
        <time>2022-04-17T08:16:51.000Z</time>
      </trkpt>
      <trkpt lat="47.25477" lon="-2.27624">
        <ele>31.200000762939</ele>
        <time>2022-04-17T08:16:58.000Z</time>
      </trkpt>
      <trkpt lat="47.25464" lon="-2.27604">
        <ele>31.200000762939</ele>
        <time>2022-04-17T08:17:02.000Z</time>
      </trkpt>
      <trkpt lat="47.25461" lon="-2.27598">
        <ele>31.200000762939</ele>
        <time>2022-04-17T08:17:03.000Z</time>
      </trkpt>
      <trkpt lat="47.25454" lon="-2.27579">
        <ele>31.200000762939</ele>
        <time>2022-04-17T08:17:06.000Z</time>
      </trkpt>
      <trkpt lat="47.25453" lon="-2.27573">
        <ele>31.200000762939</ele>
        <time>2022-04-17T08:17:07.000Z</time>
      </trkpt>
      <trkpt lat="47.25446" lon="-2.27544">
        <ele>31.200000762939</ele>
        <time>2022-04-17T08:17:11.000Z</time>
      </trkpt>
      <trkpt lat="47.2544" lon="-2.27516">
        <ele>31.200000762939</ele>
        <time>2022-04-17T08:17:16.000Z</time>
      </trkpt>
      <trkpt lat="47.25438" lon="-2.27511">
        <ele>31.200000762939</ele>
        <time>2022-04-17T08:17:17.000Z</time>
      </trkpt>
      <trkpt lat="47.25432" lon="-2.27503">
        <ele>31.200000762939</ele>
        <time>2022-04-17T08:17:19.000Z</time>
      </trkpt>
      <trkpt lat="47.25429" lon="-2.27497">
        <ele>31.200000762939</ele>
        <time>2022-04-17T08:17:20.000Z</time>
      </trkpt>
      <trkpt lat="47.25419" lon="-2.27477">
        <ele>31.200000762939</ele>
        <time>2022-04-17T08:17:23.000Z</time>
      </trkpt>
      <trkpt lat="47.25402" lon="-2.27431">
        <ele>31.200000762939</ele>
        <time>2022-04-17T08:17:30.000Z</time>
      </trkpt>
      <trkpt lat="47.25393" lon="-2.27399">
        <ele>31.200000762939</ele>
        <time>2022-04-17T08:17:36.000Z</time>
      </trkpt>
      <trkpt lat="47.25388" lon="-2.27383">
        <ele>31.200000762939</ele>
        <time>2022-04-17T08:17:40.000Z</time>
      </trkpt>
      <trkpt lat="47.25386" lon="-2.27381">
        <ele>31.200000762939</ele>
        <time>2022-04-17T08:17:41.000Z</time>
      </trkpt>
      <trkpt lat="47.25379" lon="-2.27378">
        <ele>31.200000762939</ele>
        <time>2022-04-17T08:17:44.000Z</time>
      </trkpt>
      <trkpt lat="47.25374" lon="-2.27374">
        <ele>31.200000762939</ele>
        <time>2022-04-17T08:17:46.000Z</time>
      </trkpt>
      <trkpt lat="47.25372" lon="-2.27371">
        <ele>31.200000762939</ele>
        <time>2022-04-17T08:17:49.000Z</time>
      </trkpt>
      <trkpt lat="47.2537" lon="-2.27368">
        <ele>31.200000762939</ele>
        <time>2022-04-17T08:17:52.000Z</time>
      </trkpt>
      <trkpt lat="47.2537" lon="-2.2736">
        <ele>31.200000762939</ele>
        <time>2022-04-17T08:17:54.000Z</time>
      </trkpt>
      <trkpt lat="47.25361" lon="-2.27338">
        <ele>31.200000762939</ele>
        <time>2022-04-17T08:17:57.000Z</time>
      </trkpt>
      <trkpt lat="47.25361" lon="-2.27338">
        <ele>31.200000762939</ele>
        <time>2022-04-17T08:17:58.000Z</time>
      </trkpt>
      <trkpt lat="47.25346" lon="-2.27315">
        <ele>31.200000762939</ele>
        <time>2022-04-17T08:18:02.000Z</time>
      </trkpt>
      <trkpt lat="47.25342" lon="-2.27302">
        <ele>31.200000762939</ele>
        <time>2022-04-17T08:18:04.000Z</time>
      </trkpt>
      <trkpt lat="47.25337" lon="-2.27284">
        <ele>31.200000762939</ele>
        <time>2022-04-17T08:18:07.000Z</time>
      </trkpt>
      <trkpt lat="47.25332" lon="-2.27274">
        <ele>31.200000762939</ele>
        <time>2022-04-17T08:18:09.000Z</time>
      </trkpt>
      <trkpt lat="47.25317" lon="-2.27256">
        <ele>31.200000762939</ele>
        <time>2022-04-17T08:18:13.000Z</time>
      </trkpt>
      <trkpt lat="47.25313" lon="-2.2725">
        <ele>31.200000762939</ele>
        <time>2022-04-17T08:18:14.000Z</time>
      </trkpt>
      <trkpt lat="47.25299" lon="-2.27225">
        <ele>31.200000762939</ele>
        <time>2022-04-17T08:18:18.000Z</time>
      </trkpt>
      <trkpt lat="47.25289" lon="-2.27198">
        <ele>31.200000762939</ele>
        <time>2022-04-17T08:18:22.000Z</time>
      </trkpt>
      <trkpt lat="47.25286" lon="-2.27192">
        <ele>31.200000762939</ele>
        <time>2022-04-17T08:18:23.000Z</time>
      </trkpt>
      <trkpt lat="47.25262" lon="-2.27154">
        <ele>31.200000762939</ele>
        <time>2022-04-17T08:18:30.000Z</time>
      </trkpt>
      <trkpt lat="47.25246" lon="-2.27137">
        <ele>31.200000762939</ele>
        <time>2022-04-17T08:18:34.000Z</time>
      </trkpt>
      <trkpt lat="47.25235" lon="-2.27118">
        <ele>31.200000762939</ele>
        <time>2022-04-17T08:18:37.000Z</time>
      </trkpt>
      <trkpt lat="47.25231" lon="-2.27111">
        <ele>31.200000762939</ele>
        <time>2022-04-17T08:18:38.000Z</time>
      </trkpt>
      <trkpt lat="47.25211" lon="-2.27069">
        <ele>31.200000762939</ele>
        <time>2022-04-17T08:18:44.000Z</time>
      </trkpt>
      <trkpt lat="47.25192" lon="-2.2703">
        <ele>31.200000762939</ele>
        <time>2022-04-17T08:18:50.000Z</time>
      </trkpt>
      <trkpt lat="47.25172" lon="-2.26996">
        <ele>31.200000762939</ele>
        <time>2022-04-17T08:18:56.000Z</time>
      </trkpt>
      <trkpt lat="47.25171" lon="-2.2698">
        <ele>31.200000762939</ele>
        <time>2022-04-17T08:18:59.000Z</time>
      </trkpt>
      <trkpt lat="47.25165" lon="-2.2698">
        <ele>31.200000762939</ele>
        <time>2022-04-17T08:19:02.000Z</time>
      </trkpt>
      <trkpt lat="47.25157" lon="-2.26973">
        <ele>31.200000762939</ele>
        <time>2022-04-17T08:19:06.000Z</time>
      </trkpt>
      <trkpt lat="47.25155" lon="-2.26967">
        <ele>31.200000762939</ele>
        <time>2022-04-17T08:19:08.000Z</time>
      </trkpt>
      <trkpt lat="47.2515" lon="-2.26958">
        <ele>31.200000762939</ele>
        <time>2022-04-17T08:19:11.000Z</time>
      </trkpt>
      <trkpt lat="47.2515" lon="-2.26955">
        <ele>31.200000762939</ele>
        <time>2022-04-17T08:19:12.000Z</time>
      </trkpt>
      <trkpt lat="47.25138" lon="-2.26938">
        <ele>31.200000762939</ele>
        <time>2022-04-17T08:19:19.000Z</time>
      </trkpt>
      <trkpt lat="47.25128" lon="-2.26912">
        <ele>31.200000762939</ele>
        <time>2022-04-17T08:19:24.000Z</time>
      </trkpt>
      <trkpt lat="47.25126" lon="-2.26906">
        <ele>31.200000762939</ele>
        <time>2022-04-17T08:19:25.000Z</time>
      </trkpt>
      <trkpt lat="47.25119" lon="-2.26901">
        <ele>31.200000762939</ele>
        <time>2022-04-17T08:19:27.000Z</time>
      </trkpt>
      <trkpt lat="47.251" lon="-2.26892">
        <ele>31.200000762939</ele>
        <time>2022-04-17T08:19:31.000Z</time>
      </trkpt>
      <trkpt lat="47.2509" lon="-2.26876">
        <ele>31.200000762939</ele>
        <time>2022-04-17T08:19:34.000Z</time>
      </trkpt>
      <trkpt lat="47.25086" lon="-2.26871">
        <ele>31.200000762939</ele>
        <time>2022-04-17T08:19:35.000Z</time>
      </trkpt>
      <trkpt lat="47.25068" lon="-2.26863">
        <ele>31.200000762939</ele>
        <time>2022-04-17T08:19:39.000Z</time>
      </trkpt>
      <trkpt lat="47.25065" lon="-2.26863">
        <ele>31.200000762939</ele>
        <time>2022-04-17T08:19:40.000Z</time>
      </trkpt>
      <trkpt lat="47.25057" lon="-2.26861">
        <ele>31.200000762939</ele>
        <time>2022-04-17T08:19:43.000Z</time>
      </trkpt>
      <trkpt lat="47.25044" lon="-2.2686">
        <ele>31.200000762939</ele>
        <time>2022-04-17T08:19:49.000Z</time>
      </trkpt>
      <trkpt lat="47.25028" lon="-2.26864">
        <ele>31.200000762939</ele>
        <time>2022-04-17T08:19:54.000Z</time>
      </trkpt>
      <trkpt lat="47.25001" lon="-2.26871">
        <ele>31.200000762939</ele>
        <time>2022-04-17T08:20:00.000Z</time>
      </trkpt>
      <trkpt lat="47.24996" lon="-2.26871">
        <ele>31.200000762939</ele>
        <time>2022-04-17T08:20:01.000Z</time>
      </trkpt>
      <trkpt lat="47.24976" lon="-2.2687">
        <ele>31.200000762939</ele>
        <time>2022-04-17T08:20:05.000Z</time>
      </trkpt>
      <trkpt lat="47.24971" lon="-2.26867">
        <ele>31.200000762939</ele>
        <time>2022-04-17T08:20:06.000Z</time>
      </trkpt>
      <trkpt lat="47.24953" lon="-2.2685">
        <ele>31.200000762939</ele>
        <time>2022-04-17T08:20:10.000Z</time>
      </trkpt>
      <trkpt lat="47.24933" lon="-2.26842">
        <ele>31.200000762939</ele>
        <time>2022-04-17T08:20:14.000Z</time>
      </trkpt>
      <trkpt lat="47.24925" lon="-2.26833">
        <ele>31.200000762939</ele>
        <time>2022-04-17T08:20:16.000Z</time>
      </trkpt>
      <trkpt lat="47.24919" lon="-2.2683">
        <ele>31.200000762939</ele>
        <time>2022-04-17T08:20:18.000Z</time>
      </trkpt>
      <trkpt lat="47.24901" lon="-2.26825">
        <ele>31.200000762939</ele>
        <time>2022-04-17T08:20:24.000Z</time>
      </trkpt>
      <trkpt lat="47.24886" lon="-2.2682">
        <ele>31.200000762939</ele>
        <time>2022-04-17T08:20:28.000Z</time>
      </trkpt>
      <trkpt lat="47.2488" lon="-2.26815">
        <ele>30.799999237061</ele>
        <time>2022-04-17T08:20:30.000Z</time>
      </trkpt>
      <trkpt lat="47.24878" lon="-2.26814">
        <ele>30.39999961853</ele>
        <time>2022-04-17T08:20:31.000Z</time>
      </trkpt>
      <trkpt lat="47.24877" lon="-2.26814">
        <ele>30</ele>
        <time>2022-04-17T08:20:32.000Z</time>
      </trkpt>
      <trkpt lat="47.24877" lon="-2.26814">
        <ele>29.60000038147</ele>
        <time>2022-04-17T08:20:33.000Z</time>
      </trkpt>
      <trkpt lat="47.24877" lon="-2.26813">
        <ele>29.200000762939</ele>
        <time>2022-04-17T08:20:37.000Z</time>
      </trkpt>
      <trkpt lat="47.24872" lon="-2.26813">
        <ele>29.200000762939</ele>
        <time>2022-04-17T08:20:39.000Z</time>
      </trkpt>
      <trkpt lat="47.24856" lon="-2.26807">
        <ele>29.200000762939</ele>
        <time>2022-04-17T08:20:43.000Z</time>
      </trkpt>
      <trkpt lat="47.24847" lon="-2.26804">
        <ele>29.200000762939</ele>
        <time>2022-04-17T08:20:45.000Z</time>
      </trkpt>
      <trkpt lat="47.24837" lon="-2.26806">
        <ele>29.200000762939</ele>
        <time>2022-04-17T08:20:47.000Z</time>
      </trkpt>
      <trkpt lat="47.24815" lon="-2.26802">
        <ele>29.200000762939</ele>
        <time>2022-04-17T08:20:51.000Z</time>
      </trkpt>
      <trkpt lat="47.24794" lon="-2.26793">
        <ele>28.799999237061</ele>
        <time>2022-04-17T08:20:55.000Z</time>
      </trkpt>
      <trkpt lat="47.24789" lon="-2.26791">
        <ele>28.39999961853</ele>
        <time>2022-04-17T08:20:56.000Z</time>
      </trkpt>
      <trkpt lat="47.24785" lon="-2.26789">
        <ele>28</ele>
        <time>2022-04-17T08:20:57.000Z</time>
      </trkpt>
      <trkpt lat="47.2478" lon="-2.26787">
        <ele>27.60000038147</ele>
        <time>2022-04-17T08:20:58.000Z</time>
      </trkpt>
      <trkpt lat="47.24776" lon="-2.26786">
        <ele>27.200000762939</ele>
        <time>2022-04-17T08:20:59.000Z</time>
      </trkpt>
      <trkpt lat="47.24754" lon="-2.26784">
        <ele>27.200000762939</ele>
        <time>2022-04-17T08:21:03.000Z</time>
      </trkpt>
      <trkpt lat="47.2473" lon="-2.26782">
        <ele>26.60000038147</ele>
        <time>2022-04-17T08:21:07.000Z</time>
      </trkpt>
      <trkpt lat="47.24724" lon="-2.26781">
        <ele>26.200000762939</ele>
        <time>2022-04-17T08:21:08.000Z</time>
      </trkpt>
      <trkpt lat="47.24717" lon="-2.26782">
        <ele>25.799999237061</ele>
        <time>2022-04-17T08:21:09.000Z</time>
      </trkpt>
      <trkpt lat="47.24711" lon="-2.26782">
        <ele>25.39999961853</ele>
        <time>2022-04-17T08:21:10.000Z</time>
      </trkpt>
      <trkpt lat="47.24705" lon="-2.26782">
        <ele>24.799999237061</ele>
        <time>2022-04-17T08:21:11.000Z</time>
      </trkpt>
      <trkpt lat="47.24677" lon="-2.26785">
        <ele>24.799999237061</ele>
        <time>2022-04-17T08:21:16.000Z</time>
      </trkpt>
      <trkpt lat="47.24667" lon="-2.26794">
        <ele>24.799999237061</ele>
        <time>2022-04-17T08:21:19.000Z</time>
      </trkpt>
      <trkpt lat="47.24665" lon="-2.26796">
        <ele>24.799999237061</ele>
        <time>2022-04-17T08:21:20.000Z</time>
      </trkpt>
      <trkpt lat="47.2465" lon="-2.26806">
        <ele>24.39999961853</ele>
        <time>2022-04-17T08:21:24.000Z</time>
      </trkpt>
      <trkpt lat="47.24645" lon="-2.26808">
        <ele>24</ele>
        <time>2022-04-17T08:21:25.000Z</time>
      </trkpt>
      <trkpt lat="47.24639" lon="-2.26808">
        <ele>23.60000038147</ele>
        <time>2022-04-17T08:21:26.000Z</time>
      </trkpt>
      <trkpt lat="47.24632" lon="-2.2681">
        <ele>23.200000762939</ele>
        <time>2022-04-17T08:21:27.000Z</time>
      </trkpt>
      <trkpt lat="47.24627" lon="-2.26815">
        <ele>22.799999237061</ele>
        <time>2022-04-17T08:21:28.000Z</time>
      </trkpt>
      <trkpt lat="47.24604" lon="-2.26834">
        <ele>22.39999961853</ele>
        <time>2022-04-17T08:21:32.000Z</time>
      </trkpt>
      <trkpt lat="47.24599" lon="-2.26836">
        <ele>21.799999237061</ele>
        <time>2022-04-17T08:21:33.000Z</time>
      </trkpt>
      <trkpt lat="47.24592" lon="-2.26837">
        <ele>21.39999961853</ele>
        <time>2022-04-17T08:21:34.000Z</time>
      </trkpt>
      <trkpt lat="47.24586" lon="-2.26837">
        <ele>21</ele>
        <time>2022-04-17T08:21:35.000Z</time>
      </trkpt>
      <trkpt lat="47.24581" lon="-2.26839">
        <ele>20.60000038147</ele>
        <time>2022-04-17T08:21:36.000Z</time>
      </trkpt>
      <trkpt lat="47.2457" lon="-2.26847">
        <ele>20.60000038147</ele>
        <time>2022-04-17T08:21:38.000Z</time>
      </trkpt>
      <trkpt lat="47.24564" lon="-2.26851">
        <ele>20.60000038147</ele>
        <time>2022-04-17T08:21:39.000Z</time>
      </trkpt>
      <trkpt lat="47.24544" lon="-2.2687">
        <ele>20.200000762939</ele>
        <time>2022-04-17T08:21:43.000Z</time>
      </trkpt>
      <trkpt lat="47.2454" lon="-2.26874">
        <ele>19.799999237061</ele>
        <time>2022-04-17T08:21:44.000Z</time>
      </trkpt>
      <trkpt lat="47.24537" lon="-2.26878">
        <ele>19.39999961853</ele>
        <time>2022-04-17T08:21:45.000Z</time>
      </trkpt>
      <trkpt lat="47.24534" lon="-2.26882">
        <ele>19</ele>
        <time>2022-04-17T08:21:46.000Z</time>
      </trkpt>
      <trkpt lat="47.24531" lon="-2.26887">
        <ele>18.60000038147</ele>
        <time>2022-04-17T08:21:47.000Z</time>
      </trkpt>
      <trkpt lat="47.24528" lon="-2.26892">
        <ele>18.60000038147</ele>
        <time>2022-04-17T08:21:48.000Z</time>
      </trkpt>
      <trkpt lat="47.24523" lon="-2.26905">
        <ele>18.60000038147</ele>
        <time>2022-04-17T08:21:50.000Z</time>
      </trkpt>
      <trkpt lat="47.24519" lon="-2.26912">
        <ele>18.60000038147</ele>
        <time>2022-04-17T08:21:51.000Z</time>
      </trkpt>
      <trkpt lat="47.24513" lon="-2.26918">
        <ele>18.60000038147</ele>
        <time>2022-04-17T08:21:52.000Z</time>
      </trkpt>
      <trkpt lat="47.24496" lon="-2.2693">
        <ele>18.60000038147</ele>
        <time>2022-04-17T08:21:55.000Z</time>
      </trkpt>
      <trkpt lat="47.24489" lon="-2.26933">
        <ele>18.60000038147</ele>
        <time>2022-04-17T08:21:56.000Z</time>
      </trkpt>
      <trkpt lat="47.24469" lon="-2.26932">
        <ele>18.60000038147</ele>
        <time>2022-04-17T08:21:59.000Z</time>
      </trkpt>
      <trkpt lat="47.24446" lon="-2.26928">
        <ele>18.60000038147</ele>
        <time>2022-04-17T08:22:03.000Z</time>
      </trkpt>
      <trkpt lat="47.24441" lon="-2.26928">
        <ele>18.60000038147</ele>
        <time>2022-04-17T08:22:04.000Z</time>
      </trkpt>
      <trkpt lat="47.24436" lon="-2.26929">
        <ele>18.60000038147</ele>
        <time>2022-04-17T08:22:05.000Z</time>
      </trkpt>
      <trkpt lat="47.24429" lon="-2.26936">
        <ele>18.60000038147</ele>
        <time>2022-04-17T08:22:07.000Z</time>
      </trkpt>
      <trkpt lat="47.24409" lon="-2.2696">
        <ele>18.60000038147</ele>
        <time>2022-04-17T08:22:12.000Z</time>
      </trkpt>
      <trkpt lat="47.24404" lon="-2.26966">
        <ele>18.200000762939</ele>
        <time>2022-04-17T08:22:13.000Z</time>
      </trkpt>
      <trkpt lat="47.244" lon="-2.26972">
        <ele>17.799999237061</ele>
        <time>2022-04-17T08:22:14.000Z</time>
      </trkpt>
      <trkpt lat="47.24397" lon="-2.26979">
        <ele>17.39999961853</ele>
        <time>2022-04-17T08:22:15.000Z</time>
      </trkpt>
      <trkpt lat="47.24393" lon="-2.26985">
        <ele>17</ele>
        <time>2022-04-17T08:22:16.000Z</time>
      </trkpt>
      <trkpt lat="47.24389" lon="-2.26991">
        <ele>16.60000038147</ele>
        <time>2022-04-17T08:22:17.000Z</time>
      </trkpt>
      <trkpt lat="47.24369" lon="-2.27021">
        <ele>16.60000038147</ele>
        <time>2022-04-17T08:22:22.000Z</time>
      </trkpt>
      <trkpt lat="47.24356" lon="-2.27042">
        <ele>16.60000038147</ele>
        <time>2022-04-17T08:22:25.000Z</time>
      </trkpt>
      <trkpt lat="47.24348" lon="-2.27056">
        <ele>16.60000038147</ele>
        <time>2022-04-17T08:22:27.000Z</time>
      </trkpt>
      <trkpt lat="47.24343" lon="-2.27061">
        <ele>16.60000038147</ele>
        <time>2022-04-17T08:22:28.000Z</time>
      </trkpt>
      <trkpt lat="47.24316" lon="-2.27088">
        <ele>16.60000038147</ele>
        <time>2022-04-17T08:22:33.000Z</time>
      </trkpt>
      <trkpt lat="47.24311" lon="-2.27093">
        <ele>16.200000762939</ele>
        <time>2022-04-17T08:22:34.000Z</time>
      </trkpt>
      <trkpt lat="47.24306" lon="-2.27099">
        <ele>15.800000190735</ele>
        <time>2022-04-17T08:22:35.000Z</time>
      </trkpt>
      <trkpt lat="47.24299" lon="-2.27104">
        <ele>15.39999961853</ele>
        <time>2022-04-17T08:22:36.000Z</time>
      </trkpt>
      <trkpt lat="47.24293" lon="-2.27107">
        <ele>15</ele>
        <time>2022-04-17T08:22:37.000Z</time>
      </trkpt>
      <trkpt lat="47.24287" lon="-2.27108">
        <ele>14.60000038147</ele>
        <time>2022-04-17T08:22:38.000Z</time>
      </trkpt>
      <trkpt lat="47.24274" lon="-2.27108">
        <ele>14.60000038147</ele>
        <time>2022-04-17T08:22:40.000Z</time>
      </trkpt>
      <trkpt lat="47.24249" lon="-2.27119">
        <ele>14.60000038147</ele>
        <time>2022-04-17T08:22:44.000Z</time>
      </trkpt>
      <trkpt lat="47.24243" lon="-2.27123">
        <ele>14.60000038147</ele>
        <time>2022-04-17T08:22:45.000Z</time>
      </trkpt>
      <trkpt lat="47.2422" lon="-2.2714">
        <ele>14.60000038147</ele>
        <time>2022-04-17T08:22:49.000Z</time>
      </trkpt>
      <trkpt lat="47.24186" lon="-2.27159">
        <ele>14.199999809265</ele>
        <time>2022-04-17T08:22:55.000Z</time>
      </trkpt>
      <trkpt lat="47.24181" lon="-2.27162">
        <ele>13.800000190735</ele>
        <time>2022-04-17T08:22:56.000Z</time>
      </trkpt>
      <trkpt lat="47.24176" lon="-2.27164">
        <ele>13.39999961853</ele>
        <time>2022-04-17T08:22:57.000Z</time>
      </trkpt>
      <trkpt lat="47.2417" lon="-2.27166">
        <ele>13</ele>
        <time>2022-04-17T08:22:58.000Z</time>
      </trkpt>
      <trkpt lat="47.24165" lon="-2.27168">
        <ele>12.60000038147</ele>
        <time>2022-04-17T08:22:59.000Z</time>
      </trkpt>
      <trkpt lat="47.2416" lon="-2.27171">
        <ele>12.60000038147</ele>
        <time>2022-04-17T08:23:00.000Z</time>
      </trkpt>
      <trkpt lat="47.24118" lon="-2.27186">
        <ele>12.60000038147</ele>
        <time>2022-04-17T08:23:08.000Z</time>
      </trkpt>
      <trkpt lat="47.24106" lon="-2.27189">
        <ele>12.60000038147</ele>
        <time>2022-04-17T08:23:12.000Z</time>
      </trkpt>
      <trkpt lat="47.24105" lon="-2.2719">
        <ele>12.199999809265</ele>
        <time>2022-04-17T08:23:14.000Z</time>
      </trkpt>
      <trkpt lat="47.24104" lon="-2.2719">
        <ele>10.39999961853</ele>
        <time>2022-04-17T08:23:27.000Z</time>
      </trkpt>
      <trkpt lat="47.24103" lon="-2.27189">
        <ele>10.39999961853</ele>
        <time>2022-04-17T08:23:28.000Z</time>
      </trkpt>
      <trkpt lat="47.24098" lon="-2.27182">
        <ele>10.39999961853</ele>
        <time>2022-04-17T08:23:31.000Z</time>
      </trkpt>
      <trkpt lat="47.24096" lon="-2.2717">
        <ele>10.39999961853</ele>
        <time>2022-04-17T08:23:34.000Z</time>
      </trkpt>
      <trkpt lat="47.24096" lon="-2.27166">
        <ele>10.39999961853</ele>
        <time>2022-04-17T08:23:35.000Z</time>
      </trkpt>
      <trkpt lat="47.24095" lon="-2.27133">
        <ele>10.39999961853</ele>
        <time>2022-04-17T08:23:41.000Z</time>
      </trkpt>
      <trkpt lat="47.24096" lon="-2.27087">
        <ele>10.39999961853</ele>
        <time>2022-04-17T08:23:47.000Z</time>
      </trkpt>
      <trkpt lat="47.24098" lon="-2.27021">
        <ele>10.39999961853</ele>
        <time>2022-04-17T08:23:54.000Z</time>
      </trkpt>
      <trkpt lat="47.241" lon="-2.26959">
        <ele>10.39999961853</ele>
        <time>2022-04-17T08:24:01.000Z</time>
      </trkpt>
      <trkpt lat="47.241" lon="-2.26908">
        <ele>11</ele>
        <time>2022-04-17T08:24:08.000Z</time>
      </trkpt>
      <trkpt lat="47.241" lon="-2.26901">
        <ele>11.39999961853</ele>
        <time>2022-04-17T08:24:09.000Z</time>
      </trkpt>
      <trkpt lat="47.241" lon="-2.26895">
        <ele>11.800000190735</ele>
        <time>2022-04-17T08:24:10.000Z</time>
      </trkpt>
      <trkpt lat="47.241" lon="-2.26889">
        <ele>12.199999809265</ele>
        <time>2022-04-17T08:24:11.000Z</time>
      </trkpt>
      <trkpt lat="47.24101" lon="-2.26882">
        <ele>12.60000038147</ele>
        <time>2022-04-17T08:24:12.000Z</time>
      </trkpt>
      <trkpt lat="47.24102" lon="-2.26859">
        <ele>13</ele>
        <time>2022-04-17T08:24:16.000Z</time>
      </trkpt>
      <trkpt lat="47.24103" lon="-2.26853">
        <ele>13.39999961853</ele>
        <time>2022-04-17T08:24:17.000Z</time>
      </trkpt>
      <trkpt lat="47.24103" lon="-2.26847">
        <ele>13.800000190735</ele>
        <time>2022-04-17T08:24:18.000Z</time>
      </trkpt>
      <trkpt lat="47.24103" lon="-2.26841">
        <ele>14.39999961853</ele>
        <time>2022-04-17T08:24:19.000Z</time>
      </trkpt>
      <trkpt lat="47.24104" lon="-2.26835">
        <ele>14.800000190735</ele>
        <time>2022-04-17T08:24:20.000Z</time>
      </trkpt>
      <trkpt lat="47.24106" lon="-2.26817">
        <ele>15.199999809265</ele>
        <time>2022-04-17T08:24:23.000Z</time>
      </trkpt>
      <trkpt lat="47.24106" lon="-2.26811">
        <ele>16</ele>
        <time>2022-04-17T08:24:24.000Z</time>
      </trkpt>
      <trkpt lat="47.24106" lon="-2.26806">
        <ele>16.39999961853</ele>
        <time>2022-04-17T08:24:25.000Z</time>
      </trkpt>
      <trkpt lat="47.24106" lon="-2.268">
        <ele>17</ele>
        <time>2022-04-17T08:24:26.000Z</time>
      </trkpt>
      <trkpt lat="47.24108" lon="-2.26778">
        <ele>17</ele>
        <time>2022-04-17T08:24:30.000Z</time>
      </trkpt>
      <trkpt lat="47.24111" lon="-2.26763">
        <ele>17.39999961853</ele>
        <time>2022-04-17T08:24:33.000Z</time>
      </trkpt>
      <trkpt lat="47.24112" lon="-2.26758">
        <ele>17.799999237061</ele>
        <time>2022-04-17T08:24:34.000Z</time>
      </trkpt>
      <trkpt lat="47.24113" lon="-2.26753">
        <ele>18.200000762939</ele>
        <time>2022-04-17T08:24:35.000Z</time>
      </trkpt>
      <trkpt lat="47.24113" lon="-2.26748">
        <ele>18.60000038147</ele>
        <time>2022-04-17T08:24:36.000Z</time>
      </trkpt>
      <trkpt lat="47.24114" lon="-2.26744">
        <ele>19.200000762939</ele>
        <time>2022-04-17T08:24:37.000Z</time>
      </trkpt>
      <trkpt lat="47.24122" lon="-2.26724">
        <ele>19.200000762939</ele>
        <time>2022-04-17T08:24:42.000Z</time>
      </trkpt>
      <trkpt lat="47.24126" lon="-2.26707">
        <ele>19.200000762939</ele>
        <time>2022-04-17T08:24:47.000Z</time>
      </trkpt>
      <trkpt lat="47.24133" lon="-2.26694">
        <ele>19.60000038147</ele>
        <time>2022-04-17T08:24:52.000Z</time>
      </trkpt>
      <trkpt lat="47.24135" lon="-2.26693">
        <ele>20</ele>
        <time>2022-04-17T08:24:53.000Z</time>
      </trkpt>
      <trkpt lat="47.24135" lon="-2.26692">
        <ele>20.39999961853</ele>
        <time>2022-04-17T08:24:54.000Z</time>
      </trkpt>
      <trkpt lat="47.24136" lon="-2.26692">
        <ele>20.799999237061</ele>
        <time>2022-04-17T08:24:55.000Z</time>
      </trkpt>
      <trkpt lat="47.24136" lon="-2.26692">
        <ele>21.200000762939</ele>
        <time>2022-04-17T08:24:56.000Z</time>
      </trkpt>
      <trkpt lat="47.24136" lon="-2.26692">
        <ele>21.200000762939</ele>
        <time>2022-04-17T08:24:57.000Z</time>
      </trkpt>
      <trkpt lat="47.24136" lon="-2.26687">
        <ele>21.200000762939</ele>
        <time>2022-04-17T08:25:20.000Z</time>
      </trkpt>
      <trkpt lat="47.24135" lon="-2.26683">
        <ele>21.200000762939</ele>
        <time>2022-04-17T08:25:22.000Z</time>
      </trkpt>
      <trkpt lat="47.24132" lon="-2.26682">
        <ele>21.200000762939</ele>
        <time>2022-04-17T08:25:24.000Z</time>
      </trkpt>
      <trkpt lat="47.24128" lon="-2.2668">
        <ele>21.200000762939</ele>
        <time>2022-04-17T08:25:26.000Z</time>
      </trkpt>
      <trkpt lat="47.24126" lon="-2.26677">
        <ele>21.200000762939</ele>
        <time>2022-04-17T08:25:27.000Z</time>
      </trkpt>
      <trkpt lat="47.24122" lon="-2.26666">
        <ele>21.200000762939</ele>
        <time>2022-04-17T08:25:30.000Z</time>
      </trkpt>
      <trkpt lat="47.24128" lon="-2.26653">
        <ele>21.200000762939</ele>
        <time>2022-04-17T08:25:33.000Z</time>
      </trkpt>
      <trkpt lat="47.24138" lon="-2.26636">
        <ele>21.200000762939</ele>
        <time>2022-04-17T08:25:38.000Z</time>
      </trkpt>
      <trkpt lat="47.24144" lon="-2.26628">
        <ele>21.200000762939</ele>
        <time>2022-04-17T08:25:40.000Z</time>
      </trkpt>
      <trkpt lat="47.24161" lon="-2.26617">
        <ele>21.200000762939</ele>
        <time>2022-04-17T08:25:45.000Z</time>
      </trkpt>
      <trkpt lat="47.24182" lon="-2.26619">
        <ele>21.200000762939</ele>
        <time>2022-04-17T08:25:50.000Z</time>
      </trkpt>
      <trkpt lat="47.24208" lon="-2.26628">
        <ele>21.200000762939</ele>
        <time>2022-04-17T08:25:57.000Z</time>
      </trkpt>
      <trkpt lat="47.24226" lon="-2.26622">
        <ele>21.200000762939</ele>
        <time>2022-04-17T08:26:02.000Z</time>
      </trkpt>
      <trkpt lat="47.24229" lon="-2.26618">
        <ele>21.200000762939</ele>
        <time>2022-04-17T08:26:03.000Z</time>
      </trkpt>
      <trkpt lat="47.24245" lon="-2.26604">
        <ele>21.200000762939</ele>
        <time>2022-04-17T08:26:07.000Z</time>
      </trkpt>
      <trkpt lat="47.24276" lon="-2.26574">
        <ele>21.200000762939</ele>
        <time>2022-04-17T08:26:13.000Z</time>
      </trkpt>
      <trkpt lat="47.24316" lon="-2.26536">
        <ele>21.200000762939</ele>
        <time>2022-04-17T08:26:20.000Z</time>
      </trkpt>
      <trkpt lat="47.24363" lon="-2.26496">
        <ele>21.200000762939</ele>
        <time>2022-04-17T08:26:28.000Z</time>
      </trkpt>
      <trkpt lat="47.24403" lon="-2.26466">
        <ele>21.200000762939</ele>
        <time>2022-04-17T08:26:35.000Z</time>
      </trkpt>
      <trkpt lat="47.24439" lon="-2.26444">
        <ele>21.200000762939</ele>
        <time>2022-04-17T08:26:41.000Z</time>
      </trkpt>
      <trkpt lat="47.24487" lon="-2.26416">
        <ele>21.200000762939</ele>
        <time>2022-04-17T08:26:49.000Z</time>
      </trkpt>
      <trkpt lat="47.24535" lon="-2.26394">
        <ele>21.200000762939</ele>
        <time>2022-04-17T08:26:57.000Z</time>
      </trkpt>
      <trkpt lat="47.24574" lon="-2.26379">
        <ele>21.200000762939</ele>
        <time>2022-04-17T08:27:03.000Z</time>
      </trkpt>
      <trkpt lat="47.24609" lon="-2.26375">
        <ele>21.200000762939</ele>
        <time>2022-04-17T08:27:08.000Z</time>
      </trkpt>
      <trkpt lat="47.24652" lon="-2.26383">
        <ele>21.200000762939</ele>
        <time>2022-04-17T08:27:14.000Z</time>
      </trkpt>
      <trkpt lat="47.24699" lon="-2.26406">
        <ele>21.200000762939</ele>
        <time>2022-04-17T08:27:21.000Z</time>
      </trkpt>
      <trkpt lat="47.24742" lon="-2.26429">
        <ele>21.200000762939</ele>
        <time>2022-04-17T08:27:28.000Z</time>
      </trkpt>
      <trkpt lat="47.24781" lon="-2.26447">
        <ele>21.200000762939</ele>
        <time>2022-04-17T08:27:34.000Z</time>
      </trkpt>
      <trkpt lat="47.24816" lon="-2.26455">
        <ele>21.200000762939</ele>
        <time>2022-04-17T08:27:39.000Z</time>
      </trkpt>
      <trkpt lat="47.24823" lon="-2.26455">
        <ele>21.200000762939</ele>
        <time>2022-04-17T08:27:40.000Z</time>
      </trkpt>
      <trkpt lat="47.24836" lon="-2.26454">
        <ele>22</ele>
        <time>2022-04-17T08:27:42.000Z</time>
      </trkpt>
      <trkpt lat="47.24843" lon="-2.26452">
        <ele>22.39999961853</ele>
        <time>2022-04-17T08:27:43.000Z</time>
      </trkpt>
      <trkpt lat="47.2485" lon="-2.26451">
        <ele>23</ele>
        <time>2022-04-17T08:27:44.000Z</time>
      </trkpt>
      <trkpt lat="47.24857" lon="-2.2645">
        <ele>23.39999961853</ele>
        <time>2022-04-17T08:27:45.000Z</time>
      </trkpt>
      <trkpt lat="47.2487" lon="-2.26446">
        <ele>23.39999961853</ele>
        <time>2022-04-17T08:27:47.000Z</time>
      </trkpt>
      <trkpt lat="47.24908" lon="-2.26434">
        <ele>23.39999961853</ele>
        <time>2022-04-17T08:27:53.000Z</time>
      </trkpt>
      <trkpt lat="47.24933" lon="-2.26424">
        <ele>23.39999961853</ele>
        <time>2022-04-17T08:27:57.000Z</time>
      </trkpt>
      <trkpt lat="47.24944" lon="-2.26423">
        <ele>23.39999961853</ele>
        <time>2022-04-17T08:27:59.000Z</time>
      </trkpt>
      <trkpt lat="47.24964" lon="-2.26419">
        <ele>23.39999961853</ele>
        <time>2022-04-17T08:28:03.000Z</time>
      </trkpt>
      <trkpt lat="47.24969" lon="-2.26399">
        <ele>23.39999961853</ele>
        <time>2022-04-17T08:28:06.000Z</time>
      </trkpt>
      <trkpt lat="47.2498" lon="-2.26385">
        <ele>23.39999961853</ele>
        <time>2022-04-17T08:28:09.000Z</time>
      </trkpt>
      <trkpt lat="47.24996" lon="-2.26372">
        <ele>23.39999961853</ele>
        <time>2022-04-17T08:28:12.000Z</time>
      </trkpt>
      <trkpt lat="47.25007" lon="-2.26366">
        <ele>23.39999961853</ele>
        <time>2022-04-17T08:28:14.000Z</time>
      </trkpt>
      <trkpt lat="47.25012" lon="-2.26361">
        <ele>23.39999961853</ele>
        <time>2022-04-17T08:28:15.000Z</time>
      </trkpt>
      <trkpt lat="47.25017" lon="-2.26347">
        <ele>23.39999961853</ele>
        <time>2022-04-17T08:28:17.000Z</time>
      </trkpt>
      <trkpt lat="47.25016" lon="-2.26324">
        <ele>23.39999961853</ele>
        <time>2022-04-17T08:28:20.000Z</time>
      </trkpt>
      <trkpt lat="47.25015" lon="-2.26316">
        <ele>23.39999961853</ele>
        <time>2022-04-17T08:28:21.000Z</time>
      </trkpt>
      <trkpt lat="47.25015" lon="-2.26309">
        <ele>23.39999961853</ele>
        <time>2022-04-17T08:28:22.000Z</time>
      </trkpt>
      <trkpt lat="47.25013" lon="-2.26273">
        <ele>23.39999961853</ele>
        <time>2022-04-17T08:28:27.000Z</time>
      </trkpt>
      <trkpt lat="47.25018" lon="-2.2627">
        <ele>23.39999961853</ele>
        <time>2022-04-17T08:28:29.000Z</time>
      </trkpt>
      <trkpt lat="47.25022" lon="-2.26271">
        <ele>23</ele>
        <time>2022-04-17T08:28:30.000Z</time>
      </trkpt>
      <trkpt lat="47.25026" lon="-2.26269">
        <ele>22</ele>
        <time>2022-04-17T08:28:31.000Z</time>
      </trkpt>
      <trkpt lat="47.25031" lon="-2.26267">
        <ele>21.60000038147</ele>
        <time>2022-04-17T08:28:32.000Z</time>
      </trkpt>
      <trkpt lat="47.25037" lon="-2.26264">
        <ele>21.200000762939</ele>
        <time>2022-04-17T08:28:33.000Z</time>
      </trkpt>
      <trkpt lat="47.25054" lon="-2.26257">
        <ele>21.200000762939</ele>
        <time>2022-04-17T08:28:36.000Z</time>
      </trkpt>
      <trkpt lat="47.25066" lon="-2.26251">
        <ele>21.200000762939</ele>
        <time>2022-04-17T08:28:38.000Z</time>
      </trkpt>
      <trkpt lat="47.25073" lon="-2.26237">
        <ele>21.200000762939</ele>
        <time>2022-04-17T08:28:40.000Z</time>
      </trkpt>
      <trkpt lat="47.25077" lon="-2.26223">
        <ele>21.200000762939</ele>
        <time>2022-04-17T08:28:42.000Z</time>
      </trkpt>
      <trkpt lat="47.25078" lon="-2.26215">
        <ele>21.200000762939</ele>
        <time>2022-04-17T08:28:43.000Z</time>
      </trkpt>
      <trkpt lat="47.25079" lon="-2.26206">
        <ele>21.200000762939</ele>
        <time>2022-04-17T08:28:44.000Z</time>
      </trkpt>
      <trkpt lat="47.25081" lon="-2.26152">
        <ele>21.200000762939</ele>
        <time>2022-04-17T08:28:50.000Z</time>
      </trkpt>
      <trkpt lat="47.25085" lon="-2.26097">
        <ele>21.200000762939</ele>
        <time>2022-04-17T08:28:56.000Z</time>
      </trkpt>
      <trkpt lat="47.2509" lon="-2.2607">
        <ele>20.799999237061</ele>
        <time>2022-04-17T08:28:59.000Z</time>
      </trkpt>
      <trkpt lat="47.25092" lon="-2.26061">
        <ele>20.39999961853</ele>
        <time>2022-04-17T08:29:00.000Z</time>
      </trkpt>
      <trkpt lat="47.25094" lon="-2.26051">
        <ele>20</ele>
        <time>2022-04-17T08:29:01.000Z</time>
      </trkpt>
      <trkpt lat="47.25096" lon="-2.2604">
        <ele>19.60000038147</ele>
        <time>2022-04-17T08:29:02.000Z</time>
      </trkpt>
      <trkpt lat="47.25097" lon="-2.2603">
        <ele>19.200000762939</ele>
        <time>2022-04-17T08:29:03.000Z</time>
      </trkpt>
      <trkpt lat="47.25109" lon="-2.25977">
        <ele>18.799999237061</ele>
        <time>2022-04-17T08:29:08.000Z</time>
      </trkpt>
      <trkpt lat="47.25113" lon="-2.25967">
        <ele>18.200000762939</ele>
        <time>2022-04-17T08:29:09.000Z</time>
      </trkpt>
      <trkpt lat="47.25116" lon="-2.25959">
        <ele>17.799999237061</ele>
        <time>2022-04-17T08:29:10.000Z</time>
      </trkpt>
      <trkpt lat="47.2512" lon="-2.25951">
        <ele>17.39999961853</ele>
        <time>2022-04-17T08:29:11.000Z</time>
      </trkpt>
      <trkpt lat="47.25125" lon="-2.25944">
        <ele>17</ele>
        <time>2022-04-17T08:29:12.000Z</time>
      </trkpt>
      <trkpt lat="47.25133" lon="-2.25933">
        <ele>17</ele>
        <time>2022-04-17T08:29:14.000Z</time>
      </trkpt>
      <trkpt lat="47.2514" lon="-2.25922">
        <ele>17</ele>
        <time>2022-04-17T08:29:16.000Z</time>
      </trkpt>
      <trkpt lat="47.25143" lon="-2.25918">
        <ele>17</ele>
        <time>2022-04-17T08:29:17.000Z</time>
      </trkpt>
      <trkpt lat="47.25152" lon="-2.25914">
        <ele>17</ele>
        <time>2022-04-17T08:29:20.000Z</time>
      </trkpt>
      <trkpt lat="47.25161" lon="-2.25912">
        <ele>17</ele>
        <time>2022-04-17T08:29:24.000Z</time>
      </trkpt>
      <trkpt lat="47.25163" lon="-2.25911">
        <ele>17</ele>
        <time>2022-04-17T08:29:25.000Z</time>
      </trkpt>
      <trkpt lat="47.2516" lon="-2.25904">
        <ele>17</ele>
        <time>2022-04-17T08:29:27.000Z</time>
      </trkpt>
      <trkpt lat="47.25157" lon="-2.25904">
        <ele>17</ele>
        <time>2022-04-17T08:29:28.000Z</time>
      </trkpt>
      <trkpt lat="47.25152" lon="-2.25912">
        <ele>17</ele>
        <time>2022-04-17T08:29:31.000Z</time>
      </trkpt>
      <trkpt lat="47.25159" lon="-2.25922">
        <ele>17</ele>
        <time>2022-04-17T08:29:34.000Z</time>
      </trkpt>
      <trkpt lat="47.25172" lon="-2.25918">
        <ele>17</ele>
        <time>2022-04-17T08:29:37.000Z</time>
      </trkpt>
      <trkpt lat="47.25174" lon="-2.25917">
        <ele>17</ele>
        <time>2022-04-17T08:29:38.000Z</time>
      </trkpt>
      <trkpt lat="47.25183" lon="-2.25918">
        <ele>17.39999961853</ele>
        <time>2022-04-17T08:29:41.000Z</time>
      </trkpt>
      <trkpt lat="47.25187" lon="-2.2592">
        <ele>17.799999237061</ele>
        <time>2022-04-17T08:29:42.000Z</time>
      </trkpt>
      <trkpt lat="47.2519" lon="-2.25922">
        <ele>18.200000762939</ele>
        <time>2022-04-17T08:29:43.000Z</time>
      </trkpt>
      <trkpt lat="47.25193" lon="-2.25924">
        <ele>18.60000038147</ele>
        <time>2022-04-17T08:29:44.000Z</time>
      </trkpt>
      <trkpt lat="47.25196" lon="-2.25927">
        <ele>19</ele>
        <time>2022-04-17T08:29:45.000Z</time>
      </trkpt>
      <trkpt lat="47.25203" lon="-2.25931">
        <ele>19</ele>
        <time>2022-04-17T08:29:47.000Z</time>
      </trkpt>
      <trkpt lat="47.25215" lon="-2.25943">
        <ele>19</ele>
        <time>2022-04-17T08:29:51.000Z</time>
      </trkpt>
      <trkpt lat="47.25218" lon="-2.25947">
        <ele>19</ele>
        <time>2022-04-17T08:29:52.000Z</time>
      </trkpt>
      <trkpt lat="47.2523" lon="-2.25968">
        <ele>19</ele>
        <time>2022-04-17T08:29:56.000Z</time>
      </trkpt>
      <trkpt lat="47.25235" lon="-2.25979">
        <ele>19</ele>
        <time>2022-04-17T08:29:58.000Z</time>
      </trkpt>
      <trkpt lat="47.25251" lon="-2.26008">
        <ele>19</ele>
        <time>2022-04-17T08:30:04.000Z</time>
      </trkpt>
      <trkpt lat="47.25258" lon="-2.26022">
        <ele>19</ele>
        <time>2022-04-17T08:30:08.000Z</time>
      </trkpt>
      <trkpt lat="47.25262" lon="-2.26023">
        <ele>19</ele>
        <time>2022-04-17T08:30:10.000Z</time>
      </trkpt>
      <trkpt lat="47.25267" lon="-2.26021">
        <ele>19</ele>
        <time>2022-04-17T08:30:12.000Z</time>
      </trkpt>
      <trkpt lat="47.25275" lon="-2.26019">
        <ele>19</ele>
        <time>2022-04-17T08:30:17.000Z</time>
      </trkpt>
      <trkpt lat="47.25283" lon="-2.26018">
        <ele>19</ele>
        <time>2022-04-17T08:30:21.000Z</time>
      </trkpt>
      <trkpt lat="47.25285" lon="-2.26021">
        <ele>19</ele>
        <time>2022-04-17T08:30:22.000Z</time>
      </trkpt>
      <trkpt lat="47.2529" lon="-2.26034">
        <ele>19</ele>
        <time>2022-04-17T08:30:27.000Z</time>
      </trkpt>
      <trkpt lat="47.25292" lon="-2.26057">
        <ele>19</ele>
        <time>2022-04-17T08:30:34.000Z</time>
      </trkpt>
      <trkpt lat="47.25291" lon="-2.26071">
        <ele>19</ele>
        <time>2022-04-17T08:30:38.000Z</time>
      </trkpt>
      <trkpt lat="47.25292" lon="-2.26075">
        <ele>19</ele>
        <time>2022-04-17T08:30:39.000Z</time>
      </trkpt>
      <trkpt lat="47.25302" lon="-2.26082">
        <ele>19</ele>
        <time>2022-04-17T08:30:42.000Z</time>
      </trkpt>
      <trkpt lat="47.25318" lon="-2.26078">
        <ele>19</ele>
        <time>2022-04-17T08:30:46.000Z</time>
      </trkpt>
      <trkpt lat="47.25326" lon="-2.26075">
        <ele>18.60000038147</ele>
        <time>2022-04-17T08:30:48.000Z</time>
      </trkpt>
      <trkpt lat="47.2533" lon="-2.26073">
        <ele>18.200000762939</ele>
        <time>2022-04-17T08:30:49.000Z</time>
      </trkpt>
      <trkpt lat="47.25335" lon="-2.26071">
        <ele>17.60000038147</ele>
        <time>2022-04-17T08:30:50.000Z</time>
      </trkpt>
      <trkpt lat="47.2534" lon="-2.26068">
        <ele>17.200000762939</ele>
        <time>2022-04-17T08:30:51.000Z</time>
      </trkpt>
      <trkpt lat="47.25346" lon="-2.26066">
        <ele>16.799999237061</ele>
        <time>2022-04-17T08:30:52.000Z</time>
      </trkpt>
      <trkpt lat="47.25366" lon="-2.26055">
        <ele>16.39999961853</ele>
        <time>2022-04-17T08:30:55.000Z</time>
      </trkpt>
      <trkpt lat="47.25372" lon="-2.2605">
        <ele>15.800000190735</ele>
        <time>2022-04-17T08:30:56.000Z</time>
      </trkpt>
      <trkpt lat="47.2538" lon="-2.26046">
        <ele>15.39999961853</ele>
        <time>2022-04-17T08:30:57.000Z</time>
      </trkpt>
      <trkpt lat="47.25387" lon="-2.26042">
        <ele>15</ele>
        <time>2022-04-17T08:30:58.000Z</time>
      </trkpt>
      <trkpt lat="47.25394" lon="-2.26037">
        <ele>14.60000038147</ele>
        <time>2022-04-17T08:30:59.000Z</time>
      </trkpt>
      <trkpt lat="47.25408" lon="-2.26028">
        <ele>13.800000190735</ele>
        <time>2022-04-17T08:31:01.000Z</time>
      </trkpt>
      <trkpt lat="47.25416" lon="-2.26023">
        <ele>13.39999961853</ele>
        <time>2022-04-17T08:31:02.000Z</time>
      </trkpt>
      <trkpt lat="47.25423" lon="-2.26019">
        <ele>13</ele>
        <time>2022-04-17T08:31:03.000Z</time>
      </trkpt>
      <trkpt lat="47.2543" lon="-2.26014">
        <ele>12.60000038147</ele>
        <time>2022-04-17T08:31:04.000Z</time>
      </trkpt>
      <trkpt lat="47.25448" lon="-2.26002">
        <ele>12.60000038147</ele>
        <time>2022-04-17T08:31:08.000Z</time>
      </trkpt>
      <trkpt lat="47.25462" lon="-2.26001">
        <ele>12.60000038147</ele>
        <time>2022-04-17T08:31:12.000Z</time>
      </trkpt>
      <trkpt lat="47.25465" lon="-2.26005">
        <ele>12.60000038147</ele>
        <time>2022-04-17T08:31:13.000Z</time>
      </trkpt>
      <trkpt lat="47.25469" lon="-2.26015">
        <ele>12.60000038147</ele>
        <time>2022-04-17T08:31:15.000Z</time>
      </trkpt>
      <trkpt lat="47.25472" lon="-2.26042">
        <ele>12.60000038147</ele>
        <time>2022-04-17T08:31:18.000Z</time>
      </trkpt>
      <trkpt lat="47.25471" lon="-2.26075">
        <ele>12.60000038147</ele>
        <time>2022-04-17T08:31:22.000Z</time>
      </trkpt>
      <trkpt lat="47.25466" lon="-2.26092">
        <ele>12.60000038147</ele>
        <time>2022-04-17T08:31:24.000Z</time>
      </trkpt>
      <trkpt lat="47.25455" lon="-2.26138">
        <ele>12.60000038147</ele>
        <time>2022-04-17T08:31:30.000Z</time>
      </trkpt>
      <trkpt lat="47.25446" lon="-2.2618">
        <ele>12.60000038147</ele>
        <time>2022-04-17T08:31:36.000Z</time>
      </trkpt>
      <trkpt lat="47.25444" lon="-2.26193">
        <ele>12.60000038147</ele>
        <time>2022-04-17T08:31:38.000Z</time>
      </trkpt>
      <trkpt lat="47.25439" lon="-2.26232">
        <ele>12.60000038147</ele>
        <time>2022-04-17T08:31:45.000Z</time>
      </trkpt>
      <trkpt lat="47.25437" lon="-2.26239">
        <ele>12.60000038147</ele>
        <time>2022-04-17T08:31:46.000Z</time>
      </trkpt>
      <trkpt lat="47.25434" lon="-2.26258">
        <ele>12.60000038147</ele>
        <time>2022-04-17T08:31:49.000Z</time>
      </trkpt>
      <trkpt lat="47.25434" lon="-2.26264">
        <ele>12.60000038147</ele>
        <time>2022-04-17T08:31:50.000Z</time>
      </trkpt>
      <trkpt lat="47.25437" lon="-2.26281">
        <ele>12.60000038147</ele>
        <time>2022-04-17T08:31:53.000Z</time>
      </trkpt>
      <trkpt lat="47.2544" lon="-2.26286">
        <ele>12.60000038147</ele>
        <time>2022-04-17T08:31:54.000Z</time>
      </trkpt>
      <trkpt lat="47.25444" lon="-2.26294">
        <ele>13</ele>
        <time>2022-04-17T08:31:56.000Z</time>
      </trkpt>
      <trkpt lat="47.25445" lon="-2.26298">
        <ele>13.39999961853</ele>
        <time>2022-04-17T08:31:57.000Z</time>
      </trkpt>
      <trkpt lat="47.25445" lon="-2.26304">
        <ele>13.800000190735</ele>
        <time>2022-04-17T08:31:58.000Z</time>
      </trkpt>
      <trkpt lat="47.25446" lon="-2.2631">
        <ele>14.199999809265</ele>
        <time>2022-04-17T08:31:59.000Z</time>
      </trkpt>
      <trkpt lat="47.25446" lon="-2.26317">
        <ele>14.60000038147</ele>
        <time>2022-04-17T08:32:00.000Z</time>
      </trkpt>
      <trkpt lat="47.25449" lon="-2.26332">
        <ele>14.60000038147</ele>
        <time>2022-04-17T08:32:02.000Z</time>
      </trkpt>
      <trkpt lat="47.25451" lon="-2.26352">
        <ele>14.60000038147</ele>
        <time>2022-04-17T08:32:06.000Z</time>
      </trkpt>
      <trkpt lat="47.25451" lon="-2.26381">
        <ele>14.60000038147</ele>
        <time>2022-04-17T08:32:10.000Z</time>
      </trkpt>
      <trkpt lat="47.25449" lon="-2.26398">
        <ele>14.60000038147</ele>
        <time>2022-04-17T08:32:12.000Z</time>
      </trkpt>
      <trkpt lat="47.25449" lon="-2.26428">
        <ele>14.60000038147</ele>
        <time>2022-04-17T08:32:16.000Z</time>
      </trkpt>
      <trkpt lat="47.2545" lon="-2.26436">
        <ele>14.60000038147</ele>
        <time>2022-04-17T08:32:17.000Z</time>
      </trkpt>
      <trkpt lat="47.25452" lon="-2.26451">
        <ele>15.199999809265</ele>
        <time>2022-04-17T08:32:19.000Z</time>
      </trkpt>
      <trkpt lat="47.25452" lon="-2.26457">
        <ele>15.60000038147</ele>
        <time>2022-04-17T08:32:20.000Z</time>
      </trkpt>
      <trkpt lat="47.25453" lon="-2.26464">
        <ele>16</ele>
        <time>2022-04-17T08:32:21.000Z</time>
      </trkpt>
      <trkpt lat="47.25454" lon="-2.26471">
        <ele>16.39999961853</ele>
        <time>2022-04-17T08:32:22.000Z</time>
      </trkpt>
      <trkpt lat="47.25456" lon="-2.26478">
        <ele>16.799999237061</ele>
        <time>2022-04-17T08:32:23.000Z</time>
      </trkpt>
      <trkpt lat="47.25463" lon="-2.26488">
        <ele>16.799999237061</ele>
        <time>2022-04-17T08:32:25.000Z</time>
      </trkpt>
      <trkpt lat="47.25466" lon="-2.26493">
        <ele>17.200000762939</ele>
        <time>2022-04-17T08:32:26.000Z</time>
      </trkpt>
      <trkpt lat="47.25468" lon="-2.26497">
        <ele>17.799999237061</ele>
        <time>2022-04-17T08:32:27.000Z</time>
      </trkpt>
      <trkpt lat="47.2547" lon="-2.26501">
        <ele>18.200000762939</ele>
        <time>2022-04-17T08:32:28.000Z</time>
      </trkpt>
      <trkpt lat="47.25471" lon="-2.26504">
        <ele>18.60000038147</ele>
        <time>2022-04-17T08:32:29.000Z</time>
      </trkpt>
      <trkpt lat="47.25472" lon="-2.26508">
        <ele>19</ele>
        <time>2022-04-17T08:32:30.000Z</time>
      </trkpt>
      <trkpt lat="47.25473" lon="-2.26512">
        <ele>19.60000038147</ele>
        <time>2022-04-17T08:32:31.000Z</time>
      </trkpt>
      <trkpt lat="47.25474" lon="-2.26515">
        <ele>20</ele>
        <time>2022-04-17T08:32:32.000Z</time>
      </trkpt>
      <trkpt lat="47.25474" lon="-2.26519">
        <ele>20.60000038147</ele>
        <time>2022-04-17T08:32:33.000Z</time>
      </trkpt>
      <trkpt lat="47.25474" lon="-2.26522">
        <ele>21.200000762939</ele>
        <time>2022-04-17T08:32:34.000Z</time>
      </trkpt>
      <trkpt lat="47.25475" lon="-2.26525">
        <ele>21.200000762939</ele>
        <time>2022-04-17T08:32:35.000Z</time>
      </trkpt>
      <trkpt lat="47.2548" lon="-2.26532">
        <ele>21.200000762939</ele>
        <time>2022-04-17T08:32:41.000Z</time>
      </trkpt>
      <trkpt lat="47.25479" lon="-2.26529">
        <ele>21.200000762939</ele>
        <time>2022-04-17T08:43:24.000Z</time>
      </trkpt>
      <trkpt lat="47.25479" lon="-2.26538">
        <ele>21.200000762939</ele>
        <time>2022-04-17T08:43:27.000Z</time>
      </trkpt>
      <trkpt lat="47.25483" lon="-2.26556">
        <ele>21.60000038147</ele>
        <time>2022-04-17T08:43:32.000Z</time>
      </trkpt>
      <trkpt lat="47.25485" lon="-2.26561">
        <ele>22</ele>
        <time>2022-04-17T08:43:33.000Z</time>
      </trkpt>
      <trkpt lat="47.25485" lon="-2.26566">
        <ele>22.39999961853</ele>
        <time>2022-04-17T08:43:34.000Z</time>
      </trkpt>
      <trkpt lat="47.25486" lon="-2.2657">
        <ele>23.200000762939</ele>
        <time>2022-04-17T08:43:35.000Z</time>
      </trkpt>
      <trkpt lat="47.25487" lon="-2.26589">
        <ele>23.200000762939</ele>
        <time>2022-04-17T08:43:39.000Z</time>
      </trkpt>
      <trkpt lat="47.25487" lon="-2.26623">
        <ele>23.200000762939</ele>
        <time>2022-04-17T08:43:46.000Z</time>
      </trkpt>
      <trkpt lat="47.2549" lon="-2.26664">
        <ele>23.200000762939</ele>
        <time>2022-04-17T08:43:53.000Z</time>
      </trkpt>
      <trkpt lat="47.25483" lon="-2.26696">
        <ele>23.200000762939</ele>
        <time>2022-04-17T08:43:59.000Z</time>
      </trkpt>
      <trkpt lat="47.25481" lon="-2.26701">
        <ele>24</ele>
        <time>2022-04-17T08:44:00.000Z</time>
      </trkpt>
      <trkpt lat="47.25479" lon="-2.26706">
        <ele>24.39999961853</ele>
        <time>2022-04-17T08:44:01.000Z</time>
      </trkpt>
      <trkpt lat="47.25478" lon="-2.26711">
        <ele>24.799999237061</ele>
        <time>2022-04-17T08:44:02.000Z</time>
      </trkpt>
      <trkpt lat="47.25477" lon="-2.26716">
        <ele>25.200000762939</ele>
        <time>2022-04-17T08:44:03.000Z</time>
      </trkpt>
      <trkpt lat="47.25477" lon="-2.26725">
        <ele>25.200000762939</ele>
        <time>2022-04-17T08:44:05.000Z</time>
      </trkpt>
      <trkpt lat="47.25484" lon="-2.2675">
        <ele>25.200000762939</ele>
        <time>2022-04-17T08:44:10.000Z</time>
      </trkpt>
      <trkpt lat="47.25487" lon="-2.26754">
        <ele>25.60000038147</ele>
        <time>2022-04-17T08:44:11.000Z</time>
      </trkpt>
      <trkpt lat="47.2549" lon="-2.26758">
        <ele>26</ele>
        <time>2022-04-17T08:44:12.000Z</time>
      </trkpt>
      <trkpt lat="47.25493" lon="-2.26762">
        <ele>26.39999961853</ele>
        <time>2022-04-17T08:44:13.000Z</time>
      </trkpt>
      <trkpt lat="47.25496" lon="-2.26766">
        <ele>26.799999237061</ele>
        <time>2022-04-17T08:44:14.000Z</time>
      </trkpt>
      <trkpt lat="47.25498" lon="-2.26771">
        <ele>27.39999961853</ele>
        <time>2022-04-17T08:44:15.000Z</time>
      </trkpt>
      <trkpt lat="47.25503" lon="-2.26779">
        <ele>27.39999961853</ele>
        <time>2022-04-17T08:44:17.000Z</time>
      </trkpt>
      <trkpt lat="47.25519" lon="-2.26801">
        <ele>27.39999961853</ele>
        <time>2022-04-17T08:44:24.000Z</time>
      </trkpt>
      <trkpt lat="47.25533" lon="-2.2682">
        <ele>27.39999961853</ele>
        <time>2022-04-17T08:44:30.000Z</time>
      </trkpt>
      <trkpt lat="47.25535" lon="-2.26824">
        <ele>27.799999237061</ele>
        <time>2022-04-17T08:44:31.000Z</time>
      </trkpt>
      <trkpt lat="47.25537" lon="-2.26827">
        <ele>28.200000762939</ele>
        <time>2022-04-17T08:44:32.000Z</time>
      </trkpt>
      <trkpt lat="47.25539" lon="-2.2683">
        <ele>28.60000038147</ele>
        <time>2022-04-17T08:44:33.000Z</time>
      </trkpt>
      <trkpt lat="47.25542" lon="-2.26834">
        <ele>29</ele>
        <time>2022-04-17T08:44:34.000Z</time>
      </trkpt>
      <trkpt lat="47.25543" lon="-2.26835">
        <ele>29.39999961853</ele>
        <time>2022-04-17T08:44:35.000Z</time>
      </trkpt>
      <trkpt lat="47.25555" lon="-2.26846">
        <ele>29.39999961853</ele>
        <time>2022-04-17T08:44:40.000Z</time>
      </trkpt>
      <trkpt lat="47.25564" lon="-2.26851">
        <ele>29.39999961853</ele>
        <time>2022-04-17T08:44:44.000Z</time>
      </trkpt>
      <trkpt lat="47.25567" lon="-2.26853">
        <ele>29.799999237061</ele>
        <time>2022-04-17T08:44:45.000Z</time>
      </trkpt>
      <trkpt lat="47.25569" lon="-2.26854">
        <ele>30.200000762939</ele>
        <time>2022-04-17T08:44:46.000Z</time>
      </trkpt>
      <trkpt lat="47.25572" lon="-2.26855">
        <ele>30.60000038147</ele>
        <time>2022-04-17T08:44:47.000Z</time>
      </trkpt>
      <trkpt lat="47.25575" lon="-2.26857">
        <ele>31.200000762939</ele>
        <time>2022-04-17T08:44:48.000Z</time>
      </trkpt>
      <trkpt lat="47.25577" lon="-2.26859">
        <ele>31.60000038147</ele>
        <time>2022-04-17T08:44:49.000Z</time>
      </trkpt>
      <trkpt lat="47.25579" lon="-2.2686">
        <ele>31.60000038147</ele>
        <time>2022-04-17T08:44:50.000Z</time>
      </trkpt>
      <trkpt lat="47.25594" lon="-2.26869">
        <ele>31.60000038147</ele>
        <time>2022-04-17T08:44:56.000Z</time>
      </trkpt>
      <trkpt lat="47.25597" lon="-2.2687">
        <ele>32</ele>
        <time>2022-04-17T08:44:57.000Z</time>
      </trkpt>
      <trkpt lat="47.25599" lon="-2.26871">
        <ele>32.400001525879</ele>
        <time>2022-04-17T08:44:58.000Z</time>
      </trkpt>
      <trkpt lat="47.25601" lon="-2.26873">
        <ele>32.799999237061</ele>
        <time>2022-04-17T08:44:59.000Z</time>
      </trkpt>
      <trkpt lat="47.25603" lon="-2.26874">
        <ele>33.200000762939</ele>
        <time>2022-04-17T08:45:00.000Z</time>
      </trkpt>
      <trkpt lat="47.25606" lon="-2.26875">
        <ele>33.599998474121</ele>
        <time>2022-04-17T08:45:01.000Z</time>
      </trkpt>
      <trkpt lat="47.2561" lon="-2.26877">
        <ele>33.599998474121</ele>
        <time>2022-04-17T08:45:03.000Z</time>
      </trkpt>
      <trkpt lat="47.2562" lon="-2.26881">
        <ele>33.599998474121</ele>
        <time>2022-04-17T08:45:08.000Z</time>
      </trkpt>
      <trkpt lat="47.25622" lon="-2.26878">
        <ele>33.599998474121</ele>
        <time>2022-04-17T08:45:09.000Z</time>
      </trkpt>
      <trkpt lat="47.25628" lon="-2.26869">
        <ele>33.599998474121</ele>
        <time>2022-04-17T08:45:12.000Z</time>
      </trkpt>
      <trkpt lat="47.25631" lon="-2.26864">
        <ele>33.599998474121</ele>
        <time>2022-04-17T08:45:13.000Z</time>
      </trkpt>
      <trkpt lat="47.25638" lon="-2.26852">
        <ele>34</ele>
        <time>2022-04-17T08:45:16.000Z</time>
      </trkpt>
      <trkpt lat="47.2564" lon="-2.26848">
        <ele>34.400001525879</ele>
        <time>2022-04-17T08:45:17.000Z</time>
      </trkpt>
      <trkpt lat="47.25642" lon="-2.26845">
        <ele>34.799999237061</ele>
        <time>2022-04-17T08:45:18.000Z</time>
      </trkpt>
      <trkpt lat="47.25645" lon="-2.26841">
        <ele>35.200000762939</ele>
        <time>2022-04-17T08:45:19.000Z</time>
      </trkpt>
      <trkpt lat="47.25648" lon="-2.26838">
        <ele>35.599998474121</ele>
        <time>2022-04-17T08:45:20.000Z</time>
      </trkpt>
      <trkpt lat="47.25655" lon="-2.26824">
        <ele>35.599998474121</ele>
        <time>2022-04-17T08:45:24.000Z</time>
      </trkpt>
      <trkpt lat="47.25657" lon="-2.26823">
        <ele>35.599998474121</ele>
        <time>2022-04-17T08:45:25.000Z</time>
      </trkpt>
      <trkpt lat="47.25664" lon="-2.26818">
        <ele>35.599998474121</ele>
        <time>2022-04-17T08:45:28.000Z</time>
      </trkpt>
      <trkpt lat="47.25681" lon="-2.26816">
        <ele>35.599998474121</ele>
        <time>2022-04-17T08:45:32.000Z</time>
      </trkpt>
      <trkpt lat="47.2569" lon="-2.26817">
        <ele>35.599998474121</ele>
        <time>2022-04-17T08:45:34.000Z</time>
      </trkpt>
      <trkpt lat="47.25715" lon="-2.26826">
        <ele>35.599998474121</ele>
        <time>2022-04-17T08:45:40.000Z</time>
      </trkpt>
      <trkpt lat="47.25728" lon="-2.26839">
        <ele>35.599998474121</ele>
        <time>2022-04-17T08:45:44.000Z</time>
      </trkpt>
      <trkpt lat="47.2573" lon="-2.26843">
        <ele>35.599998474121</ele>
        <time>2022-04-17T08:45:45.000Z</time>
      </trkpt>
      <trkpt lat="47.25737" lon="-2.26858">
        <ele>35.599998474121</ele>
        <time>2022-04-17T08:45:48.000Z</time>
      </trkpt>
      <trkpt lat="47.25743" lon="-2.26873">
        <ele>35.599998474121</ele>
        <time>2022-04-17T08:45:51.000Z</time>
      </trkpt>
      <trkpt lat="47.2575" lon="-2.26896">
        <ele>35.599998474121</ele>
        <time>2022-04-17T08:45:56.000Z</time>
      </trkpt>
      <trkpt lat="47.25763" lon="-2.26899">
        <ele>35.599998474121</ele>
        <time>2022-04-17T08:46:00.000Z</time>
      </trkpt>
      <trkpt lat="47.25779" lon="-2.26891">
        <ele>35.599998474121</ele>
        <time>2022-04-17T08:46:04.000Z</time>
      </trkpt>
      <trkpt lat="47.25814" lon="-2.26875">
        <ele>35.599998474121</ele>
        <time>2022-04-17T08:46:11.000Z</time>
      </trkpt>
      <trkpt lat="47.25834" lon="-2.26867">
        <ele>35.200000762939</ele>
        <time>2022-04-17T08:46:15.000Z</time>
      </trkpt>
      <trkpt lat="47.25839" lon="-2.26864">
        <ele>34.799999237061</ele>
        <time>2022-04-17T08:46:16.000Z</time>
      </trkpt>
      <trkpt lat="47.25844" lon="-2.26862">
        <ele>34.400001525879</ele>
        <time>2022-04-17T08:46:17.000Z</time>
      </trkpt>
      <trkpt lat="47.2585" lon="-2.2686">
        <ele>34</ele>
        <time>2022-04-17T08:46:18.000Z</time>
      </trkpt>
      <trkpt lat="47.25855" lon="-2.26857">
        <ele>33.400001525879</ele>
        <time>2022-04-17T08:46:19.000Z</time>
      </trkpt>
      <trkpt lat="47.2588" lon="-2.26845">
        <ele>33.400001525879</ele>
        <time>2022-04-17T08:46:23.000Z</time>
      </trkpt>
      <trkpt lat="47.25922" lon="-2.26824">
        <ele>33</ele>
        <time>2022-04-17T08:46:29.000Z</time>
      </trkpt>
      <trkpt lat="47.2593" lon="-2.2682">
        <ele>32.599998474121</ele>
        <time>2022-04-17T08:46:30.000Z</time>
      </trkpt>
      <trkpt lat="47.25937" lon="-2.26818">
        <ele>32.200000762939</ele>
        <time>2022-04-17T08:46:31.000Z</time>
      </trkpt>
      <trkpt lat="47.25945" lon="-2.26818">
        <ele>31.799999237061</ele>
        <time>2022-04-17T08:46:32.000Z</time>
      </trkpt>
      <trkpt lat="47.25952" lon="-2.26817">
        <ele>31.39999961853</ele>
        <time>2022-04-17T08:46:33.000Z</time>
      </trkpt>
      <trkpt lat="47.25966" lon="-2.26817">
        <ele>31.39999961853</ele>
        <time>2022-04-17T08:46:35.000Z</time>
      </trkpt>
      <trkpt lat="47.25978" lon="-2.26821">
        <ele>31.39999961853</ele>
        <time>2022-04-17T08:46:37.000Z</time>
      </trkpt>
      <trkpt lat="47.25989" lon="-2.26825">
        <ele>31</ele>
        <time>2022-04-17T08:46:40.000Z</time>
      </trkpt>
      <trkpt lat="47.2599" lon="-2.26829">
        <ele>30.60000038147</ele>
        <time>2022-04-17T08:46:41.000Z</time>
      </trkpt>
      <trkpt lat="47.25992" lon="-2.26835">
        <ele>30.200000762939</ele>
        <time>2022-04-17T08:46:42.000Z</time>
      </trkpt>
      <trkpt lat="47.25991" lon="-2.26841">
        <ele>29.799999237061</ele>
        <time>2022-04-17T08:46:43.000Z</time>
      </trkpt>
      <trkpt lat="47.25992" lon="-2.26848">
        <ele>29.39999961853</ele>
        <time>2022-04-17T08:46:44.000Z</time>
      </trkpt>
      <trkpt lat="47.25992" lon="-2.26862">
        <ele>29.39999961853</ele>
        <time>2022-04-17T08:46:46.000Z</time>
      </trkpt>
      <trkpt lat="47.25994" lon="-2.26878">
        <ele>29.39999961853</ele>
        <time>2022-04-17T08:46:48.000Z</time>
      </trkpt>
      <trkpt lat="47.25997" lon="-2.26893">
        <ele>29.39999961853</ele>
        <time>2022-04-17T08:46:50.000Z</time>
      </trkpt>
      <trkpt lat="47.26002" lon="-2.26908">
        <ele>29.39999961853</ele>
        <time>2022-04-17T08:46:52.000Z</time>
      </trkpt>
      <trkpt lat="47.26006" lon="-2.26915">
        <ele>29.39999961853</ele>
        <time>2022-04-17T08:46:53.000Z</time>
      </trkpt>
      <trkpt lat="47.26018" lon="-2.26934">
        <ele>29.39999961853</ele>
        <time>2022-04-17T08:46:56.000Z</time>
      </trkpt>
      <trkpt lat="47.26044" lon="-2.26966">
        <ele>29.39999961853</ele>
        <time>2022-04-17T08:47:02.000Z</time>
      </trkpt>
      <trkpt lat="47.26063" lon="-2.26999">
        <ele>29.39999961853</ele>
        <time>2022-04-17T08:47:07.000Z</time>
      </trkpt>
      <trkpt lat="47.26067" lon="-2.27007">
        <ele>29.39999961853</ele>
        <time>2022-04-17T08:47:08.000Z</time>
      </trkpt>
      <trkpt lat="47.26081" lon="-2.27045">
        <ele>29.39999961853</ele>
        <time>2022-04-17T08:47:13.000Z</time>
      </trkpt>
      <trkpt lat="47.26088" lon="-2.27081">
        <ele>29.39999961853</ele>
        <time>2022-04-17T08:47:17.000Z</time>
      </trkpt>
      <trkpt lat="47.26094" lon="-2.27134">
        <ele>29.39999961853</ele>
        <time>2022-04-17T08:47:23.000Z</time>
      </trkpt>
      <trkpt lat="47.26095" lon="-2.27142">
        <ele>29.39999961853</ele>
        <time>2022-04-17T08:47:24.000Z</time>
      </trkpt>
      <trkpt lat="47.26104" lon="-2.27176">
        <ele>29.39999961853</ele>
        <time>2022-04-17T08:47:28.000Z</time>
      </trkpt>
      <trkpt lat="47.26107" lon="-2.27184">
        <ele>29.39999961853</ele>
        <time>2022-04-17T08:47:29.000Z</time>
      </trkpt>
      <trkpt lat="47.2613" lon="-2.27239">
        <ele>29.39999961853</ele>
        <time>2022-04-17T08:47:36.000Z</time>
      </trkpt>
      <trkpt lat="47.2614" lon="-2.27272">
        <ele>29.39999961853</ele>
        <time>2022-04-17T08:47:40.000Z</time>
      </trkpt>
      <trkpt lat="47.26143" lon="-2.27289">
        <ele>29.39999961853</ele>
        <time>2022-04-17T08:47:42.000Z</time>
      </trkpt>
      <trkpt lat="47.26151" lon="-2.2731">
        <ele>29.39999961853</ele>
        <time>2022-04-17T08:47:45.000Z</time>
      </trkpt>
      <trkpt lat="47.26153" lon="-2.27315">
        <ele>29.39999961853</ele>
        <time>2022-04-17T08:47:46.000Z</time>
      </trkpt>
      <trkpt lat="47.26157" lon="-2.27317">
        <ele>29.39999961853</ele>
        <time>2022-04-17T08:47:47.000Z</time>
      </trkpt>
      <trkpt lat="47.26162" lon="-2.27318">
        <ele>29.39999961853</ele>
        <time>2022-04-17T08:47:48.000Z</time>
      </trkpt>
      <trkpt lat="47.26181" lon="-2.27316">
        <ele>29.39999961853</ele>
        <time>2022-04-17T08:47:51.000Z</time>
      </trkpt>
      <trkpt lat="47.26189" lon="-2.27314">
        <ele>29.39999961853</ele>
        <time>2022-04-17T08:47:52.000Z</time>
      </trkpt>
      <trkpt lat="47.26221" lon="-2.27315">
        <ele>29.39999961853</ele>
        <time>2022-04-17T08:47:57.000Z</time>
      </trkpt>
      <trkpt lat="47.26247" lon="-2.27321">
        <ele>29.39999961853</ele>
        <time>2022-04-17T08:48:01.000Z</time>
      </trkpt>
      <trkpt lat="47.26293" lon="-2.27325">
        <ele>29.39999961853</ele>
        <time>2022-04-17T08:48:08.000Z</time>
      </trkpt>
      <trkpt lat="47.26319" lon="-2.27329">
        <ele>29.39999961853</ele>
        <time>2022-04-17T08:48:12.000Z</time>
      </trkpt>
      <trkpt lat="47.26325" lon="-2.27329">
        <ele>29.39999961853</ele>
        <time>2022-04-17T08:48:13.000Z</time>
      </trkpt>
      <trkpt lat="47.26331" lon="-2.27329">
        <ele>29.39999961853</ele>
        <time>2022-04-17T08:48:14.000Z</time>
      </trkpt>
      <trkpt lat="47.2635" lon="-2.27332">
        <ele>29.39999961853</ele>
        <time>2022-04-17T08:48:17.000Z</time>
      </trkpt>
      <trkpt lat="47.26389" lon="-2.27332">
        <ele>29.39999961853</ele>
        <time>2022-04-17T08:48:23.000Z</time>
      </trkpt>
      <trkpt lat="47.26402" lon="-2.27332">
        <ele>29.39999961853</ele>
        <time>2022-04-17T08:48:25.000Z</time>
      </trkpt>
      <trkpt lat="47.2642" lon="-2.27337">
        <ele>28.799999237061</ele>
        <time>2022-04-17T08:48:28.000Z</time>
      </trkpt>
      <trkpt lat="47.26425" lon="-2.27342">
        <ele>28.39999961853</ele>
        <time>2022-04-17T08:48:29.000Z</time>
      </trkpt>
      <trkpt lat="47.26429" lon="-2.27348">
        <ele>28</ele>
        <time>2022-04-17T08:48:30.000Z</time>
      </trkpt>
      <trkpt lat="47.26433" lon="-2.27356">
        <ele>27.200000762939</ele>
        <time>2022-04-17T08:48:31.000Z</time>
      </trkpt>
      <trkpt lat="47.26439" lon="-2.27373">
        <ele>27.200000762939</ele>
        <time>2022-04-17T08:48:33.000Z</time>
      </trkpt>
      <trkpt lat="47.26451" lon="-2.27408">
        <ele>27.200000762939</ele>
        <time>2022-04-17T08:48:37.000Z</time>
      </trkpt>
      <trkpt lat="47.2646" lon="-2.27436">
        <ele>26.799999237061</ele>
        <time>2022-04-17T08:48:40.000Z</time>
      </trkpt>
      <trkpt lat="47.26463" lon="-2.27446">
        <ele>26.39999961853</ele>
        <time>2022-04-17T08:48:41.000Z</time>
      </trkpt>
      <trkpt lat="47.26466" lon="-2.27455">
        <ele>26</ele>
        <time>2022-04-17T08:48:42.000Z</time>
      </trkpt>
      <trkpt lat="47.26469" lon="-2.27464">
        <ele>25.60000038147</ele>
        <time>2022-04-17T08:48:43.000Z</time>
      </trkpt>
      <trkpt lat="47.26472" lon="-2.27474">
        <ele>25</ele>
        <time>2022-04-17T08:48:44.000Z</time>
      </trkpt>
      <trkpt lat="47.26481" lon="-2.27501">
        <ele>25</ele>
        <time>2022-04-17T08:48:47.000Z</time>
      </trkpt>
      <trkpt lat="47.26486" lon="-2.27519">
        <ele>25</ele>
        <time>2022-04-17T08:48:49.000Z</time>
      </trkpt>
      <trkpt lat="47.2649" lon="-2.27538">
        <ele>24.60000038147</ele>
        <time>2022-04-17T08:48:51.000Z</time>
      </trkpt>
      <trkpt lat="47.26492" lon="-2.27549">
        <ele>24.200000762939</ele>
        <time>2022-04-17T08:48:52.000Z</time>
      </trkpt>
      <trkpt lat="47.26493" lon="-2.27558">
        <ele>23.799999237061</ele>
        <time>2022-04-17T08:48:53.000Z</time>
      </trkpt>
      <trkpt lat="47.26494" lon="-2.27566">
        <ele>23.39999961853</ele>
        <time>2022-04-17T08:48:54.000Z</time>
      </trkpt>
      <trkpt lat="47.26496" lon="-2.27572">
        <ele>23</ele>
        <time>2022-04-17T08:48:55.000Z</time>
      </trkpt>
      <trkpt lat="47.26509" lon="-2.27576">
        <ele>23</ele>
        <time>2022-04-17T08:48:58.000Z</time>
      </trkpt>
      <trkpt lat="47.26515" lon="-2.27575">
        <ele>23</ele>
        <time>2022-04-17T08:48:59.000Z</time>
      </trkpt>
      <trkpt lat="47.26521" lon="-2.27575">
        <ele>23</ele>
        <time>2022-04-17T08:49:00.000Z</time>
      </trkpt>
      <trkpt lat="47.26535" lon="-2.27578">
        <ele>23</ele>
        <time>2022-04-17T08:49:02.000Z</time>
      </trkpt>
      <trkpt lat="47.26572" lon="-2.27582">
        <ele>23</ele>
        <time>2022-04-17T08:49:07.000Z</time>
      </trkpt>
      <trkpt lat="47.26586" lon="-2.27587">
        <ele>23</ele>
        <time>2022-04-17T08:49:09.000Z</time>
      </trkpt>
      <trkpt lat="47.26593" lon="-2.27589">
        <ele>22.60000038147</ele>
        <time>2022-04-17T08:49:10.000Z</time>
      </trkpt>
      <trkpt lat="47.26599" lon="-2.27592">
        <ele>22.200000762939</ele>
        <time>2022-04-17T08:49:11.000Z</time>
      </trkpt>
      <trkpt lat="47.26605" lon="-2.27594">
        <ele>21.799999237061</ele>
        <time>2022-04-17T08:49:12.000Z</time>
      </trkpt>
      <trkpt lat="47.26611" lon="-2.27597">
        <ele>21.39999961853</ele>
        <time>2022-04-17T08:49:13.000Z</time>
      </trkpt>
      <trkpt lat="47.26617" lon="-2.27599">
        <ele>21</ele>
        <time>2022-04-17T08:49:14.000Z</time>
      </trkpt>
      <trkpt lat="47.26642" lon="-2.27611">
        <ele>21</ele>
        <time>2022-04-17T08:49:18.000Z</time>
      </trkpt>
      <trkpt lat="47.26671" lon="-2.27623">
        <ele>21</ele>
        <time>2022-04-17T08:49:23.000Z</time>
      </trkpt>
      <trkpt lat="47.26693" lon="-2.27631">
        <ele>21</ele>
        <time>2022-04-17T08:49:27.000Z</time>
      </trkpt>
      <trkpt lat="47.26698" lon="-2.27634">
        <ele>21</ele>
        <time>2022-04-17T08:49:28.000Z</time>
      </trkpt>
      <trkpt lat="47.26715" lon="-2.27641">
        <ele>21</ele>
        <time>2022-04-17T08:49:31.000Z</time>
      </trkpt>
      <trkpt lat="47.26731" lon="-2.27648">
        <ele>21</ele>
        <time>2022-04-17T08:49:34.000Z</time>
      </trkpt>
      <trkpt lat="47.26737" lon="-2.27651">
        <ele>21</ele>
        <time>2022-04-17T08:49:35.000Z</time>
      </trkpt>
      <trkpt lat="47.26752" lon="-2.27656">
        <ele>21</ele>
        <time>2022-04-17T08:49:38.000Z</time>
      </trkpt>
      <trkpt lat="47.26763" lon="-2.27647">
        <ele>21</ele>
        <time>2022-04-17T08:49:41.000Z</time>
      </trkpt>
      <trkpt lat="47.26764" lon="-2.27626">
        <ele>21</ele>
        <time>2022-04-17T08:49:44.000Z</time>
      </trkpt>
      <trkpt lat="47.26761" lon="-2.2761">
        <ele>21</ele>
        <time>2022-04-17T08:49:46.000Z</time>
      </trkpt>
      <trkpt lat="47.26755" lon="-2.27584">
        <ele>21</ele>
        <time>2022-04-17T08:49:49.000Z</time>
      </trkpt>
      <trkpt lat="47.26754" lon="-2.27575">
        <ele>21</ele>
        <time>2022-04-17T08:49:50.000Z</time>
      </trkpt>
      <trkpt lat="47.26753" lon="-2.27532">
        <ele>21</ele>
        <time>2022-04-17T08:49:55.000Z</time>
      </trkpt>
      <trkpt lat="47.26753" lon="-2.27523">
        <ele>21.39999961853</ele>
        <time>2022-04-17T08:49:56.000Z</time>
      </trkpt>
      <trkpt lat="47.26753" lon="-2.27515">
        <ele>21.799999237061</ele>
        <time>2022-04-17T08:49:57.000Z</time>
      </trkpt>
      <trkpt lat="47.26753" lon="-2.27506">
        <ele>22.200000762939</ele>
        <time>2022-04-17T08:49:58.000Z</time>
      </trkpt>
      <trkpt lat="47.26753" lon="-2.27498">
        <ele>22.799999237061</ele>
        <time>2022-04-17T08:49:59.000Z</time>
      </trkpt>
      <trkpt lat="47.26753" lon="-2.2749">
        <ele>23.200000762939</ele>
        <time>2022-04-17T08:50:00.000Z</time>
      </trkpt>
      <trkpt lat="47.26754" lon="-2.27456">
        <ele>23.200000762939</ele>
        <time>2022-04-17T08:50:04.000Z</time>
      </trkpt>
      <trkpt lat="47.26754" lon="-2.27422">
        <ele>23.200000762939</ele>
        <time>2022-04-17T08:50:08.000Z</time>
      </trkpt>
      <trkpt lat="47.26756" lon="-2.27417">
        <ele>23.200000762939</ele>
        <time>2022-04-17T08:50:09.000Z</time>
      </trkpt>
      <trkpt lat="47.26768" lon="-2.27411">
        <ele>23.200000762939</ele>
        <time>2022-04-17T08:50:12.000Z</time>
      </trkpt>
      <trkpt lat="47.26773" lon="-2.27412">
        <ele>23.200000762939</ele>
        <time>2022-04-17T08:50:13.000Z</time>
      </trkpt>
      <trkpt lat="47.26797" lon="-2.27412">
        <ele>23.200000762939</ele>
        <time>2022-04-17T08:50:17.000Z</time>
      </trkpt>
      <trkpt lat="47.2682" lon="-2.27412">
        <ele>23.200000762939</ele>
        <time>2022-04-17T08:50:21.000Z</time>
      </trkpt>
      <trkpt lat="47.26832" lon="-2.2741">
        <ele>23.200000762939</ele>
        <time>2022-04-17T08:50:23.000Z</time>
      </trkpt>
      <trkpt lat="47.26842" lon="-2.27407">
        <ele>22.60000038147</ele>
        <time>2022-04-17T08:50:25.000Z</time>
      </trkpt>
      <trkpt lat="47.26848" lon="-2.27405">
        <ele>22.200000762939</ele>
        <time>2022-04-17T08:50:26.000Z</time>
      </trkpt>
      <trkpt lat="47.26853" lon="-2.27403">
        <ele>21.799999237061</ele>
        <time>2022-04-17T08:50:27.000Z</time>
      </trkpt>
      <trkpt lat="47.26859" lon="-2.27401">
        <ele>21.39999961853</ele>
        <time>2022-04-17T08:50:28.000Z</time>
      </trkpt>
      <trkpt lat="47.26864" lon="-2.27399">
        <ele>21</ele>
        <time>2022-04-17T08:50:29.000Z</time>
      </trkpt>
      <trkpt lat="47.2687" lon="-2.27397">
        <ele>21</ele>
        <time>2022-04-17T08:50:30.000Z</time>
      </trkpt>
      <trkpt lat="47.2689" lon="-2.27389">
        <ele>20.60000038147</ele>
        <time>2022-04-17T08:50:33.000Z</time>
      </trkpt>
      <trkpt lat="47.26895" lon="-2.27386">
        <ele>20.200000762939</ele>
        <time>2022-04-17T08:50:34.000Z</time>
      </trkpt>
      <trkpt lat="47.269" lon="-2.27383">
        <ele>19.60000038147</ele>
        <time>2022-04-17T08:50:35.000Z</time>
      </trkpt>
      <trkpt lat="47.26905" lon="-2.27379">
        <ele>18.799999237061</ele>
        <time>2022-04-17T08:50:36.000Z</time>
      </trkpt>
      <trkpt lat="47.26909" lon="-2.27375">
        <ele>18.799999237061</ele>
        <time>2022-04-17T08:50:37.000Z</time>
      </trkpt>
      <trkpt lat="47.26912" lon="-2.27371">
        <ele>18.799999237061</ele>
        <time>2022-04-17T08:50:38.000Z</time>
      </trkpt>
      <trkpt lat="47.26915" lon="-2.27366">
        <ele>18.39999961853</ele>
        <time>2022-04-17T08:50:39.000Z</time>
      </trkpt>
      <trkpt lat="47.26917" lon="-2.27362">
        <ele>18</ele>
        <time>2022-04-17T08:50:40.000Z</time>
      </trkpt>
      <trkpt lat="47.26919" lon="-2.27358">
        <ele>17.60000038147</ele>
        <time>2022-04-17T08:50:41.000Z</time>
      </trkpt>
      <trkpt lat="47.2692" lon="-2.27354">
        <ele>17.200000762939</ele>
        <time>2022-04-17T08:50:42.000Z</time>
      </trkpt>
      <trkpt lat="47.26921" lon="-2.27349">
        <ele>16.60000038147</ele>
        <time>2022-04-17T08:50:43.000Z</time>
      </trkpt>
      <trkpt lat="47.26924" lon="-2.27338">
        <ele>16.60000038147</ele>
        <time>2022-04-17T08:50:46.000Z</time>
      </trkpt>
      <trkpt lat="47.26927" lon="-2.27328">
        <ele>16.60000038147</ele>
        <time>2022-04-17T08:50:50.000Z</time>
      </trkpt>
      <trkpt lat="47.26927" lon="-2.27327">
        <ele>16.60000038147</ele>
        <time>2022-04-17T08:50:51.000Z</time>
      </trkpt>
      <trkpt lat="47.26929" lon="-2.27312">
        <ele>16.60000038147</ele>
        <time>2022-04-17T08:50:57.000Z</time>
      </trkpt>
      <trkpt lat="47.26927" lon="-2.27297">
        <ele>16.60000038147</ele>
        <time>2022-04-17T08:51:02.000Z</time>
      </trkpt>
      <trkpt lat="47.26927" lon="-2.27294">
        <ele>17</ele>
        <time>2022-04-17T08:51:03.000Z</time>
      </trkpt>
      <trkpt lat="47.26928" lon="-2.2729">
        <ele>17.60000038147</ele>
        <time>2022-04-17T08:51:04.000Z</time>
      </trkpt>
      <trkpt lat="47.26927" lon="-2.27286">
        <ele>18</ele>
        <time>2022-04-17T08:51:05.000Z</time>
      </trkpt>
      <trkpt lat="47.26928" lon="-2.27282">
        <ele>18.39999961853</ele>
        <time>2022-04-17T08:51:06.000Z</time>
      </trkpt>
      <trkpt lat="47.26929" lon="-2.27279">
        <ele>18.799999237061</ele>
        <time>2022-04-17T08:51:07.000Z</time>
      </trkpt>
      <trkpt lat="47.2694" lon="-2.27272">
        <ele>18.799999237061</ele>
        <time>2022-04-17T08:51:11.000Z</time>
      </trkpt>
      <trkpt lat="47.26943" lon="-2.27272">
        <ele>18.200000762939</ele>
        <time>2022-04-17T08:51:12.000Z</time>
      </trkpt>
      <trkpt lat="47.26944" lon="-2.27272">
        <ele>17.799999237061</ele>
        <time>2022-04-17T08:51:13.000Z</time>
      </trkpt>
      <trkpt lat="47.26946" lon="-2.27271">
        <ele>17.200000762939</ele>
        <time>2022-04-17T08:51:14.000Z</time>
      </trkpt>
      <trkpt lat="47.26948" lon="-2.27268">
        <ele>16.799999237061</ele>
        <time>2022-04-17T08:51:15.000Z</time>
      </trkpt>
      <trkpt lat="47.26949" lon="-2.27265">
        <ele>16.39999961853</ele>
        <time>2022-04-17T08:51:16.000Z</time>
      </trkpt>
      <trkpt lat="47.26955" lon="-2.27254">
        <ele>16.39999961853</ele>
        <time>2022-04-17T08:51:19.000Z</time>
      </trkpt>
      <trkpt lat="47.26961" lon="-2.27234">
        <ele>16.39999961853</ele>
        <time>2022-04-17T08:51:23.000Z</time>
      </trkpt>
      <trkpt lat="47.26961" lon="-2.27229">
        <ele>16.39999961853</ele>
        <time>2022-04-17T08:51:24.000Z</time>
      </trkpt>
      <trkpt lat="47.2696" lon="-2.27214">
        <ele>16.39999961853</ele>
        <time>2022-04-17T08:51:28.000Z</time>
      </trkpt>
      <trkpt lat="47.26962" lon="-2.27212">
        <ele>16.39999961853</ele>
        <time>2022-04-17T08:51:30.000Z</time>
      </trkpt>
      <trkpt lat="47.26966" lon="-2.27206">
        <ele>16.39999961853</ele>
        <time>2022-04-17T08:51:47.000Z</time>
      </trkpt>
      <trkpt lat="47.26966" lon="-2.27204">
        <ele>16.39999961853</ele>
        <time>2022-04-17T08:51:48.000Z</time>
      </trkpt>
      <trkpt lat="47.26969" lon="-2.27199">
        <ele>16.39999961853</ele>
        <time>2022-04-17T08:51:51.000Z</time>
      </trkpt>
      <trkpt lat="47.26976" lon="-2.27184">
        <ele>16.39999961853</ele>
        <time>2022-04-17T08:51:58.000Z</time>
      </trkpt>
      <trkpt lat="47.26978" lon="-2.27185">
        <ele>16.39999961853</ele>
        <time>2022-04-17T08:51:59.000Z</time>
      </trkpt>
      <trkpt lat="47.26984" lon="-2.27183">
        <ele>16.39999961853</ele>
        <time>2022-04-17T08:52:02.000Z</time>
      </trkpt>
      <trkpt lat="47.26985" lon="-2.27182">
        <ele>16.39999961853</ele>
        <time>2022-04-17T08:52:03.000Z</time>
      </trkpt>
      <trkpt lat="47.26987" lon="-2.2718">
        <ele>16.39999961853</ele>
        <time>2022-04-17T08:52:05.000Z</time>
      </trkpt>
      <trkpt lat="47.26991" lon="-2.27177">
        <ele>16.39999961853</ele>
        <time>2022-04-17T08:52:08.000Z</time>
      </trkpt>
      <trkpt lat="47.26995" lon="-2.27178">
        <ele>16.39999961853</ele>
        <time>2022-04-17T08:52:11.000Z</time>
      </trkpt>
      <trkpt lat="47.26997" lon="-2.27179">
        <ele>16.39999961853</ele>
        <time>2022-04-17T08:52:13.000Z</time>
      </trkpt>
      <trkpt lat="47.27003" lon="-2.27179">
        <ele>16.39999961853</ele>
        <time>2022-04-17T08:52:17.000Z</time>
      </trkpt>
      <trkpt lat="47.27007" lon="-2.27173">
        <ele>16.39999961853</ele>
        <time>2022-04-17T08:52:21.000Z</time>
      </trkpt>
      <trkpt lat="47.27011" lon="-2.27168">
        <ele>16.39999961853</ele>
        <time>2022-04-17T08:52:23.000Z</time>
      </trkpt>
      <trkpt lat="47.2702" lon="-2.27161">
        <ele>15.800000190735</ele>
        <time>2022-04-17T08:52:27.000Z</time>
      </trkpt>
      <trkpt lat="47.27024" lon="-2.27157">
        <ele>15.39999961853</ele>
        <time>2022-04-17T08:52:28.000Z</time>
      </trkpt>
      <trkpt lat="47.27027" lon="-2.27152">
        <ele>14.800000190735</ele>
        <time>2022-04-17T08:52:29.000Z</time>
      </trkpt>
      <trkpt lat="47.27028" lon="-2.27148">
        <ele>14.39999961853</ele>
        <time>2022-04-17T08:52:30.000Z</time>
      </trkpt>
      <trkpt lat="47.2703" lon="-2.27144">
        <ele>14</ele>
        <time>2022-04-17T08:52:31.000Z</time>
      </trkpt>
      <trkpt lat="47.27029" lon="-2.27136">
        <ele>14</ele>
        <time>2022-04-17T08:52:33.000Z</time>
      </trkpt>
      <trkpt lat="47.27027" lon="-2.27128">
        <ele>14</ele>
        <time>2022-04-17T08:52:35.000Z</time>
      </trkpt>
      <trkpt lat="47.27021" lon="-2.27113">
        <ele>14</ele>
        <time>2022-04-17T08:52:39.000Z</time>
      </trkpt>
      <trkpt lat="47.27019" lon="-2.27109">
        <ele>14.39999961853</ele>
        <time>2022-04-17T08:52:40.000Z</time>
      </trkpt>
      <trkpt lat="47.27017" lon="-2.27105">
        <ele>14.800000190735</ele>
        <time>2022-04-17T08:52:41.000Z</time>
      </trkpt>
      <trkpt lat="47.27015" lon="-2.27101">
        <ele>15.199999809265</ele>
        <time>2022-04-17T08:52:42.000Z</time>
      </trkpt>
      <trkpt lat="47.27014" lon="-2.27096">
        <ele>15.800000190735</ele>
        <time>2022-04-17T08:52:43.000Z</time>
      </trkpt>
      <trkpt lat="47.27013" lon="-2.2709">
        <ele>16.200000762939</ele>
        <time>2022-04-17T08:52:44.000Z</time>
      </trkpt>
      <trkpt lat="47.27012" lon="-2.27085">
        <ele>16.200000762939</ele>
        <time>2022-04-17T08:52:45.000Z</time>
      </trkpt>
      <trkpt lat="47.27007" lon="-2.27065">
        <ele>16.200000762939</ele>
        <time>2022-04-17T08:52:49.000Z</time>
      </trkpt>
      <trkpt lat="47.26994" lon="-2.27042">
        <ele>16.200000762939</ele>
        <time>2022-04-17T08:52:54.000Z</time>
      </trkpt>
      <trkpt lat="47.26979" lon="-2.27024">
        <ele>16.200000762939</ele>
        <time>2022-04-17T08:52:58.000Z</time>
      </trkpt>
      <trkpt lat="47.26958" lon="-2.26993">
        <ele>16.200000762939</ele>
        <time>2022-04-17T08:53:04.000Z</time>
      </trkpt>
      <trkpt lat="47.26957" lon="-2.26965">
        <ele>16.200000762939</ele>
        <time>2022-04-17T08:53:07.000Z</time>
      </trkpt>
      <trkpt lat="47.26959" lon="-2.26956">
        <ele>15.800000190735</ele>
        <time>2022-04-17T08:53:08.000Z</time>
      </trkpt>
      <trkpt lat="47.26961" lon="-2.26946">
        <ele>15.39999961853</ele>
        <time>2022-04-17T08:53:09.000Z</time>
      </trkpt>
      <trkpt lat="47.26963" lon="-2.26936">
        <ele>15</ele>
        <time>2022-04-17T08:53:10.000Z</time>
      </trkpt>
      <trkpt lat="47.26965" lon="-2.26925">
        <ele>14.60000038147</ele>
        <time>2022-04-17T08:53:11.000Z</time>
      </trkpt>
      <trkpt lat="47.26966" lon="-2.26916">
        <ele>14.199999809265</ele>
        <time>2022-04-17T08:53:12.000Z</time>
      </trkpt>
      <trkpt lat="47.26966" lon="-2.26907">
        <ele>14.199999809265</ele>
        <time>2022-04-17T08:53:13.000Z</time>
      </trkpt>
      <trkpt lat="47.2696" lon="-2.26854">
        <ele>14.199999809265</ele>
        <time>2022-04-17T08:53:19.000Z</time>
      </trkpt>
      <trkpt lat="47.26959" lon="-2.26831">
        <ele>14.199999809265</ele>
        <time>2022-04-17T08:53:22.000Z</time>
      </trkpt>
      <trkpt lat="47.2696" lon="-2.26825">
        <ele>14.199999809265</ele>
        <time>2022-04-17T08:53:23.000Z</time>
      </trkpt>
      <trkpt lat="47.26972" lon="-2.26809">
        <ele>13.800000190735</ele>
        <time>2022-04-17T08:53:27.000Z</time>
      </trkpt>
      <trkpt lat="47.26975" lon="-2.26806">
        <ele>13.39999961853</ele>
        <time>2022-04-17T08:53:28.000Z</time>
      </trkpt>
      <trkpt lat="47.26979" lon="-2.26804">
        <ele>12.39999961853</ele>
        <time>2022-04-17T08:53:29.000Z</time>
      </trkpt>
      <trkpt lat="47.26982" lon="-2.26801">
        <ele>12</ele>
        <time>2022-04-17T08:53:30.000Z</time>
      </trkpt>
      <trkpt lat="47.2699" lon="-2.26794">
        <ele>12</ele>
        <time>2022-04-17T08:53:33.000Z</time>
      </trkpt>
      <trkpt lat="47.26992" lon="-2.26793">
        <ele>12</ele>
        <time>2022-04-17T08:53:34.000Z</time>
      </trkpt>
      <trkpt lat="47.26998" lon="-2.26791">
        <ele>12</ele>
        <time>2022-04-17T08:53:37.000Z</time>
      </trkpt>
      <trkpt lat="47.27007" lon="-2.26779">
        <ele>12</ele>
        <time>2022-04-17T08:53:41.000Z</time>
      </trkpt>
      <trkpt lat="47.27009" lon="-2.26776">
        <ele>12</ele>
        <time>2022-04-17T08:53:42.000Z</time>
      </trkpt>
      <trkpt lat="47.27016" lon="-2.26765">
        <ele>12</ele>
        <time>2022-04-17T08:53:47.000Z</time>
      </trkpt>
      <trkpt lat="47.27018" lon="-2.26763">
        <ele>12</ele>
        <time>2022-04-17T08:53:48.000Z</time>
      </trkpt>
      <trkpt lat="47.27026" lon="-2.26754">
        <ele>12</ele>
        <time>2022-04-17T08:53:53.000Z</time>
      </trkpt>
      <trkpt lat="47.27027" lon="-2.26752">
        <ele>12</ele>
        <time>2022-04-17T08:53:54.000Z</time>
      </trkpt>
      <trkpt lat="47.27028" lon="-2.2674">
        <ele>12</ele>
        <time>2022-04-17T08:53:57.000Z</time>
      </trkpt>
      <trkpt lat="47.2703" lon="-2.26709">
        <ele>12</ele>
        <time>2022-04-17T08:54:03.000Z</time>
      </trkpt>
      <trkpt lat="47.2703" lon="-2.26678">
        <ele>12</ele>
        <time>2022-04-17T08:54:08.000Z</time>
      </trkpt>
      <trkpt lat="47.27031" lon="-2.26644">
        <ele>12</ele>
        <time>2022-04-17T08:54:13.000Z</time>
      </trkpt>
      <trkpt lat="47.27027" lon="-2.26633">
        <ele>12</ele>
        <time>2022-04-17T08:54:15.000Z</time>
      </trkpt>
      <trkpt lat="47.2702" lon="-2.26624">
        <ele>12</ele>
        <time>2022-04-17T08:54:17.000Z</time>
      </trkpt>
      <trkpt lat="47.27" lon="-2.266">
        <ele>12.39999961853</ele>
        <time>2022-04-17T08:54:22.000Z</time>
      </trkpt>
      <trkpt lat="47.26995" lon="-2.26596">
        <ele>12.800000190735</ele>
        <time>2022-04-17T08:54:23.000Z</time>
      </trkpt>
      <trkpt lat="47.26991" lon="-2.26591">
        <ele>13.199999809265</ele>
        <time>2022-04-17T08:54:24.000Z</time>
      </trkpt>
      <trkpt lat="47.26988" lon="-2.26586">
        <ele>13.60000038147</ele>
        <time>2022-04-17T08:54:25.000Z</time>
      </trkpt>
      <trkpt lat="47.26984" lon="-2.26579">
        <ele>14</ele>
        <time>2022-04-17T08:54:26.000Z</time>
      </trkpt>
      <trkpt lat="47.26978" lon="-2.26564">
        <ele>14</ele>
        <time>2022-04-17T08:54:28.000Z</time>
      </trkpt>
      <trkpt lat="47.26975" lon="-2.26557">
        <ele>14</ele>
        <time>2022-04-17T08:54:29.000Z</time>
      </trkpt>
      <trkpt lat="47.26967" lon="-2.26532">
        <ele>14</ele>
        <time>2022-04-17T08:54:33.000Z</time>
      </trkpt>
      <trkpt lat="47.26966" lon="-2.26526">
        <ele>14.39999961853</ele>
        <time>2022-04-17T08:54:34.000Z</time>
      </trkpt>
      <trkpt lat="47.26966" lon="-2.26521">
        <ele>15</ele>
        <time>2022-04-17T08:54:35.000Z</time>
      </trkpt>
      <trkpt lat="47.26966" lon="-2.26517">
        <ele>15.39999961853</ele>
        <time>2022-04-17T08:54:36.000Z</time>
      </trkpt>
      <trkpt lat="47.26967" lon="-2.26514">
        <ele>15.800000190735</ele>
        <time>2022-04-17T08:54:37.000Z</time>
      </trkpt>
      <trkpt lat="47.26967" lon="-2.2651">
        <ele>16.200000762939</ele>
        <time>2022-04-17T08:54:38.000Z</time>
      </trkpt>
      <trkpt lat="47.26971" lon="-2.26497">
        <ele>16.200000762939</ele>
        <time>2022-04-17T08:54:41.000Z</time>
      </trkpt>
      <trkpt lat="47.26976" lon="-2.26487">
        <ele>16.200000762939</ele>
        <time>2022-04-17T08:54:43.000Z</time>
      </trkpt>
      <trkpt lat="47.26983" lon="-2.26476">
        <ele>16.200000762939</ele>
        <time>2022-04-17T08:54:45.000Z</time>
      </trkpt>
      <trkpt lat="47.27004" lon="-2.26449">
        <ele>16.200000762939</ele>
        <time>2022-04-17T08:54:50.000Z</time>
      </trkpt>
      <trkpt lat="47.27032" lon="-2.26408">
        <ele>16.200000762939</ele>
        <time>2022-04-17T08:54:57.000Z</time>
      </trkpt>
      <trkpt lat="47.27061" lon="-2.26371">
        <ele>16.200000762939</ele>
        <time>2022-04-17T08:55:04.000Z</time>
      </trkpt>
      <trkpt lat="47.27088" lon="-2.26331">
        <ele>16.200000762939</ele>
        <time>2022-04-17T08:55:11.000Z</time>
      </trkpt>
      <trkpt lat="47.27116" lon="-2.26292">
        <ele>16.200000762939</ele>
        <time>2022-04-17T08:55:18.000Z</time>
      </trkpt>
      <trkpt lat="47.27149" lon="-2.26247">
        <ele>16.200000762939</ele>
        <time>2022-04-17T08:55:25.000Z</time>
      </trkpt>
      <trkpt lat="47.27191" lon="-2.26199">
        <ele>16.200000762939</ele>
        <time>2022-04-17T08:55:33.000Z</time>
      </trkpt>
      <trkpt lat="47.27221" lon="-2.26175">
        <ele>15.60000038147</ele>
        <time>2022-04-17T08:55:38.000Z</time>
      </trkpt>
      <trkpt lat="47.27227" lon="-2.26171">
        <ele>15.199999809265</ele>
        <time>2022-04-17T08:55:39.000Z</time>
      </trkpt>
      <trkpt lat="47.27233" lon="-2.26167">
        <ele>14.800000190735</ele>
        <time>2022-04-17T08:55:40.000Z</time>
      </trkpt>
      <trkpt lat="47.27238" lon="-2.26163">
        <ele>14.39999961853</ele>
        <time>2022-04-17T08:55:41.000Z</time>
      </trkpt>
      <trkpt lat="47.27244" lon="-2.2616">
        <ele>14</ele>
        <time>2022-04-17T08:55:42.000Z</time>
      </trkpt>
      <trkpt lat="47.27268" lon="-2.26149">
        <ele>14</ele>
        <time>2022-04-17T08:55:46.000Z</time>
      </trkpt>
      <trkpt lat="47.27304" lon="-2.26135">
        <ele>14</ele>
        <time>2022-04-17T08:55:52.000Z</time>
      </trkpt>
      <trkpt lat="47.27341" lon="-2.26122">
        <ele>14</ele>
        <time>2022-04-17T08:55:59.000Z</time>
      </trkpt>
      <trkpt lat="47.27343" lon="-2.26109">
        <ele>14</ele>
        <time>2022-04-17T08:56:01.000Z</time>
      </trkpt>
      <trkpt lat="47.27335" lon="-2.26088">
        <ele>14</ele>
        <time>2022-04-17T08:56:04.000Z</time>
      </trkpt>
      <trkpt lat="47.2731" lon="-2.26036">
        <ele>14</ele>
        <time>2022-04-17T08:56:11.000Z</time>
      </trkpt>
      <trkpt lat="47.27291" lon="-2.26">
        <ele>14</ele>
        <time>2022-04-17T08:56:17.000Z</time>
      </trkpt>
      <trkpt lat="47.27291" lon="-2.25996">
        <ele>13.39999961853</ele>
        <time>2022-04-17T08:56:18.000Z</time>
      </trkpt>
      <trkpt lat="47.27292" lon="-2.25992">
        <ele>13</ele>
        <time>2022-04-17T08:56:19.000Z</time>
      </trkpt>
      <trkpt lat="47.27294" lon="-2.25989">
        <ele>12.60000038147</ele>
        <time>2022-04-17T08:56:20.000Z</time>
      </trkpt>
      <trkpt lat="47.27297" lon="-2.25986">
        <ele>11.800000190735</ele>
        <time>2022-04-17T08:56:21.000Z</time>
      </trkpt>
      <trkpt lat="47.27304" lon="-2.25981">
        <ele>11.800000190735</ele>
        <time>2022-04-17T08:56:23.000Z</time>
      </trkpt>
      <trkpt lat="47.27312" lon="-2.25976">
        <ele>11.800000190735</ele>
        <time>2022-04-17T08:56:25.000Z</time>
      </trkpt>
      <trkpt lat="47.27337" lon="-2.25963">
        <ele>11.800000190735</ele>
        <time>2022-04-17T08:56:30.000Z</time>
      </trkpt>
      <trkpt lat="47.27353" lon="-2.25955">
        <ele>11.800000190735</ele>
        <time>2022-04-17T08:56:33.000Z</time>
      </trkpt>
      <trkpt lat="47.27368" lon="-2.25939">
        <ele>11.800000190735</ele>
        <time>2022-04-17T08:56:36.000Z</time>
      </trkpt>
      <trkpt lat="47.2738" lon="-2.2592">
        <ele>11.800000190735</ele>
        <time>2022-04-17T08:56:39.000Z</time>
      </trkpt>
      <trkpt lat="47.27385" lon="-2.25914">
        <ele>11.800000190735</ele>
        <time>2022-04-17T08:56:40.000Z</time>
      </trkpt>
      <trkpt lat="47.27391" lon="-2.25908">
        <ele>11.800000190735</ele>
        <time>2022-04-17T08:56:41.000Z</time>
      </trkpt>
      <trkpt lat="47.27401" lon="-2.25896">
        <ele>11.800000190735</ele>
        <time>2022-04-17T08:56:43.000Z</time>
      </trkpt>
      <trkpt lat="47.27419" lon="-2.2586">
        <ele>11.800000190735</ele>
        <time>2022-04-17T08:56:48.000Z</time>
      </trkpt>
      <trkpt lat="47.27439" lon="-2.25826">
        <ele>11.800000190735</ele>
        <time>2022-04-17T08:56:53.000Z</time>
      </trkpt>
      <trkpt lat="47.27447" lon="-2.25812">
        <ele>11.800000190735</ele>
        <time>2022-04-17T08:56:55.000Z</time>
      </trkpt>
      <trkpt lat="47.27461" lon="-2.25799">
        <ele>11.800000190735</ele>
        <time>2022-04-17T08:56:58.000Z</time>
      </trkpt>
      <trkpt lat="47.27474" lon="-2.25788">
        <ele>11.800000190735</ele>
        <time>2022-04-17T08:57:01.000Z</time>
      </trkpt>
      <trkpt lat="47.27478" lon="-2.25784">
        <ele>11.800000190735</ele>
        <time>2022-04-17T08:57:02.000Z</time>
      </trkpt>
      <trkpt lat="47.27491" lon="-2.25771">
        <ele>11.800000190735</ele>
        <time>2022-04-17T08:57:05.000Z</time>
      </trkpt>
      <trkpt lat="47.27503" lon="-2.25756">
        <ele>11.800000190735</ele>
        <time>2022-04-17T08:57:08.000Z</time>
      </trkpt>
      <trkpt lat="47.27507" lon="-2.25752">
        <ele>11.800000190735</ele>
        <time>2022-04-17T08:57:09.000Z</time>
      </trkpt>
      <trkpt lat="47.27518" lon="-2.25738">
        <ele>11.800000190735</ele>
        <time>2022-04-17T08:57:12.000Z</time>
      </trkpt>
      <trkpt lat="47.27521" lon="-2.25734">
        <ele>11.800000190735</ele>
        <time>2022-04-17T08:57:13.000Z</time>
      </trkpt>
      <trkpt lat="47.2753" lon="-2.2572">
        <ele>11.800000190735</ele>
        <time>2022-04-17T08:57:16.000Z</time>
      </trkpt>
      <trkpt lat="47.27535" lon="-2.25708">
        <ele>11.800000190735</ele>
        <time>2022-04-17T08:57:18.000Z</time>
      </trkpt>
      <trkpt lat="47.2754" lon="-2.25696">
        <ele>11.39999961853</ele>
        <time>2022-04-17T08:57:20.000Z</time>
      </trkpt>
      <trkpt lat="47.27543" lon="-2.2569">
        <ele>11</ele>
        <time>2022-04-17T08:57:21.000Z</time>
      </trkpt>
      <trkpt lat="47.27546" lon="-2.25684">
        <ele>10.39999961853</ele>
        <time>2022-04-17T08:57:22.000Z</time>
      </trkpt>
      <trkpt lat="47.27549" lon="-2.25678">
        <ele>10</ele>
        <time>2022-04-17T08:57:23.000Z</time>
      </trkpt>
      <trkpt lat="47.27552" lon="-2.25672">
        <ele>9.6000003814697</ele>
        <time>2022-04-17T08:57:24.000Z</time>
      </trkpt>
      <trkpt lat="47.27555" lon="-2.25667">
        <ele>9.6000003814697</ele>
        <time>2022-04-17T08:57:25.000Z</time>
      </trkpt>
      <trkpt lat="47.2756" lon="-2.25658">
        <ele>9.6000003814697</ele>
        <time>2022-04-17T08:57:28.000Z</time>
      </trkpt>
      <trkpt lat="47.27561" lon="-2.25655">
        <ele>9.6000003814697</ele>
        <time>2022-04-17T08:57:29.000Z</time>
      </trkpt>
      <trkpt lat="47.2756" lon="-2.25645">
        <ele>9.6000003814697</ele>
        <time>2022-04-17T08:57:32.000Z</time>
      </trkpt>
      <trkpt lat="47.27561" lon="-2.2564">
        <ele>9.6000003814697</ele>
        <time>2022-04-17T08:57:33.000Z</time>
      </trkpt>
      <trkpt lat="47.27563" lon="-2.25613">
        <ele>9.6000003814697</ele>
        <time>2022-04-17T08:57:38.000Z</time>
      </trkpt>
      <trkpt lat="47.27563" lon="-2.25599">
        <ele>9.1999998092651</ele>
        <time>2022-04-17T08:57:40.000Z</time>
      </trkpt>
      <trkpt lat="47.27562" lon="-2.25592">
        <ele>8.8000001907349</ele>
        <time>2022-04-17T08:57:41.000Z</time>
      </trkpt>
      <trkpt lat="47.27561" lon="-2.25584">
        <ele>8.3999996185303</ele>
        <time>2022-04-17T08:57:42.000Z</time>
      </trkpt>
      <trkpt lat="47.27559" lon="-2.25576">
        <ele>8</ele>
        <time>2022-04-17T08:57:43.000Z</time>
      </trkpt>
      <trkpt lat="47.27558" lon="-2.25568">
        <ele>7.5999999046326</ele>
        <time>2022-04-17T08:57:44.000Z</time>
      </trkpt>
      <trkpt lat="47.27552" lon="-2.25545">
        <ele>7.5999999046326</ele>
        <time>2022-04-17T08:57:47.000Z</time>
      </trkpt>
      <trkpt lat="47.2755" lon="-2.25538">
        <ele>7.5999999046326</ele>
        <time>2022-04-17T08:57:48.000Z</time>
      </trkpt>
      <trkpt lat="47.27538" lon="-2.255">
        <ele>7.5999999046326</ele>
        <time>2022-04-17T08:57:54.000Z</time>
      </trkpt>
      <trkpt lat="47.27532" lon="-2.25488">
        <ele>7.5999999046326</ele>
        <time>2022-04-17T08:57:56.000Z</time>
      </trkpt>
      <trkpt lat="47.27519" lon="-2.25473">
        <ele>7.5999999046326</ele>
        <time>2022-04-17T08:57:59.000Z</time>
      </trkpt>
      <trkpt lat="47.27502" lon="-2.25456">
        <ele>7.5999999046326</ele>
        <time>2022-04-17T08:58:03.000Z</time>
      </trkpt>
      <trkpt lat="47.27494" lon="-2.25454">
        <ele>7.5999999046326</ele>
        <time>2022-04-17T08:58:05.000Z</time>
      </trkpt>
      <trkpt lat="47.27485" lon="-2.25454">
        <ele>7.5999999046326</ele>
        <time>2022-04-17T08:58:07.000Z</time>
      </trkpt>
      <trkpt lat="47.27466" lon="-2.25453">
        <ele>7.5999999046326</ele>
        <time>2022-04-17T08:58:11.000Z</time>
      </trkpt>
      <trkpt lat="47.27455" lon="-2.2545">
        <ele>7.5999999046326</ele>
        <time>2022-04-17T08:58:13.000Z</time>
      </trkpt>
      <trkpt lat="47.27441" lon="-2.25439">
        <ele>7.5999999046326</ele>
        <time>2022-04-17T08:58:16.000Z</time>
      </trkpt>
      <trkpt lat="47.27433" lon="-2.25429">
        <ele>7.5999999046326</ele>
        <time>2022-04-17T08:58:18.000Z</time>
      </trkpt>
      <trkpt lat="47.27429" lon="-2.25425">
        <ele>7.5999999046326</ele>
        <time>2022-04-17T08:58:19.000Z</time>
      </trkpt>
      <trkpt lat="47.27422" lon="-2.25417">
        <ele>7.5999999046326</ele>
        <time>2022-04-17T08:58:21.000Z</time>
      </trkpt>
      <trkpt lat="47.27418" lon="-2.25408">
        <ele>7.5999999046326</ele>
        <time>2022-04-17T08:58:23.000Z</time>
      </trkpt>
      <trkpt lat="47.27416" lon="-2.25404">
        <ele>7.5999999046326</ele>
        <time>2022-04-17T08:58:24.000Z</time>
      </trkpt>
      <trkpt lat="47.27405" lon="-2.25387">
        <ele>7.5999999046326</ele>
        <time>2022-04-17T08:58:29.000Z</time>
      </trkpt>
      <trkpt lat="47.27404" lon="-2.25368">
        <ele>7.5999999046326</ele>
        <time>2022-04-17T08:58:33.000Z</time>
      </trkpt>
      <trkpt lat="47.27405" lon="-2.2534">
        <ele>7.5999999046326</ele>
        <time>2022-04-17T08:58:37.000Z</time>
      </trkpt>
      <trkpt lat="47.27402" lon="-2.25329">
        <ele>7.5999999046326</ele>
        <time>2022-04-17T08:58:39.000Z</time>
      </trkpt>
      <trkpt lat="47.27401" lon="-2.25317">
        <ele>7.5999999046326</ele>
        <time>2022-04-17T08:58:41.000Z</time>
      </trkpt>
      <trkpt lat="47.27404" lon="-2.25289">
        <ele>7.5999999046326</ele>
        <time>2022-04-17T08:58:45.000Z</time>
      </trkpt>
      <trkpt lat="47.27404" lon="-2.25275">
        <ele>7.5999999046326</ele>
        <time>2022-04-17T08:58:47.000Z</time>
      </trkpt>
      <trkpt lat="47.27397" lon="-2.25252">
        <ele>7.5999999046326</ele>
        <time>2022-04-17T08:58:50.000Z</time>
      </trkpt>
      <trkpt lat="47.27392" lon="-2.25227">
        <ele>7.5999999046326</ele>
        <time>2022-04-17T08:58:54.000Z</time>
      </trkpt>
      <trkpt lat="47.2739" lon="-2.25216">
        <ele>7.5999999046326</ele>
        <time>2022-04-17T08:58:56.000Z</time>
      </trkpt>
      <trkpt lat="47.27391" lon="-2.25207">
        <ele>7.5999999046326</ele>
        <time>2022-04-17T08:58:59.000Z</time>
      </trkpt>
      <trkpt lat="47.27391" lon="-2.252">
        <ele>7.5999999046326</ele>
        <time>2022-04-17T08:59:01.000Z</time>
      </trkpt>
      <trkpt lat="47.27391" lon="-2.25186">
        <ele>7.5999999046326</ele>
        <time>2022-04-17T08:59:05.000Z</time>
      </trkpt>
      <trkpt lat="47.27384" lon="-2.25163">
        <ele>7.5999999046326</ele>
        <time>2022-04-17T08:59:12.000Z</time>
      </trkpt>
      <trkpt lat="47.27373" lon="-2.25137">
        <ele>7.5999999046326</ele>
        <time>2022-04-17T08:59:17.000Z</time>
      </trkpt>
      <trkpt lat="47.27356" lon="-2.25097">
        <ele>7.5999999046326</ele>
        <time>2022-04-17T08:59:22.000Z</time>
      </trkpt>
      <trkpt lat="47.27347" lon="-2.25059">
        <ele>7.5999999046326</ele>
        <time>2022-04-17T08:59:27.000Z</time>
      </trkpt>
      <trkpt lat="47.27346" lon="-2.25052">
        <ele>7.5999999046326</ele>
        <time>2022-04-17T08:59:28.000Z</time>
      </trkpt>
      <trkpt lat="47.27349" lon="-2.25031">
        <ele>7.5999999046326</ele>
        <time>2022-04-17T08:59:32.000Z</time>
      </trkpt>
      <trkpt lat="47.2735" lon="-2.25027">
        <ele>7.5999999046326</ele>
        <time>2022-04-17T08:59:33.000Z</time>
      </trkpt>
      <trkpt lat="47.27358" lon="-2.25007">
        <ele>7.5999999046326</ele>
        <time>2022-04-17T08:59:37.000Z</time>
      </trkpt>
      <trkpt lat="47.27361" lon="-2.25001">
        <ele>7.5999999046326</ele>
        <time>2022-04-17T08:59:38.000Z</time>
      </trkpt>
      <trkpt lat="47.27371" lon="-2.24987">
        <ele>7.5999999046326</ele>
        <time>2022-04-17T08:59:41.000Z</time>
      </trkpt>
      <trkpt lat="47.27379" lon="-2.24977">
        <ele>7.5999999046326</ele>
        <time>2022-04-17T08:59:43.000Z</time>
      </trkpt>
      <trkpt lat="47.27386" lon="-2.2497">
        <ele>7.5999999046326</ele>
        <time>2022-04-17T08:59:45.000Z</time>
      </trkpt>
      <trkpt lat="47.27395" lon="-2.24967">
        <ele>7.5999999046326</ele>
        <time>2022-04-17T08:59:47.000Z</time>
      </trkpt>
      <trkpt lat="47.27413" lon="-2.24957">
        <ele>7.5999999046326</ele>
        <time>2022-04-17T08:59:51.000Z</time>
      </trkpt>
      <trkpt lat="47.27416" lon="-2.24952">
        <ele>7.5999999046326</ele>
        <time>2022-04-17T08:59:52.000Z</time>
      </trkpt>
      <trkpt lat="47.27423" lon="-2.24936">
        <ele>7.5999999046326</ele>
        <time>2022-04-17T08:59:55.000Z</time>
      </trkpt>
      <trkpt lat="47.27423" lon="-2.2493">
        <ele>7.5999999046326</ele>
        <time>2022-04-17T08:59:56.000Z</time>
      </trkpt>
      <trkpt lat="47.27418" lon="-2.24912">
        <ele>7.5999999046326</ele>
        <time>2022-04-17T08:59:59.000Z</time>
      </trkpt>
      <trkpt lat="47.27416" lon="-2.24906">
        <ele>7.5999999046326</ele>
        <time>2022-04-17T09:00:00.000Z</time>
      </trkpt>
      <trkpt lat="47.27409" lon="-2.24886">
        <ele>7.5999999046326</ele>
        <time>2022-04-17T09:00:04.000Z</time>
      </trkpt>
      <trkpt lat="47.27408" lon="-2.24882">
        <ele>7.5999999046326</ele>
        <time>2022-04-17T09:00:05.000Z</time>
      </trkpt>
      <trkpt lat="47.27411" lon="-2.24874">
        <ele>7.5999999046326</ele>
        <time>2022-04-17T09:00:07.000Z</time>
      </trkpt>
      <trkpt lat="47.27429" lon="-2.24818">
        <ele>7.5999999046326</ele>
        <time>2022-04-17T09:00:16.000Z</time>
      </trkpt>
      <trkpt lat="47.27438" lon="-2.24798">
        <ele>7.5999999046326</ele>
        <time>2022-04-17T09:00:19.000Z</time>
      </trkpt>
      <trkpt lat="47.27446" lon="-2.24792">
        <ele>7.5999999046326</ele>
        <time>2022-04-17T09:00:21.000Z</time>
      </trkpt>
      <trkpt lat="47.27454" lon="-2.24786">
        <ele>8</ele>
        <time>2022-04-17T09:00:23.000Z</time>
      </trkpt>
      <trkpt lat="47.27457" lon="-2.24785">
        <ele>8.3999996185303</ele>
        <time>2022-04-17T09:00:24.000Z</time>
      </trkpt>
      <trkpt lat="47.27461" lon="-2.24785">
        <ele>9</ele>
        <time>2022-04-17T09:00:25.000Z</time>
      </trkpt>
      <trkpt lat="47.27464" lon="-2.24785">
        <ele>9.3999996185303</ele>
        <time>2022-04-17T09:00:26.000Z</time>
      </trkpt>
      <trkpt lat="47.27468" lon="-2.24785">
        <ele>9.8000001907349</ele>
        <time>2022-04-17T09:00:27.000Z</time>
      </trkpt>
      <trkpt lat="47.27471" lon="-2.24786">
        <ele>10.60000038147</ele>
        <time>2022-04-17T09:00:28.000Z</time>
      </trkpt>
      <trkpt lat="47.27475" lon="-2.24787">
        <ele>11</ele>
        <time>2022-04-17T09:00:29.000Z</time>
      </trkpt>
      <trkpt lat="47.27478" lon="-2.24787">
        <ele>11.39999961853</ele>
        <time>2022-04-17T09:00:30.000Z</time>
      </trkpt>
      <trkpt lat="47.27482" lon="-2.24787">
        <ele>11.800000190735</ele>
        <time>2022-04-17T09:00:31.000Z</time>
      </trkpt>
      <trkpt lat="47.27496" lon="-2.24789">
        <ele>12.199999809265</ele>
        <time>2022-04-17T09:00:35.000Z</time>
      </trkpt>
      <trkpt lat="47.27499" lon="-2.2479">
        <ele>12.800000190735</ele>
        <time>2022-04-17T09:00:36.000Z</time>
      </trkpt>
      <trkpt lat="47.27503" lon="-2.2479">
        <ele>13.199999809265</ele>
        <time>2022-04-17T09:00:37.000Z</time>
      </trkpt>
      <trkpt lat="47.27507" lon="-2.2479">
        <ele>13.60000038147</ele>
        <time>2022-04-17T09:00:38.000Z</time>
      </trkpt>
      <trkpt lat="47.27511" lon="-2.2479">
        <ele>14</ele>
        <time>2022-04-17T09:00:39.000Z</time>
      </trkpt>
      <trkpt lat="47.27527" lon="-2.24789">
        <ele>14</ele>
        <time>2022-04-17T09:00:43.000Z</time>
      </trkpt>
      <trkpt lat="47.27551" lon="-2.24789">
        <ele>14</ele>
        <time>2022-04-17T09:00:50.000Z</time>
      </trkpt>
      <trkpt lat="47.27578" lon="-2.24792">
        <ele>14</ele>
        <time>2022-04-17T09:00:56.000Z</time>
      </trkpt>
      <trkpt lat="47.27593" lon="-2.24795">
        <ele>14</ele>
        <time>2022-04-17T09:00:59.000Z</time>
      </trkpt>
      <trkpt lat="47.27601" lon="-2.24794">
        <ele>14</ele>
        <time>2022-04-17T09:01:01.000Z</time>
      </trkpt>
      <trkpt lat="47.27605" lon="-2.24794">
        <ele>14.39999961853</ele>
        <time>2022-04-17T09:01:02.000Z</time>
      </trkpt>
      <trkpt lat="47.2761" lon="-2.24793">
        <ele>14.800000190735</ele>
        <time>2022-04-17T09:01:03.000Z</time>
      </trkpt>
      <trkpt lat="47.27615" lon="-2.24793">
        <ele>15.199999809265</ele>
        <time>2022-04-17T09:01:04.000Z</time>
      </trkpt>
      <trkpt lat="47.2762" lon="-2.24792">
        <ele>15.60000038147</ele>
        <time>2022-04-17T09:01:05.000Z</time>
      </trkpt>
      <trkpt lat="47.27625" lon="-2.24793">
        <ele>16.200000762939</ele>
        <time>2022-04-17T09:01:06.000Z</time>
      </trkpt>
      <trkpt lat="47.2763" lon="-2.24793">
        <ele>16.200000762939</ele>
        <time>2022-04-17T09:01:07.000Z</time>
      </trkpt>
      <trkpt lat="47.27636" lon="-2.24793">
        <ele>16.200000762939</ele>
        <time>2022-04-17T09:01:08.000Z</time>
      </trkpt>
      <trkpt lat="47.27651" lon="-2.24802">
        <ele>16.200000762939</ele>
        <time>2022-04-17T09:01:11.000Z</time>
      </trkpt>
      <trkpt lat="47.27678" lon="-2.24807">
        <ele>16.200000762939</ele>
        <time>2022-04-17T09:01:15.000Z</time>
      </trkpt>
      <trkpt lat="47.27722" lon="-2.24805">
        <ele>16.200000762939</ele>
        <time>2022-04-17T09:01:22.000Z</time>
      </trkpt>
      <trkpt lat="47.27766" lon="-2.24803">
        <ele>16.200000762939</ele>
        <time>2022-04-17T09:01:30.000Z</time>
      </trkpt>
      <trkpt lat="47.278" lon="-2.24802">
        <ele>16.200000762939</ele>
        <time>2022-04-17T09:01:37.000Z</time>
      </trkpt>
      <trkpt lat="47.27841" lon="-2.24797">
        <ele>16.200000762939</ele>
        <time>2022-04-17T09:01:45.000Z</time>
      </trkpt>
      <trkpt lat="47.27845" lon="-2.24794">
        <ele>16.200000762939</ele>
        <time>2022-04-17T09:01:46.000Z</time>
      </trkpt>
      <trkpt lat="47.27855" lon="-2.24783">
        <ele>16.200000762939</ele>
        <time>2022-04-17T09:01:49.000Z</time>
      </trkpt>
      <trkpt lat="47.2786" lon="-2.24773">
        <ele>16.200000762939</ele>
        <time>2022-04-17T09:01:52.000Z</time>
      </trkpt>
      <trkpt lat="47.27863" lon="-2.24773">
        <ele>16.200000762939</ele>
        <time>2022-04-17T09:01:53.000Z</time>
      </trkpt>
      <trkpt lat="47.27872" lon="-2.24782">
        <ele>16.200000762939</ele>
        <time>2022-04-17T09:01:57.000Z</time>
      </trkpt>
      <trkpt lat="47.2788" lon="-2.24786">
        <ele>16.200000762939</ele>
        <time>2022-04-17T09:02:01.000Z</time>
      </trkpt>
      <trkpt lat="47.27883" lon="-2.24785">
        <ele>16.200000762939</ele>
        <time>2022-04-17T09:02:03.000Z</time>
      </trkpt>
      <trkpt lat="47.27889" lon="-2.24786">
        <ele>16.60000038147</ele>
        <time>2022-04-17T09:02:06.000Z</time>
      </trkpt>
      <trkpt lat="47.27891" lon="-2.24786">
        <ele>17</ele>
        <time>2022-04-17T09:02:07.000Z</time>
      </trkpt>
      <trkpt lat="47.27893" lon="-2.24786">
        <ele>17.799999237061</ele>
        <time>2022-04-17T09:02:08.000Z</time>
      </trkpt>
      <trkpt lat="47.27895" lon="-2.24785">
        <ele>18.200000762939</ele>
        <time>2022-04-17T09:02:09.000Z</time>
      </trkpt>
      <trkpt lat="47.27896" lon="-2.24786">
        <ele>18.200000762939</ele>
        <time>2022-04-17T09:02:10.000Z</time>
      </trkpt>
      <trkpt lat="47.27898" lon="-2.24787">
        <ele>18.200000762939</ele>
        <time>2022-04-17T09:02:11.000Z</time>
      </trkpt>
      <trkpt lat="47.27897" lon="-2.2479">
        <ele>18.200000762939</ele>
        <time>2022-04-17T09:02:13.000Z</time>
      </trkpt>
      <trkpt lat="47.27896" lon="-2.24794">
        <ele>18.200000762939</ele>
        <time>2022-04-17T09:02:15.000Z</time>
      </trkpt>
      <trkpt lat="47.27903" lon="-2.24804">
        <ele>18.200000762939</ele>
        <time>2022-04-17T09:02:20.000Z</time>
      </trkpt>
      <trkpt lat="47.27907" lon="-2.24806">
        <ele>18.200000762939</ele>
        <time>2022-04-17T09:02:21.000Z</time>
      </trkpt>
      <trkpt lat="47.27915" lon="-2.2481">
        <ele>18.200000762939</ele>
        <time>2022-04-17T09:02:23.000Z</time>
      </trkpt>
      <trkpt lat="47.27923" lon="-2.24816">
        <ele>18.200000762939</ele>
        <time>2022-04-17T09:02:25.000Z</time>
      </trkpt>
      <trkpt lat="47.2794" lon="-2.24822">
        <ele>18.200000762939</ele>
        <time>2022-04-17T09:02:29.000Z</time>
      </trkpt>
      <trkpt lat="47.27944" lon="-2.24824">
        <ele>18.200000762939</ele>
        <time>2022-04-17T09:02:30.000Z</time>
      </trkpt>
      <trkpt lat="47.27956" lon="-2.24824">
        <ele>18.200000762939</ele>
        <time>2022-04-17T09:02:33.000Z</time>
      </trkpt>
      <trkpt lat="47.27966" lon="-2.24826">
        <ele>18.200000762939</ele>
        <time>2022-04-17T09:02:35.000Z</time>
      </trkpt>
      <trkpt lat="47.27971" lon="-2.24828">
        <ele>18.200000762939</ele>
        <time>2022-04-17T09:02:36.000Z</time>
      </trkpt>
      <trkpt lat="47.27979" lon="-2.24831">
        <ele>18.200000762939</ele>
        <time>2022-04-17T09:02:38.000Z</time>
      </trkpt>
      <trkpt lat="47.27984" lon="-2.24832">
        <ele>18.200000762939</ele>
        <time>2022-04-17T09:02:39.000Z</time>
      </trkpt>
      <trkpt lat="47.28018" lon="-2.24837">
        <ele>18.200000762939</ele>
        <time>2022-04-17T09:02:46.000Z</time>
      </trkpt>
      <trkpt lat="47.28033" lon="-2.24841">
        <ele>18.200000762939</ele>
        <time>2022-04-17T09:02:49.000Z</time>
      </trkpt>
      <trkpt lat="47.28044" lon="-2.24843">
        <ele>18.200000762939</ele>
        <time>2022-04-17T09:02:51.000Z</time>
      </trkpt>
      <trkpt lat="47.28054" lon="-2.24844">
        <ele>18.200000762939</ele>
        <time>2022-04-17T09:02:53.000Z</time>
      </trkpt>
      <trkpt lat="47.28064" lon="-2.24848">
        <ele>18.200000762939</ele>
        <time>2022-04-17T09:02:55.000Z</time>
      </trkpt>
      <trkpt lat="47.2808" lon="-2.24846">
        <ele>18.200000762939</ele>
        <time>2022-04-17T09:02:58.000Z</time>
      </trkpt>
      <trkpt lat="47.28085" lon="-2.24845">
        <ele>18.200000762939</ele>
        <time>2022-04-17T09:02:59.000Z</time>
      </trkpt>
      <trkpt lat="47.28106" lon="-2.24852">
        <ele>18.200000762939</ele>
        <time>2022-04-17T09:03:03.000Z</time>
      </trkpt>
      <trkpt lat="47.28119" lon="-2.24855">
        <ele>18.200000762939</ele>
        <time>2022-04-17T09:03:05.000Z</time>
      </trkpt>
      <trkpt lat="47.28132" lon="-2.24858">
        <ele>18.200000762939</ele>
        <time>2022-04-17T09:03:07.000Z</time>
      </trkpt>
      <trkpt lat="47.28139" lon="-2.24858">
        <ele>17.60000038147</ele>
        <time>2022-04-17T09:03:08.000Z</time>
      </trkpt>
      <trkpt lat="47.28145" lon="-2.24858">
        <ele>17.200000762939</ele>
        <time>2022-04-17T09:03:09.000Z</time>
      </trkpt>
      <trkpt lat="47.2815" lon="-2.24857">
        <ele>16.60000038147</ele>
        <time>2022-04-17T09:03:10.000Z</time>
      </trkpt>
      <trkpt lat="47.28155" lon="-2.24856">
        <ele>16.200000762939</ele>
        <time>2022-04-17T09:03:11.000Z</time>
      </trkpt>
      <trkpt lat="47.28158" lon="-2.24853">
        <ele>15.60000038147</ele>
        <time>2022-04-17T09:03:12.000Z</time>
      </trkpt>
      <trkpt lat="47.28161" lon="-2.24849">
        <ele>15.199999809265</ele>
        <time>2022-04-17T09:03:13.000Z</time>
      </trkpt>
      <trkpt lat="47.28164" lon="-2.24844">
        <ele>14.60000038147</ele>
        <time>2022-04-17T09:03:14.000Z</time>
      </trkpt>
      <trkpt lat="47.28167" lon="-2.24838">
        <ele>14</ele>
        <time>2022-04-17T09:03:15.000Z</time>
      </trkpt>
      <trkpt lat="47.2817" lon="-2.24831">
        <ele>13.60000038147</ele>
        <time>2022-04-17T09:03:16.000Z</time>
      </trkpt>
      <trkpt lat="47.28172" lon="-2.24819">
        <ele>13.60000038147</ele>
        <time>2022-04-17T09:03:18.000Z</time>
      </trkpt>
      <trkpt lat="47.28178" lon="-2.24811">
        <ele>13.60000038147</ele>
        <time>2022-04-17T09:03:21.000Z</time>
      </trkpt>
      <trkpt lat="47.28182" lon="-2.24811">
        <ele>13.199999809265</ele>
        <time>2022-04-17T09:03:22.000Z</time>
      </trkpt>
      <trkpt lat="47.28187" lon="-2.24812">
        <ele>12.60000038147</ele>
        <time>2022-04-17T09:03:23.000Z</time>
      </trkpt>
      <trkpt lat="47.28193" lon="-2.24812">
        <ele>12.199999809265</ele>
        <time>2022-04-17T09:03:24.000Z</time>
      </trkpt>
      <trkpt lat="47.282" lon="-2.24814">
        <ele>11.800000190735</ele>
        <time>2022-04-17T09:03:25.000Z</time>
      </trkpt>
      <trkpt lat="47.28207" lon="-2.24815">
        <ele>11.199999809265</ele>
        <time>2022-04-17T09:03:26.000Z</time>
      </trkpt>
      <trkpt lat="47.28214" lon="-2.24817">
        <ele>10.60000038147</ele>
        <time>2022-04-17T09:03:27.000Z</time>
      </trkpt>
      <trkpt lat="47.28221" lon="-2.24818">
        <ele>9.8000001907349</ele>
        <time>2022-04-17T09:03:28.000Z</time>
      </trkpt>
      <trkpt lat="47.28226" lon="-2.24819">
        <ele>9</ele>
        <time>2022-04-17T09:03:29.000Z</time>
      </trkpt>
      <trkpt lat="47.28231" lon="-2.2482">
        <ele>8</ele>
        <time>2022-04-17T09:03:30.000Z</time>
      </trkpt>
      <trkpt lat="47.28236" lon="-2.24819">
        <ele>7.1999998092651</ele>
        <time>2022-04-17T09:03:31.000Z</time>
      </trkpt>
      <trkpt lat="47.28241" lon="-2.24817">
        <ele>6.4000000953674</ele>
        <time>2022-04-17T09:03:32.000Z</time>
      </trkpt>
      <trkpt lat="47.28246" lon="-2.24814">
        <ele>6</ele>
        <time>2022-04-17T09:03:33.000Z</time>
      </trkpt>
      <trkpt lat="47.2825" lon="-2.2481">
        <ele>5.5999999046326</ele>
        <time>2022-04-17T09:03:34.000Z</time>
      </trkpt>
      <trkpt lat="47.28255" lon="-2.24807">
        <ele>5.1999998092651</ele>
        <time>2022-04-17T09:03:35.000Z</time>
      </trkpt>
      <trkpt lat="47.28259" lon="-2.24803">
        <ele>4.8000001907349</ele>
        <time>2022-04-17T09:03:36.000Z</time>
      </trkpt>
      <trkpt lat="47.28264" lon="-2.248">
        <ele>4.1999998092651</ele>
        <time>2022-04-17T09:03:37.000Z</time>
      </trkpt>
      <trkpt lat="47.28269" lon="-2.24796">
        <ele>4.1999998092651</ele>
        <time>2022-04-17T09:03:38.000Z</time>
      </trkpt>
      <trkpt lat="47.28311" lon="-2.2477">
        <ele>3.7999999523163</ele>
        <time>2022-04-17T09:03:45.000Z</time>
      </trkpt>
      <trkpt lat="47.28317" lon="-2.24767">
        <ele>3.4000000953674</ele>
        <time>2022-04-17T09:03:46.000Z</time>
      </trkpt>
      <trkpt lat="47.28322" lon="-2.24763">
        <ele>2.4000000953674</ele>
        <time>2022-04-17T09:03:47.000Z</time>
      </trkpt>
      <trkpt lat="47.28328" lon="-2.2476">
        <ele>2</ele>
        <time>2022-04-17T09:03:48.000Z</time>
      </trkpt>
      <trkpt lat="47.28334" lon="-2.24759">
        <ele>2</ele>
        <time>2022-04-17T09:03:49.000Z</time>
      </trkpt>
      <trkpt lat="47.28347" lon="-2.2476">
        <ele>2</ele>
        <time>2022-04-17T09:03:51.000Z</time>
      </trkpt>
      <trkpt lat="47.28367" lon="-2.24772">
        <ele>1.6000000238419</ele>
        <time>2022-04-17T09:03:55.000Z</time>
      </trkpt>
      <trkpt lat="47.28371" lon="-2.24774">
        <ele>1.2000000476837</ele>
        <time>2022-04-17T09:03:56.000Z</time>
      </trkpt>
      <trkpt lat="47.28375" lon="-2.24775">
        <ele>0.60000002384186</ele>
        <time>2022-04-17T09:03:57.000Z</time>
      </trkpt>
      <trkpt lat="47.28379" lon="-2.24774">
        <ele>0.20000000298023</ele>
        <time>2022-04-17T09:03:58.000Z</time>
      </trkpt>
      <trkpt lat="47.28382" lon="-2.24773">
        <ele>-0.20000000298023</ele>
        <time>2022-04-17T09:03:59.000Z</time>
      </trkpt>
      <trkpt lat="47.28394" lon="-2.24769">
        <ele>-0.20000000298023</ele>
        <time>2022-04-17T09:04:02.000Z</time>
      </trkpt>
      <trkpt lat="47.28402" lon="-2.24764">
        <ele>-0.20000000298023</ele>
        <time>2022-04-17T09:04:04.000Z</time>
      </trkpt>
      <trkpt lat="47.2843" lon="-2.24746">
        <ele>-0.20000000298023</ele>
        <time>2022-04-17T09:04:11.000Z</time>
      </trkpt>
      <trkpt lat="47.28442" lon="-2.24738">
        <ele>-0.20000000298023</ele>
        <time>2022-04-17T09:04:14.000Z</time>
      </trkpt>
      <trkpt lat="47.28455" lon="-2.24727">
        <ele>-0.20000000298023</ele>
        <time>2022-04-17T09:04:17.000Z</time>
      </trkpt>
      <trkpt lat="47.2846" lon="-2.24724">
        <ele>-0.60000002384186</ele>
        <time>2022-04-17T09:04:18.000Z</time>
      </trkpt>
      <trkpt lat="47.28465" lon="-2.2472">
        <ele>-1</ele>
        <time>2022-04-17T09:04:19.000Z</time>
      </trkpt>
      <trkpt lat="47.2847" lon="-2.24717">
        <ele>-1.6000000238419</ele>
        <time>2022-04-17T09:04:20.000Z</time>
      </trkpt>
      <trkpt lat="47.28475" lon="-2.24713">
        <ele>-2</ele>
        <time>2022-04-17T09:04:21.000Z</time>
      </trkpt>
      <trkpt lat="47.2848" lon="-2.24709">
        <ele>-2.4000000953674</ele>
        <time>2022-04-17T09:04:22.000Z</time>
      </trkpt>
      <trkpt lat="47.2849" lon="-2.24702">
        <ele>-2.4000000953674</ele>
        <time>2022-04-17T09:04:24.000Z</time>
      </trkpt>
      <trkpt lat="47.28505" lon="-2.24691">
        <ele>-2.4000000953674</ele>
        <time>2022-04-17T09:04:27.000Z</time>
      </trkpt>
      <trkpt lat="47.28518" lon="-2.2468">
        <ele>-2.4000000953674</ele>
        <time>2022-04-17T09:04:30.000Z</time>
      </trkpt>
      <trkpt lat="47.28546" lon="-2.24659">
        <ele>-2.4000000953674</ele>
        <time>2022-04-17T09:04:36.000Z</time>
      </trkpt>
      <trkpt lat="47.28574" lon="-2.24635">
        <ele>-2.4000000953674</ele>
        <time>2022-04-17T09:04:42.000Z</time>
      </trkpt>
      <trkpt lat="47.28577" lon="-2.24633">
        <ele>-2.4000000953674</ele>
        <time>2022-04-17T09:04:43.000Z</time>
      </trkpt>
      <trkpt lat="47.28586" lon="-2.24622">
        <ele>-2.4000000953674</ele>
        <time>2022-04-17T09:04:47.000Z</time>
      </trkpt>
      <trkpt lat="47.28599" lon="-2.2461">
        <ele>-2.4000000953674</ele>
        <time>2022-04-17T09:04:52.000Z</time>
      </trkpt>
      <trkpt lat="47.28607" lon="-2.24597">
        <ele>-2.4000000953674</ele>
        <time>2022-04-17T09:04:55.000Z</time>
      </trkpt>
      <trkpt lat="47.28609" lon="-2.24592">
        <ele>-2.4000000953674</ele>
        <time>2022-04-17T09:04:56.000Z</time>
      </trkpt>
      <trkpt lat="47.28615" lon="-2.24553">
        <ele>-2.4000000953674</ele>
        <time>2022-04-17T09:05:02.000Z</time>
      </trkpt>
      <trkpt lat="47.28628" lon="-2.24503">
        <ele>-2.4000000953674</ele>
        <time>2022-04-17T09:05:08.000Z</time>
      </trkpt>
      <trkpt lat="47.28643" lon="-2.24451">
        <ele>-2.4000000953674</ele>
        <time>2022-04-17T09:05:14.000Z</time>
      </trkpt>
      <trkpt lat="47.2865" lon="-2.24425">
        <ele>-2.4000000953674</ele>
        <time>2022-04-17T09:05:17.000Z</time>
      </trkpt>
      <trkpt lat="47.28657" lon="-2.24391">
        <ele>-2.4000000953674</ele>
        <time>2022-04-17T09:05:21.000Z</time>
      </trkpt>
      <trkpt lat="47.28673" lon="-2.24329">
        <ele>-2.4000000953674</ele>
        <time>2022-04-17T09:05:28.000Z</time>
      </trkpt>
      <trkpt lat="47.28687" lon="-2.24278">
        <ele>-2.4000000953674</ele>
        <time>2022-04-17T09:05:34.000Z</time>
      </trkpt>
      <trkpt lat="47.2869" lon="-2.24251">
        <ele>-2.4000000953674</ele>
        <time>2022-04-17T09:05:37.000Z</time>
      </trkpt>
      <trkpt lat="47.2869" lon="-2.24242">
        <ele>-2.4000000953674</ele>
        <time>2022-04-17T09:05:38.000Z</time>
      </trkpt>
      <trkpt lat="47.28684" lon="-2.2421">
        <ele>-2.4000000953674</ele>
        <time>2022-04-17T09:05:42.000Z</time>
      </trkpt>
      <trkpt lat="47.28683" lon="-2.24201">
        <ele>-2</ele>
        <time>2022-04-17T09:05:43.000Z</time>
      </trkpt>
      <trkpt lat="47.28683" lon="-2.24191">
        <ele>-1.6000000238419</ele>
        <time>2022-04-17T09:05:44.000Z</time>
      </trkpt>
      <trkpt lat="47.28682" lon="-2.24182">
        <ele>-1.2000000476837</ele>
        <time>2022-04-17T09:05:45.000Z</time>
      </trkpt>
      <trkpt lat="47.28681" lon="-2.24172">
        <ele>-0.80000001192093</ele>
        <time>2022-04-17T09:05:46.000Z</time>
      </trkpt>
      <trkpt lat="47.2868" lon="-2.24163">
        <ele>-0.40000000596046</ele>
        <time>2022-04-17T09:05:47.000Z</time>
      </trkpt>
      <trkpt lat="47.28679" lon="-2.24154">
        <ele>-0.40000000596046</ele>
        <time>2022-04-17T09:05:48.000Z</time>
      </trkpt>
      <trkpt lat="47.28673" lon="-2.24089">
        <ele>-0.40000000596046</ele>
        <time>2022-04-17T09:05:55.000Z</time>
      </trkpt>
      <trkpt lat="47.28669" lon="-2.24048">
        <ele>-0.40000000596046</ele>
        <time>2022-04-17T09:05:59.000Z</time>
      </trkpt>
      <trkpt lat="47.28667" lon="-2.24027">
        <ele>-0.40000000596046</ele>
        <time>2022-04-17T09:06:01.000Z</time>
      </trkpt>
      <trkpt lat="47.28661" lon="-2.23958">
        <ele>-0.40000000596046</ele>
        <time>2022-04-17T09:06:08.000Z</time>
      </trkpt>
      <trkpt lat="47.28653" lon="-2.23893">
        <ele>-0.40000000596046</ele>
        <time>2022-04-17T09:06:15.000Z</time>
      </trkpt>
      <trkpt lat="47.28649" lon="-2.23866">
        <ele>-0.40000000596046</ele>
        <time>2022-04-17T09:06:19.000Z</time>
      </trkpt>
      <trkpt lat="47.28648" lon="-2.23858">
        <ele>-0.40000000596046</ele>
        <time>2022-04-17T09:06:20.000Z</time>
      </trkpt>
      <trkpt lat="47.28642" lon="-2.23816">
        <ele>-0.40000000596046</ele>
        <time>2022-04-17T09:06:25.000Z</time>
      </trkpt>
      <trkpt lat="47.28641" lon="-2.23808">
        <ele>-0.40000000596046</ele>
        <time>2022-04-17T09:06:26.000Z</time>
      </trkpt>
      <trkpt lat="47.28636" lon="-2.23765">
        <ele>-0.40000000596046</ele>
        <time>2022-04-17T09:06:31.000Z</time>
      </trkpt>
      <trkpt lat="47.28633" lon="-2.23739">
        <ele>-0.40000000596046</ele>
        <time>2022-04-17T09:06:34.000Z</time>
      </trkpt>
      <trkpt lat="47.2863" lon="-2.23713">
        <ele>-0.40000000596046</ele>
        <time>2022-04-17T09:06:37.000Z</time>
      </trkpt>
      <trkpt lat="47.28627" lon="-2.23675">
        <ele>-0.40000000596046</ele>
        <time>2022-04-17T09:06:41.000Z</time>
      </trkpt>
      <trkpt lat="47.28626" lon="-2.23657">
        <ele>-0.40000000596046</ele>
        <time>2022-04-17T09:06:43.000Z</time>
      </trkpt>
      <trkpt lat="47.28623" lon="-2.23611">
        <ele>-0.80000001192093</ele>
        <time>2022-04-17T09:06:48.000Z</time>
      </trkpt>
      <trkpt lat="47.28624" lon="-2.23603">
        <ele>-1.2000000476837</ele>
        <time>2022-04-17T09:06:49.000Z</time>
      </trkpt>
      <trkpt lat="47.28625" lon="-2.23596">
        <ele>-1.7999999523163</ele>
        <time>2022-04-17T09:06:50.000Z</time>
      </trkpt>
      <trkpt lat="47.28627" lon="-2.2359">
        <ele>-2.2000000476837</ele>
        <time>2022-04-17T09:06:51.000Z</time>
      </trkpt>
      <trkpt lat="47.28628" lon="-2.23584">
        <ele>-2.5999999046326</ele>
        <time>2022-04-17T09:06:52.000Z</time>
      </trkpt>
      <trkpt lat="47.28628" lon="-2.23577">
        <ele>-2.5999999046326</ele>
        <time>2022-04-17T09:06:54.000Z</time>
      </trkpt>
      <trkpt lat="47.28632" lon="-2.23566">
        <ele>-2.5999999046326</ele>
        <time>2022-04-17T09:06:59.000Z</time>
      </trkpt>
      <trkpt lat="47.28634" lon="-2.23564">
        <ele>-2.5999999046326</ele>
        <time>2022-04-17T09:07:00.000Z</time>
      </trkpt>
      <trkpt lat="47.2864" lon="-2.23563">
        <ele>-2.5999999046326</ele>
        <time>2022-04-17T09:07:03.000Z</time>
      </trkpt>
      <trkpt lat="47.28643" lon="-2.23559">
        <ele>-2.5999999046326</ele>
        <time>2022-04-17T09:07:04.000Z</time>
      </trkpt>
      <trkpt lat="47.28647" lon="-2.23549">
        <ele>-2.5999999046326</ele>
        <time>2022-04-17T09:07:06.000Z</time>
      </trkpt>
      <trkpt lat="47.28649" lon="-2.23526">
        <ele>-2.5999999046326</ele>
        <time>2022-04-17T09:07:10.000Z</time>
      </trkpt>
      <trkpt lat="47.28652" lon="-2.23509">
        <ele>-2.5999999046326</ele>
        <time>2022-04-17T09:07:13.000Z</time>
      </trkpt>
      <trkpt lat="47.28653" lon="-2.23502">
        <ele>-2.5999999046326</ele>
        <time>2022-04-17T09:07:14.000Z</time>
      </trkpt>
      <trkpt lat="47.28654" lon="-2.23468">
        <ele>-2.5999999046326</ele>
        <time>2022-04-17T09:07:19.000Z</time>
      </trkpt>
      <trkpt lat="47.28655" lon="-2.23446">
        <ele>-2.5999999046326</ele>
        <time>2022-04-17T09:07:22.000Z</time>
      </trkpt>
      <trkpt lat="47.28653" lon="-2.23434">
        <ele>-2.5999999046326</ele>
        <time>2022-04-17T09:07:24.000Z</time>
      </trkpt>
      <trkpt lat="47.28645" lon="-2.2341">
        <ele>-2.5999999046326</ele>
        <time>2022-04-17T09:07:27.000Z</time>
      </trkpt>
      <trkpt lat="47.28646" lon="-2.23379">
        <ele>-2.5999999046326</ele>
        <time>2022-04-17T09:07:30.000Z</time>
      </trkpt>
      <trkpt lat="47.28657" lon="-2.23365">
        <ele>-2.5999999046326</ele>
        <time>2022-04-17T09:07:33.000Z</time>
      </trkpt>
      <trkpt lat="47.28666" lon="-2.23366">
        <ele>-2.5999999046326</ele>
        <time>2022-04-17T09:07:36.000Z</time>
      </trkpt>
      <trkpt lat="47.28668" lon="-2.23364">
        <ele>-2.5999999046326</ele>
        <time>2022-04-17T09:07:37.000Z</time>
      </trkpt>
      <trkpt lat="47.28672" lon="-2.23357">
        <ele>-2.5999999046326</ele>
        <time>2022-04-17T09:07:39.000Z</time>
      </trkpt>
      <trkpt lat="47.28671" lon="-2.23347">
        <ele>-2.5999999046326</ele>
        <time>2022-04-17T09:07:41.000Z</time>
      </trkpt>
      <trkpt lat="47.28672" lon="-2.23336">
        <ele>-2.5999999046326</ele>
        <time>2022-04-17T09:07:43.000Z</time>
      </trkpt>
      <trkpt lat="47.28675" lon="-2.23314">
        <ele>-2.5999999046326</ele>
        <time>2022-04-17T09:07:49.000Z</time>
      </trkpt>
      <trkpt lat="47.28677" lon="-2.23304">
        <ele>-2.5999999046326</ele>
        <time>2022-04-17T09:07:55.000Z</time>
      </trkpt>
      <trkpt lat="47.28677" lon="-2.23302">
        <ele>-2.5999999046326</ele>
        <time>2022-04-17T09:07:56.000Z</time>
      </trkpt>
      <trkpt lat="47.28676" lon="-2.23292">
        <ele>-2.5999999046326</ele>
        <time>2022-04-17T09:07:58.000Z</time>
      </trkpt>
      <trkpt lat="47.2868" lon="-2.2328">
        <ele>-2.5999999046326</ele>
        <time>2022-04-17T09:08:01.000Z</time>
      </trkpt>
      <trkpt lat="47.28683" lon="-2.23272">
        <ele>-2.5999999046326</ele>
        <time>2022-04-17T09:08:03.000Z</time>
      </trkpt>
      <trkpt lat="47.28686" lon="-2.23263">
        <ele>-2.5999999046326</ele>
        <time>2022-04-17T09:08:05.000Z</time>
      </trkpt>
      <trkpt lat="47.28689" lon="-2.23261">
        <ele>-2.5999999046326</ele>
        <time>2022-04-17T09:08:06.000Z</time>
      </trkpt>
      <trkpt lat="47.28691" lon="-2.23258">
        <ele>-2.2000000476837</ele>
        <time>2022-04-17T09:08:07.000Z</time>
      </trkpt>
      <trkpt lat="47.28691" lon="-2.23256">
        <ele>-1.6000000238419</ele>
        <time>2022-04-17T09:08:08.000Z</time>
      </trkpt>
      <trkpt lat="47.28691" lon="-2.23253">
        <ele>-1.2000000476837</ele>
        <time>2022-04-17T09:08:09.000Z</time>
      </trkpt>
      <trkpt lat="47.28691" lon="-2.23251">
        <ele>-0.80000001192093</ele>
        <time>2022-04-17T09:08:10.000Z</time>
      </trkpt>
      <trkpt lat="47.28689" lon="-2.23248">
        <ele>-0.40000000596046</ele>
        <time>2022-04-17T09:08:11.000Z</time>
      </trkpt>
      <trkpt lat="47.28685" lon="-2.23236">
        <ele>-0.40000000596046</ele>
        <time>2022-04-17T09:08:14.000Z</time>
      </trkpt>
      <trkpt lat="47.28681" lon="-2.23223">
        <ele>-0.40000000596046</ele>
        <time>2022-04-17T09:08:16.000Z</time>
      </trkpt>
      <trkpt lat="47.28677" lon="-2.23217">
        <ele>-1.2000000476837</ele>
        <time>2022-04-17T09:08:17.000Z</time>
      </trkpt>
      <trkpt lat="47.28672" lon="-2.2321">
        <ele>-1.7999999523163</ele>
        <time>2022-04-17T09:08:18.000Z</time>
      </trkpt>
      <trkpt lat="47.28665" lon="-2.23204">
        <ele>-2.2000000476837</ele>
        <time>2022-04-17T09:08:19.000Z</time>
      </trkpt>
      <trkpt lat="47.28659" lon="-2.23198">
        <ele>-2.5999999046326</ele>
        <time>2022-04-17T09:08:20.000Z</time>
      </trkpt>
      <trkpt lat="47.28647" lon="-2.23193">
        <ele>-2.5999999046326</ele>
        <time>2022-04-17T09:08:22.000Z</time>
      </trkpt>
      <trkpt lat="47.28627" lon="-2.23196">
        <ele>-2.5999999046326</ele>
        <time>2022-04-17T09:08:26.000Z</time>
      </trkpt>
      <trkpt lat="47.28612" lon="-2.23202">
        <ele>-2.5999999046326</ele>
        <time>2022-04-17T09:08:30.000Z</time>
      </trkpt>
      <trkpt lat="47.28603" lon="-2.2321">
        <ele>-2.5999999046326</ele>
        <time>2022-04-17T09:08:35.000Z</time>
      </trkpt>
      <trkpt lat="47.28599" lon="-2.23224">
        <ele>-2.5999999046326</ele>
        <time>2022-04-17T09:08:39.000Z</time>
      </trkpt>
      <trkpt lat="47.28594" lon="-2.23253">
        <ele>-2.5999999046326</ele>
        <time>2022-04-17T09:08:43.000Z</time>
      </trkpt>
      <trkpt lat="47.28593" lon="-2.23261">
        <ele>-2.5999999046326</ele>
        <time>2022-04-17T09:08:44.000Z</time>
      </trkpt>
      <trkpt lat="47.28597" lon="-2.23284">
        <ele>-2.5999999046326</ele>
        <time>2022-04-17T09:08:47.000Z</time>
      </trkpt>
      <trkpt lat="47.286" lon="-2.23292">
        <ele>-2.5999999046326</ele>
        <time>2022-04-17T09:08:48.000Z</time>
      </trkpt>
      <trkpt lat="47.2861" lon="-2.233">
        <ele>-2.5999999046326</ele>
        <time>2022-04-17T09:08:50.000Z</time>
      </trkpt>
      <trkpt lat="47.28635" lon="-2.23303">
        <ele>-2.5999999046326</ele>
        <time>2022-04-17T09:08:54.000Z</time>
      </trkpt>
      <trkpt lat="47.2864" lon="-2.23302">
        <ele>-2.5999999046326</ele>
        <time>2022-04-17T09:08:55.000Z</time>
      </trkpt>
      <trkpt lat="47.28645" lon="-2.233">
        <ele>-2.5999999046326</ele>
        <time>2022-04-17T09:08:56.000Z</time>
      </trkpt>
      <trkpt lat="47.28649" lon="-2.233">
        <ele>-2.5999999046326</ele>
        <time>2022-04-17T09:08:57.000Z</time>
      </trkpt>
      <trkpt lat="47.28664" lon="-2.23305">
        <ele>-2.5999999046326</ele>
        <time>2022-04-17T09:09:00.000Z</time>
      </trkpt>
      <trkpt lat="47.28667" lon="-2.23306">
        <ele>-2.5999999046326</ele>
        <time>2022-04-17T09:09:01.000Z</time>
      </trkpt>
      <trkpt lat="47.28671" lon="-2.23303">
        <ele>-2.5999999046326</ele>
        <time>2022-04-17T09:09:03.000Z</time>
      </trkpt>
      <trkpt lat="47.28671" lon="-2.23301">
        <ele>-2.5999999046326</ele>
        <time>2022-04-17T09:09:04.000Z</time>
      </trkpt>
      <trkpt lat="47.2867" lon="-2.23295">
        <ele>-2.2000000476837</ele>
        <time>2022-04-17T09:09:07.000Z</time>
      </trkpt>
      <trkpt lat="47.28668" lon="-2.23295">
        <ele>-1.3999999761581</ele>
        <time>2022-04-17T09:09:08.000Z</time>
      </trkpt>
      <trkpt lat="47.28667" lon="-2.23296">
        <ele>-1</ele>
        <time>2022-04-17T09:09:09.000Z</time>
      </trkpt>
      <trkpt lat="47.28665" lon="-2.23301">
        <ele>-0.60000002384186</ele>
        <time>2022-04-17T09:09:10.000Z</time>
      </trkpt>
      <trkpt lat="47.28664" lon="-2.2331">
        <ele>-1</ele>
        <time>2022-04-17T09:09:11.000Z</time>
      </trkpt>
      <trkpt lat="47.28663" lon="-2.23319">
        <ele>-1.3999999761581</ele>
        <time>2022-04-17T09:09:12.000Z</time>
      </trkpt>
      <trkpt lat="47.28662" lon="-2.23326">
        <ele>-2</ele>
        <time>2022-04-17T09:09:13.000Z</time>
      </trkpt>
      <trkpt lat="47.28661" lon="-2.2333">
        <ele>-2.4000000953674</ele>
        <time>2022-04-17T09:09:14.000Z</time>
      </trkpt>
      <trkpt lat="47.28659" lon="-2.23332">
        <ele>-2.7999999523163</ele>
        <time>2022-04-17T09:09:15.000Z</time>
      </trkpt>
      <trkpt lat="47.28656" lon="-2.23338">
        <ele>-2.7999999523163</ele>
        <time>2022-04-17T09:09:19.000Z</time>
      </trkpt>
      <trkpt lat="47.28656" lon="-2.23338">
        <ele>-2.7999999523163</ele>
        <time>2022-04-17T09:09:20.000Z</time>
      </trkpt>
      <trkpt lat="47.28659" lon="-2.23341">
        <ele>-2.7999999523163</ele>
        <time>2022-04-17T09:09:43.000Z</time>
      </trkpt>
      <trkpt lat="47.2866" lon="-2.23346">
        <ele>-2.7999999523163</ele>
        <time>2022-04-17T09:09:45.000Z</time>
      </trkpt>
      <trkpt lat="47.28656" lon="-2.23365">
        <ele>-2.7999999523163</ele>
        <time>2022-04-17T09:09:49.000Z</time>
      </trkpt>
      <trkpt lat="47.28655" lon="-2.23371">
        <ele>-2.7999999523163</ele>
        <time>2022-04-17T09:09:50.000Z</time>
      </trkpt>
      <trkpt lat="47.28653" lon="-2.23398">
        <ele>-2.7999999523163</ele>
        <time>2022-04-17T09:09:54.000Z</time>
      </trkpt>
      <trkpt lat="47.28656" lon="-2.23421">
        <ele>-2.7999999523163</ele>
        <time>2022-04-17T09:09:58.000Z</time>
      </trkpt>
      <trkpt lat="47.28658" lon="-2.23426">
        <ele>-2.7999999523163</ele>
        <time>2022-04-17T09:09:59.000Z</time>
      </trkpt>
      <trkpt lat="47.28663" lon="-2.23455">
        <ele>-2.7999999523163</ele>
        <time>2022-04-17T09:10:04.000Z</time>
      </trkpt>
      <trkpt lat="47.28663" lon="-2.23462">
        <ele>-2.7999999523163</ele>
        <time>2022-04-17T09:10:05.000Z</time>
      </trkpt>
      <trkpt lat="47.28661" lon="-2.23492">
        <ele>-2.7999999523163</ele>
        <time>2022-04-17T09:10:09.000Z</time>
      </trkpt>
      <trkpt lat="47.28661" lon="-2.235">
        <ele>-2.7999999523163</ele>
        <time>2022-04-17T09:10:10.000Z</time>
      </trkpt>
      <trkpt lat="47.28658" lon="-2.23536">
        <ele>-2.7999999523163</ele>
        <time>2022-04-17T09:10:14.000Z</time>
      </trkpt>
      <trkpt lat="47.28662" lon="-2.23556">
        <ele>-2.7999999523163</ele>
        <time>2022-04-17T09:10:18.000Z</time>
      </trkpt>
      <trkpt lat="47.28677" lon="-2.23569">
        <ele>-2.7999999523163</ele>
        <time>2022-04-17T09:10:22.000Z</time>
      </trkpt>
      <trkpt lat="47.28688" lon="-2.23586">
        <ele>-2.7999999523163</ele>
        <time>2022-04-17T09:10:25.000Z</time>
      </trkpt>
      <trkpt lat="47.28696" lon="-2.23593">
        <ele>-2.7999999523163</ele>
        <time>2022-04-17T09:10:27.000Z</time>
      </trkpt>
      <trkpt lat="47.28706" lon="-2.23589">
        <ele>-2.7999999523163</ele>
        <time>2022-04-17T09:10:29.000Z</time>
      </trkpt>
      <trkpt lat="47.28722" lon="-2.23573">
        <ele>-2.7999999523163</ele>
        <time>2022-04-17T09:10:33.000Z</time>
      </trkpt>
      <trkpt lat="47.28727" lon="-2.23561">
        <ele>-2.7999999523163</ele>
        <time>2022-04-17T09:10:35.000Z</time>
      </trkpt>
      <trkpt lat="47.28733" lon="-2.2355">
        <ele>-2.7999999523163</ele>
        <time>2022-04-17T09:10:37.000Z</time>
      </trkpt>
      <trkpt lat="47.28736" lon="-2.23546">
        <ele>-2.7999999523163</ele>
        <time>2022-04-17T09:10:38.000Z</time>
      </trkpt>
      <trkpt lat="47.28757" lon="-2.23526">
        <ele>-2.4000000953674</ele>
        <time>2022-04-17T09:10:44.000Z</time>
      </trkpt>
      <trkpt lat="47.2876" lon="-2.23524">
        <ele>-2</ele>
        <time>2022-04-17T09:10:45.000Z</time>
      </trkpt>
      <trkpt lat="47.28764" lon="-2.23521">
        <ele>-1.6000000238419</ele>
        <time>2022-04-17T09:10:46.000Z</time>
      </trkpt>
      <trkpt lat="47.28768" lon="-2.23518">
        <ele>-0.80000001192093</ele>
        <time>2022-04-17T09:10:47.000Z</time>
      </trkpt>
      <trkpt lat="47.28777" lon="-2.23514">
        <ele>-0.80000001192093</ele>
        <time>2022-04-17T09:10:49.000Z</time>
      </trkpt>
      <trkpt lat="47.28782" lon="-2.23513">
        <ele>-0.40000000596046</ele>
        <time>2022-04-17T09:10:50.000Z</time>
      </trkpt>
      <trkpt lat="47.28787" lon="-2.23511">
        <ele>0.20000000298023</ele>
        <time>2022-04-17T09:10:51.000Z</time>
      </trkpt>
      <trkpt lat="47.28792" lon="-2.2351">
        <ele>0.60000002384186</ele>
        <time>2022-04-17T09:10:52.000Z</time>
      </trkpt>
      <trkpt lat="47.28797" lon="-2.2351">
        <ele>1</ele>
        <time>2022-04-17T09:10:53.000Z</time>
      </trkpt>
      <trkpt lat="47.28802" lon="-2.23509">
        <ele>1.3999999761581</ele>
        <time>2022-04-17T09:10:54.000Z</time>
      </trkpt>
      <trkpt lat="47.28817" lon="-2.23509">
        <ele>1.3999999761581</ele>
        <time>2022-04-17T09:10:57.000Z</time>
      </trkpt>
      <trkpt lat="47.28828" lon="-2.23508">
        <ele>1.3999999761581</ele>
        <time>2022-04-17T09:10:59.000Z</time>
      </trkpt>
      <trkpt lat="47.28839" lon="-2.23507">
        <ele>1.7999999523163</ele>
        <time>2022-04-17T09:11:01.000Z</time>
      </trkpt>
      <trkpt lat="47.28845" lon="-2.23507">
        <ele>2.2000000476837</ele>
        <time>2022-04-17T09:11:02.000Z</time>
      </trkpt>
      <trkpt lat="47.2885" lon="-2.23507">
        <ele>2.5999999046326</ele>
        <time>2022-04-17T09:11:03.000Z</time>
      </trkpt>
      <trkpt lat="47.28855" lon="-2.23506">
        <ele>3</ele>
        <time>2022-04-17T09:11:04.000Z</time>
      </trkpt>
      <trkpt lat="47.2886" lon="-2.23506">
        <ele>3.4000000953674</ele>
        <time>2022-04-17T09:11:05.000Z</time>
      </trkpt>
      <trkpt lat="47.28865" lon="-2.23506">
        <ele>3.4000000953674</ele>
        <time>2022-04-17T09:11:06.000Z</time>
      </trkpt>
      <trkpt lat="47.2887" lon="-2.23505">
        <ele>3.4000000953674</ele>
        <time>2022-04-17T09:11:07.000Z</time>
      </trkpt>
      <trkpt lat="47.2889" lon="-2.23505">
        <ele>3.4000000953674</ele>
        <time>2022-04-17T09:11:11.000Z</time>
      </trkpt>
      <trkpt lat="47.289" lon="-2.23504">
        <ele>3.7999999523163</ele>
        <time>2022-04-17T09:11:13.000Z</time>
      </trkpt>
      <trkpt lat="47.28905" lon="-2.23503">
        <ele>4.1999998092651</ele>
        <time>2022-04-17T09:11:14.000Z</time>
      </trkpt>
      <trkpt lat="47.2891" lon="-2.23502">
        <ele>4.5999999046326</ele>
        <time>2022-04-17T09:11:15.000Z</time>
      </trkpt>
      <trkpt lat="47.28915" lon="-2.23501">
        <ele>5</ele>
        <time>2022-04-17T09:11:16.000Z</time>
      </trkpt>
      <trkpt lat="47.28919" lon="-2.235">
        <ele>5.4000000953674</ele>
        <time>2022-04-17T09:11:17.000Z</time>
      </trkpt>
      <trkpt lat="47.28938" lon="-2.23493">
        <ele>5.4000000953674</ele>
        <time>2022-04-17T09:11:21.000Z</time>
      </trkpt>
      <trkpt lat="47.2896" lon="-2.23485">
        <ele>5.4000000953674</ele>
        <time>2022-04-17T09:11:27.000Z</time>
      </trkpt>
      <trkpt lat="47.2896" lon="-2.23468">
        <ele>5.4000000953674</ele>
        <time>2022-04-17T09:11:30.000Z</time>
      </trkpt>
      <trkpt lat="47.2896" lon="-2.23461">
        <ele>5.4000000953674</ele>
        <time>2022-04-17T09:11:31.000Z</time>
      </trkpt>
      <trkpt lat="47.28964" lon="-2.23417">
        <ele>5.4000000953674</ele>
        <time>2022-04-17T09:11:37.000Z</time>
      </trkpt>
      <trkpt lat="47.28965" lon="-2.23402">
        <ele>5.4000000953674</ele>
        <time>2022-04-17T09:11:39.000Z</time>
      </trkpt>
      <trkpt lat="47.28968" lon="-2.2338">
        <ele>5.4000000953674</ele>
        <time>2022-04-17T09:11:42.000Z</time>
      </trkpt>
      <trkpt lat="47.28973" lon="-2.2332">
        <ele>5.4000000953674</ele>
        <time>2022-04-17T09:11:49.000Z</time>
      </trkpt>
      <trkpt lat="47.2898" lon="-2.23236">
        <ele>5.4000000953674</ele>
        <time>2022-04-17T09:11:57.000Z</time>
      </trkpt>
      <trkpt lat="47.28983" lon="-2.23203">
        <ele>5</ele>
        <time>2022-04-17T09:12:00.000Z</time>
      </trkpt>
      <trkpt lat="47.28984" lon="-2.23191">
        <ele>4.1999998092651</ele>
        <time>2022-04-17T09:12:01.000Z</time>
      </trkpt>
      <trkpt lat="47.28986" lon="-2.23181">
        <ele>3.7999999523163</ele>
        <time>2022-04-17T09:12:02.000Z</time>
      </trkpt>
      <trkpt lat="47.28987" lon="-2.2317">
        <ele>3.4000000953674</ele>
        <time>2022-04-17T09:12:03.000Z</time>
      </trkpt>
      <trkpt lat="47.2899" lon="-2.23147">
        <ele>3</ele>
        <time>2022-04-17T09:12:05.000Z</time>
      </trkpt>
      <trkpt lat="47.28992" lon="-2.23136">
        <ele>2.4000000953674</ele>
        <time>2022-04-17T09:12:06.000Z</time>
      </trkpt>
      <trkpt lat="47.28994" lon="-2.23125">
        <ele>2</ele>
        <time>2022-04-17T09:12:07.000Z</time>
      </trkpt>
      <trkpt lat="47.28995" lon="-2.23114">
        <ele>1.6000000238419</ele>
        <time>2022-04-17T09:12:08.000Z</time>
      </trkpt>
      <trkpt lat="47.28996" lon="-2.23104">
        <ele>1.2000000476837</ele>
        <time>2022-04-17T09:12:09.000Z</time>
      </trkpt>
      <trkpt lat="47.28997" lon="-2.23093">
        <ele>0.80000001192093</ele>
        <time>2022-04-17T09:12:10.000Z</time>
      </trkpt>
      <trkpt lat="47.28999" lon="-2.23083">
        <ele>0.40000000596046</ele>
        <time>2022-04-17T09:12:11.000Z</time>
      </trkpt>
      <trkpt lat="47.29001" lon="-2.23074">
        <ele>3.7</ele>
        <time>2022-04-17T09:12:12.000Z</time>
      </trkpt>
      <trkpt lat="47.29003" lon="-2.23064">
        <ele>-0.40000000596046</ele>
        <time>2022-04-17T09:12:13.000Z</time>
      </trkpt>
      <trkpt lat="47.29006" lon="-2.23055">
        <ele>-0.80000001192093</ele>
        <time>2022-04-17T09:12:14.000Z</time>
      </trkpt>
      <trkpt lat="47.29015" lon="-2.23028">
        <ele>-1.2000000476837</ele>
        <time>2022-04-17T09:12:17.000Z</time>
      </trkpt>
      <trkpt lat="47.29017" lon="-2.23018">
        <ele>-1.6000000238419</ele>
        <time>2022-04-17T09:12:18.000Z</time>
      </trkpt>
      <trkpt lat="47.29018" lon="-2.2301">
        <ele>-2.2000000476837</ele>
        <time>2022-04-17T09:12:19.000Z</time>
      </trkpt>
      <trkpt lat="47.29019" lon="-2.23005">
        <ele>-2.5999999046326</ele>
        <time>2022-04-17T09:12:20.000Z</time>
      </trkpt>
      <trkpt lat="47.29021" lon="-2.23003">
        <ele>-3</ele>
        <time>2022-04-17T09:12:21.000Z</time>
      </trkpt>
      <trkpt lat="47.29025" lon="-2.22996">
        <ele>-3</ele>
        <time>2022-04-17T09:12:25.000Z</time>
      </trkpt>
      <trkpt lat="47.29027" lon="-2.22978">
        <ele>-3</ele>
        <time>2022-04-17T09:12:29.000Z</time>
      </trkpt>
      <trkpt lat="47.29029" lon="-2.22975">
        <ele>-3</ele>
        <time>2022-04-17T09:12:30.000Z</time>
      </trkpt>
      <trkpt lat="47.29036" lon="-2.22977">
        <ele>-3</ele>
        <time>2022-04-17T09:12:32.000Z</time>
      </trkpt>
      <trkpt lat="47.29045" lon="-2.22992">
        <ele>-3</ele>
        <time>2022-04-17T09:12:35.000Z</time>
      </trkpt>
      <trkpt lat="47.29064" lon="-2.23013">
        <ele>-3</ele>
        <time>2022-04-17T09:12:40.000Z</time>
      </trkpt>
      <trkpt lat="47.29067" lon="-2.23017">
        <ele>-3</ele>
        <time>2022-04-17T09:12:41.000Z</time>
      </trkpt>
      <trkpt lat="47.29081" lon="-2.23029">
        <ele>-3</ele>
        <time>2022-04-17T09:12:45.000Z</time>
      </trkpt>
      <trkpt lat="47.29084" lon="-2.23032">
        <ele>-3</ele>
        <time>2022-04-17T09:12:46.000Z</time>
      </trkpt>
      <trkpt lat="47.29087" lon="-2.23036">
        <ele>-3</ele>
        <time>2022-04-17T09:12:47.000Z</time>
      </trkpt>
      <trkpt lat="47.29096" lon="-2.23051">
        <ele>-3</ele>
        <time>2022-04-17T09:12:50.000Z</time>
      </trkpt>
      <trkpt lat="47.29099" lon="-2.23056">
        <ele>-3</ele>
        <time>2022-04-17T09:12:51.000Z</time>
      </trkpt>
      <trkpt lat="47.29105" lon="-2.23068">
        <ele>-3</ele>
        <time>2022-04-17T09:12:53.000Z</time>
      </trkpt>
      <trkpt lat="47.29114" lon="-2.23078">
        <ele>-3</ele>
        <time>2022-04-17T09:12:55.000Z</time>
      </trkpt>
      <trkpt lat="47.29156" lon="-2.2313">
        <ele>-3</ele>
        <time>2022-04-17T09:13:05.000Z</time>
      </trkpt>
      <trkpt lat="47.2918" lon="-2.23161">
        <ele>-3</ele>
        <time>2022-04-17T09:13:11.000Z</time>
      </trkpt>
      <trkpt lat="47.29184" lon="-2.23168">
        <ele>-3</ele>
        <time>2022-04-17T09:13:12.000Z</time>
      </trkpt>
      <trkpt lat="47.29197" lon="-2.23196">
        <ele>-3</ele>
        <time>2022-04-17T09:13:16.000Z</time>
      </trkpt>
      <trkpt lat="47.292" lon="-2.23205">
        <ele>-3</ele>
        <time>2022-04-17T09:13:17.000Z</time>
      </trkpt>
      <trkpt lat="47.29212" lon="-2.23237">
        <ele>-3</ele>
        <time>2022-04-17T09:13:21.000Z</time>
      </trkpt>
      <trkpt lat="47.29222" lon="-2.23251">
        <ele>-3</ele>
        <time>2022-04-17T09:13:23.000Z</time>
      </trkpt>
      <trkpt lat="47.29246" lon="-2.23282">
        <ele>-3</ele>
        <time>2022-04-17T09:13:28.000Z</time>
      </trkpt>
      <trkpt lat="47.29254" lon="-2.23296">
        <ele>-3</ele>
        <time>2022-04-17T09:13:30.000Z</time>
      </trkpt>
      <trkpt lat="47.29261" lon="-2.23312">
        <ele>-3</ele>
        <time>2022-04-17T09:13:32.000Z</time>
      </trkpt>
      <trkpt lat="47.29263" lon="-2.23321">
        <ele>-3</ele>
        <time>2022-04-17T09:13:33.000Z</time>
      </trkpt>
      <trkpt lat="47.29277" lon="-2.23383">
        <ele>-3</ele>
        <time>2022-04-17T09:13:40.000Z</time>
      </trkpt>
      <trkpt lat="47.29292" lon="-2.23447">
        <ele>-3</ele>
        <time>2022-04-17T09:13:47.000Z</time>
      </trkpt>
      <trkpt lat="47.29302" lon="-2.23503">
        <ele>-3</ele>
        <time>2022-04-17T09:13:53.000Z</time>
      </trkpt>
      <trkpt lat="47.2931" lon="-2.23561">
        <ele>-3</ele>
        <time>2022-04-17T09:13:59.000Z</time>
      </trkpt>
      <trkpt lat="47.29312" lon="-2.23628">
        <ele>-3</ele>
        <time>2022-04-17T09:14:06.000Z</time>
      </trkpt>
      <trkpt lat="47.29313" lon="-2.23691">
        <ele>-3</ele>
        <time>2022-04-17T09:14:13.000Z</time>
      </trkpt>
      <trkpt lat="47.29313" lon="-2.23758">
        <ele>-3</ele>
        <time>2022-04-17T09:14:21.000Z</time>
      </trkpt>
      <trkpt lat="47.29313" lon="-2.23774">
        <ele>-3</ele>
        <time>2022-04-17T09:14:23.000Z</time>
      </trkpt>
      <trkpt lat="47.29321" lon="-2.23781">
        <ele>-3</ele>
        <time>2022-04-17T09:14:25.000Z</time>
      </trkpt>
      <trkpt lat="47.29343" lon="-2.2379">
        <ele>-3</ele>
        <time>2022-04-17T09:14:29.000Z</time>
      </trkpt>
      <trkpt lat="47.29353" lon="-2.23795">
        <ele>-3</ele>
        <time>2022-04-17T09:14:31.000Z</time>
      </trkpt>
      <trkpt lat="47.29364" lon="-2.2379">
        <ele>-3</ele>
        <time>2022-04-17T09:14:33.000Z</time>
      </trkpt>
      <trkpt lat="47.29369" lon="-2.23774">
        <ele>-3</ele>
        <time>2022-04-17T09:14:35.000Z</time>
      </trkpt>
      <trkpt lat="47.29371" lon="-2.23759">
        <ele>-3</ele>
        <time>2022-04-17T09:14:37.000Z</time>
      </trkpt>
      <trkpt lat="47.29374" lon="-2.23735">
        <ele>-3</ele>
        <time>2022-04-17T09:14:40.000Z</time>
      </trkpt>
      <trkpt lat="47.29382" lon="-2.23713">
        <ele>-3</ele>
        <time>2022-04-17T09:14:43.000Z</time>
      </trkpt>
      <trkpt lat="47.29387" lon="-2.23708">
        <ele>-3</ele>
        <time>2022-04-17T09:14:44.000Z</time>
      </trkpt>
      <trkpt lat="47.29403" lon="-2.237">
        <ele>-3</ele>
        <time>2022-04-17T09:14:47.000Z</time>
      </trkpt>
      <trkpt lat="47.29409" lon="-2.23698">
        <ele>-3</ele>
        <time>2022-04-17T09:14:48.000Z</time>
      </trkpt>
      <trkpt lat="47.2942" lon="-2.23696">
        <ele>-2.5999999046326</ele>
        <time>2022-04-17T09:14:50.000Z</time>
      </trkpt>
      <trkpt lat="47.29426" lon="-2.23695">
        <ele>-2.2000000476837</ele>
        <time>2022-04-17T09:14:51.000Z</time>
      </trkpt>
      <trkpt lat="47.29431" lon="-2.23693">
        <ele>-1.7999999523163</ele>
        <time>2022-04-17T09:14:52.000Z</time>
      </trkpt>
      <trkpt lat="47.29436" lon="-2.23691">
        <ele>-1</ele>
        <time>2022-04-17T09:14:53.000Z</time>
      </trkpt>
      <trkpt lat="47.29441" lon="-2.23689">
        <ele>-1</ele>
        <time>2022-04-17T09:14:54.000Z</time>
      </trkpt>
      <trkpt lat="47.29446" lon="-2.23687">
        <ele>-0.60000002384186</ele>
        <time>2022-04-17T09:14:55.000Z</time>
      </trkpt>
      <trkpt lat="47.29451" lon="-2.23684">
        <ele>-0.20000000298023</ele>
        <time>2022-04-17T09:14:56.000Z</time>
      </trkpt>
      <trkpt lat="47.29456" lon="-2.23682">
        <ele>0.20000000298023</ele>
        <time>2022-04-17T09:14:57.000Z</time>
      </trkpt>
      <trkpt lat="47.29461" lon="-2.2368">
        <ele>0.60000002384186</ele>
        <time>2022-04-17T09:14:58.000Z</time>
      </trkpt>
      <trkpt lat="47.29465" lon="-2.23677">
        <ele>1</ele>
        <time>2022-04-17T09:14:59.000Z</time>
      </trkpt>
      <trkpt lat="47.29473" lon="-2.23672">
        <ele>1</ele>
        <time>2022-04-17T09:15:01.000Z</time>
      </trkpt>
      <trkpt lat="47.29494" lon="-2.23662">
        <ele>1</ele>
        <time>2022-04-17T09:15:06.000Z</time>
      </trkpt>
      <trkpt lat="47.29498" lon="-2.23667">
        <ele>1</ele>
        <time>2022-04-17T09:15:07.000Z</time>
      </trkpt>
      <trkpt lat="47.29499" lon="-2.23688">
        <ele>1</ele>
        <time>2022-04-17T09:15:10.000Z</time>
      </trkpt>
      <trkpt lat="47.29499" lon="-2.23697">
        <ele>1</ele>
        <time>2022-04-17T09:15:11.000Z</time>
      </trkpt>
      <trkpt lat="47.29501" lon="-2.23735">
        <ele>1</ele>
        <time>2022-04-17T09:15:15.000Z</time>
      </trkpt>
      <trkpt lat="47.29505" lon="-2.23765">
        <ele>0.60000002384186</ele>
        <time>2022-04-17T09:15:18.000Z</time>
      </trkpt>
      <trkpt lat="47.29506" lon="-2.23776">
        <ele>0.20000000298023</ele>
        <time>2022-04-17T09:15:19.000Z</time>
      </trkpt>
      <trkpt lat="47.29509" lon="-2.23787">
        <ele>-0.20000000298023</ele>
        <time>2022-04-17T09:15:20.000Z</time>
      </trkpt>
      <trkpt lat="47.29511" lon="-2.23798">
        <ele>-0.80000001192093</ele>
        <time>2022-04-17T09:15:21.000Z</time>
      </trkpt>
      <trkpt lat="47.29513" lon="-2.23809">
        <ele>-1.2000000476837</ele>
        <time>2022-04-17T09:15:22.000Z</time>
      </trkpt>
      <trkpt lat="47.29519" lon="-2.2383">
        <ele>-1.6000000238419</ele>
        <time>2022-04-17T09:15:24.000Z</time>
      </trkpt>
      <trkpt lat="47.29523" lon="-2.23841">
        <ele>-2</ele>
        <time>2022-04-17T09:15:25.000Z</time>
      </trkpt>
      <trkpt lat="47.29527" lon="-2.23851">
        <ele>-2.4000000953674</ele>
        <time>2022-04-17T09:15:26.000Z</time>
      </trkpt>
      <trkpt lat="47.29531" lon="-2.23862">
        <ele>-2.7999999523163</ele>
        <time>2022-04-17T09:15:27.000Z</time>
      </trkpt>
      <trkpt lat="47.29533" lon="-2.23872">
        <ele>-3.2000000476837</ele>
        <time>2022-04-17T09:15:28.000Z</time>
      </trkpt>
      <trkpt lat="47.29538" lon="-2.23902">
        <ele>-3.2000000476837</ele>
        <time>2022-04-17T09:15:31.000Z</time>
      </trkpt>
      <trkpt lat="47.29549" lon="-2.2398">
        <ele>-3.2000000476837</ele>
        <time>2022-04-17T09:15:39.000Z</time>
      </trkpt>
      <trkpt lat="47.29562" lon="-2.24063">
        <ele>-3.2000000476837</ele>
        <time>2022-04-17T09:15:48.000Z</time>
      </trkpt>
      <trkpt lat="47.29564" lon="-2.24071">
        <ele>-3.2000000476837</ele>
        <time>2022-04-17T09:15:49.000Z</time>
      </trkpt>
      <trkpt lat="47.2957" lon="-2.24103">
        <ele>-3.2000000476837</ele>
        <time>2022-04-17T09:15:53.000Z</time>
      </trkpt>
      <trkpt lat="47.29576" lon="-2.24134">
        <ele>-3.2000000476837</ele>
        <time>2022-04-17T09:15:57.000Z</time>
      </trkpt>
      <trkpt lat="47.29579" lon="-2.24151">
        <ele>-3.2000000476837</ele>
        <time>2022-04-17T09:15:59.000Z</time>
      </trkpt>
      <trkpt lat="47.29587" lon="-2.24189">
        <ele>-3.2000000476837</ele>
        <time>2022-04-17T09:16:04.000Z</time>
      </trkpt>
      <trkpt lat="47.2959" lon="-2.24203">
        <ele>-3.2000000476837</ele>
        <time>2022-04-17T09:16:06.000Z</time>
      </trkpt>
      <trkpt lat="47.29593" lon="-2.24207">
        <ele>-3.2000000476837</ele>
        <time>2022-04-17T09:16:07.000Z</time>
      </trkpt>
      <trkpt lat="47.296" lon="-2.24208">
        <ele>-3.2000000476837</ele>
        <time>2022-04-17T09:16:09.000Z</time>
      </trkpt>
      <trkpt lat="47.29609" lon="-2.24193">
        <ele>-3.2000000476837</ele>
        <time>2022-04-17T09:16:12.000Z</time>
      </trkpt>
      <trkpt lat="47.2961" lon="-2.24177">
        <ele>-3.2000000476837</ele>
        <time>2022-04-17T09:16:14.000Z</time>
      </trkpt>
      <trkpt lat="47.29611" lon="-2.24159">
        <ele>-3.2000000476837</ele>
        <time>2022-04-17T09:16:16.000Z</time>
      </trkpt>
      <trkpt lat="47.29617" lon="-2.24105">
        <ele>-3.2000000476837</ele>
        <time>2022-04-17T09:16:22.000Z</time>
      </trkpt>
      <trkpt lat="47.29618" lon="-2.24097">
        <ele>-3.2000000476837</ele>
        <time>2022-04-17T09:16:23.000Z</time>
      </trkpt>
      <trkpt lat="47.29619" lon="-2.24088">
        <ele>-3.2000000476837</ele>
        <time>2022-04-17T09:16:24.000Z</time>
      </trkpt>
      <trkpt lat="47.29622" lon="-2.24072">
        <ele>-3.2000000476837</ele>
        <time>2022-04-17T09:16:26.000Z</time>
      </trkpt>
      <trkpt lat="47.29625" lon="-2.24066">
        <ele>-3.2000000476837</ele>
        <time>2022-04-17T09:16:27.000Z</time>
      </trkpt>
      <trkpt lat="47.29631" lon="-2.24031">
        <ele>-3.2000000476837</ele>
        <time>2022-04-17T09:16:31.000Z</time>
      </trkpt>
      <trkpt lat="47.29637" lon="-2.23993">
        <ele>-3.2000000476837</ele>
        <time>2022-04-17T09:16:35.000Z</time>
      </trkpt>
      <trkpt lat="47.29642" lon="-2.23988">
        <ele>-3.2000000476837</ele>
        <time>2022-04-17T09:16:36.000Z</time>
      </trkpt>
      <trkpt lat="47.29659" lon="-2.23973">
        <ele>-3.2000000476837</ele>
        <time>2022-04-17T09:16:39.000Z</time>
      </trkpt>
      <trkpt lat="47.29687" lon="-2.23953">
        <ele>-3.2000000476837</ele>
        <time>2022-04-17T09:16:44.000Z</time>
      </trkpt>
      <trkpt lat="47.2971" lon="-2.23938">
        <ele>-3.5999999046326</ele>
        <time>2022-04-17T09:16:48.000Z</time>
      </trkpt>
      <trkpt lat="47.29713" lon="-2.2393">
        <ele>-4</ele>
        <time>2022-04-17T09:16:49.000Z</time>
      </trkpt>
      <trkpt lat="47.29715" lon="-2.23921">
        <ele>-4.4000000953674</ele>
        <time>2022-04-17T09:16:50.000Z</time>
      </trkpt>
      <trkpt lat="47.29717" lon="-2.23912">
        <ele>-4.8000001907349</ele>
        <time>2022-04-17T09:16:51.000Z</time>
      </trkpt>
      <trkpt lat="47.29718" lon="-2.23903">
        <ele>-5.1999998092651</ele>
        <time>2022-04-17T09:16:52.000Z</time>
      </trkpt>
      <trkpt lat="47.29718" lon="-2.23894">
        <ele>-5.1999998092651</ele>
        <time>2022-04-17T09:16:53.000Z</time>
      </trkpt>
      <trkpt lat="47.29724" lon="-2.23861">
        <ele>-5.1999998092651</ele>
        <time>2022-04-17T09:16:57.000Z</time>
      </trkpt>
      <trkpt lat="47.29726" lon="-2.23853">
        <ele>-5.1999998092651</ele>
        <time>2022-04-17T09:16:58.000Z</time>
      </trkpt>
      <trkpt lat="47.29737" lon="-2.23825">
        <ele>-5.1999998092651</ele>
        <time>2022-04-17T09:17:02.000Z</time>
      </trkpt>
      <trkpt lat="47.29744" lon="-2.23812">
        <ele>-5.1999998092651</ele>
        <time>2022-04-17T09:17:04.000Z</time>
      </trkpt>
      <trkpt lat="47.29758" lon="-2.23797">
        <ele>-5.1999998092651</ele>
        <time>2022-04-17T09:17:07.000Z</time>
      </trkpt>
      <trkpt lat="47.29784" lon="-2.23792">
        <ele>-5.1999998092651</ele>
        <time>2022-04-17T09:17:11.000Z</time>
      </trkpt>
      <trkpt lat="47.29796" lon="-2.23795">
        <ele>-5.1999998092651</ele>
        <time>2022-04-17T09:17:13.000Z</time>
      </trkpt>
      <trkpt lat="47.2981" lon="-2.23802">
        <ele>-5.1999998092651</ele>
        <time>2022-04-17T09:17:15.000Z</time>
      </trkpt>
      <trkpt lat="47.29824" lon="-2.23808">
        <ele>-5.1999998092651</ele>
        <time>2022-04-17T09:17:17.000Z</time>
      </trkpt>
      <trkpt lat="47.29836" lon="-2.23819">
        <ele>-5.1999998092651</ele>
        <time>2022-04-17T09:17:19.000Z</time>
      </trkpt>
      <trkpt lat="47.29846" lon="-2.23827">
        <ele>-5.1999998092651</ele>
        <time>2022-04-17T09:17:21.000Z</time>
      </trkpt>
      <trkpt lat="47.29858" lon="-2.23831">
        <ele>-5.1999998092651</ele>
        <time>2022-04-17T09:17:23.000Z</time>
      </trkpt>
      <trkpt lat="47.29881" lon="-2.23826">
        <ele>-5.1999998092651</ele>
        <time>2022-04-17T09:17:27.000Z</time>
      </trkpt>
      <trkpt lat="47.29905" lon="-2.23827">
        <ele>-5.1999998092651</ele>
        <time>2022-04-17T09:17:31.000Z</time>
      </trkpt>
      <trkpt lat="47.29918" lon="-2.2383">
        <ele>-5.1999998092651</ele>
        <time>2022-04-17T09:17:33.000Z</time>
      </trkpt>
      <trkpt lat="47.2994" lon="-2.23838">
        <ele>-5.1999998092651</ele>
        <time>2022-04-17T09:17:37.000Z</time>
      </trkpt>
      <trkpt lat="47.29944" lon="-2.2384">
        <ele>-5.1999998092651</ele>
        <time>2022-04-17T09:17:38.000Z</time>
      </trkpt>
      <trkpt lat="47.29949" lon="-2.23842">
        <ele>-5.1999998092651</ele>
        <time>2022-04-17T09:17:39.000Z</time>
      </trkpt>
      <trkpt lat="47.29971" lon="-2.23856">
        <ele>-5.1999998092651</ele>
        <time>2022-04-17T09:17:43.000Z</time>
      </trkpt>
      <trkpt lat="47.29989" lon="-2.2387">
        <ele>-5.1999998092651</ele>
        <time>2022-04-17T09:17:47.000Z</time>
      </trkpt>
      <trkpt lat="47.29997" lon="-2.23881">
        <ele>-5.1999998092651</ele>
        <time>2022-04-17T09:17:49.000Z</time>
      </trkpt>
      <trkpt lat="47.3001" lon="-2.23882">
        <ele>-5.1999998092651</ele>
        <time>2022-04-17T09:17:53.000Z</time>
      </trkpt>
      <trkpt lat="47.30016" lon="-2.23868">
        <ele>-5.1999998092651</ele>
        <time>2022-04-17T09:17:56.000Z</time>
      </trkpt>
      <trkpt lat="47.30017" lon="-2.23864">
        <ele>-5.1999998092651</ele>
        <time>2022-04-17T09:17:57.000Z</time>
      </trkpt>
      <trkpt lat="47.30026" lon="-2.23838">
        <ele>-5.1999998092651</ele>
        <time>2022-04-17T09:18:04.000Z</time>
      </trkpt>
      <trkpt lat="47.30034" lon="-2.23817">
        <ele>-5.1999998092651</ele>
        <time>2022-04-17T09:18:10.000Z</time>
      </trkpt>
      <trkpt lat="47.30047" lon="-2.23791">
        <ele>-5.1999998092651</ele>
        <time>2022-04-17T09:18:16.000Z</time>
      </trkpt>
      <trkpt lat="47.3006" lon="-2.23773">
        <ele>-5.1999998092651</ele>
        <time>2022-04-17T09:18:20.000Z</time>
      </trkpt>
      <trkpt lat="47.30064" lon="-2.23769">
        <ele>-5.1999998092651</ele>
        <time>2022-04-17T09:18:21.000Z</time>
      </trkpt>
      <trkpt lat="47.30076" lon="-2.23759">
        <ele>-5.1999998092651</ele>
        <time>2022-04-17T09:18:24.000Z</time>
      </trkpt>
      <trkpt lat="47.30089" lon="-2.23753">
        <ele>-5.1999998092651</ele>
        <time>2022-04-17T09:18:27.000Z</time>
      </trkpt>
      <trkpt lat="47.30103" lon="-2.2375">
        <ele>-5.1999998092651</ele>
        <time>2022-04-17T09:18:30.000Z</time>
      </trkpt>
      <trkpt lat="47.30114" lon="-2.23752">
        <ele>-5.1999998092651</ele>
        <time>2022-04-17T09:18:32.000Z</time>
      </trkpt>
      <trkpt lat="47.30131" lon="-2.2376">
        <ele>-5.1999998092651</ele>
        <time>2022-04-17T09:18:35.000Z</time>
      </trkpt>
      <trkpt lat="47.30141" lon="-2.23767">
        <ele>-5.1999998092651</ele>
        <time>2022-04-17T09:18:37.000Z</time>
      </trkpt>
      <trkpt lat="47.3017" lon="-2.23797">
        <ele>-5.1999998092651</ele>
        <time>2022-04-17T09:18:43.000Z</time>
      </trkpt>
      <trkpt lat="47.30195" lon="-2.23839">
        <ele>-5.1999998092651</ele>
        <time>2022-04-17T09:18:49.000Z</time>
      </trkpt>
      <trkpt lat="47.30204" lon="-2.23853">
        <ele>-5.1999998092651</ele>
        <time>2022-04-17T09:18:51.000Z</time>
      </trkpt>
      <trkpt lat="47.30221" lon="-2.23866">
        <ele>-5.1999998092651</ele>
        <time>2022-04-17T09:18:54.000Z</time>
      </trkpt>
      <trkpt lat="47.30233" lon="-2.23872">
        <ele>-5.1999998092651</ele>
        <time>2022-04-17T09:18:56.000Z</time>
      </trkpt>
      <trkpt lat="47.30249" lon="-2.23877">
        <ele>-5.1999998092651</ele>
        <time>2022-04-17T09:18:59.000Z</time>
      </trkpt>
      <trkpt lat="47.30263" lon="-2.2389">
        <ele>-5.1999998092651</ele>
        <time>2022-04-17T09:19:02.000Z</time>
      </trkpt>
      <trkpt lat="47.30265" lon="-2.23898">
        <ele>-5.1999998092651</ele>
        <time>2022-04-17T09:19:03.000Z</time>
      </trkpt>
      <trkpt lat="47.30264" lon="-2.23923">
        <ele>-5.1999998092651</ele>
        <time>2022-04-17T09:19:06.000Z</time>
      </trkpt>
      <trkpt lat="47.30264" lon="-2.23932">
        <ele>-5.1999998092651</ele>
        <time>2022-04-17T09:19:07.000Z</time>
      </trkpt>
      <trkpt lat="47.30265" lon="-2.2395">
        <ele>-5.1999998092651</ele>
        <time>2022-04-17T09:19:09.000Z</time>
      </trkpt>
      <trkpt lat="47.30269" lon="-2.23965">
        <ele>-5.1999998092651</ele>
        <time>2022-04-17T09:19:11.000Z</time>
      </trkpt>
      <trkpt lat="47.30274" lon="-2.2398">
        <ele>-4.8000001907349</ele>
        <time>2022-04-17T09:19:13.000Z</time>
      </trkpt>
      <trkpt lat="47.30276" lon="-2.23987">
        <ele>-4.4000000953674</ele>
        <time>2022-04-17T09:19:14.000Z</time>
      </trkpt>
      <trkpt lat="47.30278" lon="-2.23994">
        <ele>-4</ele>
        <time>2022-04-17T09:19:15.000Z</time>
      </trkpt>
      <trkpt lat="47.30279" lon="-2.24001">
        <ele>-3.5999999046326</ele>
        <time>2022-04-17T09:19:16.000Z</time>
      </trkpt>
      <trkpt lat="47.3028" lon="-2.24008">
        <ele>-3</ele>
        <time>2022-04-17T09:19:17.000Z</time>
      </trkpt>
      <trkpt lat="47.30282" lon="-2.24032">
        <ele>-2.5999999046326</ele>
        <time>2022-04-17T09:19:21.000Z</time>
      </trkpt>
      <trkpt lat="47.30283" lon="-2.24038">
        <ele>-2.2000000476837</ele>
        <time>2022-04-17T09:19:22.000Z</time>
      </trkpt>
      <trkpt lat="47.30283" lon="-2.24044">
        <ele>-1.7999999523163</ele>
        <time>2022-04-17T09:19:23.000Z</time>
      </trkpt>
      <trkpt lat="47.30283" lon="-2.24049">
        <ele>-1</ele>
        <time>2022-04-17T09:19:24.000Z</time>
      </trkpt>
      <trkpt lat="47.30277" lon="-2.24061">
        <ele>-0.60000002384186</ele>
        <time>2022-04-17T09:19:27.000Z</time>
      </trkpt>
      <trkpt lat="47.30273" lon="-2.24061">
        <ele>-0.20000000298023</ele>
        <time>2022-04-17T09:19:28.000Z</time>
      </trkpt>
      <trkpt lat="47.30269" lon="-2.24061">
        <ele>0.20000000298023</ele>
        <time>2022-04-17T09:19:29.000Z</time>
      </trkpt>
      <trkpt lat="47.30265" lon="-2.2406">
        <ele>0.80000001192093</ele>
        <time>2022-04-17T09:19:30.000Z</time>
      </trkpt>
      <trkpt lat="47.30259" lon="-2.24059">
        <ele>1.2000000476837</ele>
        <time>2022-04-17T09:19:31.000Z</time>
      </trkpt>
      <trkpt lat="47.30254" lon="-2.24059">
        <ele>1.2000000476837</ele>
        <time>2022-04-17T09:19:32.000Z</time>
      </trkpt>
      <trkpt lat="47.30233" lon="-2.24056">
        <ele>1.2000000476837</ele>
        <time>2022-04-17T09:19:36.000Z</time>
      </trkpt>
      <trkpt lat="47.30202" lon="-2.24057">
        <ele>1.2000000476837</ele>
        <time>2022-04-17T09:19:42.000Z</time>
      </trkpt>
      <trkpt lat="47.30188" lon="-2.24058">
        <ele>1.2000000476837</ele>
        <time>2022-04-17T09:19:45.000Z</time>
      </trkpt>
      <trkpt lat="47.30183" lon="-2.2406">
        <ele>1.6000000238419</ele>
        <time>2022-04-17T09:19:46.000Z</time>
      </trkpt>
      <trkpt lat="47.30178" lon="-2.24062">
        <ele>2</ele>
        <time>2022-04-17T09:19:47.000Z</time>
      </trkpt>
      <trkpt lat="47.30172" lon="-2.24063">
        <ele>2.4000000953674</ele>
        <time>2022-04-17T09:19:48.000Z</time>
      </trkpt>
      <trkpt lat="47.30167" lon="-2.24065">
        <ele>3.2000000476837</ele>
        <time>2022-04-17T09:19:49.000Z</time>
      </trkpt>
      <trkpt lat="47.30144" lon="-2.24077">
        <ele>3.2000000476837</ele>
        <time>2022-04-17T09:19:54.000Z</time>
      </trkpt>
      <trkpt lat="47.30118" lon="-2.24092">
        <ele>3.2000000476837</ele>
        <time>2022-04-17T09:20:00.000Z</time>
      </trkpt>
      <trkpt lat="47.30109" lon="-2.24098">
        <ele>3.2000000476837</ele>
        <time>2022-04-17T09:20:02.000Z</time>
      </trkpt>
      <trkpt lat="47.30105" lon="-2.241">
        <ele>3.2000000476837</ele>
        <time>2022-04-17T09:20:03.000Z</time>
      </trkpt>
      <trkpt lat="47.30081" lon="-2.24114">
        <ele>3.2000000476837</ele>
        <time>2022-04-17T09:20:08.000Z</time>
      </trkpt>
      <trkpt lat="47.30048" lon="-2.24132">
        <ele>3.2000000476837</ele>
        <time>2022-04-17T09:20:15.000Z</time>
      </trkpt>
      <trkpt lat="47.30029" lon="-2.24146">
        <ele>2.7999999523163</ele>
        <time>2022-04-17T09:20:19.000Z</time>
      </trkpt>
      <trkpt lat="47.30022" lon="-2.2415">
        <ele>2.4000000953674</ele>
        <time>2022-04-17T09:20:20.000Z</time>
      </trkpt>
      <trkpt lat="47.30017" lon="-2.24151">
        <ele>2</ele>
        <time>2022-04-17T09:20:21.000Z</time>
      </trkpt>
      <trkpt lat="47.30014" lon="-2.24149">
        <ele>1.6000000238419</ele>
        <time>2022-04-17T09:20:22.000Z</time>
      </trkpt>
      <trkpt lat="47.3001" lon="-2.24147">
        <ele>1</ele>
        <time>2022-04-17T09:20:23.000Z</time>
      </trkpt>
      <trkpt lat="47.30007" lon="-2.24146">
        <ele>1</ele>
        <time>2022-04-17T09:20:24.000Z</time>
      </trkpt>
      <trkpt lat="47.30001" lon="-2.24145">
        <ele>1</ele>
        <time>2022-04-17T09:20:27.000Z</time>
      </trkpt>
      <trkpt lat="47.29998" lon="-2.24142">
        <ele>1</ele>
        <time>2022-04-17T09:20:32.000Z</time>
      </trkpt>
      <trkpt lat="47.30001" lon="-2.24144">
        <ele>1</ele>
        <time>2022-04-17T09:20:36.000Z</time>
      </trkpt>
      <trkpt lat="47.30012" lon="-2.24149">
        <ele>1</ele>
        <time>2022-04-17T09:20:40.000Z</time>
      </trkpt>
      <trkpt lat="47.30016" lon="-2.24151">
        <ele>1</ele>
        <time>2022-04-17T09:20:41.000Z</time>
      </trkpt>
      <trkpt lat="47.30022" lon="-2.24157">
        <ele>1</ele>
        <time>2022-04-17T09:20:43.000Z</time>
      </trkpt>
      <trkpt lat="47.30025" lon="-2.24163">
        <ele>1</ele>
        <time>2022-04-17T09:20:45.000Z</time>
      </trkpt>
      <trkpt lat="47.30026" lon="-2.24168">
        <ele>1</ele>
        <time>2022-04-17T09:20:46.000Z</time>
      </trkpt>
      <trkpt lat="47.30026" lon="-2.24178">
        <ele>1</ele>
        <time>2022-04-17T09:20:48.000Z</time>
      </trkpt>
      <trkpt lat="47.30025" lon="-2.24189">
        <ele>1</ele>
        <time>2022-04-17T09:20:50.000Z</time>
      </trkpt>
      <trkpt lat="47.30025" lon="-2.24194">
        <ele>1.6000000238419</ele>
        <time>2022-04-17T09:20:51.000Z</time>
      </trkpt>
      <trkpt lat="47.30025" lon="-2.24198">
        <ele>2</ele>
        <time>2022-04-17T09:20:52.000Z</time>
      </trkpt>
      <trkpt lat="47.30024" lon="-2.24201">
        <ele>2.4000000953674</ele>
        <time>2022-04-17T09:20:53.000Z</time>
      </trkpt>
      <trkpt lat="47.30024" lon="-2.24205">
        <ele>2.7999999523163</ele>
        <time>2022-04-17T09:20:54.000Z</time>
      </trkpt>
      <trkpt lat="47.30024" lon="-2.2421">
        <ele>3.2000000476837</ele>
        <time>2022-04-17T09:20:55.000Z</time>
      </trkpt>
      <trkpt lat="47.30026" lon="-2.24229">
        <ele>3.2000000476837</ele>
        <time>2022-04-17T09:20:58.000Z</time>
      </trkpt>
      <trkpt lat="47.30027" lon="-2.24235">
        <ele>3.5999999046326</ele>
        <time>2022-04-17T09:20:59.000Z</time>
      </trkpt>
      <trkpt lat="47.30027" lon="-2.2424">
        <ele>4</ele>
        <time>2022-04-17T09:21:00.000Z</time>
      </trkpt>
      <trkpt lat="47.30029" lon="-2.24245">
        <ele>4.4000000953674</ele>
        <time>2022-04-17T09:21:01.000Z</time>
      </trkpt>
      <trkpt lat="47.30029" lon="-2.24249">
        <ele>5</ele>
        <time>2022-04-17T09:21:02.000Z</time>
      </trkpt>
      <trkpt lat="47.30028" lon="-2.24253">
        <ele>5.4000000953674</ele>
        <time>2022-04-17T09:21:03.000Z</time>
      </trkpt>
      <trkpt lat="47.30029" lon="-2.24256">
        <ele>5.8000001907349</ele>
        <time>2022-04-17T09:21:04.000Z</time>
      </trkpt>
      <trkpt lat="47.30029" lon="-2.2426">
        <ele>6.1999998092651</ele>
        <time>2022-04-17T09:21:05.000Z</time>
      </trkpt>
      <trkpt lat="47.30029" lon="-2.24263">
        <ele>6.5999999046326</ele>
        <time>2022-04-17T09:21:06.000Z</time>
      </trkpt>
      <trkpt lat="47.30028" lon="-2.24268">
        <ele>7.1999998092651</ele>
        <time>2022-04-17T09:21:07.000Z</time>
      </trkpt>
      <trkpt lat="47.30026" lon="-2.24271">
        <ele>7.5999999046326</ele>
        <time>2022-04-17T09:21:08.000Z</time>
      </trkpt>
      <trkpt lat="47.3002" lon="-2.2428">
        <ele>7.5999999046326</ele>
        <time>2022-04-17T09:21:11.000Z</time>
      </trkpt>
      <trkpt lat="47.30018" lon="-2.24291">
        <ele>7.5999999046326</ele>
        <time>2022-04-17T09:21:13.000Z</time>
      </trkpt>
      <trkpt lat="47.30014" lon="-2.24307">
        <ele>7.5999999046326</ele>
        <time>2022-04-17T09:21:16.000Z</time>
      </trkpt>
      <trkpt lat="47.30009" lon="-2.24317">
        <ele>7.5999999046326</ele>
        <time>2022-04-17T09:21:18.000Z</time>
      </trkpt>
      <trkpt lat="47.3" lon="-2.24344">
        <ele>7.5999999046326</ele>
        <time>2022-04-17T09:21:23.000Z</time>
      </trkpt>
      <trkpt lat="47.29993" lon="-2.24358">
        <ele>7.5999999046326</ele>
        <time>2022-04-17T09:21:26.000Z</time>
      </trkpt>
      <trkpt lat="47.2999" lon="-2.24357">
        <ele>7.5999999046326</ele>
        <time>2022-04-17T09:21:27.000Z</time>
      </trkpt>
      <trkpt lat="47.29969" lon="-2.24336">
        <ele>7.5999999046326</ele>
        <time>2022-04-17T09:21:33.000Z</time>
      </trkpt>
      <trkpt lat="47.29958" lon="-2.24324">
        <ele>7.5999999046326</ele>
        <time>2022-04-17T09:21:36.000Z</time>
      </trkpt>
      <trkpt lat="47.2995" lon="-2.24317">
        <ele>7.5999999046326</ele>
        <time>2022-04-17T09:21:38.000Z</time>
      </trkpt>
      <trkpt lat="47.29939" lon="-2.24303">
        <ele>7.5999999046326</ele>
        <time>2022-04-17T09:21:41.000Z</time>
      </trkpt>
      <trkpt lat="47.29933" lon="-2.24294">
        <ele>7.5999999046326</ele>
        <time>2022-04-17T09:21:43.000Z</time>
      </trkpt>
      <trkpt lat="47.2993" lon="-2.24291">
        <ele>7.5999999046326</ele>
        <time>2022-04-17T09:21:44.000Z</time>
      </trkpt>
      <trkpt lat="47.29913" lon="-2.24283">
        <ele>7.5999999046326</ele>
        <time>2022-04-17T09:21:48.000Z</time>
      </trkpt>
      <trkpt lat="47.29901" lon="-2.24275">
        <ele>7.5999999046326</ele>
        <time>2022-04-17T09:21:51.000Z</time>
      </trkpt>
      <trkpt lat="47.29889" lon="-2.24263">
        <ele>7.5999999046326</ele>
        <time>2022-04-17T09:21:54.000Z</time>
      </trkpt>
      <trkpt lat="47.29857" lon="-2.24244">
        <ele>7.5999999046326</ele>
        <time>2022-04-17T09:22:01.000Z</time>
      </trkpt>
      <trkpt lat="47.29834" lon="-2.24235">
        <ele>7.5999999046326</ele>
        <time>2022-04-17T09:22:07.000Z</time>
      </trkpt>
      <trkpt lat="47.29824" lon="-2.2423">
        <ele>7.5999999046326</ele>
        <time>2022-04-17T09:22:12.000Z</time>
      </trkpt>
      <trkpt lat="47.29803" lon="-2.24216">
        <ele>7.5999999046326</ele>
        <time>2022-04-17T09:22:19.000Z</time>
      </trkpt>
      <trkpt lat="47.29796" lon="-2.24217">
        <ele>7.5999999046326</ele>
        <time>2022-04-17T09:22:21.000Z</time>
      </trkpt>
      <trkpt lat="47.29788" lon="-2.24221">
        <ele>7.5999999046326</ele>
        <time>2022-04-17T09:22:23.000Z</time>
      </trkpt>
      <trkpt lat="47.29767" lon="-2.24234">
        <ele>7.1999998092651</ele>
        <time>2022-04-17T09:22:27.000Z</time>
      </trkpt>
      <trkpt lat="47.29761" lon="-2.24238">
        <ele>6.8000001907349</ele>
        <time>2022-04-17T09:22:28.000Z</time>
      </trkpt>
      <trkpt lat="47.29755" lon="-2.24241">
        <ele>6.4000000953674</ele>
        <time>2022-04-17T09:22:29.000Z</time>
      </trkpt>
      <trkpt lat="47.29749" lon="-2.24245">
        <ele>6</ele>
        <time>2022-04-17T09:22:30.000Z</time>
      </trkpt>
      <trkpt lat="47.29742" lon="-2.24248">
        <ele>5.5999999046326</ele>
        <time>2022-04-17T09:22:31.000Z</time>
      </trkpt>
      <trkpt lat="47.2972" lon="-2.2426">
        <ele>5.5999999046326</ele>
        <time>2022-04-17T09:22:34.000Z</time>
      </trkpt>
      <trkpt lat="47.29705" lon="-2.24269">
        <ele>5</ele>
        <time>2022-04-17T09:22:36.000Z</time>
      </trkpt>
      <trkpt lat="47.29697" lon="-2.24273">
        <ele>4.5999999046326</ele>
        <time>2022-04-17T09:22:37.000Z</time>
      </trkpt>
      <trkpt lat="47.29689" lon="-2.24277">
        <ele>4.1999998092651</ele>
        <time>2022-04-17T09:22:38.000Z</time>
      </trkpt>
      <trkpt lat="47.29681" lon="-2.24281">
        <ele>3.7999999523163</ele>
        <time>2022-04-17T09:22:39.000Z</time>
      </trkpt>
      <trkpt lat="47.29672" lon="-2.24286">
        <ele>3.2000000476837</ele>
        <time>2022-04-17T09:22:40.000Z</time>
      </trkpt>
      <trkpt lat="47.29656" lon="-2.24295">
        <ele>2.7999999523163</ele>
        <time>2022-04-17T09:22:42.000Z</time>
      </trkpt>
      <trkpt lat="47.29648" lon="-2.24299">
        <ele>2.4000000953674</ele>
        <time>2022-04-17T09:22:43.000Z</time>
      </trkpt>
      <trkpt lat="47.2964" lon="-2.24304">
        <ele>2</ele>
        <time>2022-04-17T09:22:44.000Z</time>
      </trkpt>
      <trkpt lat="47.29632" lon="-2.24308">
        <ele>1.6000000238419</ele>
        <time>2022-04-17T09:22:45.000Z</time>
      </trkpt>
      <trkpt lat="47.29624" lon="-2.24311">
        <ele>1.2000000476837</ele>
        <time>2022-04-17T09:22:46.000Z</time>
      </trkpt>
      <trkpt lat="47.29581" lon="-2.24318">
        <ele>0.80000001192093</ele>
        <time>2022-04-17T09:22:52.000Z</time>
      </trkpt>
      <trkpt lat="47.29575" lon="-2.24316">
        <ele>0.40000000596046</ele>
        <time>2022-04-17T09:22:53.000Z</time>
      </trkpt>
      <trkpt lat="47.29568" lon="-2.24312">
        <ele>5.3</ele>
        <time>2022-04-17T09:22:54.000Z</time>
      </trkpt>
      <trkpt lat="47.29562" lon="-2.24306">
        <ele>-0.40000000596046</ele>
        <time>2022-04-17T09:22:55.000Z</time>
      </trkpt>
      <trkpt lat="47.29556" lon="-2.243">
        <ele>-0.80000001192093</ele>
        <time>2022-04-17T09:22:56.000Z</time>
      </trkpt>
      <trkpt lat="47.2955" lon="-2.24294">
        <ele>-0.80000001192093</ele>
        <time>2022-04-17T09:22:57.000Z</time>
      </trkpt>
      <trkpt lat="47.29536" lon="-2.24289">
        <ele>-0.80000001192093</ele>
        <time>2022-04-17T09:22:59.000Z</time>
      </trkpt>
      <trkpt lat="47.29529" lon="-2.2429">
        <ele>-1.2000000476837</ele>
        <time>2022-04-17T09:23:00.000Z</time>
      </trkpt>
      <trkpt lat="47.29522" lon="-2.24292">
        <ele>-1.6000000238419</ele>
        <time>2022-04-17T09:23:01.000Z</time>
      </trkpt>
      <trkpt lat="47.29516" lon="-2.24294">
        <ele>-2</ele>
        <time>2022-04-17T09:23:02.000Z</time>
      </trkpt>
      <trkpt lat="47.29511" lon="-2.24296">
        <ele>-2.4000000953674</ele>
        <time>2022-04-17T09:23:03.000Z</time>
      </trkpt>
      <trkpt lat="47.29505" lon="-2.24298">
        <ele>-2.7999999523163</ele>
        <time>2022-04-17T09:23:04.000Z</time>
      </trkpt>
      <trkpt lat="47.295" lon="-2.243">
        <ele>-2.7999999523163</ele>
        <time>2022-04-17T09:23:05.000Z</time>
      </trkpt>
      <trkpt lat="47.2949" lon="-2.24304">
        <ele>-2.7999999523163</ele>
        <time>2022-04-17T09:23:07.000Z</time>
      </trkpt>
      <trkpt lat="47.29477" lon="-2.24309">
        <ele>-2.4000000953674</ele>
        <time>2022-04-17T09:23:10.000Z</time>
      </trkpt>
      <trkpt lat="47.29472" lon="-2.24311">
        <ele>-2</ele>
        <time>2022-04-17T09:23:11.000Z</time>
      </trkpt>
      <trkpt lat="47.29467" lon="-2.24313">
        <ele>-1.6000000238419</ele>
        <time>2022-04-17T09:23:12.000Z</time>
      </trkpt>
      <trkpt lat="47.29462" lon="-2.24314">
        <ele>-1.2000000476837</ele>
        <time>2022-04-17T09:23:13.000Z</time>
      </trkpt>
      <trkpt lat="47.29457" lon="-2.24316">
        <ele>-0.80000001192093</ele>
        <time>2022-04-17T09:23:14.000Z</time>
      </trkpt>
      <trkpt lat="47.29433" lon="-2.24327">
        <ele>-0.40000000596046</ele>
        <time>2022-04-17T09:23:19.000Z</time>
      </trkpt>
      <trkpt lat="47.29428" lon="-2.2433">
        <ele>9.9</ele>
        <time>2022-04-17T09:23:20.000Z</time>
      </trkpt>
      <trkpt lat="47.29424" lon="-2.24334">
        <ele>0.40000000596046</ele>
        <time>2022-04-17T09:23:21.000Z</time>
      </trkpt>
      <trkpt lat="47.29419" lon="-2.24337">
        <ele>1</ele>
        <time>2022-04-17T09:23:22.000Z</time>
      </trkpt>
      <trkpt lat="47.29414" lon="-2.24341">
        <ele>1.3999999761581</ele>
        <time>2022-04-17T09:23:23.000Z</time>
      </trkpt>
      <trkpt lat="47.29401" lon="-2.24356">
        <ele>1.3999999761581</ele>
        <time>2022-04-17T09:23:26.000Z</time>
      </trkpt>
      <trkpt lat="47.29354" lon="-2.24404">
        <ele>1.3999999761581</ele>
        <time>2022-04-17T09:23:36.000Z</time>
      </trkpt>
      <trkpt lat="47.29323" lon="-2.24437">
        <ele>1.3999999761581</ele>
        <time>2022-04-17T09:23:43.000Z</time>
      </trkpt>
      <trkpt lat="47.29299" lon="-2.24458">
        <ele>1.3999999761581</ele>
        <time>2022-04-17T09:23:49.000Z</time>
      </trkpt>
      <trkpt lat="47.29292" lon="-2.24469">
        <ele>1.3999999761581</ele>
        <time>2022-04-17T09:23:53.000Z</time>
      </trkpt>
      <trkpt lat="47.29293" lon="-2.24482">
        <ele>1.3999999761581</ele>
        <time>2022-04-17T09:23:57.000Z</time>
      </trkpt>
      <trkpt lat="47.29294" lon="-2.2451">
        <ele>1.3999999761581</ele>
        <time>2022-04-17T09:24:02.000Z</time>
      </trkpt>
      <trkpt lat="47.29297" lon="-2.2455">
        <ele>1.3999999761581</ele>
        <time>2022-04-17T09:24:07.000Z</time>
      </trkpt>
      <trkpt lat="47.293" lon="-2.24599">
        <ele>1.3999999761581</ele>
        <time>2022-04-17T09:24:12.000Z</time>
      </trkpt>
      <trkpt lat="47.293" lon="-2.24607">
        <ele>1.3999999761581</ele>
        <time>2022-04-17T09:24:13.000Z</time>
      </trkpt>
      <trkpt lat="47.29299" lon="-2.2464">
        <ele>1.3999999761581</ele>
        <time>2022-04-17T09:24:17.000Z</time>
      </trkpt>
      <trkpt lat="47.29299" lon="-2.24664">
        <ele>1.7999999523163</ele>
        <time>2022-04-17T09:24:20.000Z</time>
      </trkpt>
      <trkpt lat="47.29299" lon="-2.24672">
        <ele>2.2000000476837</ele>
        <time>2022-04-17T09:24:21.000Z</time>
      </trkpt>
      <trkpt lat="47.29301" lon="-2.24679">
        <ele>2.5999999046326</ele>
        <time>2022-04-17T09:24:22.000Z</time>
      </trkpt>
      <trkpt lat="47.29302" lon="-2.24683">
        <ele>3</ele>
        <time>2022-04-17T09:24:23.000Z</time>
      </trkpt>
      <trkpt lat="47.29303" lon="-2.24686">
        <ele>3.5999999046326</ele>
        <time>2022-04-17T09:24:24.000Z</time>
      </trkpt>
      <trkpt lat="47.29304" lon="-2.24691">
        <ele>3.5999999046326</ele>
        <time>2022-04-17T09:24:25.000Z</time>
      </trkpt>
      <trkpt lat="47.29311" lon="-2.24707">
        <ele>3.5999999046326</ele>
        <time>2022-04-17T09:24:28.000Z</time>
      </trkpt>
      <trkpt lat="47.29314" lon="-2.24718">
        <ele>3.5999999046326</ele>
        <time>2022-04-17T09:24:30.000Z</time>
      </trkpt>
      <trkpt lat="47.29318" lon="-2.24746">
        <ele>3.5999999046326</ele>
        <time>2022-04-17T09:24:34.000Z</time>
      </trkpt>
      <trkpt lat="47.29326" lon="-2.24774">
        <ele>3.5999999046326</ele>
        <time>2022-04-17T09:24:38.000Z</time>
      </trkpt>
      <trkpt lat="47.29328" lon="-2.24781">
        <ele>3.5999999046326</ele>
        <time>2022-04-17T09:24:39.000Z</time>
      </trkpt>
      <trkpt lat="47.29332" lon="-2.24796">
        <ele>4</ele>
        <time>2022-04-17T09:24:41.000Z</time>
      </trkpt>
      <trkpt lat="47.29333" lon="-2.24804">
        <ele>4.4000000953674</ele>
        <time>2022-04-17T09:24:42.000Z</time>
      </trkpt>
      <trkpt lat="47.29334" lon="-2.24812">
        <ele>4.8000001907349</ele>
        <time>2022-04-17T09:24:43.000Z</time>
      </trkpt>
      <trkpt lat="47.29335" lon="-2.2482">
        <ele>5.1999998092651</ele>
        <time>2022-04-17T09:24:44.000Z</time>
      </trkpt>
      <trkpt lat="47.29335" lon="-2.24828">
        <ele>5.5999999046326</ele>
        <time>2022-04-17T09:24:45.000Z</time>
      </trkpt>
      <trkpt lat="47.29337" lon="-2.24873">
        <ele>5.5999999046326</ele>
        <time>2022-04-17T09:24:50.000Z</time>
      </trkpt>
      <trkpt lat="47.29338" lon="-2.24881">
        <ele>5.5999999046326</ele>
        <time>2022-04-17T09:24:51.000Z</time>
      </trkpt>
      <trkpt lat="47.29337" lon="-2.24888">
        <ele>5.5999999046326</ele>
        <time>2022-04-17T09:24:52.000Z</time>
      </trkpt>
      <trkpt lat="47.29335" lon="-2.24902">
        <ele>5.5999999046326</ele>
        <time>2022-04-17T09:24:54.000Z</time>
      </trkpt>
      <trkpt lat="47.29332" lon="-2.24908">
        <ele>5.5999999046326</ele>
        <time>2022-04-17T09:24:55.000Z</time>
      </trkpt>
      <trkpt lat="47.29319" lon="-2.24916">
        <ele>5.5999999046326</ele>
        <time>2022-04-17T09:24:58.000Z</time>
      </trkpt>
      <trkpt lat="47.29309" lon="-2.24917">
        <ele>5.5999999046326</ele>
        <time>2022-04-17T09:25:00.000Z</time>
      </trkpt>
      <trkpt lat="47.29288" lon="-2.24919">
        <ele>5.5999999046326</ele>
        <time>2022-04-17T09:25:04.000Z</time>
      </trkpt>
      <trkpt lat="47.29269" lon="-2.24918">
        <ele>6</ele>
        <time>2022-04-17T09:25:08.000Z</time>
      </trkpt>
      <trkpt lat="47.29264" lon="-2.24921">
        <ele>6.8000001907349</ele>
        <time>2022-04-17T09:25:09.000Z</time>
      </trkpt>
      <trkpt lat="47.29261" lon="-2.24926">
        <ele>7.1999998092651</ele>
        <time>2022-04-17T09:25:10.000Z</time>
      </trkpt>
      <trkpt lat="47.29259" lon="-2.24933">
        <ele>7.5999999046326</ele>
        <time>2022-04-17T09:25:11.000Z</time>
      </trkpt>
      <trkpt lat="47.29258" lon="-2.2494">
        <ele>7.5999999046326</ele>
        <time>2022-04-17T09:25:12.000Z</time>
      </trkpt>
      <trkpt lat="47.2926" lon="-2.24971">
        <ele>7.5999999046326</ele>
        <time>2022-04-17T09:25:16.000Z</time>
      </trkpt>
      <trkpt lat="47.29262" lon="-2.2498">
        <ele>7.5999999046326</ele>
        <time>2022-04-17T09:25:17.000Z</time>
      </trkpt>
      <trkpt lat="47.29274" lon="-2.25033">
        <ele>7.5999999046326</ele>
        <time>2022-04-17T09:25:23.000Z</time>
      </trkpt>
      <trkpt lat="47.2929" lon="-2.25087">
        <ele>7.5999999046326</ele>
        <time>2022-04-17T09:25:29.000Z</time>
      </trkpt>
      <trkpt lat="47.29297" lon="-2.25127">
        <ele>7.1999998092651</ele>
        <time>2022-04-17T09:25:33.000Z</time>
      </trkpt>
      <trkpt lat="47.29298" lon="-2.25138">
        <ele>6.5999999046326</ele>
        <time>2022-04-17T09:25:34.000Z</time>
      </trkpt>
      <trkpt lat="47.293" lon="-2.25148">
        <ele>6.1999998092651</ele>
        <time>2022-04-17T09:25:35.000Z</time>
      </trkpt>
      <trkpt lat="47.29302" lon="-2.2516">
        <ele>5.5999999046326</ele>
        <time>2022-04-17T09:25:36.000Z</time>
      </trkpt>
      <trkpt lat="47.29303" lon="-2.2517">
        <ele>5.1999998092651</ele>
        <time>2022-04-17T09:25:37.000Z</time>
      </trkpt>
      <trkpt lat="47.29307" lon="-2.2519">
        <ele>4.8000001907349</ele>
        <time>2022-04-17T09:25:39.000Z</time>
      </trkpt>
      <trkpt lat="47.2931" lon="-2.25197">
        <ele>4.4000000953674</ele>
        <time>2022-04-17T09:25:40.000Z</time>
      </trkpt>
      <trkpt lat="47.29315" lon="-2.25199">
        <ele>4</ele>
        <time>2022-04-17T09:25:41.000Z</time>
      </trkpt>
      <trkpt lat="47.29319" lon="-2.25199">
        <ele>3.5999999046326</ele>
        <time>2022-04-17T09:25:42.000Z</time>
      </trkpt>
      <trkpt lat="47.29325" lon="-2.25197">
        <ele>3</ele>
        <time>2022-04-17T09:25:43.000Z</time>
      </trkpt>
      <trkpt lat="47.29331" lon="-2.25197">
        <ele>3</ele>
        <time>2022-04-17T09:25:44.000Z</time>
      </trkpt>
      <trkpt lat="47.29343" lon="-2.25198">
        <ele>3</ele>
        <time>2022-04-17T09:25:46.000Z</time>
      </trkpt>
      <trkpt lat="47.29354" lon="-2.25201">
        <ele>3</ele>
        <time>2022-04-17T09:25:48.000Z</time>
      </trkpt>
      <trkpt lat="47.29372" lon="-2.25206">
        <ele>3</ele>
        <time>2022-04-17T09:25:51.000Z</time>
      </trkpt>
      <trkpt lat="47.29403" lon="-2.25215">
        <ele>3</ele>
        <time>2022-04-17T09:25:56.000Z</time>
      </trkpt>
      <trkpt lat="47.29417" lon="-2.25215">
        <ele>3</ele>
        <time>2022-04-17T09:25:58.000Z</time>
      </trkpt>
      <trkpt lat="47.29446" lon="-2.25205">
        <ele>3</ele>
        <time>2022-04-17T09:26:03.000Z</time>
      </trkpt>
      <trkpt lat="47.29452" lon="-2.25204">
        <ele>3</ele>
        <time>2022-04-17T09:26:04.000Z</time>
      </trkpt>
      <trkpt lat="47.29481" lon="-2.25197">
        <ele>3.4000000953674</ele>
        <time>2022-04-17T09:26:09.000Z</time>
      </trkpt>
      <trkpt lat="47.29487" lon="-2.25195">
        <ele>4</ele>
        <time>2022-04-17T09:26:10.000Z</time>
      </trkpt>
      <trkpt lat="47.29493" lon="-2.25193">
        <ele>4.4000000953674</ele>
        <time>2022-04-17T09:26:11.000Z</time>
      </trkpt>
      <trkpt lat="47.29499" lon="-2.25191">
        <ele>4.8000001907349</ele>
        <time>2022-04-17T09:26:12.000Z</time>
      </trkpt>
      <trkpt lat="47.29505" lon="-2.25188">
        <ele>5.1999998092651</ele>
        <time>2022-04-17T09:26:13.000Z</time>
      </trkpt>
      <trkpt lat="47.29517" lon="-2.25183">
        <ele>5.1999998092651</ele>
        <time>2022-04-17T09:26:15.000Z</time>
      </trkpt>
      <trkpt lat="47.29527" lon="-2.25179">
        <ele>5.1999998092651</ele>
        <time>2022-04-17T09:26:17.000Z</time>
      </trkpt>
      <trkpt lat="47.29539" lon="-2.25177">
        <ele>5.1999998092651</ele>
        <time>2022-04-17T09:26:20.000Z</time>
      </trkpt>
      <trkpt lat="47.29546" lon="-2.25177">
        <ele>5.1999998092651</ele>
        <time>2022-04-17T09:26:22.000Z</time>
      </trkpt>
      <trkpt lat="47.29548" lon="-2.25184">
        <ele>5.1999998092651</ele>
        <time>2022-04-17T09:26:24.000Z</time>
      </trkpt>
      <trkpt lat="47.29545" lon="-2.25211">
        <ele>5.1999998092651</ele>
        <time>2022-04-17T09:26:29.000Z</time>
      </trkpt>
      <trkpt lat="47.29542" lon="-2.25233">
        <ele>5.1999998092651</ele>
        <time>2022-04-17T09:26:32.000Z</time>
      </trkpt>
      <trkpt lat="47.29541" lon="-2.25248">
        <ele>5.1999998092651</ele>
        <time>2022-04-17T09:26:34.000Z</time>
      </trkpt>
      <trkpt lat="47.29541" lon="-2.25263">
        <ele>5.5999999046326</ele>
        <time>2022-04-17T09:26:36.000Z</time>
      </trkpt>
      <trkpt lat="47.29541" lon="-2.25272">
        <ele>6</ele>
        <time>2022-04-17T09:26:37.000Z</time>
      </trkpt>
      <trkpt lat="47.29542" lon="-2.2528">
        <ele>6.4000000953674</ele>
        <time>2022-04-17T09:26:38.000Z</time>
      </trkpt>
      <trkpt lat="47.29543" lon="-2.25288">
        <ele>6.8000001907349</ele>
        <time>2022-04-17T09:26:39.000Z</time>
      </trkpt>
      <trkpt lat="47.29545" lon="-2.25295">
        <ele>7.1999998092651</ele>
        <time>2022-04-17T09:26:40.000Z</time>
      </trkpt>
      <trkpt lat="47.2955" lon="-2.25311">
        <ele>7.1999998092651</ele>
        <time>2022-04-17T09:26:42.000Z</time>
      </trkpt>
      <trkpt lat="47.29556" lon="-2.25325">
        <ele>7.1999998092651</ele>
        <time>2022-04-17T09:26:44.000Z</time>
      </trkpt>
      <trkpt lat="47.29559" lon="-2.25332">
        <ele>7.1999998092651</ele>
        <time>2022-04-17T09:26:45.000Z</time>
      </trkpt>
      <trkpt lat="47.2958" lon="-2.25388">
        <ele>7.1999998092651</ele>
        <time>2022-04-17T09:26:53.000Z</time>
      </trkpt>
      <trkpt lat="47.29582" lon="-2.25395">
        <ele>7.5999999046326</ele>
        <time>2022-04-17T09:26:54.000Z</time>
      </trkpt>
      <trkpt lat="47.29583" lon="-2.25403">
        <ele>8</ele>
        <time>2022-04-17T09:26:55.000Z</time>
      </trkpt>
      <trkpt lat="47.29584" lon="-2.2541">
        <ele>8.3999996185303</ele>
        <time>2022-04-17T09:26:56.000Z</time>
      </trkpt>
      <trkpt lat="47.29585" lon="-2.25418">
        <ele>9</ele>
        <time>2022-04-17T09:26:57.000Z</time>
      </trkpt>
      <trkpt lat="47.29585" lon="-2.25426">
        <ele>9.3999996185303</ele>
        <time>2022-04-17T09:26:58.000Z</time>
      </trkpt>
      <trkpt lat="47.29585" lon="-2.25434">
        <ele>9.3999996185303</ele>
        <time>2022-04-17T09:26:59.000Z</time>
      </trkpt>
      <trkpt lat="47.29588" lon="-2.25484">
        <ele>9.3999996185303</ele>
        <time>2022-04-17T09:27:05.000Z</time>
      </trkpt>
      <trkpt lat="47.29586" lon="-2.255">
        <ele>9.3999996185303</ele>
        <time>2022-04-17T09:27:07.000Z</time>
      </trkpt>
      <trkpt lat="47.29575" lon="-2.2553">
        <ele>9.3999996185303</ele>
        <time>2022-04-17T09:27:11.000Z</time>
      </trkpt>
      <trkpt lat="47.2957" lon="-2.25536">
        <ele>10.199999809265</ele>
        <time>2022-04-17T09:27:12.000Z</time>
      </trkpt>
      <trkpt lat="47.29565" lon="-2.25541">
        <ele>10.60000038147</ele>
        <time>2022-04-17T09:27:13.000Z</time>
      </trkpt>
      <trkpt lat="47.2956" lon="-2.25546">
        <ele>11</ele>
        <time>2022-04-17T09:27:14.000Z</time>
      </trkpt>
      <trkpt lat="47.29555" lon="-2.2555">
        <ele>11.39999961853</ele>
        <time>2022-04-17T09:27:15.000Z</time>
      </trkpt>
      <trkpt lat="47.2955" lon="-2.25554">
        <ele>11.39999961853</ele>
        <time>2022-04-17T09:27:16.000Z</time>
      </trkpt>
      <trkpt lat="47.29508" lon="-2.25582">
        <ele>11.800000190735</ele>
        <time>2022-04-17T09:27:24.000Z</time>
      </trkpt>
      <trkpt lat="47.29502" lon="-2.25585">
        <ele>12.199999809265</ele>
        <time>2022-04-17T09:27:25.000Z</time>
      </trkpt>
      <trkpt lat="47.29497" lon="-2.25589">
        <ele>12.800000190735</ele>
        <time>2022-04-17T09:27:26.000Z</time>
      </trkpt>
      <trkpt lat="47.29492" lon="-2.25592">
        <ele>13.199999809265</ele>
        <time>2022-04-17T09:27:27.000Z</time>
      </trkpt>
      <trkpt lat="47.29486" lon="-2.25595">
        <ele>13.60000038147</ele>
        <time>2022-04-17T09:27:28.000Z</time>
      </trkpt>
      <trkpt lat="47.2947" lon="-2.25605">
        <ele>13.60000038147</ele>
        <time>2022-04-17T09:27:31.000Z</time>
      </trkpt>
      <trkpt lat="47.29436" lon="-2.25619">
        <ele>13.60000038147</ele>
        <time>2022-04-17T09:27:37.000Z</time>
      </trkpt>
      <trkpt lat="47.29397" lon="-2.25638">
        <ele>13.60000038147</ele>
        <time>2022-04-17T09:27:44.000Z</time>
      </trkpt>
      <trkpt lat="47.29388" lon="-2.25658">
        <ele>13.60000038147</ele>
        <time>2022-04-17T09:27:47.000Z</time>
      </trkpt>
      <trkpt lat="47.29385" lon="-2.25675">
        <ele>13.60000038147</ele>
        <time>2022-04-17T09:27:49.000Z</time>
      </trkpt>
      <trkpt lat="47.29378" lon="-2.2571">
        <ele>13.60000038147</ele>
        <time>2022-04-17T09:27:53.000Z</time>
      </trkpt>
      <trkpt lat="47.29371" lon="-2.25733">
        <ele>13.60000038147</ele>
        <time>2022-04-17T09:27:56.000Z</time>
      </trkpt>
      <trkpt lat="47.29364" lon="-2.25745">
        <ele>13.60000038147</ele>
        <time>2022-04-17T09:27:58.000Z</time>
      </trkpt>
      <trkpt lat="47.29347" lon="-2.25765">
        <ele>13.60000038147</ele>
        <time>2022-04-17T09:28:02.000Z</time>
      </trkpt>
      <trkpt lat="47.29342" lon="-2.25769">
        <ele>13.60000038147</ele>
        <time>2022-04-17T09:28:03.000Z</time>
      </trkpt>
      <trkpt lat="47.29326" lon="-2.25782">
        <ele>13.60000038147</ele>
        <time>2022-04-17T09:28:08.000Z</time>
      </trkpt>
      <trkpt lat="47.29327" lon="-2.25786">
        <ele>13.60000038147</ele>
        <time>2022-04-17T09:28:13.000Z</time>
      </trkpt>
      <trkpt lat="47.29328" lon="-2.25787">
        <ele>13.60000038147</ele>
        <time>2022-04-17T09:28:15.000Z</time>
      </trkpt>
      <trkpt lat="47.29331" lon="-2.25791">
        <ele>13.60000038147</ele>
        <time>2022-04-17T09:28:19.000Z</time>
      </trkpt>
      <trkpt lat="47.29334" lon="-2.25794">
        <ele>13.60000038147</ele>
        <time>2022-04-17T09:28:21.000Z</time>
      </trkpt>
      <trkpt lat="47.2934" lon="-2.25796">
        <ele>13.60000038147</ele>
        <time>2022-04-17T09:28:24.000Z</time>
      </trkpt>
      <trkpt lat="47.29344" lon="-2.25795">
        <ele>13.199999809265</ele>
        <time>2022-04-17T09:28:26.000Z</time>
      </trkpt>
      <trkpt lat="47.29346" lon="-2.25794">
        <ele>12.60000038147</ele>
        <time>2022-04-17T09:28:27.000Z</time>
      </trkpt>
      <trkpt lat="47.29347" lon="-2.25793">
        <ele>12.199999809265</ele>
        <time>2022-04-17T09:28:28.000Z</time>
      </trkpt>
      <trkpt lat="47.29349" lon="-2.25791">
        <ele>11.800000190735</ele>
        <time>2022-04-17T09:28:29.000Z</time>
      </trkpt>
      <trkpt lat="47.29349" lon="-2.25789">
        <ele>11.39999961853</ele>
        <time>2022-04-17T09:28:30.000Z</time>
      </trkpt>
      <trkpt lat="47.29349" lon="-2.25787">
        <ele>11.39999961853</ele>
        <time>2022-04-17T09:28:31.000Z</time>
      </trkpt>
      <trkpt lat="47.29351" lon="-2.25784">
        <ele>11.39999961853</ele>
        <time>2022-04-17T09:28:33.000Z</time>
      </trkpt>
      <trkpt lat="47.29354" lon="-2.25773">
        <ele>11.39999961853</ele>
        <time>2022-04-17T09:28:37.000Z</time>
      </trkpt>
      <trkpt lat="47.29363" lon="-2.2577">
        <ele>11.39999961853</ele>
        <time>2022-04-17T09:28:41.000Z</time>
      </trkpt>
      <trkpt lat="47.29366" lon="-2.25768">
        <ele>11.39999961853</ele>
        <time>2022-04-17T09:28:42.000Z</time>
      </trkpt>
      <trkpt lat="47.29376" lon="-2.25761">
        <ele>11.39999961853</ele>
        <time>2022-04-17T09:28:46.000Z</time>
      </trkpt>
      <trkpt lat="47.29379" lon="-2.25762">
        <ele>11.39999961853</ele>
        <time>2022-04-17T09:28:47.000Z</time>
      </trkpt>
      <trkpt lat="47.29399" lon="-2.25768">
        <ele>11.39999961853</ele>
        <time>2022-04-17T09:28:52.000Z</time>
      </trkpt>
      <trkpt lat="47.29402" lon="-2.25772">
        <ele>11</ele>
        <time>2022-04-17T09:28:53.000Z</time>
      </trkpt>
      <trkpt lat="47.29406" lon="-2.25774">
        <ele>10.39999961853</ele>
        <time>2022-04-17T09:28:54.000Z</time>
      </trkpt>
      <trkpt lat="47.29409" lon="-2.25776">
        <ele>10</ele>
        <time>2022-04-17T09:28:55.000Z</time>
      </trkpt>
      <trkpt lat="47.29412" lon="-2.25778">
        <ele>9.6000003814697</ele>
        <time>2022-04-17T09:28:56.000Z</time>
      </trkpt>
      <trkpt lat="47.29415" lon="-2.2578">
        <ele>9.1999998092651</ele>
        <time>2022-04-17T09:28:57.000Z</time>
      </trkpt>
      <trkpt lat="47.29417" lon="-2.25785">
        <ele>9.1999998092651</ele>
        <time>2022-04-17T09:28:59.000Z</time>
      </trkpt>
      <trkpt lat="47.29416" lon="-2.25789">
        <ele>9.1999998092651</ele>
        <time>2022-04-17T09:29:01.000Z</time>
      </trkpt>
      <trkpt lat="47.29417" lon="-2.2579">
        <ele>8.8000001907349</ele>
        <time>2022-04-17T09:29:02.000Z</time>
      </trkpt>
      <trkpt lat="47.29417" lon="-2.2579">
        <ele>8.3999996185303</ele>
        <time>2022-04-17T09:29:03.000Z</time>
      </trkpt>
      <trkpt lat="47.29423" lon="-2.25802">
        <ele>7.1999998092651</ele>
        <time>2022-04-17T09:29:08.000Z</time>
      </trkpt>
      <trkpt lat="47.29429" lon="-2.25819">
        <ele>7.1999998092651</ele>
        <time>2022-04-17T09:29:12.000Z</time>
      </trkpt>
      <trkpt lat="47.2943" lon="-2.25823">
        <ele>7.1999998092651</ele>
        <time>2022-04-17T09:29:13.000Z</time>
      </trkpt>
      <trkpt lat="47.29429" lon="-2.25851">
        <ele>7.1999998092651</ele>
        <time>2022-04-17T09:29:18.000Z</time>
      </trkpt>
      <trkpt lat="47.29436" lon="-2.25879">
        <ele>7.1999998092651</ele>
        <time>2022-04-17T09:29:23.000Z</time>
      </trkpt>
      <trkpt lat="47.29441" lon="-2.259">
        <ele>7.1999998092651</ele>
        <time>2022-04-17T09:29:26.000Z</time>
      </trkpt>
      <trkpt lat="47.29443" lon="-2.25908">
        <ele>7.1999998092651</ele>
        <time>2022-04-17T09:29:27.000Z</time>
      </trkpt>
      <trkpt lat="47.29445" lon="-2.25914">
        <ele>7.1999998092651</ele>
        <time>2022-04-17T09:29:28.000Z</time>
      </trkpt>
      <trkpt lat="47.29445" lon="-2.25928">
        <ele>7.1999998092651</ele>
        <time>2022-04-17T09:29:30.000Z</time>
      </trkpt>
      <trkpt lat="47.2944" lon="-2.25938">
        <ele>7.1999998092651</ele>
        <time>2022-04-17T09:29:32.000Z</time>
      </trkpt>
      <trkpt lat="47.29426" lon="-2.2595">
        <ele>7.1999998092651</ele>
        <time>2022-04-17T09:29:36.000Z</time>
      </trkpt>
      <trkpt lat="47.29423" lon="-2.25953">
        <ele>7.1999998092651</ele>
        <time>2022-04-17T09:29:37.000Z</time>
      </trkpt>
      <trkpt lat="47.29408" lon="-2.25963">
        <ele>7.1999998092651</ele>
        <time>2022-04-17T09:29:41.000Z</time>
      </trkpt>
      <trkpt lat="47.29398" lon="-2.2596">
        <ele>7.5999999046326</ele>
        <time>2022-04-17T09:29:44.000Z</time>
      </trkpt>
      <trkpt lat="47.29397" lon="-2.25961">
        <ele>8</ele>
        <time>2022-04-17T09:29:45.000Z</time>
      </trkpt>
      <trkpt lat="47.29396" lon="-2.25964">
        <ele>8.3999996185303</ele>
        <time>2022-04-17T09:29:46.000Z</time>
      </trkpt>
      <trkpt lat="47.29396" lon="-2.25968">
        <ele>8.8000001907349</ele>
        <time>2022-04-17T09:29:47.000Z</time>
      </trkpt>
      <trkpt lat="47.29397" lon="-2.25971">
        <ele>9.1999998092651</ele>
        <time>2022-04-17T09:29:48.000Z</time>
      </trkpt>
      <trkpt lat="47.29397" lon="-2.25976">
        <ele>9.1999998092651</ele>
        <time>2022-04-17T09:29:49.000Z</time>
      </trkpt>
      <trkpt lat="47.29396" lon="-2.25987">
        <ele>9.1999998092651</ele>
        <time>2022-04-17T09:29:51.000Z</time>
      </trkpt>
      <trkpt lat="47.29395" lon="-2.26001">
        <ele>8.8000001907349</ele>
        <time>2022-04-17T09:29:53.000Z</time>
      </trkpt>
      <trkpt lat="47.29393" lon="-2.26009">
        <ele>8.3999996185303</ele>
        <time>2022-04-17T09:29:54.000Z</time>
      </trkpt>
      <trkpt lat="47.29392" lon="-2.26016">
        <ele>8</ele>
        <time>2022-04-17T09:29:55.000Z</time>
      </trkpt>
      <trkpt lat="47.29392" lon="-2.26022">
        <ele>7.5999999046326</ele>
        <time>2022-04-17T09:29:56.000Z</time>
      </trkpt>
      <trkpt lat="47.29392" lon="-2.26028">
        <ele>7.1999998092651</ele>
        <time>2022-04-17T09:29:57.000Z</time>
      </trkpt>
      <trkpt lat="47.29393" lon="-2.26034">
        <ele>7.1999998092651</ele>
        <time>2022-04-17T09:29:58.000Z</time>
      </trkpt>
      <trkpt lat="47.29401" lon="-2.26059">
        <ele>7.1999998092651</ele>
        <time>2022-04-17T09:30:03.000Z</time>
      </trkpt>
      <trkpt lat="47.29408" lon="-2.26069">
        <ele>7.1999998092651</ele>
        <time>2022-04-17T09:30:06.000Z</time>
      </trkpt>
      <trkpt lat="47.29411" lon="-2.2608">
        <ele>7.1999998092651</ele>
        <time>2022-04-17T09:30:08.000Z</time>
      </trkpt>
      <trkpt lat="47.29415" lon="-2.26094">
        <ele>7.1999998092651</ele>
        <time>2022-04-17T09:30:10.000Z</time>
      </trkpt>
      <trkpt lat="47.29417" lon="-2.26102">
        <ele>7.1999998092651</ele>
        <time>2022-04-17T09:30:11.000Z</time>
      </trkpt>
      <trkpt lat="47.29417" lon="-2.26109">
        <ele>7.1999998092651</ele>
        <time>2022-04-17T09:30:12.000Z</time>
      </trkpt>
      <trkpt lat="47.29416" lon="-2.26138">
        <ele>7.1999998092651</ele>
        <time>2022-04-17T09:30:16.000Z</time>
      </trkpt>
      <trkpt lat="47.29416" lon="-2.26144">
        <ele>7.1999998092651</ele>
        <time>2022-04-17T09:30:17.000Z</time>
      </trkpt>
      <trkpt lat="47.29413" lon="-2.26155">
        <ele>7.1999998092651</ele>
        <time>2022-04-17T09:30:19.000Z</time>
      </trkpt>
      <trkpt lat="47.2941" lon="-2.2616">
        <ele>7.1999998092651</ele>
        <time>2022-04-17T09:30:20.000Z</time>
      </trkpt>
      <trkpt lat="47.29406" lon="-2.26163">
        <ele>7.5999999046326</ele>
        <time>2022-04-17T09:30:21.000Z</time>
      </trkpt>
      <trkpt lat="47.29403" lon="-2.26164">
        <ele>8</ele>
        <time>2022-04-17T09:30:22.000Z</time>
      </trkpt>
      <trkpt lat="47.294" lon="-2.26165">
        <ele>8.3999996185303</ele>
        <time>2022-04-17T09:30:23.000Z</time>
      </trkpt>
      <trkpt lat="47.29398" lon="-2.26165">
        <ele>8.8000001907349</ele>
        <time>2022-04-17T09:30:24.000Z</time>
      </trkpt>
      <trkpt lat="47.29396" lon="-2.26164">
        <ele>9.1999998092651</ele>
        <time>2022-04-17T09:30:25.000Z</time>
      </trkpt>
      <trkpt lat="47.29378" lon="-2.26161">
        <ele>9.1999998092651</ele>
        <time>2022-04-17T09:30:31.000Z</time>
      </trkpt>
      <trkpt lat="47.29375" lon="-2.26161">
        <ele>9.6000003814697</ele>
        <time>2022-04-17T09:30:32.000Z</time>
      </trkpt>
      <trkpt lat="47.29372" lon="-2.26162">
        <ele>10</ele>
        <time>2022-04-17T09:30:33.000Z</time>
      </trkpt>
      <trkpt lat="47.29369" lon="-2.26164">
        <ele>10.39999961853</ele>
        <time>2022-04-17T09:30:34.000Z</time>
      </trkpt>
      <trkpt lat="47.29366" lon="-2.26165">
        <ele>10.800000190735</ele>
        <time>2022-04-17T09:30:35.000Z</time>
      </trkpt>
      <trkpt lat="47.29363" lon="-2.26166">
        <ele>11.199999809265</ele>
        <time>2022-04-17T09:30:36.000Z</time>
      </trkpt>
      <trkpt lat="47.29344" lon="-2.26168">
        <ele>11.199999809265</ele>
        <time>2022-04-17T09:30:43.000Z</time>
      </trkpt>
      <trkpt lat="47.29328" lon="-2.26171">
        <ele>11.199999809265</ele>
        <time>2022-04-17T09:30:49.000Z</time>
      </trkpt>
      <trkpt lat="47.29325" lon="-2.26172">
        <ele>11.60000038147</ele>
        <time>2022-04-17T09:30:50.000Z</time>
      </trkpt>
      <trkpt lat="47.29322" lon="-2.26172">
        <ele>12.199999809265</ele>
        <time>2022-04-17T09:30:51.000Z</time>
      </trkpt>
      <trkpt lat="47.2932" lon="-2.26174">
        <ele>12.60000038147</ele>
        <time>2022-04-17T09:30:52.000Z</time>
      </trkpt>
      <trkpt lat="47.29319" lon="-2.26176">
        <ele>13</ele>
        <time>2022-04-17T09:30:53.000Z</time>
      </trkpt>
      <trkpt lat="47.29317" lon="-2.2618">
        <ele>13.39999961853</ele>
        <time>2022-04-17T09:30:54.000Z</time>
      </trkpt>
      <trkpt lat="47.29308" lon="-2.26183">
        <ele>13.39999961853</ele>
        <time>2022-04-17T09:30:57.000Z</time>
      </trkpt>
      <trkpt lat="47.29304" lon="-2.26182">
        <ele>13.39999961853</ele>
        <time>2022-04-17T09:30:58.000Z</time>
      </trkpt>
      <trkpt lat="47.29285" lon="-2.26182">
        <ele>13.39999961853</ele>
        <time>2022-04-17T09:31:03.000Z</time>
      </trkpt>
      <trkpt lat="47.29266" lon="-2.26188">
        <ele>13.39999961853</ele>
        <time>2022-04-17T09:31:09.000Z</time>
      </trkpt>
      <trkpt lat="47.29261" lon="-2.26199">
        <ele>13.39999961853</ele>
        <time>2022-04-17T09:31:13.000Z</time>
      </trkpt>
      <trkpt lat="47.2926" lon="-2.262">
        <ele>13.39999961853</ele>
        <time>2022-04-17T09:31:14.000Z</time>
      </trkpt>
      <trkpt lat="47.29253" lon="-2.26209">
        <ele>13.39999961853</ele>
        <time>2022-04-17T09:31:19.000Z</time>
      </trkpt>
      <trkpt lat="47.29241" lon="-2.26208">
        <ele>13.39999961853</ele>
        <time>2022-04-17T09:31:25.000Z</time>
      </trkpt>
      <trkpt lat="47.29225" lon="-2.26211">
        <ele>13.39999961853</ele>
        <time>2022-04-17T09:31:31.000Z</time>
      </trkpt>
      <trkpt lat="47.29205" lon="-2.26215">
        <ele>13.39999961853</ele>
        <time>2022-04-17T09:31:37.000Z</time>
      </trkpt>
      <trkpt lat="47.29184" lon="-2.26224">
        <ele>13.39999961853</ele>
        <time>2022-04-17T09:31:42.000Z</time>
      </trkpt>
      <trkpt lat="47.2918" lon="-2.26224">
        <ele>13.39999961853</ele>
        <time>2022-04-17T09:31:43.000Z</time>
      </trkpt>
      <trkpt lat="47.29175" lon="-2.26226">
        <ele>13.39999961853</ele>
        <time>2022-04-17T09:31:44.000Z</time>
      </trkpt>
      <trkpt lat="47.29154" lon="-2.26235">
        <ele>13.39999961853</ele>
        <time>2022-04-17T09:31:49.000Z</time>
      </trkpt>
      <trkpt lat="47.29141" lon="-2.26239">
        <ele>13.39999961853</ele>
        <time>2022-04-17T09:31:54.000Z</time>
      </trkpt>
      <trkpt lat="47.29139" lon="-2.2624">
        <ele>13.39999961853</ele>
        <time>2022-04-17T09:31:56.000Z</time>
      </trkpt>
      <trkpt lat="47.29137" lon="-2.26244">
        <ele>13.39999961853</ele>
        <time>2022-04-17T09:32:07.000Z</time>
      </trkpt>
      <trkpt lat="47.29137" lon="-2.26247">
        <ele>13.39999961853</ele>
        <time>2022-04-17T09:32:08.000Z</time>
      </trkpt>
      <trkpt lat="47.29139" lon="-2.26261">
        <ele>13.39999961853</ele>
        <time>2022-04-17T09:32:11.000Z</time>
      </trkpt>
      <trkpt lat="47.2914" lon="-2.26267">
        <ele>13.39999961853</ele>
        <time>2022-04-17T09:32:12.000Z</time>
      </trkpt>
      <trkpt lat="47.29141" lon="-2.26279">
        <ele>13.39999961853</ele>
        <time>2022-04-17T09:32:14.000Z</time>
      </trkpt>
      <trkpt lat="47.29147" lon="-2.26307">
        <ele>13.39999961853</ele>
        <time>2022-04-17T09:32:18.000Z</time>
      </trkpt>
      <trkpt lat="47.29155" lon="-2.26354">
        <ele>13.39999961853</ele>
        <time>2022-04-17T09:32:24.000Z</time>
      </trkpt>
      <trkpt lat="47.29164" lon="-2.26418">
        <ele>13.39999961853</ele>
        <time>2022-04-17T09:32:31.000Z</time>
      </trkpt>
      <trkpt lat="47.29165" lon="-2.26438">
        <ele>13</ele>
        <time>2022-04-17T09:32:33.000Z</time>
      </trkpt>
      <trkpt lat="47.29165" lon="-2.26448">
        <ele>12.199999809265</ele>
        <time>2022-04-17T09:32:34.000Z</time>
      </trkpt>
      <trkpt lat="47.29165" lon="-2.26458">
        <ele>11.800000190735</ele>
        <time>2022-04-17T09:32:35.000Z</time>
      </trkpt>
      <trkpt lat="47.29165" lon="-2.26469">
        <ele>11.199999809265</ele>
        <time>2022-04-17T09:32:36.000Z</time>
      </trkpt>
      <trkpt lat="47.29164" lon="-2.2648">
        <ele>10.800000190735</ele>
        <time>2022-04-17T09:32:37.000Z</time>
      </trkpt>
      <trkpt lat="47.29163" lon="-2.26491">
        <ele>10.39999961853</ele>
        <time>2022-04-17T09:32:38.000Z</time>
      </trkpt>
      <trkpt lat="47.29162" lon="-2.26502">
        <ele>9.8000001907349</ele>
        <time>2022-04-17T09:32:39.000Z</time>
      </trkpt>
      <trkpt lat="47.29161" lon="-2.26513">
        <ele>9.3999996185303</ele>
        <time>2022-04-17T09:32:40.000Z</time>
      </trkpt>
      <trkpt lat="47.29159" lon="-2.26536">
        <ele>9.3999996185303</ele>
        <time>2022-04-17T09:32:42.000Z</time>
      </trkpt>
      <trkpt lat="47.2916" lon="-2.26559">
        <ele>9</ele>
        <time>2022-04-17T09:32:44.000Z</time>
      </trkpt>
      <trkpt lat="47.29162" lon="-2.2657">
        <ele>8.6000003814697</ele>
        <time>2022-04-17T09:32:45.000Z</time>
      </trkpt>
      <trkpt lat="47.29163" lon="-2.2658">
        <ele>8</ele>
        <time>2022-04-17T09:32:46.000Z</time>
      </trkpt>
      <trkpt lat="47.29164" lon="-2.2659">
        <ele>7.5999999046326</ele>
        <time>2022-04-17T09:32:47.000Z</time>
      </trkpt>
      <trkpt lat="47.29167" lon="-2.266">
        <ele>7.1999998092651</ele>
        <time>2022-04-17T09:32:48.000Z</time>
      </trkpt>
      <trkpt lat="47.29175" lon="-2.26618">
        <ele>7.1999998092651</ele>
        <time>2022-04-17T09:32:50.000Z</time>
      </trkpt>
      <trkpt lat="47.29178" lon="-2.26629">
        <ele>7.1999998092651</ele>
        <time>2022-04-17T09:32:51.000Z</time>
      </trkpt>
      <trkpt lat="47.29198" lon="-2.26692">
        <ele>7.1999998092651</ele>
        <time>2022-04-17T09:32:57.000Z</time>
      </trkpt>
      <trkpt lat="47.29214" lon="-2.26767">
        <ele>7.1999998092651</ele>
        <time>2022-04-17T09:33:04.000Z</time>
      </trkpt>
      <trkpt lat="47.29222" lon="-2.26816">
        <ele>6.8000001907349</ele>
        <time>2022-04-17T09:33:09.000Z</time>
      </trkpt>
      <trkpt lat="47.29223" lon="-2.26825">
        <ele>6.4000000953674</ele>
        <time>2022-04-17T09:33:10.000Z</time>
      </trkpt>
      <trkpt lat="47.29225" lon="-2.26834">
        <ele>6</ele>
        <time>2022-04-17T09:33:11.000Z</time>
      </trkpt>
      <trkpt lat="47.29227" lon="-2.26842">
        <ele>5.5999999046326</ele>
        <time>2022-04-17T09:33:12.000Z</time>
      </trkpt>
      <trkpt lat="47.29228" lon="-2.26851">
        <ele>5.1999998092651</ele>
        <time>2022-04-17T09:33:13.000Z</time>
      </trkpt>
      <trkpt lat="47.2923" lon="-2.2686">
        <ele>5.1999998092651</ele>
        <time>2022-04-17T09:33:14.000Z</time>
      </trkpt>
      <trkpt lat="47.29235" lon="-2.26885">
        <ele>5.1999998092651</ele>
        <time>2022-04-17T09:33:17.000Z</time>
      </trkpt>
      <trkpt lat="47.29237" lon="-2.26894">
        <ele>5.1999998092651</ele>
        <time>2022-04-17T09:33:18.000Z</time>
      </trkpt>
      <trkpt lat="47.29239" lon="-2.26925">
        <ele>5.1999998092651</ele>
        <time>2022-04-17T09:33:22.000Z</time>
      </trkpt>
      <trkpt lat="47.29232" lon="-2.26942">
        <ele>5.1999998092651</ele>
        <time>2022-04-17T09:33:25.000Z</time>
      </trkpt>
      <trkpt lat="47.29226" lon="-2.26965">
        <ele>5.1999998092651</ele>
        <time>2022-04-17T09:33:29.000Z</time>
      </trkpt>
      <trkpt lat="47.29227" lon="-2.26972">
        <ele>5.1999998092651</ele>
        <time>2022-04-17T09:33:30.000Z</time>
      </trkpt>
      <trkpt lat="47.29227" lon="-2.26993">
        <ele>5.1999998092651</ele>
        <time>2022-04-17T09:33:33.000Z</time>
      </trkpt>
      <trkpt lat="47.29227" lon="-2.27007">
        <ele>5.1999998092651</ele>
        <time>2022-04-17T09:33:35.000Z</time>
      </trkpt>
      <trkpt lat="47.29228" lon="-2.27024">
        <ele>5.1999998092651</ele>
        <time>2022-04-17T09:33:37.000Z</time>
      </trkpt>
      <trkpt lat="47.29231" lon="-2.27042">
        <ele>5.1999998092651</ele>
        <time>2022-04-17T09:33:39.000Z</time>
      </trkpt>
      <trkpt lat="47.29233" lon="-2.2705">
        <ele>5.1999998092651</ele>
        <time>2022-04-17T09:33:40.000Z</time>
      </trkpt>
      <trkpt lat="47.29236" lon="-2.2708">
        <ele>5.1999998092651</ele>
        <time>2022-04-17T09:33:44.000Z</time>
      </trkpt>
      <trkpt lat="47.29237" lon="-2.27095">
        <ele>5.1999998092651</ele>
        <time>2022-04-17T09:33:46.000Z</time>
      </trkpt>
      <trkpt lat="47.29237" lon="-2.27111">
        <ele>5.1999998092651</ele>
        <time>2022-04-17T09:33:48.000Z</time>
      </trkpt>
      <trkpt lat="47.29236" lon="-2.27119">
        <ele>5.1999998092651</ele>
        <time>2022-04-17T09:33:49.000Z</time>
      </trkpt>
      <trkpt lat="47.29232" lon="-2.27134">
        <ele>5.1999998092651</ele>
        <time>2022-04-17T09:33:51.000Z</time>
      </trkpt>
      <trkpt lat="47.29227" lon="-2.27151">
        <ele>5.1999998092651</ele>
        <time>2022-04-17T09:33:53.000Z</time>
      </trkpt>
      <trkpt lat="47.29215" lon="-2.27169">
        <ele>5.1999998092651</ele>
        <time>2022-04-17T09:33:56.000Z</time>
      </trkpt>
      <trkpt lat="47.29198" lon="-2.27177">
        <ele>5.1999998092651</ele>
        <time>2022-04-17T09:33:59.000Z</time>
      </trkpt>
      <trkpt lat="47.29185" lon="-2.27182">
        <ele>5.1999998092651</ele>
        <time>2022-04-17T09:34:01.000Z</time>
      </trkpt>
      <trkpt lat="47.29176" lon="-2.27185">
        <ele>5.1999998092651</ele>
        <time>2022-04-17T09:34:03.000Z</time>
      </trkpt>
      <trkpt lat="47.29163" lon="-2.27187">
        <ele>5.1999998092651</ele>
        <time>2022-04-17T09:34:07.000Z</time>
      </trkpt>
      <trkpt lat="47.2916" lon="-2.2719">
        <ele>5.1999998092651</ele>
        <time>2022-04-17T09:34:08.000Z</time>
      </trkpt>
      <trkpt lat="47.29157" lon="-2.27191">
        <ele>5.1999998092651</ele>
        <time>2022-04-17T09:34:10.000Z</time>
      </trkpt>
      <trkpt lat="47.29153" lon="-2.27189">
        <ele>5.1999998092651</ele>
        <time>2022-04-17T09:34:12.000Z</time>
      </trkpt>
      <trkpt lat="47.29143" lon="-2.2719">
        <ele>5.1999998092651</ele>
        <time>2022-04-17T09:34:15.000Z</time>
      </trkpt>
      <trkpt lat="47.29133" lon="-2.272">
        <ele>5.1999998092651</ele>
        <time>2022-04-17T09:34:18.000Z</time>
      </trkpt>
      <trkpt lat="47.29131" lon="-2.27206">
        <ele>5.1999998092651</ele>
        <time>2022-04-17T09:34:19.000Z</time>
      </trkpt>
      <trkpt lat="47.29128" lon="-2.27218">
        <ele>5.1999998092651</ele>
        <time>2022-04-17T09:34:22.000Z</time>
      </trkpt>
      <trkpt lat="47.29127" lon="-2.27222">
        <ele>5.1999998092651</ele>
        <time>2022-04-17T09:34:23.000Z</time>
      </trkpt>
      <trkpt lat="47.29123" lon="-2.27248">
        <ele>5.1999998092651</ele>
        <time>2022-04-17T09:34:28.000Z</time>
      </trkpt>
      <trkpt lat="47.29115" lon="-2.27289">
        <ele>5.1999998092651</ele>
        <time>2022-04-17T09:34:35.000Z</time>
      </trkpt>
      <trkpt lat="47.29108" lon="-2.27321">
        <ele>5.1999998092651</ele>
        <time>2022-04-17T09:34:41.000Z</time>
      </trkpt>
      <trkpt lat="47.29103" lon="-2.27348">
        <ele>5.1999998092651</ele>
        <time>2022-04-17T09:34:46.000Z</time>
      </trkpt>
      <trkpt lat="47.29103" lon="-2.27354">
        <ele>5.1999998092651</ele>
        <time>2022-04-17T09:34:47.000Z</time>
      </trkpt>
      <trkpt lat="47.29107" lon="-2.27385">
        <ele>5.1999998092651</ele>
        <time>2022-04-17T09:34:52.000Z</time>
      </trkpt>
      <trkpt lat="47.29111" lon="-2.27408">
        <ele>5.1999998092651</ele>
        <time>2022-04-17T09:34:55.000Z</time>
      </trkpt>
      <trkpt lat="47.29111" lon="-2.27425">
        <ele>5.1999998092651</ele>
        <time>2022-04-17T09:34:57.000Z</time>
      </trkpt>
      <trkpt lat="47.2911" lon="-2.27433">
        <ele>5.1999998092651</ele>
        <time>2022-04-17T09:34:58.000Z</time>
      </trkpt>
      <trkpt lat="47.29108" lon="-2.27461">
        <ele>5.1999998092651</ele>
        <time>2022-04-17T09:35:02.000Z</time>
      </trkpt>
      <trkpt lat="47.29106" lon="-2.27511">
        <ele>5.1999998092651</ele>
        <time>2022-04-17T09:35:10.000Z</time>
      </trkpt>
      <trkpt lat="47.29103" lon="-2.27521">
        <ele>5.1999998092651</ele>
        <time>2022-04-17T09:35:12.000Z</time>
      </trkpt>
      <trkpt lat="47.291" lon="-2.27524">
        <ele>5.1999998092651</ele>
        <time>2022-04-17T09:35:13.000Z</time>
      </trkpt>
      <trkpt lat="47.29082" lon="-2.27525">
        <ele>5.1999998092651</ele>
        <time>2022-04-17T09:35:17.000Z</time>
      </trkpt>
      <trkpt lat="47.29048" lon="-2.27524">
        <ele>5.1999998092651</ele>
        <time>2022-04-17T09:35:23.000Z</time>
      </trkpt>
      <trkpt lat="47.29029" lon="-2.27523">
        <ele>5.5999999046326</ele>
        <time>2022-04-17T09:35:26.000Z</time>
      </trkpt>
      <trkpt lat="47.29022" lon="-2.27523">
        <ele>6</ele>
        <time>2022-04-17T09:35:27.000Z</time>
      </trkpt>
      <trkpt lat="47.29016" lon="-2.27522">
        <ele>6.4000000953674</ele>
        <time>2022-04-17T09:35:28.000Z</time>
      </trkpt>
      <trkpt lat="47.2901" lon="-2.27522">
        <ele>6.8000001907349</ele>
        <time>2022-04-17T09:35:29.000Z</time>
      </trkpt>
      <trkpt lat="47.29003" lon="-2.27521">
        <ele>7.1999998092651</ele>
        <time>2022-04-17T09:35:30.000Z</time>
      </trkpt>
      <trkpt lat="47.28958" lon="-2.27522">
        <ele>7.1999998092651</ele>
        <time>2022-04-17T09:35:37.000Z</time>
      </trkpt>
      <trkpt lat="47.28903" lon="-2.27524">
        <ele>7.1999998092651</ele>
        <time>2022-04-17T09:35:45.000Z</time>
      </trkpt>
      <trkpt lat="47.28891" lon="-2.27527">
        <ele>7.1999998092651</ele>
        <time>2022-04-17T09:35:47.000Z</time>
      </trkpt>
      <trkpt lat="47.28878" lon="-2.2753">
        <ele>7.1999998092651</ele>
        <time>2022-04-17T09:35:49.000Z</time>
      </trkpt>
      <trkpt lat="47.28838" lon="-2.27537">
        <ele>7.1999998092651</ele>
        <time>2022-04-17T09:35:55.000Z</time>
      </trkpt>
      <trkpt lat="47.28819" lon="-2.27542">
        <ele>7.1999998092651</ele>
        <time>2022-04-17T09:35:58.000Z</time>
      </trkpt>
      <trkpt lat="47.28807" lon="-2.2755">
        <ele>7.1999998092651</ele>
        <time>2022-04-17T09:36:00.000Z</time>
      </trkpt>
      <trkpt lat="47.28791" lon="-2.27568">
        <ele>7.1999998092651</ele>
        <time>2022-04-17T09:36:03.000Z</time>
      </trkpt>
      <trkpt lat="47.28781" lon="-2.27579">
        <ele>7.1999998092651</ele>
        <time>2022-04-17T09:36:05.000Z</time>
      </trkpt>
      <trkpt lat="47.28754" lon="-2.27613">
        <ele>7.1999998092651</ele>
        <time>2022-04-17T09:36:11.000Z</time>
      </trkpt>
      <trkpt lat="47.28722" lon="-2.27659">
        <ele>7.1999998092651</ele>
        <time>2022-04-17T09:36:18.000Z</time>
      </trkpt>
      <trkpt lat="47.28698" lon="-2.27701">
        <ele>7.1999998092651</ele>
        <time>2022-04-17T09:36:24.000Z</time>
      </trkpt>
      <trkpt lat="47.28686" lon="-2.27722">
        <ele>7.1999998092651</ele>
        <time>2022-04-17T09:36:27.000Z</time>
      </trkpt>
      <trkpt lat="47.28673" lon="-2.27743">
        <ele>7.1999998092651</ele>
        <time>2022-04-17T09:36:30.000Z</time>
      </trkpt>
      <trkpt lat="47.28662" lon="-2.27765">
        <ele>7.1999998092651</ele>
        <time>2022-04-17T09:36:34.000Z</time>
      </trkpt>
      <trkpt lat="47.28655" lon="-2.2779">
        <ele>7.1999998092651</ele>
        <time>2022-04-17T09:36:37.000Z</time>
      </trkpt>
      <trkpt lat="47.28653" lon="-2.27798">
        <ele>7.1999998092651</ele>
        <time>2022-04-17T09:36:38.000Z</time>
      </trkpt>
      <trkpt lat="47.28642" lon="-2.27851">
        <ele>7.1999998092651</ele>
        <time>2022-04-17T09:36:44.000Z</time>
      </trkpt>
      <trkpt lat="47.28633" lon="-2.27893">
        <ele>7.1999998092651</ele>
        <time>2022-04-17T09:36:49.000Z</time>
      </trkpt>
      <trkpt lat="47.28628" lon="-2.27934">
        <ele>7.1999998092651</ele>
        <time>2022-04-17T09:36:54.000Z</time>
      </trkpt>
      <trkpt lat="47.28626" lon="-2.27942">
        <ele>7.1999998092651</ele>
        <time>2022-04-17T09:36:55.000Z</time>
      </trkpt>
      <trkpt lat="47.28612" lon="-2.2797">
        <ele>7.1999998092651</ele>
        <time>2022-04-17T09:36:59.000Z</time>
      </trkpt>
      <trkpt lat="47.28605" lon="-2.28001">
        <ele>7.1999998092651</ele>
        <time>2022-04-17T09:37:03.000Z</time>
      </trkpt>
      <trkpt lat="47.28603" lon="-2.28009">
        <ele>7.5999999046326</ele>
        <time>2022-04-17T09:37:04.000Z</time>
      </trkpt>
      <trkpt lat="47.286" lon="-2.28015">
        <ele>8.3999996185303</ele>
        <time>2022-04-17T09:37:05.000Z</time>
      </trkpt>
      <trkpt lat="47.28596" lon="-2.2802">
        <ele>8.8000001907349</ele>
        <time>2022-04-17T09:37:06.000Z</time>
      </trkpt>
      <trkpt lat="47.28592" lon="-2.28025">
        <ele>9.3999996185303</ele>
        <time>2022-04-17T09:37:07.000Z</time>
      </trkpt>
      <trkpt lat="47.28581" lon="-2.28036">
        <ele>9.3999996185303</ele>
        <time>2022-04-17T09:37:10.000Z</time>
      </trkpt>
      <trkpt lat="47.28575" lon="-2.28042">
        <ele>9.3999996185303</ele>
        <time>2022-04-17T09:37:12.000Z</time>
      </trkpt>
      <trkpt lat="47.28563" lon="-2.28053">
        <ele>9.3999996185303</ele>
        <time>2022-04-17T09:37:17.000Z</time>
      </trkpt>
      <trkpt lat="47.28551" lon="-2.28052">
        <ele>9.3999996185303</ele>
        <time>2022-04-17T09:37:21.000Z</time>
      </trkpt>
      <trkpt lat="47.28542" lon="-2.28051">
        <ele>9.3999996185303</ele>
        <time>2022-04-17T09:37:25.000Z</time>
      </trkpt>
      <trkpt lat="47.2854" lon="-2.28052">
        <ele>9.8000001907349</ele>
        <time>2022-04-17T09:37:26.000Z</time>
      </trkpt>
      <trkpt lat="47.28538" lon="-2.28052">
        <ele>10.199999809265</ele>
        <time>2022-04-17T09:37:27.000Z</time>
      </trkpt>
      <trkpt lat="47.28537" lon="-2.28053">
        <ele>10.60000038147</ele>
        <time>2022-04-17T09:37:28.000Z</time>
      </trkpt>
      <trkpt lat="47.28534" lon="-2.28052">
        <ele>11.199999809265</ele>
        <time>2022-04-17T09:37:29.000Z</time>
      </trkpt>
      <trkpt lat="47.28532" lon="-2.28052">
        <ele>11.60000038147</ele>
        <time>2022-04-17T09:37:30.000Z</time>
      </trkpt>
      <trkpt lat="47.28529" lon="-2.28052">
        <ele>11.60000038147</ele>
        <time>2022-04-17T09:37:31.000Z</time>
      </trkpt>
      <trkpt lat="47.28525" lon="-2.28052">
        <ele>12</ele>
        <time>2022-04-17T09:37:32.000Z</time>
      </trkpt>
      <trkpt lat="47.28523" lon="-2.28051">
        <ele>12.39999961853</ele>
        <time>2022-04-17T09:37:33.000Z</time>
      </trkpt>
      <trkpt lat="47.2852" lon="-2.2805">
        <ele>12.800000190735</ele>
        <time>2022-04-17T09:37:34.000Z</time>
      </trkpt>
      <trkpt lat="47.28517" lon="-2.28049">
        <ele>13.39999961853</ele>
        <time>2022-04-17T09:37:35.000Z</time>
      </trkpt>
      <trkpt lat="47.28515" lon="-2.28047">
        <ele>13.800000190735</ele>
        <time>2022-04-17T09:37:36.000Z</time>
      </trkpt>
      <trkpt lat="47.28512" lon="-2.28045">
        <ele>13.800000190735</ele>
        <time>2022-04-17T09:37:37.000Z</time>
      </trkpt>
      <trkpt lat="47.28508" lon="-2.28041">
        <ele>14.199999809265</ele>
        <time>2022-04-17T09:37:39.000Z</time>
      </trkpt>
      <trkpt lat="47.28507" lon="-2.28039">
        <ele>14.60000038147</ele>
        <time>2022-04-17T09:37:40.000Z</time>
      </trkpt>
      <trkpt lat="47.28505" lon="-2.28038">
        <ele>15.199999809265</ele>
        <time>2022-04-17T09:37:41.000Z</time>
      </trkpt>
      <trkpt lat="47.28503" lon="-2.28036">
        <ele>15.60000038147</ele>
        <time>2022-04-17T09:37:42.000Z</time>
      </trkpt>
      <trkpt lat="47.285" lon="-2.28037">
        <ele>16</ele>
        <time>2022-04-17T09:37:43.000Z</time>
      </trkpt>
      <trkpt lat="47.28495" lon="-2.28039">
        <ele>16</ele>
        <time>2022-04-17T09:37:46.000Z</time>
      </trkpt>
      <trkpt lat="47.28486" lon="-2.28044">
        <ele>16</ele>
        <time>2022-04-17T09:37:50.000Z</time>
      </trkpt>
      <trkpt lat="47.28486" lon="-2.28048">
        <ele>16</ele>
        <time>2022-04-17T09:37:51.000Z</time>
      </trkpt>
      <trkpt lat="47.28489" lon="-2.28064">
        <ele>16</ele>
        <time>2022-04-17T09:37:55.000Z</time>
      </trkpt>
      <trkpt lat="47.28492" lon="-2.28068">
        <ele>16</ele>
        <time>2022-04-17T09:37:56.000Z</time>
      </trkpt>
      <trkpt lat="47.28498" lon="-2.28083">
        <ele>16</ele>
        <time>2022-04-17T09:38:00.000Z</time>
      </trkpt>
      <trkpt lat="47.28492" lon="-2.28094">
        <ele>16</ele>
        <time>2022-04-17T09:38:03.000Z</time>
      </trkpt>
      <trkpt lat="47.28483" lon="-2.28097">
        <ele>15.60000038147</ele>
        <time>2022-04-17T09:38:05.000Z</time>
      </trkpt>
      <trkpt lat="47.28479" lon="-2.28098">
        <ele>15</ele>
        <time>2022-04-17T09:38:06.000Z</time>
      </trkpt>
      <trkpt lat="47.2847" lon="-2.28096">
        <ele>14.60000038147</ele>
        <time>2022-04-17T09:38:07.000Z</time>
      </trkpt>
      <trkpt lat="47.28467" lon="-2.28095">
        <ele>14.199999809265</ele>
        <time>2022-04-17T09:38:08.000Z</time>
      </trkpt>
      <trkpt lat="47.28463" lon="-2.28094">
        <ele>13.800000190735</ele>
        <time>2022-04-17T09:38:09.000Z</time>
      </trkpt>
      <trkpt lat="47.28452" lon="-2.2809">
        <ele>13.800000190735</ele>
        <time>2022-04-17T09:38:12.000Z</time>
      </trkpt>
      <trkpt lat="47.28449" lon="-2.28087">
        <ele>13.800000190735</ele>
        <time>2022-04-17T09:38:13.000Z</time>
      </trkpt>
      <trkpt lat="47.28443" lon="-2.28088">
        <ele>13.800000190735</ele>
        <time>2022-04-17T09:38:15.000Z</time>
      </trkpt>
      <trkpt lat="47.28433" lon="-2.2809">
        <ele>13.800000190735</ele>
        <time>2022-04-17T09:38:18.000Z</time>
      </trkpt>
      <trkpt lat="47.28418" lon="-2.28087">
        <ele>13.800000190735</ele>
        <time>2022-04-17T09:38:22.000Z</time>
      </trkpt>
      <trkpt lat="47.28407" lon="-2.28082">
        <ele>13.800000190735</ele>
        <time>2022-04-17T09:38:26.000Z</time>
      </trkpt>
      <trkpt lat="47.28404" lon="-2.28082">
        <ele>13.800000190735</ele>
        <time>2022-04-17T09:38:27.000Z</time>
      </trkpt>
      <trkpt lat="47.28395" lon="-2.28082">
        <ele>13.800000190735</ele>
        <time>2022-04-17T09:38:30.000Z</time>
      </trkpt>
      <trkpt lat="47.28384" lon="-2.28079">
        <ele>13.800000190735</ele>
        <time>2022-04-17T09:38:34.000Z</time>
      </trkpt>
      <trkpt lat="47.28376" lon="-2.28072">
        <ele>13.800000190735</ele>
        <time>2022-04-17T09:38:40.000Z</time>
      </trkpt>
      <trkpt lat="47.28376" lon="-2.2806">
        <ele>13.800000190735</ele>
        <time>2022-04-17T09:38:44.000Z</time>
      </trkpt>
      <trkpt lat="47.28373" lon="-2.28057">
        <ele>13.800000190735</ele>
        <time>2022-04-17T09:38:46.000Z</time>
      </trkpt>
      <trkpt lat="47.28368" lon="-2.28067">
        <ele>13.800000190735</ele>
        <time>2022-04-17T09:38:49.000Z</time>
      </trkpt>
      <trkpt lat="47.28367" lon="-2.28079">
        <ele>13.800000190735</ele>
        <time>2022-04-17T09:38:53.000Z</time>
      </trkpt>
      <trkpt lat="47.28366" lon="-2.28084">
        <ele>13.800000190735</ele>
        <time>2022-04-17T09:38:54.000Z</time>
      </trkpt>
      <trkpt lat="47.28365" lon="-2.28103">
        <ele>13.800000190735</ele>
        <time>2022-04-17T09:38:57.000Z</time>
      </trkpt>
      <trkpt lat="47.28368" lon="-2.28141">
        <ele>13.800000190735</ele>
        <time>2022-04-17T09:39:03.000Z</time>
      </trkpt>
      <trkpt lat="47.28369" lon="-2.28167">
        <ele>13.800000190735</ele>
        <time>2022-04-17T09:39:08.000Z</time>
      </trkpt>
      <trkpt lat="47.28368" lon="-2.28178">
        <ele>14.199999809265</ele>
        <time>2022-04-17T09:39:10.000Z</time>
      </trkpt>
      <trkpt lat="47.28368" lon="-2.28185">
        <ele>14.60000038147</ele>
        <time>2022-04-17T09:39:11.000Z</time>
      </trkpt>
      <trkpt lat="47.28368" lon="-2.28191">
        <ele>15</ele>
        <time>2022-04-17T09:39:12.000Z</time>
      </trkpt>
      <trkpt lat="47.28369" lon="-2.28197">
        <ele>15.39999961853</ele>
        <time>2022-04-17T09:39:13.000Z</time>
      </trkpt>
      <trkpt lat="47.28369" lon="-2.28202">
        <ele>15.800000190735</ele>
        <time>2022-04-17T09:39:14.000Z</time>
      </trkpt>
      <trkpt lat="47.28369" lon="-2.2822">
        <ele>16.39999961853</ele>
        <time>2022-04-17T09:39:18.000Z</time>
      </trkpt>
      <trkpt lat="47.28369" lon="-2.28226">
        <ele>16.799999237061</ele>
        <time>2022-04-17T09:39:19.000Z</time>
      </trkpt>
      <trkpt lat="47.28369" lon="-2.2823">
        <ele>17.200000762939</ele>
        <time>2022-04-17T09:39:20.000Z</time>
      </trkpt>
      <trkpt lat="47.28369" lon="-2.28235">
        <ele>17.60000038147</ele>
        <time>2022-04-17T09:39:21.000Z</time>
      </trkpt>
      <trkpt lat="47.28368" lon="-2.28241">
        <ele>18</ele>
        <time>2022-04-17T09:39:22.000Z</time>
      </trkpt>
      <trkpt lat="47.28369" lon="-2.28252">
        <ele>18</ele>
        <time>2022-04-17T09:39:24.000Z</time>
      </trkpt>
      <trkpt lat="47.28371" lon="-2.28284">
        <ele>18</ele>
        <time>2022-04-17T09:39:30.000Z</time>
      </trkpt>
      <trkpt lat="47.28371" lon="-2.2829">
        <ele>18.39999961853</ele>
        <time>2022-04-17T09:39:31.000Z</time>
      </trkpt>
      <trkpt lat="47.28371" lon="-2.28295">
        <ele>18.799999237061</ele>
        <time>2022-04-17T09:39:32.000Z</time>
      </trkpt>
      <trkpt lat="47.28371" lon="-2.28301">
        <ele>19.60000038147</ele>
        <time>2022-04-17T09:39:33.000Z</time>
      </trkpt>
      <trkpt lat="47.28371" lon="-2.28306">
        <ele>20.200000762939</ele>
        <time>2022-04-17T09:39:34.000Z</time>
      </trkpt>
      <trkpt lat="47.28371" lon="-2.28318">
        <ele>20.200000762939</ele>
        <time>2022-04-17T09:39:36.000Z</time>
      </trkpt>
      <trkpt lat="47.28371" lon="-2.28347">
        <ele>20.200000762939</ele>
        <time>2022-04-17T09:39:41.000Z</time>
      </trkpt>
      <trkpt lat="47.28371" lon="-2.28385">
        <ele>20.200000762939</ele>
        <time>2022-04-17T09:39:47.000Z</time>
      </trkpt>
      <trkpt lat="47.28372" lon="-2.28392">
        <ele>20.200000762939</ele>
        <time>2022-04-17T09:39:48.000Z</time>
      </trkpt>
      <trkpt lat="47.28374" lon="-2.28419">
        <ele>20.200000762939</ele>
        <time>2022-04-17T09:39:52.000Z</time>
      </trkpt>
      <trkpt lat="47.28376" lon="-2.28466">
        <ele>20.200000762939</ele>
        <time>2022-04-17T09:39:58.000Z</time>
      </trkpt>
      <trkpt lat="47.28378" lon="-2.28507">
        <ele>20.200000762939</ele>
        <time>2022-04-17T09:40:04.000Z</time>
      </trkpt>
      <trkpt lat="47.28379" lon="-2.2853">
        <ele>20.200000762939</ele>
        <time>2022-04-17T09:40:09.000Z</time>
      </trkpt>
      <trkpt lat="47.2838" lon="-2.28556">
        <ele>20.200000762939</ele>
        <time>2022-04-17T09:40:16.000Z</time>
      </trkpt>
      <trkpt lat="47.2838" lon="-2.28567">
        <ele>20.200000762939</ele>
        <time>2022-04-17T09:40:21.000Z</time>
      </trkpt>
      <trkpt lat="47.2838" lon="-2.28571">
        <ele>20.200000762939</ele>
        <time>2022-04-17T09:41:35.000Z</time>
      </trkpt>
      <trkpt lat="47.28381" lon="-2.2859">
        <ele>20.200000762939</ele>
        <time>2022-04-17T09:41:41.000Z</time>
      </trkpt>
      <trkpt lat="47.28382" lon="-2.28617">
        <ele>20.200000762939</ele>
        <time>2022-04-17T09:41:46.000Z</time>
      </trkpt>
      <trkpt lat="47.28383" lon="-2.28657">
        <ele>20.200000762939</ele>
        <time>2022-04-17T09:41:52.000Z</time>
      </trkpt>
      <trkpt lat="47.28384" lon="-2.28672">
        <ele>20.200000762939</ele>
        <time>2022-04-17T09:41:54.000Z</time>
      </trkpt>
      <trkpt lat="47.28385" lon="-2.28696">
        <ele>20.200000762939</ele>
        <time>2022-04-17T09:41:57.000Z</time>
      </trkpt>
      <trkpt lat="47.28384" lon="-2.2871">
        <ele>20.200000762939</ele>
        <time>2022-04-17T09:41:59.000Z</time>
      </trkpt>
      <trkpt lat="47.28385" lon="-2.28718">
        <ele>20.200000762939</ele>
        <time>2022-04-17T09:42:00.000Z</time>
      </trkpt>
      <trkpt lat="47.28386" lon="-2.2877">
        <ele>20.200000762939</ele>
        <time>2022-04-17T09:42:06.000Z</time>
      </trkpt>
      <trkpt lat="47.28389" lon="-2.28825">
        <ele>20.200000762939</ele>
        <time>2022-04-17T09:42:12.000Z</time>
      </trkpt>
      <trkpt lat="47.2839" lon="-2.28893">
        <ele>20.200000762939</ele>
        <time>2022-04-17T09:42:19.000Z</time>
      </trkpt>
      <trkpt lat="47.28394" lon="-2.28939">
        <ele>20.200000762939</ele>
        <time>2022-04-17T09:42:24.000Z</time>
      </trkpt>
      <trkpt lat="47.28396" lon="-2.28988">
        <ele>20.200000762939</ele>
        <time>2022-04-17T09:42:31.000Z</time>
      </trkpt>
      <trkpt lat="47.28398" lon="-2.28991">
        <ele>20.200000762939</ele>
        <time>2022-04-17T09:42:32.000Z</time>
      </trkpt>
      <trkpt lat="47.28402" lon="-2.28993">
        <ele>20.200000762939</ele>
        <time>2022-04-17T09:42:34.000Z</time>
      </trkpt>
      <trkpt lat="47.28414" lon="-2.28997">
        <ele>19.799999237061</ele>
        <time>2022-04-17T09:42:37.000Z</time>
      </trkpt>
      <trkpt lat="47.28419" lon="-2.28998">
        <ele>19.200000762939</ele>
        <time>2022-04-17T09:42:38.000Z</time>
      </trkpt>
      <trkpt lat="47.28424" lon="-2.29">
        <ele>18.799999237061</ele>
        <time>2022-04-17T09:42:39.000Z</time>
      </trkpt>
      <trkpt lat="47.2843" lon="-2.29">
        <ele>18.39999961853</ele>
        <time>2022-04-17T09:42:40.000Z</time>
      </trkpt>
      <trkpt lat="47.28435" lon="-2.29">
        <ele>18</ele>
        <time>2022-04-17T09:42:41.000Z</time>
      </trkpt>
      <trkpt lat="47.28451" lon="-2.29001">
        <ele>18</ele>
        <time>2022-04-17T09:42:44.000Z</time>
      </trkpt>
      <trkpt lat="47.2846" lon="-2.29004">
        <ele>17.60000038147</ele>
        <time>2022-04-17T09:42:46.000Z</time>
      </trkpt>
      <trkpt lat="47.28465" lon="-2.29005">
        <ele>17.200000762939</ele>
        <time>2022-04-17T09:42:47.000Z</time>
      </trkpt>
      <trkpt lat="47.28471" lon="-2.29007">
        <ele>16.799999237061</ele>
        <time>2022-04-17T09:42:48.000Z</time>
      </trkpt>
      <trkpt lat="47.28477" lon="-2.29009">
        <ele>16.39999961853</ele>
        <time>2022-04-17T09:42:49.000Z</time>
      </trkpt>
      <trkpt lat="47.28482" lon="-2.29011">
        <ele>16</ele>
        <time>2022-04-17T09:42:50.000Z</time>
      </trkpt>
      <trkpt lat="47.28499" lon="-2.29017">
        <ele>16</ele>
        <time>2022-04-17T09:42:53.000Z</time>
      </trkpt>
      <trkpt lat="47.28519" lon="-2.29027">
        <ele>16</ele>
        <time>2022-04-17T09:42:56.000Z</time>
      </trkpt>
      <trkpt lat="47.28524" lon="-2.2903">
        <ele>16</ele>
        <time>2022-04-17T09:42:57.000Z</time>
      </trkpt>
      <trkpt lat="47.28529" lon="-2.29033">
        <ele>15.60000038147</ele>
        <time>2022-04-17T09:42:58.000Z</time>
      </trkpt>
      <trkpt lat="47.28535" lon="-2.29034">
        <ele>15.199999809265</ele>
        <time>2022-04-17T09:42:59.000Z</time>
      </trkpt>
      <trkpt lat="47.2854" lon="-2.29033">
        <ele>14.60000038147</ele>
        <time>2022-04-17T09:43:00.000Z</time>
      </trkpt>
      <trkpt lat="47.28545" lon="-2.29033">
        <ele>14.199999809265</ele>
        <time>2022-04-17T09:43:01.000Z</time>
      </trkpt>
      <trkpt lat="47.28551" lon="-2.29034">
        <ele>13.800000190735</ele>
        <time>2022-04-17T09:43:02.000Z</time>
      </trkpt>
      <trkpt lat="47.28556" lon="-2.29035">
        <ele>13.800000190735</ele>
        <time>2022-04-17T09:43:03.000Z</time>
      </trkpt>
      <trkpt lat="47.28582" lon="-2.2904">
        <ele>13.800000190735</ele>
        <time>2022-04-17T09:43:08.000Z</time>
      </trkpt>
      <trkpt lat="47.28592" lon="-2.29053">
        <ele>13.800000190735</ele>
        <time>2022-04-17T09:43:11.000Z</time>
      </trkpt>
      <trkpt lat="47.28601" lon="-2.29062">
        <ele>13.39999961853</ele>
        <time>2022-04-17T09:43:14.000Z</time>
      </trkpt>
      <trkpt lat="47.28602" lon="-2.29062">
        <ele>13</ele>
        <time>2022-04-17T09:43:15.000Z</time>
      </trkpt>
      <trkpt lat="47.28603" lon="-2.29063">
        <ele>12.199999809265</ele>
        <time>2022-04-17T09:43:16.000Z</time>
      </trkpt>
      <trkpt lat="47.28607" lon="-2.29071">
        <ele>11.800000190735</ele>
        <time>2022-04-17T09:46:40.000Z</time>
      </trkpt>
      <trkpt lat="47.28607" lon="-2.29074">
        <ele>11.800000190735</ele>
        <time>2022-04-17T09:46:41.000Z</time>
      </trkpt>
      <trkpt lat="47.28602" lon="-2.29091">
        <ele>11.800000190735</ele>
        <time>2022-04-17T09:46:45.000Z</time>
      </trkpt>
      <trkpt lat="47.28594" lon="-2.29118">
        <ele>11.800000190735</ele>
        <time>2022-04-17T09:46:50.000Z</time>
      </trkpt>
      <trkpt lat="47.28578" lon="-2.29151">
        <ele>11.800000190735</ele>
        <time>2022-04-17T09:46:56.000Z</time>
      </trkpt>
      <trkpt lat="47.28568" lon="-2.29165">
        <ele>11.800000190735</ele>
        <time>2022-04-17T09:46:59.000Z</time>
      </trkpt>
      <trkpt lat="47.28555" lon="-2.29177">
        <ele>11.800000190735</ele>
        <time>2022-04-17T09:47:02.000Z</time>
      </trkpt>
      <trkpt lat="47.28522" lon="-2.29207">
        <ele>11.800000190735</ele>
        <time>2022-04-17T09:47:10.000Z</time>
      </trkpt>
      <trkpt lat="47.2852" lon="-2.29227">
        <ele>11.800000190735</ele>
        <time>2022-04-17T09:47:13.000Z</time>
      </trkpt>
      <trkpt lat="47.28521" lon="-2.29235">
        <ele>11.800000190735</ele>
        <time>2022-04-17T09:47:14.000Z</time>
      </trkpt>
      <trkpt lat="47.28522" lon="-2.29275">
        <ele>11.800000190735</ele>
        <time>2022-04-17T09:47:20.000Z</time>
      </trkpt>
      <trkpt lat="47.28522" lon="-2.29294">
        <ele>11.800000190735</ele>
        <time>2022-04-17T09:47:25.000Z</time>
      </trkpt>
      <trkpt lat="47.28511" lon="-2.29304">
        <ele>11.800000190735</ele>
        <time>2022-04-17T09:47:29.000Z</time>
      </trkpt>
      <trkpt lat="47.28493" lon="-2.29311">
        <ele>12.199999809265</ele>
        <time>2022-04-17T09:47:34.000Z</time>
      </trkpt>
      <trkpt lat="47.28489" lon="-2.29314">
        <ele>12.60000038147</ele>
        <time>2022-04-17T09:47:35.000Z</time>
      </trkpt>
      <trkpt lat="47.28486" lon="-2.29316">
        <ele>13</ele>
        <time>2022-04-17T09:47:36.000Z</time>
      </trkpt>
      <trkpt lat="47.28482" lon="-2.29318">
        <ele>13.39999961853</ele>
        <time>2022-04-17T09:47:37.000Z</time>
      </trkpt>
      <trkpt lat="47.28478" lon="-2.29319">
        <ele>13.800000190735</ele>
        <time>2022-04-17T09:47:38.000Z</time>
      </trkpt>
      <trkpt lat="47.28471" lon="-2.29323">
        <ele>13.800000190735</ele>
        <time>2022-04-17T09:47:40.000Z</time>
      </trkpt>
      <trkpt lat="47.28449" lon="-2.29331">
        <ele>14.199999809265</ele>
        <time>2022-04-17T09:47:46.000Z</time>
      </trkpt>
      <trkpt lat="47.28445" lon="-2.29332">
        <ele>14.60000038147</ele>
        <time>2022-04-17T09:47:47.000Z</time>
      </trkpt>
      <trkpt lat="47.28441" lon="-2.29333">
        <ele>15.39999961853</ele>
        <time>2022-04-17T09:47:48.000Z</time>
      </trkpt>
      <trkpt lat="47.28437" lon="-2.29335">
        <ele>15.800000190735</ele>
        <time>2022-04-17T09:47:49.000Z</time>
      </trkpt>
      <trkpt lat="47.2842" lon="-2.2934">
        <ele>15.800000190735</ele>
        <time>2022-04-17T09:47:53.000Z</time>
      </trkpt>
      <trkpt lat="47.28391" lon="-2.29358">
        <ele>15.800000190735</ele>
        <time>2022-04-17T09:48:00.000Z</time>
      </trkpt>
      <trkpt lat="47.28366" lon="-2.29373">
        <ele>15.800000190735</ele>
        <time>2022-04-17T09:48:06.000Z</time>
      </trkpt>
      <trkpt lat="47.28357" lon="-2.2938">
        <ele>15.800000190735</ele>
        <time>2022-04-17T09:48:08.000Z</time>
      </trkpt>
      <trkpt lat="47.28343" lon="-2.29394">
        <ele>15.800000190735</ele>
        <time>2022-04-17T09:48:11.000Z</time>
      </trkpt>
      <trkpt lat="47.28312" lon="-2.29431">
        <ele>15.800000190735</ele>
        <time>2022-04-17T09:48:18.000Z</time>
      </trkpt>
      <trkpt lat="47.28297" lon="-2.29446">
        <ele>15.800000190735</ele>
        <time>2022-04-17T09:48:21.000Z</time>
      </trkpt>
      <trkpt lat="47.28281" lon="-2.29458">
        <ele>15.800000190735</ele>
        <time>2022-04-17T09:48:24.000Z</time>
      </trkpt>
      <trkpt lat="47.28251" lon="-2.29477">
        <ele>16.200000762939</ele>
        <time>2022-04-17T09:48:30.000Z</time>
      </trkpt>
      <trkpt lat="47.28246" lon="-2.2948">
        <ele>16.799999237061</ele>
        <time>2022-04-17T09:48:31.000Z</time>
      </trkpt>
      <trkpt lat="47.28241" lon="-2.29482">
        <ele>17.200000762939</ele>
        <time>2022-04-17T09:48:32.000Z</time>
      </trkpt>
      <trkpt lat="47.28236" lon="-2.29485">
        <ele>17.60000038147</ele>
        <time>2022-04-17T09:48:33.000Z</time>
      </trkpt>
      <trkpt lat="47.28231" lon="-2.29488">
        <ele>18</ele>
        <time>2022-04-17T09:48:34.000Z</time>
      </trkpt>
      <trkpt lat="47.28216" lon="-2.29496">
        <ele>18</ele>
        <time>2022-04-17T09:48:37.000Z</time>
      </trkpt>
      <trkpt lat="47.28192" lon="-2.29507">
        <ele>18.39999961853</ele>
        <time>2022-04-17T09:48:42.000Z</time>
      </trkpt>
      <trkpt lat="47.28187" lon="-2.2951">
        <ele>18.799999237061</ele>
        <time>2022-04-17T09:48:43.000Z</time>
      </trkpt>
      <trkpt lat="47.28182" lon="-2.29511">
        <ele>19.200000762939</ele>
        <time>2022-04-17T09:48:44.000Z</time>
      </trkpt>
      <trkpt lat="47.28178" lon="-2.29513">
        <ele>19.799999237061</ele>
        <time>2022-04-17T09:48:45.000Z</time>
      </trkpt>
      <trkpt lat="47.28173" lon="-2.29515">
        <ele>20.200000762939</ele>
        <time>2022-04-17T09:48:46.000Z</time>
      </trkpt>
      <trkpt lat="47.28148" lon="-2.29524">
        <ele>20.200000762939</ele>
        <time>2022-04-17T09:48:51.000Z</time>
      </trkpt>
      <trkpt lat="47.28132" lon="-2.2953">
        <ele>20.200000762939</ele>
        <time>2022-04-17T09:48:54.000Z</time>
      </trkpt>
      <trkpt lat="47.28128" lon="-2.29532">
        <ele>20.60000038147</ele>
        <time>2022-04-17T09:48:55.000Z</time>
      </trkpt>
      <trkpt lat="47.28122" lon="-2.29535">
        <ele>21.200000762939</ele>
        <time>2022-04-17T09:48:56.000Z</time>
      </trkpt>
      <trkpt lat="47.28117" lon="-2.29538">
        <ele>21.60000038147</ele>
        <time>2022-04-17T09:48:57.000Z</time>
      </trkpt>
      <trkpt lat="47.28112" lon="-2.2954">
        <ele>22</ele>
        <time>2022-04-17T09:48:58.000Z</time>
      </trkpt>
      <trkpt lat="47.28107" lon="-2.29542">
        <ele>22.39999961853</ele>
        <time>2022-04-17T09:48:59.000Z</time>
      </trkpt>
      <trkpt lat="47.28074" lon="-2.29554">
        <ele>22.39999961853</ele>
        <time>2022-04-17T09:49:05.000Z</time>
      </trkpt>
      <trkpt lat="47.28032" lon="-2.29573">
        <ele>22.39999961853</ele>
        <time>2022-04-17T09:49:13.000Z</time>
      </trkpt>
      <trkpt lat="47.27987" lon="-2.29591">
        <ele>22.39999961853</ele>
        <time>2022-04-17T09:49:21.000Z</time>
      </trkpt>
      <trkpt lat="47.27945" lon="-2.29597">
        <ele>22.39999961853</ele>
        <time>2022-04-17T09:49:28.000Z</time>
      </trkpt>
      <trkpt lat="47.27903" lon="-2.29596">
        <ele>22.39999961853</ele>
        <time>2022-04-17T09:49:35.000Z</time>
      </trkpt>
      <trkpt lat="47.27864" lon="-2.29592">
        <ele>22.39999961853</ele>
        <time>2022-04-17T09:49:42.000Z</time>
      </trkpt>
      <trkpt lat="47.2786" lon="-2.29593">
        <ele>22.39999961853</ele>
        <time>2022-04-17T09:49:43.000Z</time>
      </trkpt>
      <trkpt lat="47.27855" lon="-2.296">
        <ele>22.39999961853</ele>
        <time>2022-04-17T09:49:45.000Z</time>
      </trkpt>
      <trkpt lat="47.27856" lon="-2.29616">
        <ele>22.39999961853</ele>
        <time>2022-04-17T09:49:48.000Z</time>
      </trkpt>
      <trkpt lat="47.27859" lon="-2.29626">
        <ele>22.39999961853</ele>
        <time>2022-04-17T09:49:50.000Z</time>
      </trkpt>
      <trkpt lat="47.27862" lon="-2.29641">
        <ele>22.39999961853</ele>
        <time>2022-04-17T09:49:53.000Z</time>
      </trkpt>
      <trkpt lat="47.2787" lon="-2.29681">
        <ele>22.39999961853</ele>
        <time>2022-04-17T09:50:00.000Z</time>
      </trkpt>
      <trkpt lat="47.27877" lon="-2.29728">
        <ele>22.39999961853</ele>
        <time>2022-04-17T09:50:07.000Z</time>
      </trkpt>
      <trkpt lat="47.27882" lon="-2.29777">
        <ele>22.39999961853</ele>
        <time>2022-04-17T09:50:13.000Z</time>
      </trkpt>
      <trkpt lat="47.27888" lon="-2.29848">
        <ele>22.39999961853</ele>
        <time>2022-04-17T09:50:21.000Z</time>
      </trkpt>
      <trkpt lat="47.2789" lon="-2.29917">
        <ele>22</ele>
        <time>2022-04-17T09:50:28.000Z</time>
      </trkpt>
      <trkpt lat="47.2789" lon="-2.29927">
        <ele>21.60000038147</ele>
        <time>2022-04-17T09:50:29.000Z</time>
      </trkpt>
      <trkpt lat="47.2789" lon="-2.29937">
        <ele>21.200000762939</ele>
        <time>2022-04-17T09:50:30.000Z</time>
      </trkpt>
      <trkpt lat="47.2789" lon="-2.29947">
        <ele>20.799999237061</ele>
        <time>2022-04-17T09:50:31.000Z</time>
      </trkpt>
      <trkpt lat="47.2789" lon="-2.29956">
        <ele>20.39999961853</ele>
        <time>2022-04-17T09:50:32.000Z</time>
      </trkpt>
      <trkpt lat="47.27891" lon="-2.29985">
        <ele>20.39999961853</ele>
        <time>2022-04-17T09:50:35.000Z</time>
      </trkpt>
      <trkpt lat="47.2789" lon="-2.30023">
        <ele>20.39999961853</ele>
        <time>2022-04-17T09:50:39.000Z</time>
      </trkpt>
      <trkpt lat="47.27887" lon="-2.30029">
        <ele>20.39999961853</ele>
        <time>2022-04-17T09:50:40.000Z</time>
      </trkpt>
      <trkpt lat="47.27882" lon="-2.30041">
        <ele>20</ele>
        <time>2022-04-17T09:50:42.000Z</time>
      </trkpt>
      <trkpt lat="47.27877" lon="-2.30046">
        <ele>19.60000038147</ele>
        <time>2022-04-17T09:50:43.000Z</time>
      </trkpt>
      <trkpt lat="47.27872" lon="-2.30051">
        <ele>19.200000762939</ele>
        <time>2022-04-17T09:50:44.000Z</time>
      </trkpt>
      <trkpt lat="47.27866" lon="-2.30056">
        <ele>18.60000038147</ele>
        <time>2022-04-17T09:50:45.000Z</time>
      </trkpt>
      <trkpt lat="47.27861" lon="-2.30059">
        <ele>18.200000762939</ele>
        <time>2022-04-17T09:50:46.000Z</time>
      </trkpt>
      <trkpt lat="47.27849" lon="-2.30068">
        <ele>18.200000762939</ele>
        <time>2022-04-17T09:50:48.000Z</time>
      </trkpt>
      <trkpt lat="47.2781" lon="-2.30096">
        <ele>18.200000762939</ele>
        <time>2022-04-17T09:50:54.000Z</time>
      </trkpt>
      <trkpt lat="47.27768" lon="-2.30122">
        <ele>18.200000762939</ele>
        <time>2022-04-17T09:51:00.000Z</time>
      </trkpt>
      <trkpt lat="47.27717" lon="-2.30145">
        <ele>18.200000762939</ele>
        <time>2022-04-17T09:51:07.000Z</time>
      </trkpt>
      <trkpt lat="47.27709" lon="-2.30146">
        <ele>17.799999237061</ele>
        <time>2022-04-17T09:51:08.000Z</time>
      </trkpt>
      <trkpt lat="47.27701" lon="-2.30147">
        <ele>17.39999961853</ele>
        <time>2022-04-17T09:51:09.000Z</time>
      </trkpt>
      <trkpt lat="47.27694" lon="-2.30149">
        <ele>17</ele>
        <time>2022-04-17T09:51:10.000Z</time>
      </trkpt>
      <trkpt lat="47.27687" lon="-2.30151">
        <ele>16.60000038147</ele>
        <time>2022-04-17T09:51:11.000Z</time>
      </trkpt>
      <trkpt lat="47.2768" lon="-2.30154">
        <ele>16.200000762939</ele>
        <time>2022-04-17T09:51:12.000Z</time>
      </trkpt>
      <trkpt lat="47.27654" lon="-2.30153">
        <ele>16.200000762939</ele>
        <time>2022-04-17T09:51:16.000Z</time>
      </trkpt>
      <trkpt lat="47.27641" lon="-2.30133">
        <ele>16.200000762939</ele>
        <time>2022-04-17T09:51:19.000Z</time>
      </trkpt>
      <trkpt lat="47.27624" lon="-2.30126">
        <ele>16.200000762939</ele>
        <time>2022-04-17T09:51:22.000Z</time>
      </trkpt>
      <trkpt lat="47.27618" lon="-2.30126">
        <ele>16.200000762939</ele>
        <time>2022-04-17T09:51:23.000Z</time>
      </trkpt>
      <trkpt lat="47.27613" lon="-2.30129">
        <ele>16.200000762939</ele>
        <time>2022-04-17T09:51:24.000Z</time>
      </trkpt>
      <trkpt lat="47.27605" lon="-2.30137">
        <ele>16.200000762939</ele>
        <time>2022-04-17T09:51:26.000Z</time>
      </trkpt>
      <trkpt lat="47.27597" lon="-2.30141">
        <ele>16.200000762939</ele>
        <time>2022-04-17T09:51:28.000Z</time>
      </trkpt>
      <trkpt lat="47.27586" lon="-2.30146">
        <ele>16.200000762939</ele>
        <time>2022-04-17T09:51:30.000Z</time>
      </trkpt>
      <trkpt lat="47.2756" lon="-2.30159">
        <ele>16.200000762939</ele>
        <time>2022-04-17T09:51:35.000Z</time>
      </trkpt>
      <trkpt lat="47.27525" lon="-2.30178">
        <ele>16.200000762939</ele>
        <time>2022-04-17T09:51:42.000Z</time>
      </trkpt>
      <trkpt lat="47.27522" lon="-2.30182">
        <ele>16.200000762939</ele>
        <time>2022-04-17T09:51:43.000Z</time>
      </trkpt>
      <trkpt lat="47.27516" lon="-2.30193">
        <ele>16.200000762939</ele>
        <time>2022-04-17T09:51:45.000Z</time>
      </trkpt>
      <trkpt lat="47.27513" lon="-2.30196">
        <ele>15.800000190735</ele>
        <time>2022-04-17T09:51:46.000Z</time>
      </trkpt>
      <trkpt lat="47.27509" lon="-2.30199">
        <ele>15.39999961853</ele>
        <time>2022-04-17T09:51:47.000Z</time>
      </trkpt>
      <trkpt lat="47.27504" lon="-2.30202">
        <ele>15</ele>
        <time>2022-04-17T09:51:48.000Z</time>
      </trkpt>
      <trkpt lat="47.27498" lon="-2.30205">
        <ele>14.39999961853</ele>
        <time>2022-04-17T09:51:49.000Z</time>
      </trkpt>
      <trkpt lat="47.27493" lon="-2.30207">
        <ele>14</ele>
        <time>2022-04-17T09:51:50.000Z</time>
      </trkpt>
      <trkpt lat="47.27484" lon="-2.30211">
        <ele>14</ele>
        <time>2022-04-17T09:51:52.000Z</time>
      </trkpt>
      <trkpt lat="47.27473" lon="-2.30213">
        <ele>14</ele>
        <time>2022-04-17T09:51:54.000Z</time>
      </trkpt>
      <trkpt lat="47.27462" lon="-2.30215">
        <ele>14</ele>
        <time>2022-04-17T09:51:57.000Z</time>
      </trkpt>
      <trkpt lat="47.27455" lon="-2.30218">
        <ele>14</ele>
        <time>2022-04-17T09:51:59.000Z</time>
      </trkpt>
      <trkpt lat="47.27447" lon="-2.30223">
        <ele>14</ele>
        <time>2022-04-17T09:52:01.000Z</time>
      </trkpt>
      <trkpt lat="47.27418" lon="-2.30238">
        <ele>14</ele>
        <time>2022-04-17T09:52:07.000Z</time>
      </trkpt>
      <trkpt lat="47.27384" lon="-2.30253">
        <ele>14</ele>
        <time>2022-04-17T09:52:13.000Z</time>
      </trkpt>
      <trkpt lat="47.27354" lon="-2.30259">
        <ele>14</ele>
        <time>2022-04-17T09:52:18.000Z</time>
      </trkpt>
      <trkpt lat="47.27315" lon="-2.3026">
        <ele>14</ele>
        <time>2022-04-17T09:52:24.000Z</time>
      </trkpt>
      <trkpt lat="47.27277" lon="-2.30261">
        <ele>14</ele>
        <time>2022-04-17T09:52:30.000Z</time>
      </trkpt>
      <trkpt lat="47.27265" lon="-2.30264">
        <ele>13.60000038147</ele>
        <time>2022-04-17T09:52:32.000Z</time>
      </trkpt>
      <trkpt lat="47.27258" lon="-2.30265">
        <ele>13.199999809265</ele>
        <time>2022-04-17T09:52:33.000Z</time>
      </trkpt>
      <trkpt lat="47.27254" lon="-2.30268">
        <ele>12.800000190735</ele>
        <time>2022-04-17T09:52:34.000Z</time>
      </trkpt>
      <trkpt lat="47.27248" lon="-2.30268">
        <ele>12.39999961853</ele>
        <time>2022-04-17T09:52:35.000Z</time>
      </trkpt>
      <trkpt lat="47.27243" lon="-2.30268">
        <ele>12</ele>
        <time>2022-04-17T09:52:36.000Z</time>
      </trkpt>
      <trkpt lat="47.27232" lon="-2.30264">
        <ele>12</ele>
        <time>2022-04-17T09:52:39.000Z</time>
      </trkpt>
      <trkpt lat="47.27226" lon="-2.30265">
        <ele>12</ele>
        <time>2022-04-17T09:52:40.000Z</time>
      </trkpt>
      <trkpt lat="47.27214" lon="-2.30261">
        <ele>12</ele>
        <time>2022-04-17T09:52:43.000Z</time>
      </trkpt>
      <trkpt lat="47.27196" lon="-2.30264">
        <ele>12</ele>
        <time>2022-04-17T09:52:48.000Z</time>
      </trkpt>
      <trkpt lat="47.27183" lon="-2.30266">
        <ele>12</ele>
        <time>2022-04-17T09:52:52.000Z</time>
      </trkpt>
      <trkpt lat="47.27181" lon="-2.30264">
        <ele>12</ele>
        <time>2022-04-17T09:52:53.000Z</time>
      </trkpt>
      <trkpt lat="47.27178" lon="-2.30261">
        <ele>12</ele>
        <time>2022-04-17T09:52:54.000Z</time>
      </trkpt>
      <trkpt lat="47.27171" lon="-2.3025">
        <ele>12</ele>
        <time>2022-04-17T09:52:57.000Z</time>
      </trkpt>
      <trkpt lat="47.27156" lon="-2.30248">
        <ele>12</ele>
        <time>2022-04-17T09:53:00.000Z</time>
      </trkpt>
      <trkpt lat="47.27151" lon="-2.30249">
        <ele>12</ele>
        <time>2022-04-17T09:53:01.000Z</time>
      </trkpt>
      <trkpt lat="47.27118" lon="-2.30261">
        <ele>12</ele>
        <time>2022-04-17T09:53:07.000Z</time>
      </trkpt>
      <trkpt lat="47.27098" lon="-2.30269">
        <ele>12</ele>
        <time>2022-04-17T09:53:11.000Z</time>
      </trkpt>
      <trkpt lat="47.27088" lon="-2.30276">
        <ele>12</ele>
        <time>2022-04-17T09:53:13.000Z</time>
      </trkpt>
      <trkpt lat="47.27078" lon="-2.30289">
        <ele>12.39999961853</ele>
        <time>2022-04-17T09:53:16.000Z</time>
      </trkpt>
      <trkpt lat="47.27076" lon="-2.30295">
        <ele>12.800000190735</ele>
        <time>2022-04-17T09:53:17.000Z</time>
      </trkpt>
      <trkpt lat="47.27075" lon="-2.30301">
        <ele>13.199999809265</ele>
        <time>2022-04-17T09:53:18.000Z</time>
      </trkpt>
      <trkpt lat="47.27073" lon="-2.30308">
        <ele>13.800000190735</ele>
        <time>2022-04-17T09:53:19.000Z</time>
      </trkpt>
      <trkpt lat="47.27071" lon="-2.30316">
        <ele>14.199999809265</ele>
        <time>2022-04-17T09:53:20.000Z</time>
      </trkpt>
      <trkpt lat="47.27068" lon="-2.30331">
        <ele>14.199999809265</ele>
        <time>2022-04-17T09:53:22.000Z</time>
      </trkpt>
      <trkpt lat="47.27057" lon="-2.30384">
        <ele>14.199999809265</ele>
        <time>2022-04-17T09:53:28.000Z</time>
      </trkpt>
      <trkpt lat="47.27056" lon="-2.30394">
        <ele>14.199999809265</ele>
        <time>2022-04-17T09:53:29.000Z</time>
      </trkpt>
      <trkpt lat="47.27049" lon="-2.30442">
        <ele>14.199999809265</ele>
        <time>2022-04-17T09:53:34.000Z</time>
      </trkpt>
      <trkpt lat="47.27046" lon="-2.30461">
        <ele>14.199999809265</ele>
        <time>2022-04-17T09:53:36.000Z</time>
      </trkpt>
      <trkpt lat="47.27042" lon="-2.30479">
        <ele>14.199999809265</ele>
        <time>2022-04-17T09:53:38.000Z</time>
      </trkpt>
      <trkpt lat="47.2703" lon="-2.30524">
        <ele>14.199999809265</ele>
        <time>2022-04-17T09:53:43.000Z</time>
      </trkpt>
      <trkpt lat="47.27026" lon="-2.30541">
        <ele>14.199999809265</ele>
        <time>2022-04-17T09:53:45.000Z</time>
      </trkpt>
      <trkpt lat="47.27018" lon="-2.30566">
        <ele>14.199999809265</ele>
        <time>2022-04-17T09:53:48.000Z</time>
      </trkpt>
      <trkpt lat="47.27009" lon="-2.30591">
        <ele>14.199999809265</ele>
        <time>2022-04-17T09:53:51.000Z</time>
      </trkpt>
      <trkpt lat="47.27" lon="-2.30604">
        <ele>14.199999809265</ele>
        <time>2022-04-17T09:53:53.000Z</time>
      </trkpt>
      <trkpt lat="47.26981" lon="-2.30617">
        <ele>14.199999809265</ele>
        <time>2022-04-17T09:53:56.000Z</time>
      </trkpt>
      <trkpt lat="47.26969" lon="-2.30623">
        <ele>14.199999809265</ele>
        <time>2022-04-17T09:53:58.000Z</time>
      </trkpt>
      <trkpt lat="47.26934" lon="-2.30636">
        <ele>14.199999809265</ele>
        <time>2022-04-17T09:54:04.000Z</time>
      </trkpt>
      <trkpt lat="47.26915" lon="-2.30645">
        <ele>14.199999809265</ele>
        <time>2022-04-17T09:54:08.000Z</time>
      </trkpt>
      <trkpt lat="47.26905" lon="-2.30656">
        <ele>14.60000038147</ele>
        <time>2022-04-17T09:54:11.000Z</time>
      </trkpt>
      <trkpt lat="47.26903" lon="-2.3066">
        <ele>15</ele>
        <time>2022-04-17T09:54:12.000Z</time>
      </trkpt>
      <trkpt lat="47.26902" lon="-2.30664">
        <ele>15.39999961853</ele>
        <time>2022-04-17T09:54:13.000Z</time>
      </trkpt>
      <trkpt lat="47.26902" lon="-2.3067">
        <ele>15.800000190735</ele>
        <time>2022-04-17T09:54:14.000Z</time>
      </trkpt>
      <trkpt lat="47.26903" lon="-2.30674">
        <ele>16.200000762939</ele>
        <time>2022-04-17T09:54:15.000Z</time>
      </trkpt>
      <trkpt lat="47.26906" lon="-2.30678">
        <ele>16.200000762939</ele>
        <time>2022-04-17T09:54:16.000Z</time>
      </trkpt>
      <trkpt lat="47.26917" lon="-2.30694">
        <ele>16.200000762939</ele>
        <time>2022-04-17T09:54:20.000Z</time>
      </trkpt>
      <trkpt lat="47.26921" lon="-2.30699">
        <ele>16.200000762939</ele>
        <time>2022-04-17T09:54:21.000Z</time>
      </trkpt>
      <trkpt lat="47.26924" lon="-2.30704">
        <ele>16.200000762939</ele>
        <time>2022-04-17T09:54:22.000Z</time>
      </trkpt>
      <trkpt lat="47.26935" lon="-2.30721">
        <ele>16.200000762939</ele>
        <time>2022-04-17T09:54:25.000Z</time>
      </trkpt>
      <trkpt lat="47.26952" lon="-2.30746">
        <ele>16.200000762939</ele>
        <time>2022-04-17T09:54:29.000Z</time>
      </trkpt>
      <trkpt lat="47.26961" lon="-2.30758">
        <ele>16.200000762939</ele>
        <time>2022-04-17T09:54:31.000Z</time>
      </trkpt>
      <trkpt lat="47.26966" lon="-2.30765">
        <ele>15.800000190735</ele>
        <time>2022-04-17T09:54:32.000Z</time>
      </trkpt>
      <trkpt lat="47.26971" lon="-2.30772">
        <ele>15.39999961853</ele>
        <time>2022-04-17T09:54:33.000Z</time>
      </trkpt>
      <trkpt lat="47.26975" lon="-2.30779">
        <ele>15</ele>
        <time>2022-04-17T09:54:34.000Z</time>
      </trkpt>
      <trkpt lat="47.26979" lon="-2.30785">
        <ele>14.60000038147</ele>
        <time>2022-04-17T09:54:35.000Z</time>
      </trkpt>
      <trkpt lat="47.26984" lon="-2.30792">
        <ele>14</ele>
        <time>2022-04-17T09:54:36.000Z</time>
      </trkpt>
      <trkpt lat="47.27007" lon="-2.30828">
        <ele>13.60000038147</ele>
        <time>2022-04-17T09:54:41.000Z</time>
      </trkpt>
      <trkpt lat="47.27012" lon="-2.30835">
        <ele>13.199999809265</ele>
        <time>2022-04-17T09:54:42.000Z</time>
      </trkpt>
      <trkpt lat="47.27016" lon="-2.30842">
        <ele>12.60000038147</ele>
        <time>2022-04-17T09:54:43.000Z</time>
      </trkpt>
      <trkpt lat="47.27021" lon="-2.30848">
        <ele>12.199999809265</ele>
        <time>2022-04-17T09:54:44.000Z</time>
      </trkpt>
      <trkpt lat="47.27026" lon="-2.30855">
        <ele>11.800000190735</ele>
        <time>2022-04-17T09:54:45.000Z</time>
      </trkpt>
      <trkpt lat="47.2703" lon="-2.30862">
        <ele>11.800000190735</ele>
        <time>2022-04-17T09:54:46.000Z</time>
      </trkpt>
      <trkpt lat="47.27039" lon="-2.30877">
        <ele>11.39999961853</ele>
        <time>2022-04-17T09:54:48.000Z</time>
      </trkpt>
      <trkpt lat="47.27042" lon="-2.30884">
        <ele>10.800000190735</ele>
        <time>2022-04-17T09:54:49.000Z</time>
      </trkpt>
      <trkpt lat="47.27044" lon="-2.3089">
        <ele>10.39999961853</ele>
        <time>2022-04-17T09:54:50.000Z</time>
      </trkpt>
      <trkpt lat="47.27044" lon="-2.30895">
        <ele>10</ele>
        <time>2022-04-17T09:54:51.000Z</time>
      </trkpt>
      <trkpt lat="47.27045" lon="-2.309">
        <ele>9.6000003814697</ele>
        <time>2022-04-17T09:54:52.000Z</time>
      </trkpt>
      <trkpt lat="47.27047" lon="-2.30909">
        <ele>9.6000003814697</ele>
        <time>2022-04-17T09:54:54.000Z</time>
      </trkpt>
      <trkpt lat="47.27049" lon="-2.30915">
        <ele>9.6000003814697</ele>
        <time>2022-04-17T09:54:55.000Z</time>
      </trkpt>
      <trkpt lat="47.27056" lon="-2.30935">
        <ele>9.6000003814697</ele>
        <time>2022-04-17T09:54:59.000Z</time>
      </trkpt>
      <trkpt lat="47.27058" lon="-2.30957">
        <ele>9.6000003814697</ele>
        <time>2022-04-17T09:55:03.000Z</time>
      </trkpt>
      <trkpt lat="47.2706" lon="-2.3097">
        <ele>9.6000003814697</ele>
        <time>2022-04-17T09:55:05.000Z</time>
      </trkpt>
      <trkpt lat="47.2706" lon="-2.3099">
        <ele>9.6000003814697</ele>
        <time>2022-04-17T09:55:08.000Z</time>
      </trkpt>
      <trkpt lat="47.2705" lon="-2.31004">
        <ele>9.6000003814697</ele>
        <time>2022-04-17T09:55:11.000Z</time>
      </trkpt>
      <trkpt lat="47.27046" lon="-2.31008">
        <ele>9.6000003814697</ele>
        <time>2022-04-17T09:55:12.000Z</time>
      </trkpt>
      <trkpt lat="47.27025" lon="-2.31028">
        <ele>9.6000003814697</ele>
        <time>2022-04-17T09:55:17.000Z</time>
      </trkpt>
      <trkpt lat="47.27004" lon="-2.31043">
        <ele>9.6000003814697</ele>
        <time>2022-04-17T09:55:21.000Z</time>
      </trkpt>
      <trkpt lat="47.26998" lon="-2.31048">
        <ele>9.6000003814697</ele>
        <time>2022-04-17T09:55:22.000Z</time>
      </trkpt>
      <trkpt lat="47.26994" lon="-2.31053">
        <ele>9.6000003814697</ele>
        <time>2022-04-17T09:55:23.000Z</time>
      </trkpt>
      <trkpt lat="47.2699" lon="-2.31065">
        <ele>10</ele>
        <time>2022-04-17T09:55:25.000Z</time>
      </trkpt>
      <trkpt lat="47.2699" lon="-2.31072">
        <ele>10.39999961853</ele>
        <time>2022-04-17T09:55:26.000Z</time>
      </trkpt>
      <trkpt lat="47.26991" lon="-2.3108">
        <ele>10.800000190735</ele>
        <time>2022-04-17T09:55:27.000Z</time>
      </trkpt>
      <trkpt lat="47.26991" lon="-2.31088">
        <ele>11.39999961853</ele>
        <time>2022-04-17T09:55:28.000Z</time>
      </trkpt>
      <trkpt lat="47.26991" lon="-2.31097">
        <ele>11.800000190735</ele>
        <time>2022-04-17T09:55:29.000Z</time>
      </trkpt>
      <trkpt lat="47.2699" lon="-2.31131">
        <ele>11.800000190735</ele>
        <time>2022-04-17T09:55:33.000Z</time>
      </trkpt>
      <trkpt lat="47.26988" lon="-2.31148">
        <ele>11.800000190735</ele>
        <time>2022-04-17T09:55:35.000Z</time>
      </trkpt>
      <trkpt lat="47.26987" lon="-2.31156">
        <ele>11.800000190735</ele>
        <time>2022-04-17T09:55:36.000Z</time>
      </trkpt>
      <trkpt lat="47.26985" lon="-2.31163">
        <ele>12.60000038147</ele>
        <time>2022-04-17T09:55:37.000Z</time>
      </trkpt>
      <trkpt lat="47.26985" lon="-2.31171">
        <ele>13</ele>
        <time>2022-04-17T09:55:38.000Z</time>
      </trkpt>
      <trkpt lat="47.26984" lon="-2.31179">
        <ele>13.60000038147</ele>
        <time>2022-04-17T09:55:39.000Z</time>
      </trkpt>
      <trkpt lat="47.26983" lon="-2.31186">
        <ele>14</ele>
        <time>2022-04-17T09:55:40.000Z</time>
      </trkpt>
      <trkpt lat="47.26977" lon="-2.31222">
        <ele>14.39999961853</ele>
        <time>2022-04-17T09:55:45.000Z</time>
      </trkpt>
      <trkpt lat="47.26976" lon="-2.31229">
        <ele>14.800000190735</ele>
        <time>2022-04-17T09:55:46.000Z</time>
      </trkpt>
      <trkpt lat="47.26975" lon="-2.31235">
        <ele>15.199999809265</ele>
        <time>2022-04-17T09:55:47.000Z</time>
      </trkpt>
      <trkpt lat="47.26975" lon="-2.31243">
        <ele>15.800000190735</ele>
        <time>2022-04-17T09:55:48.000Z</time>
      </trkpt>
      <trkpt lat="47.26975" lon="-2.31251">
        <ele>16.200000762939</ele>
        <time>2022-04-17T09:55:49.000Z</time>
      </trkpt>
      <trkpt lat="47.26975" lon="-2.31259">
        <ele>16.200000762939</ele>
        <time>2022-04-17T09:55:50.000Z</time>
      </trkpt>
      <trkpt lat="47.26976" lon="-2.31274">
        <ele>16.200000762939</ele>
        <time>2022-04-17T09:55:52.000Z</time>
      </trkpt>
      <trkpt lat="47.26975" lon="-2.31297">
        <ele>16.200000762939</ele>
        <time>2022-04-17T09:55:55.000Z</time>
      </trkpt>
      <trkpt lat="47.26979" lon="-2.31328">
        <ele>16.200000762939</ele>
        <time>2022-04-17T09:55:59.000Z</time>
      </trkpt>
      <trkpt lat="47.26981" lon="-2.31342">
        <ele>16.200000762939</ele>
        <time>2022-04-17T09:56:01.000Z</time>
      </trkpt>
      <trkpt lat="47.26983" lon="-2.31365">
        <ele>16.200000762939</ele>
        <time>2022-04-17T09:56:04.000Z</time>
      </trkpt>
      <trkpt lat="47.26984" lon="-2.31373">
        <ele>16.200000762939</ele>
        <time>2022-04-17T09:56:05.000Z</time>
      </trkpt>
      <trkpt lat="47.26985" lon="-2.31412">
        <ele>16.200000762939</ele>
        <time>2022-04-17T09:56:09.000Z</time>
      </trkpt>
      <trkpt lat="47.26987" lon="-2.31432">
        <ele>16.200000762939</ele>
        <time>2022-04-17T09:56:11.000Z</time>
      </trkpt>
      <trkpt lat="47.26988" lon="-2.31451">
        <ele>15.800000190735</ele>
        <time>2022-04-17T09:56:13.000Z</time>
      </trkpt>
      <trkpt lat="47.2699" lon="-2.3146">
        <ele>15.199999809265</ele>
        <time>2022-04-17T09:56:14.000Z</time>
      </trkpt>
      <trkpt lat="47.26991" lon="-2.31469">
        <ele>14.800000190735</ele>
        <time>2022-04-17T09:56:15.000Z</time>
      </trkpt>
      <trkpt lat="47.26993" lon="-2.31477">
        <ele>14.39999961853</ele>
        <time>2022-04-17T09:56:16.000Z</time>
      </trkpt>
      <trkpt lat="47.26994" lon="-2.31486">
        <ele>14</ele>
        <time>2022-04-17T09:56:17.000Z</time>
      </trkpt>
      <trkpt lat="47.26995" lon="-2.31495">
        <ele>14</ele>
        <time>2022-04-17T09:56:18.000Z</time>
      </trkpt>
      <trkpt lat="47.26999" lon="-2.31514">
        <ele>13.60000038147</ele>
        <time>2022-04-17T09:56:20.000Z</time>
      </trkpt>
      <trkpt lat="47.27001" lon="-2.31525">
        <ele>13</ele>
        <time>2022-04-17T09:56:21.000Z</time>
      </trkpt>
      <trkpt lat="47.27004" lon="-2.31535">
        <ele>12.60000038147</ele>
        <time>2022-04-17T09:56:22.000Z</time>
      </trkpt>
      <trkpt lat="47.27006" lon="-2.31545">
        <ele>12.199999809265</ele>
        <time>2022-04-17T09:56:23.000Z</time>
      </trkpt>
      <trkpt lat="47.27008" lon="-2.31554">
        <ele>11.800000190735</ele>
        <time>2022-04-17T09:56:24.000Z</time>
      </trkpt>
      <trkpt lat="47.27015" lon="-2.31569">
        <ele>11.199999809265</ele>
        <time>2022-04-17T09:56:26.000Z</time>
      </trkpt>
      <trkpt lat="47.27018" lon="-2.31576">
        <ele>10.39999961853</ele>
        <time>2022-04-17T09:56:27.000Z</time>
      </trkpt>
      <trkpt lat="47.27021" lon="-2.31584">
        <ele>10</ele>
        <time>2022-04-17T09:56:28.000Z</time>
      </trkpt>
      <trkpt lat="47.27023" lon="-2.3159">
        <ele>9.3999996185303</ele>
        <time>2022-04-17T09:56:29.000Z</time>
      </trkpt>
      <trkpt lat="47.27025" lon="-2.31596">
        <ele>9</ele>
        <time>2022-04-17T09:56:30.000Z</time>
      </trkpt>
      <trkpt lat="47.27025" lon="-2.31602">
        <ele>8.6000003814697</ele>
        <time>2022-04-17T09:56:31.000Z</time>
      </trkpt>
      <trkpt lat="47.27026" lon="-2.31609">
        <ele>8</ele>
        <time>2022-04-17T09:56:32.000Z</time>
      </trkpt>
      <trkpt lat="47.27028" lon="-2.31617">
        <ele>7.5999999046326</ele>
        <time>2022-04-17T09:56:33.000Z</time>
      </trkpt>
      <trkpt lat="47.27028" lon="-2.31624">
        <ele>7.1999998092651</ele>
        <time>2022-04-17T09:56:34.000Z</time>
      </trkpt>
      <trkpt lat="47.27032" lon="-2.3165">
        <ele>6.8000001907349</ele>
        <time>2022-04-17T09:56:37.000Z</time>
      </trkpt>
      <trkpt lat="47.27032" lon="-2.31659">
        <ele>6.4000000953674</ele>
        <time>2022-04-17T09:56:38.000Z</time>
      </trkpt>
      <trkpt lat="47.27031" lon="-2.31668">
        <ele>6</ele>
        <time>2022-04-17T09:56:39.000Z</time>
      </trkpt>
      <trkpt lat="47.2703" lon="-2.31676">
        <ele>5.4000000953674</ele>
        <time>2022-04-17T09:56:40.000Z</time>
      </trkpt>
      <trkpt lat="47.27029" lon="-2.31684">
        <ele>5</ele>
        <time>2022-04-17T09:56:41.000Z</time>
      </trkpt>
      <trkpt lat="47.27028" lon="-2.31696">
        <ele>4.5999999046326</ele>
        <time>2022-04-17T09:56:43.000Z</time>
      </trkpt>
      <trkpt lat="47.2703" lon="-2.31702">
        <ele>4.1999998092651</ele>
        <time>2022-04-17T09:56:44.000Z</time>
      </trkpt>
      <trkpt lat="47.27033" lon="-2.31705">
        <ele>3.5999999046326</ele>
        <time>2022-04-17T09:56:45.000Z</time>
      </trkpt>
      <trkpt lat="47.27036" lon="-2.31709">
        <ele>3.2000000476837</ele>
        <time>2022-04-17T09:56:46.000Z</time>
      </trkpt>
      <trkpt lat="47.27039" lon="-2.31712">
        <ele>2.7999999523163</ele>
        <time>2022-04-17T09:56:47.000Z</time>
      </trkpt>
      <trkpt lat="47.27043" lon="-2.31716">
        <ele>2.7999999523163</ele>
        <time>2022-04-17T09:56:48.000Z</time>
      </trkpt>
      <trkpt lat="47.27051" lon="-2.31725">
        <ele>2.7999999523163</ele>
        <time>2022-04-17T09:56:50.000Z</time>
      </trkpt>
      <trkpt lat="47.27052" lon="-2.31733">
        <ele>2.7999999523163</ele>
        <time>2022-04-17T09:56:52.000Z</time>
      </trkpt>
      <trkpt lat="47.27052" lon="-2.31734">
        <ele>2.7999999523163</ele>
        <time>2022-04-17T09:56:53.000Z</time>
      </trkpt>
      <trkpt lat="47.27052" lon="-2.31736">
        <ele>2.7999999523163</ele>
        <time>2022-04-17T09:56:57.000Z</time>
      </trkpt>
      <trkpt lat="47.27052" lon="-2.31743">
        <ele>2.7999999523163</ele>
        <time>2022-04-17T09:56:59.000Z</time>
      </trkpt>
      <trkpt lat="47.27052" lon="-2.3176">
        <ele>2.7999999523163</ele>
        <time>2022-04-17T09:57:03.000Z</time>
      </trkpt>
      <trkpt lat="47.27053" lon="-2.31766">
        <ele>2.7999999523163</ele>
        <time>2022-04-17T09:57:04.000Z</time>
      </trkpt>
      <trkpt lat="47.27055" lon="-2.3178">
        <ele>2.7999999523163</ele>
        <time>2022-04-17T09:57:06.000Z</time>
      </trkpt>
      <trkpt lat="47.27057" lon="-2.31796">
        <ele>2.7999999523163</ele>
        <time>2022-04-17T09:57:08.000Z</time>
      </trkpt>
      <trkpt lat="47.27057" lon="-2.31805">
        <ele>2.4000000953674</ele>
        <time>2022-04-17T09:57:09.000Z</time>
      </trkpt>
      <trkpt lat="47.27058" lon="-2.31813">
        <ele>2</ele>
        <time>2022-04-17T09:57:10.000Z</time>
      </trkpt>
      <trkpt lat="47.27059" lon="-2.31821">
        <ele>1.6000000238419</ele>
        <time>2022-04-17T09:57:11.000Z</time>
      </trkpt>
      <trkpt lat="47.2706" lon="-2.31829">
        <ele>1</ele>
        <time>2022-04-17T09:57:12.000Z</time>
      </trkpt>
      <trkpt lat="47.27061" lon="-2.31836">
        <ele>0.60000002384186</ele>
        <time>2022-04-17T09:57:13.000Z</time>
      </trkpt>
      <trkpt lat="47.27062" lon="-2.31842">
        <ele>0.60000002384186</ele>
        <time>2022-04-17T09:57:14.000Z</time>
      </trkpt>
      <trkpt lat="47.27064" lon="-2.31847">
        <ele>0.60000002384186</ele>
        <time>2022-04-17T09:57:15.000Z</time>
      </trkpt>
      <trkpt lat="47.27071" lon="-2.31852">
        <ele>0.20000000298023</ele>
        <time>2022-04-17T09:57:17.000Z</time>
      </trkpt>
      <trkpt lat="47.27074" lon="-2.31853">
        <ele>-0.20000000298023</ele>
        <time>2022-04-17T09:57:18.000Z</time>
      </trkpt>
      <trkpt lat="47.27076" lon="-2.31855">
        <ele>-0.60000002384186</ele>
        <time>2022-04-17T09:57:19.000Z</time>
      </trkpt>
      <trkpt lat="47.27078" lon="-2.31858">
        <ele>-1</ele>
        <time>2022-04-17T09:57:20.000Z</time>
      </trkpt>
      <trkpt lat="47.27078" lon="-2.3186">
        <ele>-1.3999999761581</ele>
        <time>2022-04-17T09:57:21.000Z</time>
      </trkpt>
      <trkpt lat="47.27077" lon="-2.31867">
        <ele>-1.3999999761581</ele>
        <time>2022-04-17T09:57:24.000Z</time>
      </trkpt>
      <trkpt lat="47.27074" lon="-2.31882">
        <ele>-1.3999999761581</ele>
        <time>2022-04-17T09:57:29.000Z</time>
      </trkpt>
      <trkpt lat="47.27075" lon="-2.31912">
        <ele>-1.3999999761581</ele>
        <time>2022-04-17T09:57:34.000Z</time>
      </trkpt>
      <trkpt lat="47.27075" lon="-2.31938">
        <ele>-1.7999999523163</ele>
        <time>2022-04-17T09:57:38.000Z</time>
      </trkpt>
      <trkpt lat="47.27074" lon="-2.31942">
        <ele>-2.4000000953674</ele>
        <time>2022-04-17T09:57:39.000Z</time>
      </trkpt>
      <trkpt lat="47.27072" lon="-2.31945">
        <ele>-2.7999999523163</ele>
        <time>2022-04-17T09:57:40.000Z</time>
      </trkpt>
      <trkpt lat="47.27068" lon="-2.31946">
        <ele>-3.5999999046326</ele>
        <time>2022-04-17T09:57:41.000Z</time>
      </trkpt>
      <trkpt lat="47.27065" lon="-2.31947">
        <ele>-3.5999999046326</ele>
        <time>2022-04-17T09:57:42.000Z</time>
      </trkpt>
      <trkpt lat="47.27057" lon="-2.31946">
        <ele>-3.5999999046326</ele>
        <time>2022-04-17T09:57:46.000Z</time>
      </trkpt>
      <trkpt lat="47.27056" lon="-2.31947">
        <ele>-3.5999999046326</ele>
        <time>2022-04-17T09:57:47.000Z</time>
      </trkpt>
      <trkpt lat="47.27054" lon="-2.31947">
        <ele>-3.5999999046326</ele>
        <time>2022-04-17T09:57:55.000Z</time>
      </trkpt>
      <trkpt lat="47.2705" lon="-2.31947">
        <ele>-3.5999999046326</ele>
        <time>2022-04-17T09:57:57.000Z</time>
      </trkpt>
      <trkpt lat="47.27039" lon="-2.31953">
        <ele>-3.5999999046326</ele>
        <time>2022-04-17T09:58:01.000Z</time>
      </trkpt>
      <trkpt lat="47.27023" lon="-2.31964">
        <ele>-3.5999999046326</ele>
        <time>2022-04-17T09:58:06.000Z</time>
      </trkpt>
      <trkpt lat="47.27011" lon="-2.31974">
        <ele>-3.5999999046326</ele>
        <time>2022-04-17T09:58:09.000Z</time>
      </trkpt>
      <trkpt lat="47.27005" lon="-2.31982">
        <ele>-3.5999999046326</ele>
        <time>2022-04-17T09:58:11.000Z</time>
      </trkpt>
      <trkpt lat="47.26993" lon="-2.31988">
        <ele>-3.5999999046326</ele>
        <time>2022-04-17T09:58:14.000Z</time>
      </trkpt>
      <trkpt lat="47.26988" lon="-2.3199">
        <ele>-3.5999999046326</ele>
        <time>2022-04-17T09:58:15.000Z</time>
      </trkpt>
      <trkpt lat="47.26984" lon="-2.31991">
        <ele>-3.5999999046326</ele>
        <time>2022-04-17T09:58:16.000Z</time>
      </trkpt>
      <trkpt lat="47.26959" lon="-2.31998">
        <ele>-3.5999999046326</ele>
        <time>2022-04-17T09:58:21.000Z</time>
      </trkpt>
      <trkpt lat="47.26955" lon="-2.31998">
        <ele>-3.5999999046326</ele>
        <time>2022-04-17T09:58:22.000Z</time>
      </trkpt>
      <trkpt lat="47.26948" lon="-2.31993">
        <ele>-3.5999999046326</ele>
        <time>2022-04-17T09:58:24.000Z</time>
      </trkpt>
      <trkpt lat="47.26941" lon="-2.31984">
        <ele>-3.2000000476837</ele>
        <time>2022-04-17T09:58:26.000Z</time>
      </trkpt>
      <trkpt lat="47.26939" lon="-2.3198">
        <ele>-2.5999999046326</ele>
        <time>2022-04-17T09:58:27.000Z</time>
      </trkpt>
      <trkpt lat="47.26936" lon="-2.31976">
        <ele>-2.2000000476837</ele>
        <time>2022-04-17T09:58:28.000Z</time>
      </trkpt>
      <trkpt lat="47.26934" lon="-2.31972">
        <ele>-1.7999999523163</ele>
        <time>2022-04-17T09:58:29.000Z</time>
      </trkpt>
      <trkpt lat="47.26932" lon="-2.31968">
        <ele>-1.3999999761581</ele>
        <time>2022-04-17T09:58:30.000Z</time>
      </trkpt>
      <trkpt lat="47.26925" lon="-2.3196">
        <ele>-1.3999999761581</ele>
        <time>2022-04-17T09:58:32.000Z</time>
      </trkpt>
      <trkpt lat="47.26918" lon="-2.31951">
        <ele>-1.3999999761581</ele>
        <time>2022-04-17T09:58:34.000Z</time>
      </trkpt>
      <trkpt lat="47.26915" lon="-2.31948">
        <ele>-1</ele>
        <time>2022-04-17T09:58:35.000Z</time>
      </trkpt>
      <trkpt lat="47.26912" lon="-2.31945">
        <ele>-0.60000002384186</ele>
        <time>2022-04-17T09:58:36.000Z</time>
      </trkpt>
      <trkpt lat="47.2691" lon="-2.31941">
        <ele>13.4</ele>
        <time>2022-04-17T09:58:37.000Z</time>
      </trkpt>
      <trkpt lat="47.26907" lon="-2.31937">
        <ele>0.40000000596046</ele>
        <time>2022-04-17T09:58:38.000Z</time>
      </trkpt>
      <trkpt lat="47.26905" lon="-2.31933">
        <ele>0.80000001192093</ele>
        <time>2022-04-17T09:58:39.000Z</time>
      </trkpt>
      <trkpt lat="47.26902" lon="-2.31928">
        <ele>0.80000001192093</ele>
        <time>2022-04-17T09:58:40.000Z</time>
      </trkpt>
      <trkpt lat="47.26891" lon="-2.31912">
        <ele>1.2000000476837</ele>
        <time>2022-04-17T09:58:44.000Z</time>
      </trkpt>
      <trkpt lat="47.26888" lon="-2.31908">
        <ele>1.7999999523163</ele>
        <time>2022-04-17T09:58:45.000Z</time>
      </trkpt>
      <trkpt lat="47.26884" lon="-2.31905">
        <ele>2.2000000476837</ele>
        <time>2022-04-17T09:58:46.000Z</time>
      </trkpt>
      <trkpt lat="47.2688" lon="-2.31901">
        <ele>2.5999999046326</ele>
        <time>2022-04-17T09:58:47.000Z</time>
      </trkpt>
      <trkpt lat="47.26876" lon="-2.31898">
        <ele>3.2000000476837</ele>
        <time>2022-04-17T09:58:48.000Z</time>
      </trkpt>
      <trkpt lat="47.26864" lon="-2.31893">
        <ele>3.2000000476837</ele>
        <time>2022-04-17T09:58:51.000Z</time>
      </trkpt>
      <trkpt lat="47.26848" lon="-2.31889">
        <ele>3.2000000476837</ele>
        <time>2022-04-17T09:58:56.000Z</time>
      </trkpt>
      <trkpt lat="47.26843" lon="-2.31882">
        <ele>3.5999999046326</ele>
        <time>2022-04-17T09:58:58.000Z</time>
      </trkpt>
      <trkpt lat="47.26841" lon="-2.31878">
        <ele>4</ele>
        <time>2022-04-17T09:58:59.000Z</time>
      </trkpt>
      <trkpt lat="47.26839" lon="-2.31875">
        <ele>4.4000000953674</ele>
        <time>2022-04-17T09:59:00.000Z</time>
      </trkpt>
      <trkpt lat="47.26837" lon="-2.3187">
        <ele>4.8000001907349</ele>
        <time>2022-04-17T09:59:01.000Z</time>
      </trkpt>
      <trkpt lat="47.26835" lon="-2.31866">
        <ele>5.1999998092651</ele>
        <time>2022-04-17T09:59:02.000Z</time>
      </trkpt>
      <trkpt lat="47.26825" lon="-2.31836">
        <ele>5.5999999046326</ele>
        <time>2022-04-17T09:59:09.000Z</time>
      </trkpt>
      <trkpt lat="47.26824" lon="-2.31833">
        <ele>6</ele>
        <time>2022-04-17T09:59:10.000Z</time>
      </trkpt>
      <trkpt lat="47.26823" lon="-2.31829">
        <ele>6.4000000953674</ele>
        <time>2022-04-17T09:59:11.000Z</time>
      </trkpt>
      <trkpt lat="47.26822" lon="-2.31826">
        <ele>6.8000001907349</ele>
        <time>2022-04-17T09:59:12.000Z</time>
      </trkpt>
      <trkpt lat="47.26821" lon="-2.31823">
        <ele>7.1999998092651</ele>
        <time>2022-04-17T09:59:13.000Z</time>
      </trkpt>
      <trkpt lat="47.26821" lon="-2.31817">
        <ele>7.1999998092651</ele>
        <time>2022-04-17T09:59:15.000Z</time>
      </trkpt>
      <trkpt lat="47.2682" lon="-2.31815">
        <ele>7.1999998092651</ele>
        <time>2022-04-17T09:59:16.000Z</time>
      </trkpt>
      <trkpt lat="47.26814" lon="-2.31811">
        <ele>7.1999998092651</ele>
        <time>2022-04-17T09:59:19.000Z</time>
      </trkpt>
      <trkpt lat="47.26804" lon="-2.31815">
        <ele>7.1999998092651</ele>
        <time>2022-04-17T09:59:22.000Z</time>
      </trkpt>
      <trkpt lat="47.26797" lon="-2.3182">
        <ele>7.1999998092651</ele>
        <time>2022-04-17T09:59:24.000Z</time>
      </trkpt>
      <trkpt lat="47.26781" lon="-2.31829">
        <ele>7.1999998092651</ele>
        <time>2022-04-17T09:59:30.000Z</time>
      </trkpt>
      <trkpt lat="47.2677" lon="-2.31837">
        <ele>7.1999998092651</ele>
        <time>2022-04-17T09:59:37.000Z</time>
      </trkpt>
      <trkpt lat="47.26757" lon="-2.31845">
        <ele>7.1999998092651</ele>
        <time>2022-04-17T09:59:42.000Z</time>
      </trkpt>
      <trkpt lat="47.26736" lon="-2.31865">
        <ele>7.5999999046326</ele>
        <time>2022-04-17T09:59:48.000Z</time>
      </trkpt>
      <trkpt lat="47.26732" lon="-2.31868">
        <ele>8.1999998092651</ele>
        <time>2022-04-17T09:59:49.000Z</time>
      </trkpt>
      <trkpt lat="47.26728" lon="-2.31872">
        <ele>8.6000003814697</ele>
        <time>2022-04-17T09:59:50.000Z</time>
      </trkpt>
      <trkpt lat="47.26724" lon="-2.31875">
        <ele>9</ele>
        <time>2022-04-17T09:59:51.000Z</time>
      </trkpt>
      <trkpt lat="47.2672" lon="-2.31878">
        <ele>9.3999996185303</ele>
        <time>2022-04-17T09:59:52.000Z</time>
      </trkpt>
      <trkpt lat="47.2671" lon="-2.31886">
        <ele>9.3999996185303</ele>
        <time>2022-04-17T09:59:55.000Z</time>
      </trkpt>
      <trkpt lat="47.26706" lon="-2.3189">
        <ele>9.3999996185303</ele>
        <time>2022-04-17T09:59:56.000Z</time>
      </trkpt>
      <trkpt lat="47.26692" lon="-2.31906">
        <ele>9.3999996185303</ele>
        <time>2022-04-17T10:00:00.000Z</time>
      </trkpt>
      <trkpt lat="47.26666" lon="-2.31932">
        <ele>9.3999996185303</ele>
        <time>2022-04-17T10:00:07.000Z</time>
      </trkpt>
      <trkpt lat="47.26662" lon="-2.31936">
        <ele>9.3999996185303</ele>
        <time>2022-04-17T10:00:08.000Z</time>
      </trkpt>
      <trkpt lat="47.26651" lon="-2.31952">
        <ele>9.3999996185303</ele>
        <time>2022-04-17T10:00:11.000Z</time>
      </trkpt>
      <trkpt lat="47.26649" lon="-2.31958">
        <ele>9.3999996185303</ele>
        <time>2022-04-17T10:00:12.000Z</time>
      </trkpt>
      <trkpt lat="47.26644" lon="-2.31987">
        <ele>9.3999996185303</ele>
        <time>2022-04-17T10:00:16.000Z</time>
      </trkpt>
      <trkpt lat="47.26639" lon="-2.32006">
        <ele>9.3999996185303</ele>
        <time>2022-04-17T10:00:19.000Z</time>
      </trkpt>
      <trkpt lat="47.26625" lon="-2.32013">
        <ele>9.3999996185303</ele>
        <time>2022-04-17T10:00:22.000Z</time>
      </trkpt>
      <trkpt lat="47.26619" lon="-2.32015">
        <ele>9.3999996185303</ele>
        <time>2022-04-17T10:00:23.000Z</time>
      </trkpt>
      <trkpt lat="47.2659" lon="-2.32025">
        <ele>9.3999996185303</ele>
        <time>2022-04-17T10:00:28.000Z</time>
      </trkpt>
      <trkpt lat="47.26549" lon="-2.3204">
        <ele>9.3999996185303</ele>
        <time>2022-04-17T10:00:35.000Z</time>
      </trkpt>
      <trkpt lat="47.26545" lon="-2.32039">
        <ele>8.8000001907349</ele>
        <time>2022-04-17T10:00:36.000Z</time>
      </trkpt>
      <trkpt lat="47.26543" lon="-2.32037">
        <ele>8.3999996185303</ele>
        <time>2022-04-17T10:00:37.000Z</time>
      </trkpt>
      <trkpt lat="47.26543" lon="-2.32034">
        <ele>7.8000001907349</ele>
        <time>2022-04-17T10:00:38.000Z</time>
      </trkpt>
      <trkpt lat="47.26542" lon="-2.32031">
        <ele>7.4000000953674</ele>
        <time>2022-04-17T10:00:39.000Z</time>
      </trkpt>
      <trkpt lat="47.26542" lon="-2.32027">
        <ele>6.8000001907349</ele>
        <time>2022-04-17T10:00:40.000Z</time>
      </trkpt>
      <trkpt lat="47.26539" lon="-2.3202">
        <ele>6.8000001907349</ele>
        <time>2022-04-17T10:00:42.000Z</time>
      </trkpt>
      <trkpt lat="47.26528" lon="-2.32006">
        <ele>6.8000001907349</ele>
        <time>2022-04-17T10:00:47.000Z</time>
      </trkpt>
      <trkpt lat="47.26526" lon="-2.32005">
        <ele>6.4000000953674</ele>
        <time>2022-04-17T10:00:48.000Z</time>
      </trkpt>
      <trkpt lat="47.26523" lon="-2.32003">
        <ele>6</ele>
        <time>2022-04-17T10:00:49.000Z</time>
      </trkpt>
      <trkpt lat="47.2652" lon="-2.32002">
        <ele>5.5999999046326</ele>
        <time>2022-04-17T10:00:50.000Z</time>
      </trkpt>
      <trkpt lat="47.26516" lon="-2.32003">
        <ele>5.1999998092651</ele>
        <time>2022-04-17T10:00:51.000Z</time>
      </trkpt>
      <trkpt lat="47.26512" lon="-2.32003">
        <ele>4.8000001907349</ele>
        <time>2022-04-17T10:00:52.000Z</time>
      </trkpt>
      <trkpt lat="47.26501" lon="-2.32003">
        <ele>4.4000000953674</ele>
        <time>2022-04-17T10:00:54.000Z</time>
      </trkpt>
      <trkpt lat="47.26494" lon="-2.32003">
        <ele>3.7999999523163</ele>
        <time>2022-04-17T10:00:55.000Z</time>
      </trkpt>
      <trkpt lat="47.26488" lon="-2.32003">
        <ele>3.4000000953674</ele>
        <time>2022-04-17T10:00:56.000Z</time>
      </trkpt>
      <trkpt lat="47.26482" lon="-2.32003">
        <ele>3</ele>
        <time>2022-04-17T10:00:57.000Z</time>
      </trkpt>
      <trkpt lat="47.26476" lon="-2.32002">
        <ele>2.4000000953674</ele>
        <time>2022-04-17T10:00:58.000Z</time>
      </trkpt>
      <trkpt lat="47.2647" lon="-2.32003">
        <ele>2</ele>
        <time>2022-04-17T10:00:59.000Z</time>
      </trkpt>
      <trkpt lat="47.26464" lon="-2.32003">
        <ele>1.6000000238419</ele>
        <time>2022-04-17T10:01:00.000Z</time>
      </trkpt>
      <trkpt lat="47.26458" lon="-2.32004">
        <ele>1.2000000476837</ele>
        <time>2022-04-17T10:01:01.000Z</time>
      </trkpt>
      <trkpt lat="47.26452" lon="-2.32004">
        <ele>0.80000001192093</ele>
        <time>2022-04-17T10:01:02.000Z</time>
      </trkpt>
      <trkpt lat="47.26446" lon="-2.32004">
        <ele>0.20000000298023</ele>
        <time>2022-04-17T10:01:03.000Z</time>
      </trkpt>
      <trkpt lat="47.26434" lon="-2.32003">
        <ele>-0.20000000298023</ele>
        <time>2022-04-17T10:01:05.000Z</time>
      </trkpt>
      <trkpt lat="47.26428" lon="-2.32003">
        <ele>-0.60000002384186</ele>
        <time>2022-04-17T10:01:06.000Z</time>
      </trkpt>
      <trkpt lat="47.26422" lon="-2.32003">
        <ele>-1</ele>
        <time>2022-04-17T10:01:07.000Z</time>
      </trkpt>
      <trkpt lat="47.26416" lon="-2.32002">
        <ele>-1.3999999761581</ele>
        <time>2022-04-17T10:01:08.000Z</time>
      </trkpt>
      <trkpt lat="47.2641" lon="-2.32">
        <ele>-1.7999999523163</ele>
        <time>2022-04-17T10:01:09.000Z</time>
      </trkpt>
      <trkpt lat="47.26404" lon="-2.31999">
        <ele>-2.2000000476837</ele>
        <time>2022-04-17T10:01:10.000Z</time>
      </trkpt>
      <trkpt lat="47.26397" lon="-2.31998">
        <ele>-2.5999999046326</ele>
        <time>2022-04-17T10:01:11.000Z</time>
      </trkpt>
      <trkpt lat="47.26391" lon="-2.31998">
        <ele>-3</ele>
        <time>2022-04-17T10:01:12.000Z</time>
      </trkpt>
      <trkpt lat="47.26385" lon="-2.31997">
        <ele>-3.5999999046326</ele>
        <time>2022-04-17T10:01:13.000Z</time>
      </trkpt>
      <trkpt lat="47.26378" lon="-2.31996">
        <ele>-4</ele>
        <time>2022-04-17T10:01:14.000Z</time>
      </trkpt>
      <trkpt lat="47.26373" lon="-2.31993">
        <ele>-4.4000000953674</ele>
        <time>2022-04-17T10:01:15.000Z</time>
      </trkpt>
      <trkpt lat="47.26369" lon="-2.31989">
        <ele>-4.8000001907349</ele>
        <time>2022-04-17T10:01:16.000Z</time>
      </trkpt>
      <trkpt lat="47.26365" lon="-2.31982">
        <ele>-5.1999998092651</ele>
        <time>2022-04-17T10:01:17.000Z</time>
      </trkpt>
      <trkpt lat="47.26362" lon="-2.31974">
        <ele>-5.8000001907349</ele>
        <time>2022-04-17T10:01:18.000Z</time>
      </trkpt>
      <trkpt lat="47.26359" lon="-2.31967">
        <ele>-6.1999998092651</ele>
        <time>2022-04-17T10:01:19.000Z</time>
      </trkpt>
      <trkpt lat="47.26353" lon="-2.31952">
        <ele>-6.1999998092651</ele>
        <time>2022-04-17T10:01:21.000Z</time>
      </trkpt>
      <trkpt lat="47.26344" lon="-2.31944">
        <ele>-6.1999998092651</ele>
        <time>2022-04-17T10:01:23.000Z</time>
      </trkpt>
      <trkpt lat="47.26324" lon="-2.31941">
        <ele>-6.5999999046326</ele>
        <time>2022-04-17T10:01:27.000Z</time>
      </trkpt>
      <trkpt lat="47.2632" lon="-2.31941">
        <ele>-7</ele>
        <time>2022-04-17T10:01:28.000Z</time>
      </trkpt>
      <trkpt lat="47.26316" lon="-2.3194">
        <ele>-7.4000000953674</ele>
        <time>2022-04-17T10:01:29.000Z</time>
      </trkpt>
      <trkpt lat="47.26311" lon="-2.31938">
        <ele>-7.8000001907349</ele>
        <time>2022-04-17T10:01:30.000Z</time>
      </trkpt>
      <trkpt lat="47.26308" lon="-2.31935">
        <ele>-8.1999998092651</ele>
        <time>2022-04-17T10:01:31.000Z</time>
      </trkpt>
      <trkpt lat="47.26305" lon="-2.31931">
        <ele>-8.1999998092651</ele>
        <time>2022-04-17T10:01:32.000Z</time>
      </trkpt>
      <trkpt lat="47.26303" lon="-2.3191">
        <ele>-8.1999998092651</ele>
        <time>2022-04-17T10:01:35.000Z</time>
      </trkpt>
      <trkpt lat="47.26301" lon="-2.31905">
        <ele>-8.1999998092651</ele>
        <time>2022-04-17T10:01:36.000Z</time>
      </trkpt>
      <trkpt lat="47.26294" lon="-2.31903">
        <ele>-8.1999998092651</ele>
        <time>2022-04-17T10:01:38.000Z</time>
      </trkpt>
      <trkpt lat="47.26276" lon="-2.31915">
        <ele>-8.1999998092651</ele>
        <time>2022-04-17T10:01:43.000Z</time>
      </trkpt>
      <trkpt lat="47.26261" lon="-2.31939">
        <ele>-8.1999998092651</ele>
        <time>2022-04-17T10:01:48.000Z</time>
      </trkpt>
      <trkpt lat="47.26245" lon="-2.31968">
        <ele>-8.1999998092651</ele>
        <time>2022-04-17T10:01:53.000Z</time>
      </trkpt>
      <trkpt lat="47.26243" lon="-2.31973">
        <ele>-8.1999998092651</ele>
        <time>2022-04-17T10:01:54.000Z</time>
      </trkpt>
      <trkpt lat="47.26233" lon="-2.31978">
        <ele>-8.1999998092651</ele>
        <time>2022-04-17T10:01:57.000Z</time>
      </trkpt>
      <trkpt lat="47.26223" lon="-2.31985">
        <ele>-8.1999998092651</ele>
        <time>2022-04-17T10:02:00.000Z</time>
      </trkpt>
      <trkpt lat="47.26217" lon="-2.31993">
        <ele>-8.1999998092651</ele>
        <time>2022-04-17T10:02:02.000Z</time>
      </trkpt>
      <trkpt lat="47.26205" lon="-2.32004">
        <ele>-8.1999998092651</ele>
        <time>2022-04-17T10:02:06.000Z</time>
      </trkpt>
      <trkpt lat="47.262" lon="-2.32017">
        <ele>-8.1999998092651</ele>
        <time>2022-04-17T10:02:10.000Z</time>
      </trkpt>
      <trkpt lat="47.26191" lon="-2.32017">
        <ele>-8.1999998092651</ele>
        <time>2022-04-17T10:02:13.000Z</time>
      </trkpt>
      <trkpt lat="47.26184" lon="-2.32018">
        <ele>-8.1999998092651</ele>
        <time>2022-04-17T10:02:15.000Z</time>
      </trkpt>
      <trkpt lat="47.26168" lon="-2.32033">
        <ele>-8.1999998092651</ele>
        <time>2022-04-17T10:02:19.000Z</time>
      </trkpt>
      <trkpt lat="47.26163" lon="-2.32038">
        <ele>-8.1999998092651</ele>
        <time>2022-04-17T10:02:20.000Z</time>
      </trkpt>
      <trkpt lat="47.26154" lon="-2.32057">
        <ele>-8.1999998092651</ele>
        <time>2022-04-17T10:02:23.000Z</time>
      </trkpt>
      <trkpt lat="47.26151" lon="-2.32064">
        <ele>-8.1999998092651</ele>
        <time>2022-04-17T10:02:24.000Z</time>
      </trkpt>
      <trkpt lat="47.26142" lon="-2.32095">
        <ele>-8.1999998092651</ele>
        <time>2022-04-17T10:02:28.000Z</time>
      </trkpt>
      <trkpt lat="47.2614" lon="-2.32102">
        <ele>-8.1999998092651</ele>
        <time>2022-04-17T10:02:29.000Z</time>
      </trkpt>
      <trkpt lat="47.26127" lon="-2.32145">
        <ele>-8.1999998092651</ele>
        <time>2022-04-17T10:02:35.000Z</time>
      </trkpt>
      <trkpt lat="47.2611" lon="-2.32187">
        <ele>-8.1999998092651</ele>
        <time>2022-04-17T10:02:41.000Z</time>
      </trkpt>
      <trkpt lat="47.26107" lon="-2.32194">
        <ele>-8.1999998092651</ele>
        <time>2022-04-17T10:02:42.000Z</time>
      </trkpt>
      <trkpt lat="47.26092" lon="-2.32221">
        <ele>-8.1999998092651</ele>
        <time>2022-04-17T10:02:46.000Z</time>
      </trkpt>
      <trkpt lat="47.26065" lon="-2.32255">
        <ele>-8.1999998092651</ele>
        <time>2022-04-17T10:02:52.000Z</time>
      </trkpt>
      <trkpt lat="47.26024" lon="-2.32299">
        <ele>-8.1999998092651</ele>
        <time>2022-04-17T10:03:00.000Z</time>
      </trkpt>
      <trkpt lat="47.25991" lon="-2.32343">
        <ele>-8.1999998092651</ele>
        <time>2022-04-17T10:03:07.000Z</time>
      </trkpt>
      <trkpt lat="47.25953" lon="-2.32395">
        <ele>-8.1999998092651</ele>
        <time>2022-04-17T10:03:15.000Z</time>
      </trkpt>
      <trkpt lat="47.2592" lon="-2.32436">
        <ele>-8.1999998092651</ele>
        <time>2022-04-17T10:03:22.000Z</time>
      </trkpt>
      <trkpt lat="47.25916" lon="-2.32442">
        <ele>-8.1999998092651</ele>
        <time>2022-04-17T10:03:23.000Z</time>
      </trkpt>
      <trkpt lat="47.25899" lon="-2.32462">
        <ele>-8.1999998092651</ele>
        <time>2022-04-17T10:03:27.000Z</time>
      </trkpt>
      <trkpt lat="47.2589" lon="-2.3247">
        <ele>-8.1999998092651</ele>
        <time>2022-04-17T10:03:29.000Z</time>
      </trkpt>
      <trkpt lat="47.2588" lon="-2.32475">
        <ele>-8.1999998092651</ele>
        <time>2022-04-17T10:03:31.000Z</time>
      </trkpt>
      <trkpt lat="47.2587" lon="-2.32478">
        <ele>-8.1999998092651</ele>
        <time>2022-04-17T10:03:33.000Z</time>
      </trkpt>
      <trkpt lat="47.25859" lon="-2.32479">
        <ele>-8.1999998092651</ele>
        <time>2022-04-17T10:03:35.000Z</time>
      </trkpt>
      <trkpt lat="47.25848" lon="-2.32478">
        <ele>-8.1999998092651</ele>
        <time>2022-04-17T10:03:37.000Z</time>
      </trkpt>
      <trkpt lat="47.25837" lon="-2.32475">
        <ele>-8.1999998092651</ele>
        <time>2022-04-17T10:03:39.000Z</time>
      </trkpt>
      <trkpt lat="47.2582" lon="-2.32465">
        <ele>-8.1999998092651</ele>
        <time>2022-04-17T10:03:42.000Z</time>
      </trkpt>
      <trkpt lat="47.25815" lon="-2.32463">
        <ele>-8.1999998092651</ele>
        <time>2022-04-17T10:03:43.000Z</time>
      </trkpt>
      <trkpt lat="47.25803" lon="-2.32459">
        <ele>-8.1999998092651</ele>
        <time>2022-04-17T10:03:45.000Z</time>
      </trkpt>
      <trkpt lat="47.25793" lon="-2.3246">
        <ele>-8.1999998092651</ele>
        <time>2022-04-17T10:03:47.000Z</time>
      </trkpt>
      <trkpt lat="47.2578" lon="-2.32451">
        <ele>-8.1999998092651</ele>
        <time>2022-04-17T10:03:50.000Z</time>
      </trkpt>
      <trkpt lat="47.25773" lon="-2.32439">
        <ele>-8.1999998092651</ele>
        <time>2022-04-17T10:03:52.000Z</time>
      </trkpt>
      <trkpt lat="47.25769" lon="-2.32434">
        <ele>-8.1999998092651</ele>
        <time>2022-04-17T10:03:53.000Z</time>
      </trkpt>
      <trkpt lat="47.25759" lon="-2.32427">
        <ele>-8.1999998092651</ele>
        <time>2022-04-17T10:03:55.000Z</time>
      </trkpt>
      <trkpt lat="47.25741" lon="-2.32426">
        <ele>-8.1999998092651</ele>
        <time>2022-04-17T10:03:58.000Z</time>
      </trkpt>
      <trkpt lat="47.25735" lon="-2.32425">
        <ele>-8.1999998092651</ele>
        <time>2022-04-17T10:03:59.000Z</time>
      </trkpt>
      <trkpt lat="47.25694" lon="-2.32423">
        <ele>-8.1999998092651</ele>
        <time>2022-04-17T10:04:06.000Z</time>
      </trkpt>
      <trkpt lat="47.25669" lon="-2.32422">
        <ele>-8.1999998092651</ele>
        <time>2022-04-17T10:04:11.000Z</time>
      </trkpt>
      <trkpt lat="47.25665" lon="-2.32426">
        <ele>-8.1999998092651</ele>
        <time>2022-04-17T10:04:12.000Z</time>
      </trkpt>
      <trkpt lat="47.25662" lon="-2.3244">
        <ele>-8.1999998092651</ele>
        <time>2022-04-17T10:04:14.000Z</time>
      </trkpt>
      <trkpt lat="47.2567" lon="-2.32471">
        <ele>-8.1999998092651</ele>
        <time>2022-04-17T10:04:18.000Z</time>
      </trkpt>
      <trkpt lat="47.25682" lon="-2.32506">
        <ele>-8.1999998092651</ele>
        <time>2022-04-17T10:04:23.000Z</time>
      </trkpt>
      <trkpt lat="47.25686" lon="-2.32521">
        <ele>-7.8000001907349</ele>
        <time>2022-04-17T10:04:25.000Z</time>
      </trkpt>
      <trkpt lat="47.25688" lon="-2.32528">
        <ele>-7.4000000953674</ele>
        <time>2022-04-17T10:04:26.000Z</time>
      </trkpt>
      <trkpt lat="47.25691" lon="-2.32535">
        <ele>-7</ele>
        <time>2022-04-17T10:04:27.000Z</time>
      </trkpt>
      <trkpt lat="47.25693" lon="-2.32542">
        <ele>-6.5999999046326</ele>
        <time>2022-04-17T10:04:28.000Z</time>
      </trkpt>
      <trkpt lat="47.25695" lon="-2.32549">
        <ele>-6.1999998092651</ele>
        <time>2022-04-17T10:04:29.000Z</time>
      </trkpt>
      <trkpt lat="47.25702" lon="-2.32569">
        <ele>-6.1999998092651</ele>
        <time>2022-04-17T10:04:32.000Z</time>
      </trkpt>
      <trkpt lat="47.25709" lon="-2.32595">
        <ele>-6.1999998092651</ele>
        <time>2022-04-17T10:04:36.000Z</time>
      </trkpt>
      <trkpt lat="47.2571" lon="-2.32603">
        <ele>-6.1999998092651</ele>
        <time>2022-04-17T10:04:37.000Z</time>
      </trkpt>
      <trkpt lat="47.25711" lon="-2.3261">
        <ele>-5.8000001907349</ele>
        <time>2022-04-17T10:04:38.000Z</time>
      </trkpt>
      <trkpt lat="47.2571" lon="-2.32617">
        <ele>-5.1999998092651</ele>
        <time>2022-04-17T10:04:39.000Z</time>
      </trkpt>
      <trkpt lat="47.25707" lon="-2.32623">
        <ele>-4.4000000953674</ele>
        <time>2022-04-17T10:04:40.000Z</time>
      </trkpt>
      <trkpt lat="47.25703" lon="-2.32626">
        <ele>-4</ele>
        <time>2022-04-17T10:04:41.000Z</time>
      </trkpt>
      <trkpt lat="47.25694" lon="-2.32631">
        <ele>-4</ele>
        <time>2022-04-17T10:04:43.000Z</time>
      </trkpt>
      <trkpt lat="47.25689" lon="-2.32633">
        <ele>-4</ele>
        <time>2022-04-17T10:04:44.000Z</time>
      </trkpt>
      <trkpt lat="47.25679" lon="-2.32637">
        <ele>-4</ele>
        <time>2022-04-17T10:04:46.000Z</time>
      </trkpt>
      <trkpt lat="47.25665" lon="-2.32644">
        <ele>-4</ele>
        <time>2022-04-17T10:04:49.000Z</time>
      </trkpt>
      <trkpt lat="47.25661" lon="-2.32646">
        <ele>-3.5999999046326</ele>
        <time>2022-04-17T10:04:50.000Z</time>
      </trkpt>
      <trkpt lat="47.25656" lon="-2.32649">
        <ele>-3.2000000476837</ele>
        <time>2022-04-17T10:04:51.000Z</time>
      </trkpt>
      <trkpt lat="47.25651" lon="-2.32651">
        <ele>-2.5999999046326</ele>
        <time>2022-04-17T10:04:52.000Z</time>
      </trkpt>
      <trkpt lat="47.25647" lon="-2.32653">
        <ele>-2.2000000476837</ele>
        <time>2022-04-17T10:04:53.000Z</time>
      </trkpt>
      <trkpt lat="47.25642" lon="-2.32656">
        <ele>-1.7999999523163</ele>
        <time>2022-04-17T10:04:54.000Z</time>
      </trkpt>
      <trkpt lat="47.25637" lon="-2.32658">
        <ele>-1.7999999523163</ele>
        <time>2022-04-17T10:04:55.000Z</time>
      </trkpt>
      <trkpt lat="47.25611" lon="-2.3267">
        <ele>-1.7999999523163</ele>
        <time>2022-04-17T10:05:01.000Z</time>
      </trkpt>
      <trkpt lat="47.25605" lon="-2.32687">
        <ele>-1.7999999523163</ele>
        <time>2022-04-17T10:05:04.000Z</time>
      </trkpt>
      <trkpt lat="47.25604" lon="-2.32694">
        <ele>-1.7999999523163</ele>
        <time>2022-04-17T10:05:05.000Z</time>
      </trkpt>
      <trkpt lat="47.25603" lon="-2.32713">
        <ele>-1.7999999523163</ele>
        <time>2022-04-17T10:05:08.000Z</time>
      </trkpt>
      <trkpt lat="47.25603" lon="-2.32727">
        <ele>-1.7999999523163</ele>
        <time>2022-04-17T10:05:10.000Z</time>
      </trkpt>
      <trkpt lat="47.25601" lon="-2.32765">
        <ele>-1.7999999523163</ele>
        <time>2022-04-17T10:05:15.000Z</time>
      </trkpt>
      <trkpt lat="47.25599" lon="-2.3278">
        <ele>-1.7999999523163</ele>
        <time>2022-04-17T10:05:17.000Z</time>
      </trkpt>
      <trkpt lat="47.25598" lon="-2.32788">
        <ele>-1.7999999523163</ele>
        <time>2022-04-17T10:05:18.000Z</time>
      </trkpt>
      <trkpt lat="47.25597" lon="-2.32802">
        <ele>-1.7999999523163</ele>
        <time>2022-04-17T10:05:20.000Z</time>
      </trkpt>
      <trkpt lat="47.25594" lon="-2.32817">
        <ele>-1.7999999523163</ele>
        <time>2022-04-17T10:05:22.000Z</time>
      </trkpt>
      <trkpt lat="47.25592" lon="-2.32832">
        <ele>-1.7999999523163</ele>
        <time>2022-04-17T10:05:24.000Z</time>
      </trkpt>
      <trkpt lat="47.25594" lon="-2.32853">
        <ele>-1.7999999523163</ele>
        <time>2022-04-17T10:05:27.000Z</time>
      </trkpt>
      <trkpt lat="47.25595" lon="-2.32867">
        <ele>-1.7999999523163</ele>
        <time>2022-04-17T10:05:29.000Z</time>
      </trkpt>
      <trkpt lat="47.25598" lon="-2.32898">
        <ele>-1.7999999523163</ele>
        <time>2022-04-17T10:05:33.000Z</time>
      </trkpt>
      <trkpt lat="47.25606" lon="-2.32941">
        <ele>-1.7999999523163</ele>
        <time>2022-04-17T10:05:39.000Z</time>
      </trkpt>
      <trkpt lat="47.25616" lon="-2.32993">
        <ele>-1.7999999523163</ele>
        <time>2022-04-17T10:05:46.000Z</time>
      </trkpt>
      <trkpt lat="47.2562" lon="-2.33016">
        <ele>-1.7999999523163</ele>
        <time>2022-04-17T10:05:49.000Z</time>
      </trkpt>
      <trkpt lat="47.25622" lon="-2.33029">
        <ele>-1.7999999523163</ele>
        <time>2022-04-17T10:05:51.000Z</time>
      </trkpt>
      <trkpt lat="47.25618" lon="-2.33034">
        <ele>-1.7999999523163</ele>
        <time>2022-04-17T10:05:53.000Z</time>
      </trkpt>
      <trkpt lat="47.2561" lon="-2.33035">
        <ele>-1.7999999523163</ele>
        <time>2022-04-17T10:05:55.000Z</time>
      </trkpt>
      <trkpt lat="47.25601" lon="-2.33036">
        <ele>-1.7999999523163</ele>
        <time>2022-04-17T10:05:57.000Z</time>
      </trkpt>
      <trkpt lat="47.25568" lon="-2.33041">
        <ele>-1.7999999523163</ele>
        <time>2022-04-17T10:06:03.000Z</time>
      </trkpt>
      <trkpt lat="47.25528" lon="-2.33052">
        <ele>-2.2000000476837</ele>
        <time>2022-04-17T10:06:10.000Z</time>
      </trkpt>
      <trkpt lat="47.25523" lon="-2.33055">
        <ele>-2.5999999046326</ele>
        <time>2022-04-17T10:06:11.000Z</time>
      </trkpt>
      <trkpt lat="47.25518" lon="-2.33059">
        <ele>-3</ele>
        <time>2022-04-17T10:06:12.000Z</time>
      </trkpt>
      <trkpt lat="47.25513" lon="-2.33065">
        <ele>-3.4000000953674</ele>
        <time>2022-04-17T10:06:13.000Z</time>
      </trkpt>
      <trkpt lat="47.25509" lon="-2.33069">
        <ele>-3.7999999523163</ele>
        <time>2022-04-17T10:06:14.000Z</time>
      </trkpt>
      <trkpt lat="47.25505" lon="-2.33075">
        <ele>-3.7999999523163</ele>
        <time>2022-04-17T10:06:15.000Z</time>
      </trkpt>
      <trkpt lat="47.25499" lon="-2.33084">
        <ele>-3.7999999523163</ele>
        <time>2022-04-17T10:06:17.000Z</time>
      </trkpt>
      <trkpt lat="47.25494" lon="-2.33093">
        <ele>-3.7999999523163</ele>
        <time>2022-04-17T10:06:19.000Z</time>
      </trkpt>
      <trkpt lat="47.25482" lon="-2.33099">
        <ele>-3.7999999523163</ele>
        <time>2022-04-17T10:06:22.000Z</time>
      </trkpt>
      <trkpt lat="47.25473" lon="-2.33104">
        <ele>-3.7999999523163</ele>
        <time>2022-04-17T10:06:24.000Z</time>
      </trkpt>
      <trkpt lat="47.25458" lon="-2.33111">
        <ele>-3.7999999523163</ele>
        <time>2022-04-17T10:06:27.000Z</time>
      </trkpt>
      <trkpt lat="47.25427" lon="-2.33122">
        <ele>-3.7999999523163</ele>
        <time>2022-04-17T10:06:33.000Z</time>
      </trkpt>
      <trkpt lat="47.25403" lon="-2.33131">
        <ele>-3.7999999523163</ele>
        <time>2022-04-17T10:06:38.000Z</time>
      </trkpt>
      <trkpt lat="47.25395" lon="-2.33137">
        <ele>-3.7999999523163</ele>
        <time>2022-04-17T10:06:40.000Z</time>
      </trkpt>
      <trkpt lat="47.25388" lon="-2.33143">
        <ele>-3.7999999523163</ele>
        <time>2022-04-17T10:06:42.000Z</time>
      </trkpt>
      <trkpt lat="47.2538" lon="-2.33141">
        <ele>-3.7999999523163</ele>
        <time>2022-04-17T10:06:44.000Z</time>
      </trkpt>
      <trkpt lat="47.25375" lon="-2.33129">
        <ele>-3.7999999523163</ele>
        <time>2022-04-17T10:06:47.000Z</time>
      </trkpt>
      <trkpt lat="47.25374" lon="-2.33122">
        <ele>-3.7999999523163</ele>
        <time>2022-04-17T10:06:51.000Z</time>
      </trkpt>
      <trkpt lat="47.2537" lon="-2.33107">
        <ele>-3.7999999523163</ele>
        <time>2022-04-17T10:22:29.000Z</time>
      </trkpt>
      <trkpt lat="47.25366" lon="-2.33097">
        <ele>-3.7999999523163</ele>
        <time>2022-04-17T10:22:33.000Z</time>
      </trkpt>
      <trkpt lat="47.25358" lon="-2.33074">
        <ele>-3.7999999523163</ele>
        <time>2022-04-17T10:22:38.000Z</time>
      </trkpt>
      <trkpt lat="47.25342" lon="-2.33035">
        <ele>-3.7999999523163</ele>
        <time>2022-04-17T10:22:46.000Z</time>
      </trkpt>
      <trkpt lat="47.25333" lon="-2.33007">
        <ele>-3.7999999523163</ele>
        <time>2022-04-17T10:22:52.000Z</time>
      </trkpt>
      <trkpt lat="47.25321" lon="-2.32975">
        <ele>-3.7999999523163</ele>
        <time>2022-04-17T10:22:58.000Z</time>
      </trkpt>
      <trkpt lat="47.25308" lon="-2.32939">
        <ele>-3.7999999523163</ele>
        <time>2022-04-17T10:23:05.000Z</time>
      </trkpt>
      <trkpt lat="47.25307" lon="-2.32933">
        <ele>-3.7999999523163</ele>
        <time>2022-04-17T10:23:06.000Z</time>
      </trkpt>
      <trkpt lat="47.25308" lon="-2.32917">
        <ele>-3.7999999523163</ele>
        <time>2022-04-17T10:23:09.000Z</time>
      </trkpt>
      <trkpt lat="47.25319" lon="-2.32907">
        <ele>-3.7999999523163</ele>
        <time>2022-04-17T10:23:12.000Z</time>
      </trkpt>
      <trkpt lat="47.25327" lon="-2.32899">
        <ele>-3.7999999523163</ele>
        <time>2022-04-17T10:23:14.000Z</time>
      </trkpt>
      <trkpt lat="47.25347" lon="-2.32882">
        <ele>-3.7999999523163</ele>
        <time>2022-04-17T10:23:19.000Z</time>
      </trkpt>
      <trkpt lat="47.25372" lon="-2.32855">
        <ele>-3.7999999523163</ele>
        <time>2022-04-17T10:23:26.000Z</time>
      </trkpt>
      <trkpt lat="47.25401" lon="-2.32819">
        <ele>-3.7999999523163</ele>
        <time>2022-04-17T10:23:34.000Z</time>
      </trkpt>
      <trkpt lat="47.25418" lon="-2.32797">
        <ele>-3.4000000953674</ele>
        <time>2022-04-17T10:23:39.000Z</time>
      </trkpt>
      <trkpt lat="47.25421" lon="-2.32792">
        <ele>-3</ele>
        <time>2022-04-17T10:23:40.000Z</time>
      </trkpt>
      <trkpt lat="47.25424" lon="-2.32787">
        <ele>-2.5999999046326</ele>
        <time>2022-04-17T10:23:41.000Z</time>
      </trkpt>
      <trkpt lat="47.25426" lon="-2.32781">
        <ele>-2.2000000476837</ele>
        <time>2022-04-17T10:23:42.000Z</time>
      </trkpt>
      <trkpt lat="47.25428" lon="-2.32776">
        <ele>-1.7999999523163</ele>
        <time>2022-04-17T10:23:43.000Z</time>
      </trkpt>
      <trkpt lat="47.25432" lon="-2.32766">
        <ele>-1.7999999523163</ele>
        <time>2022-04-17T10:23:45.000Z</time>
      </trkpt>
      <trkpt lat="47.2544" lon="-2.32757">
        <ele>-1.7999999523163</ele>
        <time>2022-04-17T10:23:47.000Z</time>
      </trkpt>
      <trkpt lat="47.25468" lon="-2.32718">
        <ele>-1.7999999523163</ele>
        <time>2022-04-17T10:23:55.000Z</time>
      </trkpt>
      <trkpt lat="47.25487" lon="-2.32686">
        <ele>-1.7999999523163</ele>
        <time>2022-04-17T10:24:01.000Z</time>
      </trkpt>
      <trkpt lat="47.25488" lon="-2.32672">
        <ele>-1.3999999761581</ele>
        <time>2022-04-17T10:24:03.000Z</time>
      </trkpt>
      <trkpt lat="47.25488" lon="-2.32665">
        <ele>-1</ele>
        <time>2022-04-17T10:24:04.000Z</time>
      </trkpt>
      <trkpt lat="47.25487" lon="-2.32658">
        <ele>-0.60000002384186</ele>
        <time>2022-04-17T10:24:05.000Z</time>
      </trkpt>
      <trkpt lat="47.25487" lon="-2.32651">
        <ele>-0.20000000298023</ele>
        <time>2022-04-17T10:24:06.000Z</time>
      </trkpt>
      <trkpt lat="47.25486" lon="-2.32644">
        <ele>0.20000000298023</ele>
        <time>2022-04-17T10:24:07.000Z</time>
      </trkpt>
      <trkpt lat="47.25481" lon="-2.32624">
        <ele>0.20000000298023</ele>
        <time>2022-04-17T10:24:10.000Z</time>
      </trkpt>
      <trkpt lat="47.25472" lon="-2.32578">
        <ele>0.20000000298023</ele>
        <time>2022-04-17T10:24:17.000Z</time>
      </trkpt>
      <trkpt lat="47.25473" lon="-2.32565">
        <ele>0.20000000298023</ele>
        <time>2022-04-17T10:24:19.000Z</time>
      </trkpt>
      <trkpt lat="47.2548" lon="-2.32557">
        <ele>0.20000000298023</ele>
        <time>2022-04-17T10:24:21.000Z</time>
      </trkpt>
      <trkpt lat="47.25488" lon="-2.32549">
        <ele>0.20000000298023</ele>
        <time>2022-04-17T10:24:23.000Z</time>
      </trkpt>
      <trkpt lat="47.25502" lon="-2.32536">
        <ele>0.20000000298023</ele>
        <time>2022-04-17T10:24:26.000Z</time>
      </trkpt>
      <trkpt lat="47.25506" lon="-2.32532">
        <ele>0.20000000298023</ele>
        <time>2022-04-17T10:24:27.000Z</time>
      </trkpt>
      <trkpt lat="47.25539" lon="-2.32502">
        <ele>0.20000000298023</ele>
        <time>2022-04-17T10:24:33.000Z</time>
      </trkpt>
      <trkpt lat="47.25563" lon="-2.32479">
        <ele>-0.20000000298023</ele>
        <time>2022-04-17T10:24:37.000Z</time>
      </trkpt>
      <trkpt lat="47.25569" lon="-2.32473">
        <ele>-0.80000001192093</ele>
        <time>2022-04-17T10:24:38.000Z</time>
      </trkpt>
      <trkpt lat="47.25576" lon="-2.32466">
        <ele>-1.2000000476837</ele>
        <time>2022-04-17T10:24:39.000Z</time>
      </trkpt>
      <trkpt lat="47.25582" lon="-2.32459">
        <ele>-1.6000000238419</ele>
        <time>2022-04-17T10:24:40.000Z</time>
      </trkpt>
      <trkpt lat="47.25589" lon="-2.32452">
        <ele>-2.2000000476837</ele>
        <time>2022-04-17T10:24:41.000Z</time>
      </trkpt>
      <trkpt lat="47.25616" lon="-2.32423">
        <ele>-2.5999999046326</ele>
        <time>2022-04-17T10:24:45.000Z</time>
      </trkpt>
      <trkpt lat="47.25622" lon="-2.32416">
        <ele>-3</ele>
        <time>2022-04-17T10:24:46.000Z</time>
      </trkpt>
      <trkpt lat="47.25629" lon="-2.32409">
        <ele>-3.4000000953674</ele>
        <time>2022-04-17T10:24:47.000Z</time>
      </trkpt>
      <trkpt lat="47.25636" lon="-2.32404">
        <ele>-3.7999999523163</ele>
        <time>2022-04-17T10:24:48.000Z</time>
      </trkpt>
      <trkpt lat="47.25642" lon="-2.32401">
        <ele>-4.4000000953674</ele>
        <time>2022-04-17T10:24:49.000Z</time>
      </trkpt>
      <trkpt lat="47.25654" lon="-2.32402">
        <ele>-4.4000000953674</ele>
        <time>2022-04-17T10:24:51.000Z</time>
      </trkpt>
      <trkpt lat="47.25664" lon="-2.32404">
        <ele>-4.4000000953674</ele>
        <time>2022-04-17T10:24:53.000Z</time>
      </trkpt>
      <trkpt lat="47.25674" lon="-2.32415">
        <ele>-4.4000000953674</ele>
        <time>2022-04-17T10:24:55.000Z</time>
      </trkpt>
      <trkpt lat="47.25685" lon="-2.32421">
        <ele>-4.8000001907349</ele>
        <time>2022-04-17T10:24:57.000Z</time>
      </trkpt>
      <trkpt lat="47.25691" lon="-2.32421">
        <ele>-5.1999998092651</ele>
        <time>2022-04-17T10:24:58.000Z</time>
      </trkpt>
      <trkpt lat="47.25697" lon="-2.32422">
        <ele>-5.5999999046326</ele>
        <time>2022-04-17T10:24:59.000Z</time>
      </trkpt>
      <trkpt lat="47.25704" lon="-2.32423">
        <ele>-6</ele>
        <time>2022-04-17T10:25:00.000Z</time>
      </trkpt>
      <trkpt lat="47.25711" lon="-2.32424">
        <ele>-6.4000000953674</ele>
        <time>2022-04-17T10:25:01.000Z</time>
      </trkpt>
      <trkpt lat="47.25741" lon="-2.32424">
        <ele>-6.4000000953674</ele>
        <time>2022-04-17T10:25:06.000Z</time>
      </trkpt>
      <trkpt lat="47.25759" lon="-2.32423">
        <ele>-6.4000000953674</ele>
        <time>2022-04-17T10:25:10.000Z</time>
      </trkpt>
      <trkpt lat="47.25775" lon="-2.32414">
        <ele>-6.4000000953674</ele>
        <time>2022-04-17T10:25:17.000Z</time>
      </trkpt>
      <trkpt lat="47.25779" lon="-2.32416">
        <ele>-6.4000000953674</ele>
        <time>2022-04-17T10:25:18.000Z</time>
      </trkpt>
      <trkpt lat="47.25788" lon="-2.32424">
        <ele>-6.4000000953674</ele>
        <time>2022-04-17T10:25:20.000Z</time>
      </trkpt>
      <trkpt lat="47.2579" lon="-2.32432">
        <ele>-6.4000000953674</ele>
        <time>2022-04-17T10:25:21.000Z</time>
      </trkpt>
      <trkpt lat="47.25803" lon="-2.32452">
        <ele>-6.4000000953674</ele>
        <time>2022-04-17T10:25:24.000Z</time>
      </trkpt>
      <trkpt lat="47.25821" lon="-2.32466">
        <ele>-6.4000000953674</ele>
        <time>2022-04-17T10:25:27.000Z</time>
      </trkpt>
      <trkpt lat="47.25834" lon="-2.32473">
        <ele>-6.4000000953674</ele>
        <time>2022-04-17T10:25:29.000Z</time>
      </trkpt>
      <trkpt lat="47.25848" lon="-2.32476">
        <ele>-6.4000000953674</ele>
        <time>2022-04-17T10:25:31.000Z</time>
      </trkpt>
      <trkpt lat="47.2586" lon="-2.32477">
        <ele>-6.4000000953674</ele>
        <time>2022-04-17T10:25:33.000Z</time>
      </trkpt>
      <trkpt lat="47.25894" lon="-2.32467">
        <ele>-6.4000000953674</ele>
        <time>2022-04-17T10:25:39.000Z</time>
      </trkpt>
      <trkpt lat="47.25922" lon="-2.32434">
        <ele>-6.4000000953674</ele>
        <time>2022-04-17T10:25:45.000Z</time>
      </trkpt>
      <trkpt lat="47.25951" lon="-2.32394">
        <ele>-6.4000000953674</ele>
        <time>2022-04-17T10:25:52.000Z</time>
      </trkpt>
      <trkpt lat="47.25973" lon="-2.32365">
        <ele>-6.4000000953674</ele>
        <time>2022-04-17T10:25:58.000Z</time>
      </trkpt>
      <trkpt lat="47.26007" lon="-2.32322">
        <ele>-6.4000000953674</ele>
        <time>2022-04-17T10:26:07.000Z</time>
      </trkpt>
      <trkpt lat="47.2603" lon="-2.32295">
        <ele>-6.4000000953674</ele>
        <time>2022-04-17T10:26:13.000Z</time>
      </trkpt>
      <trkpt lat="47.26052" lon="-2.32269">
        <ele>-6.4000000953674</ele>
        <time>2022-04-17T10:26:19.000Z</time>
      </trkpt>
      <trkpt lat="47.2608" lon="-2.32236">
        <ele>-6.4000000953674</ele>
        <time>2022-04-17T10:26:26.000Z</time>
      </trkpt>
      <trkpt lat="47.26105" lon="-2.32196">
        <ele>-6.4000000953674</ele>
        <time>2022-04-17T10:26:33.000Z</time>
      </trkpt>
      <trkpt lat="47.2612" lon="-2.32156">
        <ele>-6.4000000953674</ele>
        <time>2022-04-17T10:26:39.000Z</time>
      </trkpt>
      <trkpt lat="47.26134" lon="-2.32109">
        <ele>-6.4000000953674</ele>
        <time>2022-04-17T10:26:46.000Z</time>
      </trkpt>
      <trkpt lat="47.26147" lon="-2.32061">
        <ele>-6.4000000953674</ele>
        <time>2022-04-17T10:26:53.000Z</time>
      </trkpt>
      <trkpt lat="47.26155" lon="-2.32034">
        <ele>-6.4000000953674</ele>
        <time>2022-04-17T10:26:57.000Z</time>
      </trkpt>
      <trkpt lat="47.26161" lon="-2.32024">
        <ele>-6.4000000953674</ele>
        <time>2022-04-17T10:26:59.000Z</time>
      </trkpt>
      <trkpt lat="47.26172" lon="-2.32019">
        <ele>-6.4000000953674</ele>
        <time>2022-04-17T10:27:02.000Z</time>
      </trkpt>
      <trkpt lat="47.26176" lon="-2.3202">
        <ele>-6.4000000953674</ele>
        <time>2022-04-17T10:27:03.000Z</time>
      </trkpt>
      <trkpt lat="47.26191" lon="-2.32023">
        <ele>-6.4000000953674</ele>
        <time>2022-04-17T10:27:08.000Z</time>
      </trkpt>
      <trkpt lat="47.26195" lon="-2.32023">
        <ele>-6.4000000953674</ele>
        <time>2022-04-17T10:27:10.000Z</time>
      </trkpt>
      <trkpt lat="47.26198" lon="-2.32019">
        <ele>-6.4000000953674</ele>
        <time>2022-04-17T10:27:12.000Z</time>
      </trkpt>
      <trkpt lat="47.26206" lon="-2.32004">
        <ele>-6.4000000953674</ele>
        <time>2022-04-17T10:27:17.000Z</time>
      </trkpt>
      <trkpt lat="47.2622" lon="-2.31986">
        <ele>-6.4000000953674</ele>
        <time>2022-04-17T10:27:23.000Z</time>
      </trkpt>
      <trkpt lat="47.26234" lon="-2.3198">
        <ele>-6.4000000953674</ele>
        <time>2022-04-17T10:27:27.000Z</time>
      </trkpt>
      <trkpt lat="47.26236" lon="-2.31977">
        <ele>-6.4000000953674</ele>
        <time>2022-04-17T10:27:28.000Z</time>
      </trkpt>
      <trkpt lat="47.26239" lon="-2.31967">
        <ele>-6.4000000953674</ele>
        <time>2022-04-17T10:27:30.000Z</time>
      </trkpt>
      <trkpt lat="47.26244" lon="-2.31954">
        <ele>-6.4000000953674</ele>
        <time>2022-04-17T10:27:33.000Z</time>
      </trkpt>
      <trkpt lat="47.26248" lon="-2.31947">
        <ele>-6.4000000953674</ele>
        <time>2022-04-17T10:27:35.000Z</time>
      </trkpt>
      <trkpt lat="47.26262" lon="-2.31927">
        <ele>-6.4000000953674</ele>
        <time>2022-04-17T10:27:40.000Z</time>
      </trkpt>
      <trkpt lat="47.26266" lon="-2.31921">
        <ele>-6.4000000953674</ele>
        <time>2022-04-17T10:27:41.000Z</time>
      </trkpt>
      <trkpt lat="47.26281" lon="-2.31906">
        <ele>-6.4000000953674</ele>
        <time>2022-04-17T10:27:45.000Z</time>
      </trkpt>
      <trkpt lat="47.26296" lon="-2.31889">
        <ele>-6.4000000953674</ele>
        <time>2022-04-17T10:27:50.000Z</time>
      </trkpt>
      <trkpt lat="47.26297" lon="-2.31883">
        <ele>-6.4000000953674</ele>
        <time>2022-04-17T10:27:51.000Z</time>
      </trkpt>
      <trkpt lat="47.26298" lon="-2.31866">
        <ele>-6.4000000953674</ele>
        <time>2022-04-17T10:27:54.000Z</time>
      </trkpt>
      <trkpt lat="47.26302" lon="-2.31831">
        <ele>-6.4000000953674</ele>
        <time>2022-04-17T10:28:00.000Z</time>
      </trkpt>
      <trkpt lat="47.26303" lon="-2.31793">
        <ele>-6.4000000953674</ele>
        <time>2022-04-17T10:28:06.000Z</time>
      </trkpt>
      <trkpt lat="47.26304" lon="-2.31752">
        <ele>-6.4000000953674</ele>
        <time>2022-04-17T10:28:13.000Z</time>
      </trkpt>
      <trkpt lat="47.26307" lon="-2.31725">
        <ele>-6.4000000953674</ele>
        <time>2022-04-17T10:28:17.000Z</time>
      </trkpt>
      <trkpt lat="47.2631" lon="-2.3172">
        <ele>-6.4000000953674</ele>
        <time>2022-04-17T10:28:18.000Z</time>
      </trkpt>
      <trkpt lat="47.26322" lon="-2.31712">
        <ele>-6.4000000953674</ele>
        <time>2022-04-17T10:28:21.000Z</time>
      </trkpt>
      <trkpt lat="47.26325" lon="-2.31709">
        <ele>-6.4000000953674</ele>
        <time>2022-04-17T10:28:22.000Z</time>
      </trkpt>
      <trkpt lat="47.26336" lon="-2.31696">
        <ele>-6.4000000953674</ele>
        <time>2022-04-17T10:28:26.000Z</time>
      </trkpt>
      <trkpt lat="47.26345" lon="-2.31685">
        <ele>-6.4000000953674</ele>
        <time>2022-04-17T10:28:30.000Z</time>
      </trkpt>
      <trkpt lat="47.26356" lon="-2.3168">
        <ele>-6</ele>
        <time>2022-04-17T10:28:34.000Z</time>
      </trkpt>
      <trkpt lat="47.26358" lon="-2.31679">
        <ele>-5</ele>
        <time>2022-04-17T10:28:35.000Z</time>
      </trkpt>
      <trkpt lat="47.26361" lon="-2.31678">
        <ele>-4.5999999046326</ele>
        <time>2022-04-17T10:28:36.000Z</time>
      </trkpt>
      <trkpt lat="47.26364" lon="-2.31677">
        <ele>-4.1999998092651</ele>
        <time>2022-04-17T10:28:37.000Z</time>
      </trkpt>
      <trkpt lat="47.26372" lon="-2.31673">
        <ele>-4.1999998092651</ele>
        <time>2022-04-17T10:28:40.000Z</time>
      </trkpt>
      <trkpt lat="47.26381" lon="-2.31667">
        <ele>-4.1999998092651</ele>
        <time>2022-04-17T10:28:45.000Z</time>
      </trkpt>
      <trkpt lat="47.26396" lon="-2.3166">
        <ele>-4.1999998092651</ele>
        <time>2022-04-17T10:28:50.000Z</time>
      </trkpt>
      <trkpt lat="47.2641" lon="-2.31647">
        <ele>-4.1999998092651</ele>
        <time>2022-04-17T10:28:55.000Z</time>
      </trkpt>
      <trkpt lat="47.26411" lon="-2.31625">
        <ele>-4.1999998092651</ele>
        <time>2022-04-17T10:29:00.000Z</time>
      </trkpt>
      <trkpt lat="47.26411" lon="-2.31615">
        <ele>-3.7999999523163</ele>
        <time>2022-04-17T10:29:02.000Z</time>
      </trkpt>
      <trkpt lat="47.26412" lon="-2.3161">
        <ele>-3.4000000953674</ele>
        <time>2022-04-17T10:29:03.000Z</time>
      </trkpt>
      <trkpt lat="47.26412" lon="-2.31605">
        <ele>-3</ele>
        <time>2022-04-17T10:29:04.000Z</time>
      </trkpt>
      <trkpt lat="47.26411" lon="-2.31601">
        <ele>-2.5999999046326</ele>
        <time>2022-04-17T10:29:05.000Z</time>
      </trkpt>
      <trkpt lat="47.26412" lon="-2.31596">
        <ele>-2.2000000476837</ele>
        <time>2022-04-17T10:29:06.000Z</time>
      </trkpt>
      <trkpt lat="47.26411" lon="-2.31581">
        <ele>-2.2000000476837</ele>
        <time>2022-04-17T10:29:09.000Z</time>
      </trkpt>
      <trkpt lat="47.26411" lon="-2.31572">
        <ele>-2.2000000476837</ele>
        <time>2022-04-17T10:29:11.000Z</time>
      </trkpt>
      <trkpt lat="47.26412" lon="-2.31552">
        <ele>-2.2000000476837</ele>
        <time>2022-04-17T10:29:16.000Z</time>
      </trkpt>
      <trkpt lat="47.26417" lon="-2.31552">
        <ele>-2.2000000476837</ele>
        <time>2022-04-17T10:29:19.000Z</time>
      </trkpt>
      <trkpt lat="47.26417" lon="-2.31553">
        <ele>-2.2000000476837</ele>
        <time>2022-04-17T10:29:21.000Z</time>
      </trkpt>
    </trkseg>
  </trk>
</gpx>